<?xml version="1.0" encoding="utf-8"?>
<gpx xmlns:tc2="http://www.garmin.com/xmlschemas/TrainingCenterDatabase/v2" xmlns:xsi="http://www.w3.org/2001/XMLSchema-instance" xmlns:tp1="http://www.garmin.com/xmlschemas/TrackPointExtension/v1" xmlns="http://www.topografix.com/GPX/1/1" version="1.1" creator="TC2 to GPX11 XSLT stylesheet" xsi:schemaLocation="http://www.topografix.com/GPX/1/1 http://www.topografix.com/GPX/1/1/gpx.xsd http://www.garmin.com/xmlschemas/TrackPointExtension/v1 http://www.garmin.com/xmlschemas/TrackPointExtensionv1.xsd">
<trk>
<name>58_Trebbio</name>
<trkseg>
<trkpt lat="43.9692600" lon="12.7265880">
<ele>41.8500000</ele>
<time>2010-05-14T08:31:58Z</time>
<extensions>
<tp1:TrackPointExtension>
<tp1:hr>90</tp1:hr>
</tp1:TrackPointExtension>
</extensions>
</trkpt>
<trkpt lat="43.9692570" lon="12.7265980">
<ele>42.1950000</ele>
<time>2010-05-14T08:32:05Z</time>
<extensions>
<tp1:TrackPointExtension>
<tp1:hr>94</tp1:hr>
</tp1:TrackPointExtension>
</extensions>
</trkpt>
<trkpt lat="43.9692600" lon="12.7265880">
<ele>41.0100000</ele>
<time>2010-05-14T08:32:10Z</time>
<extensions>
<tp1:TrackPointExtension>
<tp1:hr>94</tp1:hr>
</tp1:TrackPointExtension>
</extensions>
</trkpt>
<trkpt lat="43.9692600" lon="12.7265880">
<ele>40.8450000</ele>
<time>2010-05-14T08:32:17Z</time>
<extensions>
<tp1:TrackPointExtension>
<tp1:hr>96</tp1:hr>
</tp1:TrackPointExtension>
</extensions>
</trkpt>
<trkpt lat="43.9682270" lon="12.7265720">
<ele>41.6540000</ele>
<time>2010-05-14T08:32:25Z</time>
<extensions>
<tp1:TrackPointExtension>
<tp1:hr>100</tp1:hr>
</tp1:TrackPointExtension>
</extensions>
</trkpt>
<trkpt lat="43.9680580" lon="12.7264600">
<ele>41.9730000</ele>
<time>2010-05-14T08:32:30Z</time>
<extensions>
<tp1:TrackPointExtension>
<tp1:hr>104</tp1:hr>
</tp1:TrackPointExtension>
</extensions>
</trkpt>
<trkpt lat="43.9677580" lon="12.7256010">
<ele>42.0250000</ele>
<time>2010-05-14T08:32:38Z</time>
<extensions>
<tp1:TrackPointExtension>
<tp1:hr>104</tp1:hr>
</tp1:TrackPointExtension>
</extensions>
</trkpt>
<trkpt lat="43.9676310" lon="12.7255590">
<ele>41.1760000</ele>
<time>2010-05-14T08:32:44Z</time>
<extensions>
<tp1:TrackPointExtension>
<tp1:hr>103</tp1:hr>
</tp1:TrackPointExtension>
</extensions>
</trkpt>
<trkpt lat="43.9675000" lon="12.7255160">
<ele>40.6930000</ele>
<time>2010-05-14T08:32:48Z</time>
<extensions>
<tp1:TrackPointExtension>
<tp1:hr>102</tp1:hr>
</tp1:TrackPointExtension>
</extensions>
</trkpt>
<trkpt lat="43.9674670" lon="12.7252510">
<ele>40.6150000</ele>
<time>2010-05-14T08:32:51Z</time>
<extensions>
<tp1:TrackPointExtension>
<tp1:hr>102</tp1:hr>
</tp1:TrackPointExtension>
</extensions>
</trkpt>
<trkpt lat="43.9675260" lon="12.7248080">
<ele>40.3850000</ele>
<time>2010-05-14T08:32:56Z</time>
<extensions>
<tp1:TrackPointExtension>
<tp1:hr>102</tp1:hr>
</tp1:TrackPointExtension>
</extensions>
</trkpt>
<trkpt lat="43.9676690" lon="12.7243400">
<ele>40.4450000</ele>
<time>2010-05-14T08:33:02Z</time>
<extensions>
<tp1:TrackPointExtension>
<tp1:hr>104</tp1:hr>
</tp1:TrackPointExtension>
</extensions>
</trkpt>
<trkpt lat="43.9678220" lon="12.7238380">
<ele>40.6080000</ele>
<time>2010-05-14T08:33:08Z</time>
<extensions>
<tp1:TrackPointExtension>
<tp1:hr>106</tp1:hr>
</tp1:TrackPointExtension>
</extensions>
</trkpt>
<trkpt lat="43.9679620" lon="12.7234150">
<ele>40.5300000</ele>
<time>2010-05-14T08:33:13Z</time>
<extensions>
<tp1:TrackPointExtension>
<tp1:hr>107</tp1:hr>
</tp1:TrackPointExtension>
</extensions>
</trkpt>
<trkpt lat="43.9680250" lon="12.7232400">
<ele>40.2880000</ele>
<time>2010-05-14T08:33:15Z</time>
<extensions>
<tp1:TrackPointExtension>
<tp1:hr>107</tp1:hr>
</tp1:TrackPointExtension>
</extensions>
</trkpt>
<trkpt lat="43.9681010" lon="12.7230260">
<ele>40.4510000</ele>
<time>2010-05-14T08:33:19Z</time>
<extensions>
<tp1:TrackPointExtension>
<tp1:hr>106</tp1:hr>
</tp1:TrackPointExtension>
</extensions>
</trkpt>
<trkpt lat="43.9682300" lon="12.7228120">
<ele>40.1920000</ele>
<time>2010-05-14T08:33:22Z</time>
<extensions>
<tp1:TrackPointExtension>
<tp1:hr>106</tp1:hr>
</tp1:TrackPointExtension>
</extensions>
</trkpt>
<trkpt lat="43.9683850" lon="12.7222530">
<ele>40.1570000</ele>
<time>2010-05-14T08:33:27Z</time>
<extensions>
<tp1:TrackPointExtension>
<tp1:hr>106</tp1:hr>
</tp1:TrackPointExtension>
</extensions>
</trkpt>
<trkpt lat="43.9685760" lon="12.7217570">
<ele>40.3500000</ele>
<time>2010-05-14T08:33:33Z</time>
<extensions>
<tp1:TrackPointExtension>
<tp1:hr>107</tp1:hr>
</tp1:TrackPointExtension>
</extensions>
</trkpt>
<trkpt lat="43.9686250" lon="12.7216220">
<ele>40.8480000</ele>
<time>2010-05-14T08:33:35Z</time>
<extensions>
<tp1:TrackPointExtension>
<tp1:hr>107</tp1:hr>
</tp1:TrackPointExtension>
</extensions>
</trkpt>
<trkpt lat="43.9686360" lon="12.7215820">
<ele>40.7980000</ele>
<time>2010-05-14T08:33:36Z</time>
<extensions>
<tp1:TrackPointExtension>
<tp1:hr>107</tp1:hr>
</tp1:TrackPointExtension>
</extensions>
</trkpt>
<trkpt lat="43.9686420" lon="12.7215610">
<ele>40.8810000</ele>
<time>2010-05-14T08:33:37Z</time>
<extensions>
<tp1:TrackPointExtension>
<tp1:hr>107</tp1:hr>
</tp1:TrackPointExtension>
</extensions>
</trkpt>
</trkseg>
<trkseg>
<trkpt lat="43.9686420" lon="12.7215610">
<ele>40.5940000</ele>
<time>2010-05-14T08:33:41Z</time>
<extensions>
<tp1:TrackPointExtension>
<tp1:hr>107</tp1:hr>
</tp1:TrackPointExtension>
</extensions>
</trkpt>
<trkpt lat="43.9685890" lon="12.7217240">
<ele>40.1620000</ele>
<time>2010-05-14T08:33:46Z</time>
<extensions>
<tp1:TrackPointExtension>
<tp1:hr>106</tp1:hr>
</tp1:TrackPointExtension>
</extensions>
</trkpt>
<trkpt lat="43.9685130" lon="12.7219210">
<ele>40.0700000</ele>
<time>2010-05-14T08:33:50Z</time>
<extensions>
<tp1:TrackPointExtension>
<tp1:hr>106</tp1:hr>
</tp1:TrackPointExtension>
</extensions>
</trkpt>
<trkpt lat="43.9684630" lon="12.7220520">
<ele>39.7920000</ele>
<time>2010-05-14T08:33:55Z</time>
<extensions>
<tp1:TrackPointExtension>
<tp1:hr>106</tp1:hr>
</tp1:TrackPointExtension>
</extensions>
</trkpt>
<trkpt lat="43.9684460" lon="12.7220940">
<ele>39.6350000</ele>
<time>2010-05-14T08:33:56Z</time>
<extensions>
<tp1:TrackPointExtension>
<tp1:hr>106</tp1:hr>
</tp1:TrackPointExtension>
</extensions>
</trkpt>
<trkpt lat="43.9682740" lon="12.7225430">
<ele>39.2890000</ele>
<time>2010-05-14T08:34:04Z</time>
<extensions>
<tp1:TrackPointExtension>
<tp1:hr>107</tp1:hr>
</tp1:TrackPointExtension>
</extensions>
</trkpt>
<trkpt lat="43.9682530" lon="12.7225970">
<ele>39.3250000</ele>
<time>2010-05-14T08:34:05Z</time>
<extensions>
<tp1:TrackPointExtension>
<tp1:hr>107</tp1:hr>
</tp1:TrackPointExtension>
</extensions>
</trkpt>
<trkpt lat="43.9681870" lon="12.7227690">
<ele>39.0530000</ele>
<time>2010-05-14T08:34:10Z</time>
<extensions>
<tp1:TrackPointExtension>
<tp1:hr>106</tp1:hr>
</tp1:TrackPointExtension>
</extensions>
</trkpt>
<trkpt lat="43.9679520" lon="12.7226380">
<ele>38.6450000</ele>
<time>2010-05-14T08:34:14Z</time>
<extensions>
<tp1:TrackPointExtension>
<tp1:hr>106</tp1:hr>
</tp1:TrackPointExtension>
</extensions>
</trkpt>
<trkpt lat="43.9678340" lon="12.7224450">
<ele>38.1810000</ele>
<time>2010-05-14T08:34:18Z</time>
<extensions>
<tp1:TrackPointExtension>
<tp1:hr>105</tp1:hr>
</tp1:TrackPointExtension>
</extensions>
</trkpt>
<trkpt lat="43.9675980" lon="12.7220590">
<ele>37.6490000</ele>
<time>2010-05-14T08:34:25Z</time>
<extensions>
<tp1:TrackPointExtension>
<tp1:hr>105</tp1:hr>
</tp1:TrackPointExtension>
</extensions>
</trkpt>
<trkpt lat="43.9674790" lon="12.7219790">
<ele>37.0300000</ele>
<time>2010-05-14T08:34:27Z</time>
<extensions>
<tp1:TrackPointExtension>
<tp1:hr>106</tp1:hr>
</tp1:TrackPointExtension>
</extensions>
</trkpt>
<trkpt lat="43.9671880" lon="12.7218150">
<ele>37.2750000</ele>
<time>2010-05-14T08:34:32Z</time>
<extensions>
<tp1:TrackPointExtension>
<tp1:hr>106</tp1:hr>
</tp1:TrackPointExtension>
</extensions>
</trkpt>
<trkpt lat="43.9669930" lon="12.7217060">
<ele>36.5700000</ele>
<time>2010-05-14T08:34:36Z</time>
<extensions>
<tp1:TrackPointExtension>
<tp1:hr>106</tp1:hr>
</tp1:TrackPointExtension>
</extensions>
</trkpt>
<trkpt lat="43.9665830" lon="12.7214630">
<ele>36.9790000</ele>
<time>2010-05-14T08:34:44Z</time>
<extensions>
<tp1:TrackPointExtension>
<tp1:hr>107</tp1:hr>
</tp1:TrackPointExtension>
</extensions>
</trkpt>
<trkpt lat="43.9660970" lon="12.7211710">
<ele>36.3540000</ele>
<time>2010-05-14T08:34:53Z</time>
<extensions>
<tp1:TrackPointExtension>
<tp1:hr>110</tp1:hr>
</tp1:TrackPointExtension>
</extensions>
</trkpt>
<trkpt lat="43.9657190" lon="12.7209450">
<ele>37.1010000</ele>
<time>2010-05-14T08:35:01Z</time>
<extensions>
<tp1:TrackPointExtension>
<tp1:hr>111</tp1:hr>
</tp1:TrackPointExtension>
</extensions>
</trkpt>
<trkpt lat="43.9655350" lon="12.7208340">
<ele>37.1880000</ele>
<time>2010-05-14T08:35:06Z</time>
<extensions>
<tp1:TrackPointExtension>
<tp1:hr>110</tp1:hr>
</tp1:TrackPointExtension>
</extensions>
</trkpt>
<trkpt lat="43.9655100" lon="12.7208190">
<ele>37.3380000</ele>
<time>2010-05-14T08:35:07Z</time>
<extensions>
<tp1:TrackPointExtension>
<tp1:hr>109</tp1:hr>
</tp1:TrackPointExtension>
</extensions>
</trkpt>
<trkpt lat="43.9653970" lon="12.7207520">
<ele>37.1580000</ele>
<time>2010-05-14T08:35:11Z</time>
<extensions>
<tp1:TrackPointExtension>
<tp1:hr>109</tp1:hr>
</tp1:TrackPointExtension>
</extensions>
</trkpt>
<trkpt lat="43.9654530" lon="12.7202510">
<ele>37.1720000</ele>
<time>2010-05-14T08:35:17Z</time>
<extensions>
<tp1:TrackPointExtension>
<tp1:hr>109</tp1:hr>
</tp1:TrackPointExtension>
</extensions>
</trkpt>
<trkpt lat="43.9654700" lon="12.7200950">
<ele>37.0870000</ele>
<time>2010-05-14T08:35:19Z</time>
<extensions>
<tp1:TrackPointExtension>
<tp1:hr>110</tp1:hr>
</tp1:TrackPointExtension>
</extensions>
</trkpt>
<trkpt lat="43.9654200" lon="12.7195550">
<ele>36.4730000</ele>
<time>2010-05-14T08:35:26Z</time>
<extensions>
<tp1:TrackPointExtension>
<tp1:hr>111</tp1:hr>
</tp1:TrackPointExtension>
</extensions>
</trkpt>
<trkpt lat="43.9652280" lon="12.7188080">
<ele>36.6150000</ele>
<time>2010-05-14T08:35:35Z</time>
<extensions>
<tp1:TrackPointExtension>
<tp1:hr>114</tp1:hr>
</tp1:TrackPointExtension>
</extensions>
</trkpt>
<trkpt lat="43.9650100" lon="12.7179530">
<ele>36.9110000</ele>
<time>2010-05-14T08:35:46Z</time>
<extensions>
<tp1:TrackPointExtension>
<tp1:hr>116</tp1:hr>
</tp1:TrackPointExtension>
</extensions>
</trkpt>
<trkpt lat="43.9647760" lon="12.7171250">
<ele>35.5140000</ele>
<time>2010-05-14T08:35:55Z</time>
<extensions>
<tp1:TrackPointExtension>
<tp1:hr>117</tp1:hr>
</tp1:TrackPointExtension>
</extensions>
</trkpt>
<trkpt lat="43.9646390" lon="12.7166520">
<ele>36.3650000</ele>
<time>2010-05-14T08:36:02Z</time>
<extensions>
<tp1:TrackPointExtension>
<tp1:hr>117</tp1:hr>
</tp1:TrackPointExtension>
</extensions>
</trkpt>
<trkpt lat="43.9644690" lon="12.7160620">
<ele>37.6340000</ele>
<time>2010-05-14T08:36:11Z</time>
<extensions>
<tp1:TrackPointExtension>
<tp1:hr>118</tp1:hr>
</tp1:TrackPointExtension>
</extensions>
</trkpt>
<trkpt lat="43.9642240" lon="12.7154560">
<ele>38.7410000</ele>
<time>2010-05-14T08:36:21Z</time>
<extensions>
<tp1:TrackPointExtension>
<tp1:hr>119</tp1:hr>
</tp1:TrackPointExtension>
</extensions>
</trkpt>
<trkpt lat="43.9639740" lon="12.7149890">
<ele>39.5920000</ele>
<time>2010-05-14T08:36:29Z</time>
<extensions>
<tp1:TrackPointExtension>
<tp1:hr>122</tp1:hr>
</tp1:TrackPointExtension>
</extensions>
</trkpt>
<trkpt lat="43.9638720" lon="12.7148110">
<ele>39.6430000</ele>
<time>2010-05-14T08:36:32Z</time>
<extensions>
<tp1:TrackPointExtension>
<tp1:hr>123</tp1:hr>
</tp1:TrackPointExtension>
</extensions>
</trkpt>
<trkpt lat="43.9637790" lon="12.7146090">
<ele>40.6670000</ele>
<time>2010-05-14T08:36:35Z</time>
<extensions>
<tp1:TrackPointExtension>
<tp1:hr>124</tp1:hr>
</tp1:TrackPointExtension>
</extensions>
</trkpt>
<trkpt lat="43.9637420" lon="12.7143770">
<ele>40.8700000</ele>
<time>2010-05-14T08:36:38Z</time>
<extensions>
<tp1:TrackPointExtension>
<tp1:hr>124</tp1:hr>
</tp1:TrackPointExtension>
</extensions>
</trkpt>
<trkpt lat="43.9636870" lon="12.7139360">
<ele>41.5330000</ele>
<time>2010-05-14T08:36:44Z</time>
<extensions>
<tp1:TrackPointExtension>
<tp1:hr>125</tp1:hr>
</tp1:TrackPointExtension>
</extensions>
</trkpt>
<trkpt lat="43.9637400" lon="12.7137290">
<ele>42.0130000</ele>
<time>2010-05-14T08:36:46Z</time>
<extensions>
<tp1:TrackPointExtension>
<tp1:hr>125</tp1:hr>
</tp1:TrackPointExtension>
</extensions>
</trkpt>
<trkpt lat="43.9639750" lon="12.7133410">
<ele>42.4450000</ele>
<time>2010-05-14T08:36:52Z</time>
<extensions>
<tp1:TrackPointExtension>
<tp1:hr>126</tp1:hr>
</tp1:TrackPointExtension>
</extensions>
</trkpt>
<trkpt lat="43.9640760" lon="12.7132610">
<ele>42.4670000</ele>
<time>2010-05-14T08:36:54Z</time>
<extensions>
<tp1:TrackPointExtension>
<tp1:hr>126</tp1:hr>
</tp1:TrackPointExtension>
</extensions>
</trkpt>
<trkpt lat="43.9646680" lon="12.7129410">
<ele>42.7410000</ele>
<time>2010-05-14T08:37:05Z</time>
<extensions>
<tp1:TrackPointExtension>
<tp1:hr>126</tp1:hr>
</tp1:TrackPointExtension>
</extensions>
</trkpt>
<trkpt lat="43.9652070" lon="12.7126380">
<ele>41.9620000</ele>
<time>2010-05-14T08:37:15Z</time>
<extensions>
<tp1:TrackPointExtension>
<tp1:hr>125</tp1:hr>
</tp1:TrackPointExtension>
</extensions>
</trkpt>
<trkpt lat="43.9654330" lon="12.7125160">
<ele>41.6290000</ele>
<time>2010-05-14T08:37:20Z</time>
<extensions>
<tp1:TrackPointExtension>
<tp1:hr>123</tp1:hr>
</tp1:TrackPointExtension>
</extensions>
</trkpt>
<trkpt lat="43.9655160" lon="12.7124750">
<ele>41.3580000</ele>
<time>2010-05-14T08:37:24Z</time>
<extensions>
<tp1:TrackPointExtension>
<tp1:hr>122</tp1:hr>
</tp1:TrackPointExtension>
</extensions>
</trkpt>
<trkpt lat="43.9653540" lon="12.7125550">
<ele>41.2440000</ele>
<time>2010-05-14T08:37:26Z</time>
<extensions>
<tp1:TrackPointExtension>
<tp1:hr>120</tp1:hr>
</tp1:TrackPointExtension>
</extensions>
</trkpt>
</trkseg>
<trkseg>
<trkpt lat="43.9653540" lon="12.7125550">
<ele>41.3070000</ele>
<time>2010-05-14T08:37:38Z</time>
<extensions>
<tp1:TrackPointExtension>
<tp1:hr>113</tp1:hr>
</tp1:TrackPointExtension>
</extensions>
</trkpt>
<trkpt lat="43.9653540" lon="12.7125550">
<ele>41.2590000</ele>
<time>2010-05-14T08:37:39Z</time>
<extensions>
<tp1:TrackPointExtension>
<tp1:hr>113</tp1:hr>
</tp1:TrackPointExtension>
</extensions>
</trkpt>
<trkpt lat="43.9654770" lon="12.7124940">
<ele>41.2460000</ele>
<time>2010-05-14T08:37:43Z</time>
<extensions>
<tp1:TrackPointExtension>
<tp1:hr>113</tp1:hr>
</tp1:TrackPointExtension>
</extensions>
</trkpt>
<trkpt lat="43.9653950" lon="12.7125350">
<ele>40.6360000</ele>
<time>2010-05-14T08:37:47Z</time>
<extensions>
<tp1:TrackPointExtension>
<tp1:hr>113</tp1:hr>
</tp1:TrackPointExtension>
</extensions>
</trkpt>
<trkpt lat="43.9651660" lon="12.7120850">
<ele>39.4570000</ele>
<time>2010-05-14T08:37:52Z</time>
<extensions>
<tp1:TrackPointExtension>
<tp1:hr>115</tp1:hr>
</tp1:TrackPointExtension>
</extensions>
</trkpt>
<trkpt lat="43.9650040" lon="12.7116780">
<ele>37.2540000</ele>
<time>2010-05-14T08:37:57Z</time>
<extensions>
<tp1:TrackPointExtension>
<tp1:hr>114</tp1:hr>
</tp1:TrackPointExtension>
</extensions>
</trkpt>
<trkpt lat="43.9648240" lon="12.7112230">
<ele>37.0680000</ele>
<time>2010-05-14T08:38:02Z</time>
<extensions>
<tp1:TrackPointExtension>
<tp1:hr>114</tp1:hr>
</tp1:TrackPointExtension>
</extensions>
</trkpt>
<trkpt lat="43.9646730" lon="12.7107670">
<ele>38.7250000</ele>
<time>2010-05-14T08:38:08Z</time>
<extensions>
<tp1:TrackPointExtension>
<tp1:hr>115</tp1:hr>
</tp1:TrackPointExtension>
</extensions>
</trkpt>
<trkpt lat="43.9645150" lon="12.7102940">
<ele>38.9740000</ele>
<time>2010-05-14T08:38:14Z</time>
<extensions>
<tp1:TrackPointExtension>
<tp1:hr>119</tp1:hr>
</tp1:TrackPointExtension>
</extensions>
</trkpt>
<trkpt lat="43.9645150" lon="12.7102940">
<ele>38.9740000</ele>
<time>2010-05-14T08:38:15Z</time>
<extensions>
<tp1:TrackPointExtension>
<tp1:hr>119</tp1:hr>
</tp1:TrackPointExtension>
</extensions>
</trkpt>
<trkpt lat="43.9644220" lon="12.7095340">
<ele>38.5770000</ele>
<time>2010-05-14T08:38:22Z</time>
<extensions>
<tp1:TrackPointExtension>
<tp1:hr>119</tp1:hr>
</tp1:TrackPointExtension>
</extensions>
</trkpt>
<trkpt lat="43.9645050" lon="12.7084810">
<ele>38.0680000</ele>
<time>2010-05-14T08:38:32Z</time>
<extensions>
<tp1:TrackPointExtension>
<tp1:hr>120</tp1:hr>
</tp1:TrackPointExtension>
</extensions>
</trkpt>
<trkpt lat="43.9645940" lon="12.7073680">
<ele>38.8690000</ele>
<time>2010-05-14T08:38:43Z</time>
<extensions>
<tp1:TrackPointExtension>
<tp1:hr>117</tp1:hr>
</tp1:TrackPointExtension>
</extensions>
</trkpt>
<trkpt lat="43.9646230" lon="12.7070000">
<ele>39.6260000</ele>
<time>2010-05-14T08:38:47Z</time>
<extensions>
<tp1:TrackPointExtension>
<tp1:hr>118</tp1:hr>
</tp1:TrackPointExtension>
</extensions>
</trkpt>
<trkpt lat="43.9645500" lon="12.7064350">
<ele>40.7450000</ele>
<time>2010-05-14T08:38:54Z</time>
<extensions>
<tp1:TrackPointExtension>
<tp1:hr>119</tp1:hr>
</tp1:TrackPointExtension>
</extensions>
</trkpt>
<trkpt lat="43.9644500" lon="12.7059470">
<ele>40.2630000</ele>
<time>2010-05-14T08:39:00Z</time>
<extensions>
<tp1:TrackPointExtension>
<tp1:hr>122</tp1:hr>
</tp1:TrackPointExtension>
</extensions>
</trkpt>
<trkpt lat="43.9643340" lon="12.7053790">
<ele>40.2920000</ele>
<time>2010-05-14T08:39:07Z</time>
<extensions>
<tp1:TrackPointExtension>
<tp1:hr>121</tp1:hr>
</tp1:TrackPointExtension>
</extensions>
</trkpt>
<trkpt lat="43.9642980" lon="12.7052070">
<ele>40.6420000</ele>
<time>2010-05-14T08:39:09Z</time>
<extensions>
<tp1:TrackPointExtension>
<tp1:hr>121</tp1:hr>
</tp1:TrackPointExtension>
</extensions>
</trkpt>
<trkpt lat="43.9642390" lon="12.7049160">
<ele>41.7510000</ele>
<time>2010-05-14T08:39:13Z</time>
<extensions>
<tp1:TrackPointExtension>
<tp1:hr>121</tp1:hr>
</tp1:TrackPointExtension>
</extensions>
</trkpt>
<trkpt lat="43.9643180" lon="12.7045780">
<ele>41.8350000</ele>
<time>2010-05-14T08:39:16Z</time>
<extensions>
<tp1:TrackPointExtension>
<tp1:hr>121</tp1:hr>
</tp1:TrackPointExtension>
</extensions>
</trkpt>
<trkpt lat="43.9643890" lon="12.7042750">
<ele>43.2160000</ele>
<time>2010-05-14T08:39:20Z</time>
<extensions>
<tp1:TrackPointExtension>
<tp1:hr>121</tp1:hr>
</tp1:TrackPointExtension>
</extensions>
</trkpt>
<trkpt lat="43.9644700" lon="12.7041070">
<ele>43.3490000</ele>
<time>2010-05-14T08:39:22Z</time>
<extensions>
<tp1:TrackPointExtension>
<tp1:hr>122</tp1:hr>
</tp1:TrackPointExtension>
</extensions>
</trkpt>
<trkpt lat="43.9648150" lon="12.7037100">
<ele>43.7830000</ele>
<time>2010-05-14T08:39:29Z</time>
<extensions>
<tp1:TrackPointExtension>
<tp1:hr>123</tp1:hr>
</tp1:TrackPointExtension>
</extensions>
</trkpt>
<trkpt lat="43.9652210" lon="12.7033010">
<ele>44.9350000</ele>
<time>2010-05-14T08:39:37Z</time>
<extensions>
<tp1:TrackPointExtension>
<tp1:hr>124</tp1:hr>
</tp1:TrackPointExtension>
</extensions>
</trkpt>
<trkpt lat="43.9652630" lon="12.7032410">
<ele>45.2320000</ele>
<time>2010-05-14T08:39:38Z</time>
<extensions>
<tp1:TrackPointExtension>
<tp1:hr>124</tp1:hr>
</tp1:TrackPointExtension>
</extensions>
</trkpt>
<trkpt lat="43.9655490" lon="12.7028420">
<ele>46.6840000</ele>
<time>2010-05-14T08:39:45Z</time>
<extensions>
<tp1:TrackPointExtension>
<tp1:hr>124</tp1:hr>
</tp1:TrackPointExtension>
</extensions>
</trkpt>
<trkpt lat="43.9658220" lon="12.7022660">
<ele>46.6620000</ele>
<time>2010-05-14T08:39:54Z</time>
<extensions>
<tp1:TrackPointExtension>
<tp1:hr>125</tp1:hr>
</tp1:TrackPointExtension>
</extensions>
</trkpt>
<trkpt lat="43.9661580" lon="12.7014960">
<ele>46.5430000</ele>
<time>2010-05-14T08:40:04Z</time>
<extensions>
<tp1:TrackPointExtension>
<tp1:hr>125</tp1:hr>
</tp1:TrackPointExtension>
</extensions>
</trkpt>
<trkpt lat="43.9663620" lon="12.7009430">
<ele>46.1090000</ele>
<time>2010-05-14T08:40:11Z</time>
<extensions>
<tp1:TrackPointExtension>
<tp1:hr>125</tp1:hr>
</tp1:TrackPointExtension>
</extensions>
</trkpt>
<trkpt lat="43.9666510" lon="12.7002270">
<ele>47.1140000</ele>
<time>2010-05-14T08:40:20Z</time>
<extensions>
<tp1:TrackPointExtension>
<tp1:hr>124</tp1:hr>
</tp1:TrackPointExtension>
</extensions>
</trkpt>
<trkpt lat="43.9669790" lon="12.6994680">
<ele>46.9440000</ele>
<time>2010-05-14T08:40:29Z</time>
<extensions>
<tp1:TrackPointExtension>
<tp1:hr>123</tp1:hr>
</tp1:TrackPointExtension>
</extensions>
</trkpt>
<trkpt lat="43.9672000" lon="12.6989940">
<ele>46.9770000</ele>
<time>2010-05-14T08:40:38Z</time>
<extensions>
<tp1:TrackPointExtension>
<tp1:hr>123</tp1:hr>
</tp1:TrackPointExtension>
</extensions>
</trkpt>
<trkpt lat="43.9675400" lon="12.6981310">
<ele>46.9570000</ele>
<time>2010-05-14T08:40:46Z</time>
<extensions>
<tp1:TrackPointExtension>
<tp1:hr>121</tp1:hr>
</tp1:TrackPointExtension>
</extensions>
</trkpt>
<trkpt lat="43.9676990" lon="12.6977280">
<ele>47.6120000</ele>
<time>2010-05-14T08:40:52Z</time>
<extensions>
<tp1:TrackPointExtension>
<tp1:hr>120</tp1:hr>
</tp1:TrackPointExtension>
</extensions>
</trkpt>
<trkpt lat="43.9677510" lon="12.6975950">
<ele>47.5810000</ele>
<time>2010-05-14T08:40:56Z</time>
<extensions>
<tp1:TrackPointExtension>
<tp1:hr>117</tp1:hr>
</tp1:TrackPointExtension>
</extensions>
</trkpt>
<trkpt lat="43.9677580" lon="12.6975780">
<ele>47.5670000</ele>
<time>2010-05-14T08:40:57Z</time>
<extensions>
<tp1:TrackPointExtension>
<tp1:hr>116</tp1:hr>
</tp1:TrackPointExtension>
</extensions>
</trkpt>
<trkpt lat="43.9676920" lon="12.6975010">
<ele>46.9550000</ele>
<time>2010-05-14T08:41:02Z</time>
<extensions>
<tp1:TrackPointExtension>
<tp1:hr>116</tp1:hr>
</tp1:TrackPointExtension>
</extensions>
</trkpt>
<trkpt lat="43.9673000" lon="12.6970480">
<ele>46.9720000</ele>
<time>2010-05-14T08:41:10Z</time>
<extensions>
<tp1:TrackPointExtension>
<tp1:hr>119</tp1:hr>
</tp1:TrackPointExtension>
</extensions>
</trkpt>
<trkpt lat="43.9667730" lon="12.6964130">
<ele>47.1610000</ele>
<time>2010-05-14T08:41:21Z</time>
<extensions>
<tp1:TrackPointExtension>
<tp1:hr>121</tp1:hr>
</tp1:TrackPointExtension>
</extensions>
</trkpt>
<trkpt lat="43.9662830" lon="12.6957760">
<ele>47.2670000</ele>
<time>2010-05-14T08:41:31Z</time>
<extensions>
<tp1:TrackPointExtension>
<tp1:hr>122</tp1:hr>
</tp1:TrackPointExtension>
</extensions>
</trkpt>
<trkpt lat="43.9657780" lon="12.6951680">
<ele>47.3970000</ele>
<time>2010-05-14T08:41:41Z</time>
<extensions>
<tp1:TrackPointExtension>
<tp1:hr>121</tp1:hr>
</tp1:TrackPointExtension>
</extensions>
</trkpt>
<trkpt lat="43.9653940" lon="12.6946650">
<ele>47.4530000</ele>
<time>2010-05-14T08:41:49Z</time>
<extensions>
<tp1:TrackPointExtension>
<tp1:hr>121</tp1:hr>
</tp1:TrackPointExtension>
</extensions>
</trkpt>
<trkpt lat="43.9649310" lon="12.6940420">
<ele>47.8240000</ele>
<time>2010-05-14T08:41:59Z</time>
<extensions>
<tp1:TrackPointExtension>
<tp1:hr>122</tp1:hr>
</tp1:TrackPointExtension>
</extensions>
</trkpt>
<trkpt lat="43.9644400" lon="12.6933310">
<ele>49.4400000</ele>
<time>2010-05-14T08:42:10Z</time>
<extensions>
<tp1:TrackPointExtension>
<tp1:hr>123</tp1:hr>
</tp1:TrackPointExtension>
</extensions>
</trkpt>
<trkpt lat="43.9640240" lon="12.6926800">
<ele>50.4260000</ele>
<time>2010-05-14T08:42:20Z</time>
<extensions>
<tp1:TrackPointExtension>
<tp1:hr>125</tp1:hr>
</tp1:TrackPointExtension>
</extensions>
</trkpt>
<trkpt lat="43.9636100" lon="12.6921880">
<ele>51.0020000</ele>
<time>2010-05-14T08:42:29Z</time>
<extensions>
<tp1:TrackPointExtension>
<tp1:hr>125</tp1:hr>
</tp1:TrackPointExtension>
</extensions>
</trkpt>
<trkpt lat="43.9631340" lon="12.6917620">
<ele>49.8450000</ele>
<time>2010-05-14T08:42:38Z</time>
<extensions>
<tp1:TrackPointExtension>
<tp1:hr>125</tp1:hr>
</tp1:TrackPointExtension>
</extensions>
</trkpt>
<trkpt lat="43.9626330" lon="12.6912770">
<ele>49.4500000</ele>
<time>2010-05-14T08:42:47Z</time>
<extensions>
<tp1:TrackPointExtension>
<tp1:hr>125</tp1:hr>
</tp1:TrackPointExtension>
</extensions>
</trkpt>
<trkpt lat="43.9623180" lon="12.6909370">
<ele>49.7070000</ele>
<time>2010-05-14T08:42:53Z</time>
<extensions>
<tp1:TrackPointExtension>
<tp1:hr>125</tp1:hr>
</tp1:TrackPointExtension>
</extensions>
</trkpt>
<trkpt lat="43.9619360" lon="12.6904790">
<ele>49.5560000</ele>
<time>2010-05-14T08:43:01Z</time>
<extensions>
<tp1:TrackPointExtension>
<tp1:hr>125</tp1:hr>
</tp1:TrackPointExtension>
</extensions>
</trkpt>
<trkpt lat="43.9616130" lon="12.6900830">
<ele>50.1220000</ele>
<time>2010-05-14T08:43:08Z</time>
<extensions>
<tp1:TrackPointExtension>
<tp1:hr>126</tp1:hr>
</tp1:TrackPointExtension>
</extensions>
</trkpt>
<trkpt lat="43.9611970" lon="12.6895660">
<ele>50.2790000</ele>
<time>2010-05-14T08:43:17Z</time>
<extensions>
<tp1:TrackPointExtension>
<tp1:hr>125</tp1:hr>
</tp1:TrackPointExtension>
</extensions>
</trkpt>
<trkpt lat="43.9608660" lon="12.6891840">
<ele>49.9020000</ele>
<time>2010-05-14T08:43:24Z</time>
<extensions>
<tp1:TrackPointExtension>
<tp1:hr>125</tp1:hr>
</tp1:TrackPointExtension>
</extensions>
</trkpt>
<trkpt lat="43.9605550" lon="12.6887890">
<ele>50.6190000</ele>
<time>2010-05-14T08:43:31Z</time>
<extensions>
<tp1:TrackPointExtension>
<tp1:hr>126</tp1:hr>
</tp1:TrackPointExtension>
</extensions>
</trkpt>
<trkpt lat="43.9603020" lon="12.6884640">
<ele>50.5090000</ele>
<time>2010-05-14T08:43:37Z</time>
<extensions>
<tp1:TrackPointExtension>
<tp1:hr>125</tp1:hr>
</tp1:TrackPointExtension>
</extensions>
</trkpt>
<trkpt lat="43.9601770" lon="12.6883050">
<ele>51.0700000</ele>
<time>2010-05-14T08:43:41Z</time>
<extensions>
<tp1:TrackPointExtension>
<tp1:hr>124</tp1:hr>
</tp1:TrackPointExtension>
</extensions>
</trkpt>
<trkpt lat="43.9600100" lon="12.6881140">
<ele>51.0490000</ele>
<time>2010-05-14T08:43:46Z</time>
<extensions>
<tp1:TrackPointExtension>
<tp1:hr>123</tp1:hr>
</tp1:TrackPointExtension>
</extensions>
</trkpt>
<trkpt lat="43.9599670" lon="12.6880700">
<ele>51.0900000</ele>
<time>2010-05-14T08:43:47Z</time>
<extensions>
<tp1:TrackPointExtension>
<tp1:hr>123</tp1:hr>
</tp1:TrackPointExtension>
</extensions>
</trkpt>
<trkpt lat="43.9598790" lon="12.6879740">
<ele>51.0660000</ele>
<time>2010-05-14T08:43:49Z</time>
<extensions>
<tp1:TrackPointExtension>
<tp1:hr>123</tp1:hr>
</tp1:TrackPointExtension>
</extensions>
</trkpt>
<trkpt lat="43.9597680" lon="12.6878260">
<ele>51.3570000</ele>
<time>2010-05-14T08:43:52Z</time>
<extensions>
<tp1:TrackPointExtension>
<tp1:hr>123</tp1:hr>
</tp1:TrackPointExtension>
</extensions>
</trkpt>
<trkpt lat="43.9593990" lon="12.6873700">
<ele>51.7420000</ele>
<time>2010-05-14T08:44:00Z</time>
<extensions>
<tp1:TrackPointExtension>
<tp1:hr>123</tp1:hr>
</tp1:TrackPointExtension>
</extensions>
</trkpt>
<trkpt lat="43.9589550" lon="12.6868420">
<ele>52.1060000</ele>
<time>2010-05-14T08:44:09Z</time>
<extensions>
<tp1:TrackPointExtension>
<tp1:hr>125</tp1:hr>
</tp1:TrackPointExtension>
</extensions>
</trkpt>
<trkpt lat="43.9584650" lon="12.6862590">
<ele>52.4550000</ele>
<time>2010-05-14T08:44:19Z</time>
<extensions>
<tp1:TrackPointExtension>
<tp1:hr>124</tp1:hr>
</tp1:TrackPointExtension>
</extensions>
</trkpt>
<trkpt lat="43.9580770" lon="12.6857970">
<ele>52.0690000</ele>
<time>2010-05-14T08:44:27Z</time>
<extensions>
<tp1:TrackPointExtension>
<tp1:hr>124</tp1:hr>
</tp1:TrackPointExtension>
</extensions>
</trkpt>
<trkpt lat="43.9576360" lon="12.6852680">
<ele>52.9010000</ele>
<time>2010-05-14T08:44:36Z</time>
<extensions>
<tp1:TrackPointExtension>
<tp1:hr>123</tp1:hr>
</tp1:TrackPointExtension>
</extensions>
</trkpt>
<trkpt lat="43.9571990" lon="12.6847330">
<ele>53.0650000</ele>
<time>2010-05-14T08:44:45Z</time>
<extensions>
<tp1:TrackPointExtension>
<tp1:hr>122</tp1:hr>
</tp1:TrackPointExtension>
</extensions>
</trkpt>
<trkpt lat="43.9567270" lon="12.6841430">
<ele>53.1910000</ele>
<time>2010-05-14T08:44:55Z</time>
<extensions>
<tp1:TrackPointExtension>
<tp1:hr>123</tp1:hr>
</tp1:TrackPointExtension>
</extensions>
</trkpt>
<trkpt lat="43.9563990" lon="12.6837370">
<ele>54.0580000</ele>
<time>2010-05-14T08:45:02Z</time>
<extensions>
<tp1:TrackPointExtension>
<tp1:hr>124</tp1:hr>
</tp1:TrackPointExtension>
</extensions>
</trkpt>
<trkpt lat="43.9559270" lon="12.6831610">
<ele>54.1660000</ele>
<time>2010-05-14T08:45:12Z</time>
<extensions>
<tp1:TrackPointExtension>
<tp1:hr>124</tp1:hr>
</tp1:TrackPointExtension>
</extensions>
</trkpt>
<trkpt lat="43.9554050" lon="12.6825220">
<ele>54.5000000</ele>
<time>2010-05-14T08:45:23Z</time>
<extensions>
<tp1:TrackPointExtension>
<tp1:hr>125</tp1:hr>
</tp1:TrackPointExtension>
</extensions>
</trkpt>
<trkpt lat="43.9548640" lon="12.6818620">
<ele>54.4040000</ele>
<time>2010-05-14T08:45:34Z</time>
<extensions>
<tp1:TrackPointExtension>
<tp1:hr>125</tp1:hr>
</tp1:TrackPointExtension>
</extensions>
</trkpt>
<trkpt lat="43.9545700" lon="12.6814950">
<ele>54.8500000</ele>
<time>2010-05-14T08:45:40Z</time>
<extensions>
<tp1:TrackPointExtension>
<tp1:hr>125</tp1:hr>
</tp1:TrackPointExtension>
</extensions>
</trkpt>
<trkpt lat="43.9541680" lon="12.6809480">
<ele>55.1920000</ele>
<time>2010-05-14T08:45:52Z</time>
<extensions>
<tp1:TrackPointExtension>
<tp1:hr>123</tp1:hr>
</tp1:TrackPointExtension>
</extensions>
</trkpt>
<trkpt lat="43.9537130" lon="12.6803280">
<ele>55.2610000</ele>
<time>2010-05-14T08:45:59Z</time>
<extensions>
<tp1:TrackPointExtension>
<tp1:hr>123</tp1:hr>
</tp1:TrackPointExtension>
</extensions>
</trkpt>
<trkpt lat="43.9534060" lon="12.6799020">
<ele>54.6560000</ele>
<time>2010-05-14T08:46:06Z</time>
<extensions>
<tp1:TrackPointExtension>
<tp1:hr>123</tp1:hr>
</tp1:TrackPointExtension>
</extensions>
</trkpt>
<trkpt lat="43.9529560" lon="12.6794140">
<ele>55.5370000</ele>
<time>2010-05-14T08:46:15Z</time>
<extensions>
<tp1:TrackPointExtension>
<tp1:hr>125</tp1:hr>
</tp1:TrackPointExtension>
</extensions>
</trkpt>
<trkpt lat="43.9524850" lon="12.6789880">
<ele>56.5560000</ele>
<time>2010-05-14T08:46:24Z</time>
<extensions>
<tp1:TrackPointExtension>
<tp1:hr>125</tp1:hr>
</tp1:TrackPointExtension>
</extensions>
</trkpt>
<trkpt lat="43.9520540" lon="12.6784780">
<ele>56.5660000</ele>
<time>2010-05-14T08:46:33Z</time>
<extensions>
<tp1:TrackPointExtension>
<tp1:hr>125</tp1:hr>
</tp1:TrackPointExtension>
</extensions>
</trkpt>
<trkpt lat="43.9515900" lon="12.6778740">
<ele>56.8020000</ele>
<time>2010-05-14T08:46:43Z</time>
<extensions>
<tp1:TrackPointExtension>
<tp1:hr>126</tp1:hr>
</tp1:TrackPointExtension>
</extensions>
</trkpt>
<trkpt lat="43.9511480" lon="12.6773160">
<ele>57.1690000</ele>
<time>2010-05-14T08:46:52Z</time>
<extensions>
<tp1:TrackPointExtension>
<tp1:hr>126</tp1:hr>
</tp1:TrackPointExtension>
</extensions>
</trkpt>
<trkpt lat="43.9507690" lon="12.6768510">
<ele>57.9910000</ele>
<time>2010-05-14T08:47:00Z</time>
<extensions>
<tp1:TrackPointExtension>
<tp1:hr>126</tp1:hr>
</tp1:TrackPointExtension>
</extensions>
</trkpt>
<trkpt lat="43.9506150" lon="12.6766640">
<ele>58.0720000</ele>
<time>2010-05-14T08:47:04Z</time>
<extensions>
<tp1:TrackPointExtension>
<tp1:hr>125</tp1:hr>
</tp1:TrackPointExtension>
</extensions>
</trkpt>
<trkpt lat="43.9507000" lon="12.6764340">
<ele>58.1680000</ele>
<time>2010-05-14T08:47:06Z</time>
<extensions>
<tp1:TrackPointExtension>
<tp1:hr>125</tp1:hr>
</tp1:TrackPointExtension>
</extensions>
</trkpt>
<trkpt lat="43.9511320" lon="12.6756310">
<ele>57.6790000</ele>
<time>2010-05-14T08:47:17Z</time>
<extensions>
<tp1:TrackPointExtension>
<tp1:hr>123</tp1:hr>
</tp1:TrackPointExtension>
</extensions>
</trkpt>
<trkpt lat="43.9514390" lon="12.6750600">
<ele>57.7100000</ele>
<time>2010-05-14T08:47:25Z</time>
<extensions>
<tp1:TrackPointExtension>
<tp1:hr>123</tp1:hr>
</tp1:TrackPointExtension>
</extensions>
</trkpt>
<trkpt lat="43.9515740" lon="12.6744820">
<ele>58.6740000</ele>
<time>2010-05-14T08:47:32Z</time>
<extensions>
<tp1:TrackPointExtension>
<tp1:hr>123</tp1:hr>
</tp1:TrackPointExtension>
</extensions>
</trkpt>
<trkpt lat="43.9516460" lon="12.6739090">
<ele>59.3150000</ele>
<time>2010-05-14T08:47:39Z</time>
<extensions>
<tp1:TrackPointExtension>
<tp1:hr>122</tp1:hr>
</tp1:TrackPointExtension>
</extensions>
</trkpt>
<trkpt lat="43.9516610" lon="12.6737870">
<ele>59.3760000</ele>
<time>2010-05-14T08:47:41Z</time>
<extensions>
<tp1:TrackPointExtension>
<tp1:hr>122</tp1:hr>
</tp1:TrackPointExtension>
</extensions>
</trkpt>
<trkpt lat="43.9516640" lon="12.6737600">
<ele>60.2450000</ele>
<time>2010-05-14T08:47:46Z</time>
<extensions>
<tp1:TrackPointExtension>
<tp1:hr>120</tp1:hr>
</tp1:TrackPointExtension>
</extensions>
</trkpt>
<trkpt lat="43.9518060" lon="12.6734440">
<ele>60.2070000</ele>
<time>2010-05-14T08:47:48Z</time>
<extensions>
<tp1:TrackPointExtension>
<tp1:hr>119</tp1:hr>
</tp1:TrackPointExtension>
</extensions>
</trkpt>
<trkpt lat="43.9517770" lon="12.6730070">
<ele>58.9870000</ele>
<time>2010-05-14T08:47:55Z</time>
<extensions>
<tp1:TrackPointExtension>
<tp1:hr>118</tp1:hr>
</tp1:TrackPointExtension>
</extensions>
</trkpt>
<trkpt lat="43.9518120" lon="12.6724550">
<ele>58.2060000</ele>
<time>2010-05-14T08:48:02Z</time>
<extensions>
<tp1:TrackPointExtension>
<tp1:hr>117</tp1:hr>
</tp1:TrackPointExtension>
</extensions>
</trkpt>
<trkpt lat="43.9518360" lon="12.6720860">
<ele>58.1840000</ele>
<time>2010-05-14T08:48:07Z</time>
<extensions>
<tp1:TrackPointExtension>
<tp1:hr>115</tp1:hr>
</tp1:TrackPointExtension>
</extensions>
</trkpt>
<trkpt lat="43.9519100" lon="12.6713850">
<ele>57.9010000</ele>
<time>2010-05-14T08:48:15Z</time>
<extensions>
<tp1:TrackPointExtension>
<tp1:hr>115</tp1:hr>
</tp1:TrackPointExtension>
</extensions>
</trkpt>
<trkpt lat="43.9520990" lon="12.6707050">
<ele>56.9380000</ele>
<time>2010-05-14T08:48:23Z</time>
<extensions>
<tp1:TrackPointExtension>
<tp1:hr>115</tp1:hr>
</tp1:TrackPointExtension>
</extensions>
</trkpt>
<trkpt lat="43.9522590" lon="12.6699240">
<ele>57.7830000</ele>
<time>2010-05-14T08:48:32Z</time>
<extensions>
<tp1:TrackPointExtension>
<tp1:hr>115</tp1:hr>
</tp1:TrackPointExtension>
</extensions>
</trkpt>
<trkpt lat="43.9524110" lon="12.6692410">
<ele>60.1110000</ele>
<time>2010-05-14T08:48:41Z</time>
<extensions>
<tp1:TrackPointExtension>
<tp1:hr>116</tp1:hr>
</tp1:TrackPointExtension>
</extensions>
</trkpt>
<trkpt lat="43.9525700" lon="12.6684080">
<ele>63.2300000</ele>
<time>2010-05-14T08:48:53Z</time>
<extensions>
<tp1:TrackPointExtension>
<tp1:hr>120</tp1:hr>
</tp1:TrackPointExtension>
</extensions>
</trkpt>
<trkpt lat="43.9526990" lon="12.6677300">
<ele>65.4520000</ele>
<time>2010-05-14T08:49:03Z</time>
<extensions>
<tp1:TrackPointExtension>
<tp1:hr>123</tp1:hr>
</tp1:TrackPointExtension>
</extensions>
</trkpt>
<trkpt lat="43.9527890" lon="12.6672630">
<ele>67.5170000</ele>
<time>2010-05-14T08:49:10Z</time>
<extensions>
<tp1:TrackPointExtension>
<tp1:hr>124</tp1:hr>
</tp1:TrackPointExtension>
</extensions>
</trkpt>
<trkpt lat="43.9528610" lon="12.6668860">
<ele>68.6740000</ele>
<time>2010-05-14T08:49:16Z</time>
<extensions>
<tp1:TrackPointExtension>
<tp1:hr>126</tp1:hr>
</tp1:TrackPointExtension>
</extensions>
</trkpt>
<trkpt lat="43.9529860" lon="12.6662320">
<ele>71.4440000</ele>
<time>2010-05-14T08:49:27Z</time>
<extensions>
<tp1:TrackPointExtension>
<tp1:hr>129</tp1:hr>
</tp1:TrackPointExtension>
</extensions>
</trkpt>
<trkpt lat="43.9531000" lon="12.6656690">
<ele>73.5510000</ele>
<time>2010-05-14T08:49:36Z</time>
<extensions>
<tp1:TrackPointExtension>
<tp1:hr>130</tp1:hr>
</tp1:TrackPointExtension>
</extensions>
</trkpt>
<trkpt lat="43.9532420" lon="12.6652460">
<ele>74.4080000</ele>
<time>2010-05-14T08:49:43Z</time>
<extensions>
<tp1:TrackPointExtension>
<tp1:hr>131</tp1:hr>
</tp1:TrackPointExtension>
</extensions>
</trkpt>
<trkpt lat="43.9534530" lon="12.6648630">
<ele>74.1010000</ele>
<time>2010-05-14T08:49:50Z</time>
<extensions>
<tp1:TrackPointExtension>
<tp1:hr>132</tp1:hr>
</tp1:TrackPointExtension>
</extensions>
</trkpt>
<trkpt lat="43.9536570" lon="12.6644910">
<ele>73.0690000</ele>
<time>2010-05-14T08:49:56Z</time>
<extensions>
<tp1:TrackPointExtension>
<tp1:hr>132</tp1:hr>
</tp1:TrackPointExtension>
</extensions>
</trkpt>
<trkpt lat="43.9540790" lon="12.6639700">
<ele>71.8040000</ele>
<time>2010-05-14T08:50:04Z</time>
<extensions>
<tp1:TrackPointExtension>
<tp1:hr>131</tp1:hr>
</tp1:TrackPointExtension>
</extensions>
</trkpt>
<trkpt lat="43.9544550" lon="12.6635210">
<ele>72.9170000</ele>
<time>2010-05-14T08:50:11Z</time>
<extensions>
<tp1:TrackPointExtension>
<tp1:hr>131</tp1:hr>
</tp1:TrackPointExtension>
</extensions>
</trkpt>
<trkpt lat="43.9545860" lon="12.6633660">
<ele>74.3950000</ele>
<time>2010-05-14T08:50:14Z</time>
<extensions>
<tp1:TrackPointExtension>
<tp1:hr>131</tp1:hr>
</tp1:TrackPointExtension>
</extensions>
</trkpt>
<trkpt lat="43.9549800" lon="12.6628990">
<ele>76.0380000</ele>
<time>2010-05-14T08:50:24Z</time>
<extensions>
<tp1:TrackPointExtension>
<tp1:hr>131</tp1:hr>
</tp1:TrackPointExtension>
</extensions>
</trkpt>
<trkpt lat="43.9553840" lon="12.6624210">
<ele>76.5530000</ele>
<time>2010-05-14T08:50:34Z</time>
<extensions>
<tp1:TrackPointExtension>
<tp1:hr>131</tp1:hr>
</tp1:TrackPointExtension>
</extensions>
</trkpt>
<trkpt lat="43.9556750" lon="12.6620760">
<ele>77.8580000</ele>
<time>2010-05-14T08:50:41Z</time>
<extensions>
<tp1:TrackPointExtension>
<tp1:hr>131</tp1:hr>
</tp1:TrackPointExtension>
</extensions>
</trkpt>
<trkpt lat="43.9559460" lon="12.6617560">
<ele>79.6210000</ele>
<time>2010-05-14T08:50:48Z</time>
<extensions>
<tp1:TrackPointExtension>
<tp1:hr>131</tp1:hr>
</tp1:TrackPointExtension>
</extensions>
</trkpt>
<trkpt lat="43.9560900" lon="12.6613750">
<ele>80.4630000</ele>
<time>2010-05-14T08:50:55Z</time>
<extensions>
<tp1:TrackPointExtension>
<tp1:hr>132</tp1:hr>
</tp1:TrackPointExtension>
</extensions>
</trkpt>
<trkpt lat="43.9561510" lon="12.6611100">
<ele>82.9500000</ele>
<time>2010-05-14T08:51:00Z</time>
<extensions>
<tp1:TrackPointExtension>
<tp1:hr>132</tp1:hr>
</tp1:TrackPointExtension>
</extensions>
</trkpt>
<trkpt lat="43.9561350" lon="12.6609300">
<ele>83.4040000</ele>
<time>2010-05-14T08:51:03Z</time>
<extensions>
<tp1:TrackPointExtension>
<tp1:hr>132</tp1:hr>
</tp1:TrackPointExtension>
</extensions>
</trkpt>
<trkpt lat="43.9560740" lon="12.6608580">
<ele>83.8420000</ele>
<time>2010-05-14T08:51:05Z</time>
<extensions>
<tp1:TrackPointExtension>
<tp1:hr>133</tp1:hr>
</tp1:TrackPointExtension>
</extensions>
</trkpt>
<trkpt lat="43.9557950" lon="12.6605330">
<ele>85.4240000</ele>
<time>2010-05-14T08:51:14Z</time>
<extensions>
<tp1:TrackPointExtension>
<tp1:hr>133</tp1:hr>
</tp1:TrackPointExtension>
</extensions>
</trkpt>
<trkpt lat="43.9557330" lon="12.6604610">
<ele>86.2240000</ele>
<time>2010-05-14T08:51:16Z</time>
<extensions>
<tp1:TrackPointExtension>
<tp1:hr>133</tp1:hr>
</tp1:TrackPointExtension>
</extensions>
</trkpt>
<trkpt lat="43.9555980" lon="12.6602550">
<ele>87.5610000</ele>
<time>2010-05-14T08:51:21Z</time>
<extensions>
<tp1:TrackPointExtension>
<tp1:hr>134</tp1:hr>
</tp1:TrackPointExtension>
</extensions>
</trkpt>
<trkpt lat="43.9556030" lon="12.6598660">
<ele>89.8250000</ele>
<time>2010-05-14T08:51:28Z</time>
<extensions>
<tp1:TrackPointExtension>
<tp1:hr>135</tp1:hr>
</tp1:TrackPointExtension>
</extensions>
</trkpt>
<trkpt lat="43.9556090" lon="12.6598110">
<ele>89.8230000</ele>
<time>2010-05-14T08:51:29Z</time>
<extensions>
<tp1:TrackPointExtension>
<tp1:hr>135</tp1:hr>
</tp1:TrackPointExtension>
</extensions>
</trkpt>
<trkpt lat="43.9556510" lon="12.6596550">
<ele>90.4640000</ele>
<time>2010-05-14T08:51:32Z</time>
<extensions>
<tp1:TrackPointExtension>
<tp1:hr>135</tp1:hr>
</tp1:TrackPointExtension>
</extensions>
</trkpt>
<trkpt lat="43.9557170" lon="12.6594550">
<ele>91.4250000</ele>
<time>2010-05-14T08:51:36Z</time>
<extensions>
<tp1:TrackPointExtension>
<tp1:hr>135</tp1:hr>
</tp1:TrackPointExtension>
</extensions>
</trkpt>
<trkpt lat="43.9558570" lon="12.6592960">
<ele>91.8400000</ele>
<time>2010-05-14T08:51:40Z</time>
<extensions>
<tp1:TrackPointExtension>
<tp1:hr>135</tp1:hr>
</tp1:TrackPointExtension>
</extensions>
</trkpt>
<trkpt lat="43.9562500" lon="12.6591630">
<ele>93.4290000</ele>
<time>2010-05-14T08:51:49Z</time>
<extensions>
<tp1:TrackPointExtension>
<tp1:hr>135</tp1:hr>
</tp1:TrackPointExtension>
</extensions>
</trkpt>
<trkpt lat="43.9565970" lon="12.6590700">
<ele>93.8470000</ele>
<time>2010-05-14T08:51:57Z</time>
<extensions>
<tp1:TrackPointExtension>
<tp1:hr>135</tp1:hr>
</tp1:TrackPointExtension>
</extensions>
</trkpt>
<trkpt lat="43.9566820" lon="12.6590470">
<ele>93.9240000</ele>
<time>2010-05-14T08:51:59Z</time>
<extensions>
<tp1:TrackPointExtension>
<tp1:hr>135</tp1:hr>
</tp1:TrackPointExtension>
</extensions>
</trkpt>
<trkpt lat="43.9569940" lon="12.6589630">
<ele>95.9000000</ele>
<time>2010-05-14T08:52:06Z</time>
<extensions>
<tp1:TrackPointExtension>
<tp1:hr>134</tp1:hr>
</tp1:TrackPointExtension>
</extensions>
</trkpt>
<trkpt lat="43.9573890" lon="12.6588490">
<ele>97.3980000</ele>
<time>2010-05-14T08:52:15Z</time>
<extensions>
<tp1:TrackPointExtension>
<tp1:hr>133</tp1:hr>
</tp1:TrackPointExtension>
</extensions>
</trkpt>
<trkpt lat="43.9577280" lon="12.6587500">
<ele>98.8180000</ele>
<time>2010-05-14T08:52:23Z</time>
<extensions>
<tp1:TrackPointExtension>
<tp1:hr>133</tp1:hr>
</tp1:TrackPointExtension>
</extensions>
</trkpt>
<trkpt lat="43.9578980" lon="12.6587000">
<ele>99.7840000</ele>
<time>2010-05-14T08:52:27Z</time>
<extensions>
<tp1:TrackPointExtension>
<tp1:hr>133</tp1:hr>
</tp1:TrackPointExtension>
</extensions>
</trkpt>
<trkpt lat="43.9581450" lon="12.6585680">
<ele>101.9920000</ele>
<time>2010-05-14T08:52:34Z</time>
<extensions>
<tp1:TrackPointExtension>
<tp1:hr>133</tp1:hr>
</tp1:TrackPointExtension>
</extensions>
</trkpt>
<trkpt lat="43.9581790" lon="12.6583980">
<ele>103.2450000</ele>
<time>2010-05-14T08:52:38Z</time>
<extensions>
<tp1:TrackPointExtension>
<tp1:hr>134</tp1:hr>
</tp1:TrackPointExtension>
</extensions>
</trkpt>
<trkpt lat="43.9581880" lon="12.6583530">
<ele>103.9470000</ele>
<time>2010-05-14T08:52:42Z</time>
<extensions>
<tp1:TrackPointExtension>
<tp1:hr>134</tp1:hr>
</tp1:TrackPointExtension>
</extensions>
</trkpt>
<trkpt lat="43.9580180" lon="12.6581260">
<ele>105.4150000</ele>
<time>2010-05-14T08:52:47Z</time>
<extensions>
<tp1:TrackPointExtension>
<tp1:hr>134</tp1:hr>
</tp1:TrackPointExtension>
</extensions>
</trkpt>
<trkpt lat="43.9577320" lon="12.6579030">
<ele>106.6500000</ele>
<time>2010-05-14T08:52:56Z</time>
<extensions>
<tp1:TrackPointExtension>
<tp1:hr>135</tp1:hr>
</tp1:TrackPointExtension>
</extensions>
</trkpt>
<trkpt lat="43.9575060" lon="12.6577270">
<ele>108.0540000</ele>
<time>2010-05-14T08:53:03Z</time>
<extensions>
<tp1:TrackPointExtension>
<tp1:hr>134</tp1:hr>
</tp1:TrackPointExtension>
</extensions>
</trkpt>
<trkpt lat="43.9572620" lon="12.6574910">
<ele>109.5350000</ele>
<time>2010-05-14T08:53:11Z</time>
<extensions>
<tp1:TrackPointExtension>
<tp1:hr>135</tp1:hr>
</tp1:TrackPointExtension>
</extensions>
</trkpt>
<trkpt lat="43.9571520" lon="12.6573450">
<ele>110.4410000</ele>
<time>2010-05-14T08:53:15Z</time>
<extensions>
<tp1:TrackPointExtension>
<tp1:hr>135</tp1:hr>
</tp1:TrackPointExtension>
</extensions>
</trkpt>
<trkpt lat="43.9571890" lon="12.6569700">
<ele>112.3890000</ele>
<time>2010-05-14T08:53:22Z</time>
<extensions>
<tp1:TrackPointExtension>
<tp1:hr>136</tp1:hr>
</tp1:TrackPointExtension>
</extensions>
</trkpt>
<trkpt lat="43.9572690" lon="12.6567300">
<ele>113.4690000</ele>
<time>2010-05-14T08:53:27Z</time>
<extensions>
<tp1:TrackPointExtension>
<tp1:hr>136</tp1:hr>
</tp1:TrackPointExtension>
</extensions>
</trkpt>
<trkpt lat="43.9574450" lon="12.6563690">
<ele>114.7150000</ele>
<time>2010-05-14T08:53:35Z</time>
<extensions>
<tp1:TrackPointExtension>
<tp1:hr>137</tp1:hr>
</tp1:TrackPointExtension>
</extensions>
</trkpt>
<trkpt lat="43.9575440" lon="12.6562500">
<ele>116.2110000</ele>
<time>2010-05-14T08:53:42Z</time>
<extensions>
<tp1:TrackPointExtension>
<tp1:hr>138</tp1:hr>
</tp1:TrackPointExtension>
</extensions>
</trkpt>
<trkpt lat="43.9578690" lon="12.6559380">
<ele>118.2200000</ele>
<time>2010-05-14T08:53:49Z</time>
<extensions>
<tp1:TrackPointExtension>
<tp1:hr>139</tp1:hr>
</tp1:TrackPointExtension>
</extensions>
</trkpt>
<trkpt lat="43.9580760" lon="12.6557380">
<ele>120.0520000</ele>
<time>2010-05-14T08:53:56Z</time>
<extensions>
<tp1:TrackPointExtension>
<tp1:hr>139</tp1:hr>
</tp1:TrackPointExtension>
</extensions>
</trkpt>
<trkpt lat="43.9583280" lon="12.6554950">
<ele>122.0030000</ele>
<time>2010-05-14T08:54:04Z</time>
<extensions>
<tp1:TrackPointExtension>
<tp1:hr>139</tp1:hr>
</tp1:TrackPointExtension>
</extensions>
</trkpt>
<trkpt lat="43.9585440" lon="12.6552870">
<ele>122.8410000</ele>
<time>2010-05-14T08:54:11Z</time>
<extensions>
<tp1:TrackPointExtension>
<tp1:hr>138</tp1:hr>
</tp1:TrackPointExtension>
</extensions>
</trkpt>
<trkpt lat="43.9587360" lon="12.6551200">
<ele>121.7250000</ele>
<time>2010-05-14T08:54:17Z</time>
<extensions>
<tp1:TrackPointExtension>
<tp1:hr>136</tp1:hr>
</tp1:TrackPointExtension>
</extensions>
</trkpt>
<trkpt lat="43.9589620" lon="12.6550230">
<ele>121.3020000</ele>
<time>2010-05-14T08:54:22Z</time>
<extensions>
<tp1:TrackPointExtension>
<tp1:hr>133</tp1:hr>
</tp1:TrackPointExtension>
</extensions>
</trkpt>
<trkpt lat="43.9593600" lon="12.6549660">
<ele>119.6860000</ele>
<time>2010-05-14T08:54:29Z</time>
<extensions>
<tp1:TrackPointExtension>
<tp1:hr>129</tp1:hr>
</tp1:TrackPointExtension>
</extensions>
</trkpt>
<trkpt lat="43.9597610" lon="12.6549210">
<ele>118.4130000</ele>
<time>2010-05-14T08:54:35Z</time>
<extensions>
<tp1:TrackPointExtension>
<tp1:hr>134</tp1:hr>
</tp1:TrackPointExtension>
</extensions>
</trkpt>
<trkpt lat="43.9599050" lon="12.6549060">
<ele>118.0920000</ele>
<time>2010-05-14T08:54:37Z</time>
<extensions>
<tp1:TrackPointExtension>
<tp1:hr>138</tp1:hr>
</tp1:TrackPointExtension>
</extensions>
</trkpt>
<trkpt lat="43.9603870" lon="12.6548520">
<ele>117.2220000</ele>
<time>2010-05-14T08:54:43Z</time>
<extensions>
<tp1:TrackPointExtension>
<tp1:hr>132</tp1:hr>
</tp1:TrackPointExtension>
</extensions>
</trkpt>
<trkpt lat="43.9605480" lon="12.6548340">
<ele>116.4580000</ele>
<time>2010-05-14T08:54:47Z</time>
<extensions>
<tp1:TrackPointExtension>
<tp1:hr>127</tp1:hr>
</tp1:TrackPointExtension>
</extensions>
</trkpt>
<trkpt lat="43.9613140" lon="12.6545380">
<ele>116.3750000</ele>
<time>2010-05-14T08:54:54Z</time>
<extensions>
<tp1:TrackPointExtension>
<tp1:hr>126</tp1:hr>
</tp1:TrackPointExtension>
</extensions>
</trkpt>
<trkpt lat="43.9618560" lon="12.6543550">
<ele>117.2720000</ele>
<time>2010-05-14T08:55:01Z</time>
<extensions>
<tp1:TrackPointExtension>
<tp1:hr>126</tp1:hr>
</tp1:TrackPointExtension>
</extensions>
</trkpt>
<trkpt lat="43.9623760" lon="12.6542010">
<ele>118.1800000</ele>
<time>2010-05-14T08:55:09Z</time>
<extensions>
<tp1:TrackPointExtension>
<tp1:hr>126</tp1:hr>
</tp1:TrackPointExtension>
</extensions>
</trkpt>
<trkpt lat="43.9629770" lon="12.6540300">
<ele>118.4590000</ele>
<time>2010-05-14T08:55:18Z</time>
<extensions>
<tp1:TrackPointExtension>
<tp1:hr>125</tp1:hr>
</tp1:TrackPointExtension>
</extensions>
</trkpt>
<trkpt lat="43.9633880" lon="12.6539120">
<ele>119.1530000</ele>
<time>2010-05-14T08:55:24Z</time>
<extensions>
<tp1:TrackPointExtension>
<tp1:hr>125</tp1:hr>
</tp1:TrackPointExtension>
</extensions>
</trkpt>
<trkpt lat="43.9635620" lon="12.6537940">
<ele>119.3670000</ele>
<time>2010-05-14T08:55:27Z</time>
<extensions>
<tp1:TrackPointExtension>
<tp1:hr>124</tp1:hr>
</tp1:TrackPointExtension>
</extensions>
</trkpt>
<trkpt lat="43.9637930" lon="12.6535050">
<ele>120.0430000</ele>
<time>2010-05-14T08:55:32Z</time>
<extensions>
<tp1:TrackPointExtension>
<tp1:hr>124</tp1:hr>
</tp1:TrackPointExtension>
</extensions>
</trkpt>
<trkpt lat="43.9638700" lon="12.6532530">
<ele>120.6550000</ele>
<time>2010-05-14T08:55:35Z</time>
<extensions>
<tp1:TrackPointExtension>
<tp1:hr>125</tp1:hr>
</tp1:TrackPointExtension>
</extensions>
</trkpt>
<trkpt lat="43.9639210" lon="12.6530890">
<ele>120.8300000</ele>
<time>2010-05-14T08:55:37Z</time>
<extensions>
<tp1:TrackPointExtension>
<tp1:hr>126</tp1:hr>
</tp1:TrackPointExtension>
</extensions>
</trkpt>
<trkpt lat="43.9640860" lon="12.6526880">
<ele>120.2460000</ele>
<time>2010-05-14T08:55:42Z</time>
<extensions>
<tp1:TrackPointExtension>
<tp1:hr>127</tp1:hr>
</tp1:TrackPointExtension>
</extensions>
</trkpt>
<trkpt lat="43.9642970" lon="12.6522960">
<ele>120.7870000</ele>
<time>2010-05-14T08:55:47Z</time>
<extensions>
<tp1:TrackPointExtension>
<tp1:hr>127</tp1:hr>
</tp1:TrackPointExtension>
</extensions>
</trkpt>
<trkpt lat="43.9645740" lon="12.6522320">
<ele>120.6360000</ele>
<time>2010-05-14T08:55:51Z</time>
<extensions>
<tp1:TrackPointExtension>
<tp1:hr>127</tp1:hr>
</tp1:TrackPointExtension>
</extensions>
</trkpt>
<trkpt lat="43.9652130" lon="12.6522880">
<ele>121.1110000</ele>
<time>2010-05-14T08:56:00Z</time>
<extensions>
<tp1:TrackPointExtension>
<tp1:hr>127</tp1:hr>
</tp1:TrackPointExtension>
</extensions>
</trkpt>
<trkpt lat="43.9658030" lon="12.6522340">
<ele>120.5440000</ele>
<time>2010-05-14T08:56:08Z</time>
<extensions>
<tp1:TrackPointExtension>
<tp1:hr>125</tp1:hr>
</tp1:TrackPointExtension>
</extensions>
</trkpt>
<trkpt lat="43.9659790" lon="12.6522180">
<ele>120.4670000</ele>
<time>2010-05-14T08:56:11Z</time>
<extensions>
<tp1:TrackPointExtension>
<tp1:hr>122</tp1:hr>
</tp1:TrackPointExtension>
</extensions>
</trkpt>
<trkpt lat="43.9659980" lon="12.6522160">
<ele>120.4440000</ele>
<time>2010-05-14T08:56:12Z</time>
<extensions>
<tp1:TrackPointExtension>
<tp1:hr>122</tp1:hr>
</tp1:TrackPointExtension>
</extensions>
</trkpt>
<trkpt lat="43.9659980" lon="12.6522160">
<ele>120.1370000</ele>
<time>2010-05-14T08:56:14Z</time>
<extensions>
<tp1:TrackPointExtension>
<tp1:hr>120</tp1:hr>
</tp1:TrackPointExtension>
</extensions>
</trkpt>
<trkpt lat="43.9661270" lon="12.6522160">
<ele>120.1150000</ele>
<time>2010-05-14T08:56:17Z</time>
<extensions>
<tp1:TrackPointExtension>
<tp1:hr>120</tp1:hr>
</tp1:TrackPointExtension>
</extensions>
</trkpt>
<trkpt lat="43.9661120" lon="12.6520800">
<ele>120.4710000</ele>
<time>2010-05-14T08:56:20Z</time>
<extensions>
<tp1:TrackPointExtension>
<tp1:hr>120</tp1:hr>
</tp1:TrackPointExtension>
</extensions>
</trkpt>
<trkpt lat="43.9658310" lon="12.6514280">
<ele>123.0050000</ele>
<time>2010-05-14T08:56:30Z</time>
<extensions>
<tp1:TrackPointExtension>
<tp1:hr>124</tp1:hr>
</tp1:TrackPointExtension>
</extensions>
</trkpt>
<trkpt lat="43.9655880" lon="12.6509650">
<ele>124.5630000</ele>
<time>2010-05-14T08:56:38Z</time>
<extensions>
<tp1:TrackPointExtension>
<tp1:hr>126</tp1:hr>
</tp1:TrackPointExtension>
</extensions>
</trkpt>
<trkpt lat="43.9653410" lon="12.6505910">
<ele>125.2690000</ele>
<time>2010-05-14T08:56:45Z</time>
<extensions>
<tp1:TrackPointExtension>
<tp1:hr>128</tp1:hr>
</tp1:TrackPointExtension>
</extensions>
</trkpt>
<trkpt lat="43.9649200" lon="12.6499650">
<ele>125.7390000</ele>
<time>2010-05-14T08:56:56Z</time>
<extensions>
<tp1:TrackPointExtension>
<tp1:hr>127</tp1:hr>
</tp1:TrackPointExtension>
</extensions>
</trkpt>
<trkpt lat="43.9647730" lon="12.6497470">
<ele>126.9960000</ele>
<time>2010-05-14T08:57:00Z</time>
<extensions>
<tp1:TrackPointExtension>
<tp1:hr>128</tp1:hr>
</tp1:TrackPointExtension>
</extensions>
</trkpt>
<trkpt lat="43.9643310" lon="12.6490910">
<ele>127.6890000</ele>
<time>2010-05-14T08:57:12Z</time>
<extensions>
<tp1:TrackPointExtension>
<tp1:hr>128</tp1:hr>
</tp1:TrackPointExtension>
</extensions>
</trkpt>
<trkpt lat="43.9639590" lon="12.6485910">
<ele>128.9610000</ele>
<time>2010-05-14T08:57:22Z</time>
<extensions>
<tp1:TrackPointExtension>
<tp1:hr>130</tp1:hr>
</tp1:TrackPointExtension>
</extensions>
</trkpt>
<trkpt lat="43.9636090" lon="12.6481290">
<ele>130.2540000</ele>
<time>2010-05-14T08:57:31Z</time>
<extensions>
<tp1:TrackPointExtension>
<tp1:hr>130</tp1:hr>
</tp1:TrackPointExtension>
</extensions>
</trkpt>
<trkpt lat="43.9632070" lon="12.6475850">
<ele>130.0960000</ele>
<time>2010-05-14T08:57:41Z</time>
<extensions>
<tp1:TrackPointExtension>
<tp1:hr>130</tp1:hr>
</tp1:TrackPointExtension>
</extensions>
</trkpt>
<trkpt lat="43.9628760" lon="12.6471360">
<ele>128.4640000</ele>
<time>2010-05-14T08:57:48Z</time>
<extensions>
<tp1:TrackPointExtension>
<tp1:hr>128</tp1:hr>
</tp1:TrackPointExtension>
</extensions>
</trkpt>
<trkpt lat="43.9624660" lon="12.6465790">
<ele>128.7290000</ele>
<time>2010-05-14T08:57:56Z</time>
<extensions>
<tp1:TrackPointExtension>
<tp1:hr>127</tp1:hr>
</tp1:TrackPointExtension>
</extensions>
</trkpt>
<trkpt lat="43.9621970" lon="12.6460780">
<ele>129.8480000</ele>
<time>2010-05-14T08:58:03Z</time>
<extensions>
<tp1:TrackPointExtension>
<tp1:hr>128</tp1:hr>
</tp1:TrackPointExtension>
</extensions>
</trkpt>
<trkpt lat="43.9620620" lon="12.6457790">
<ele>128.5320000</ele>
<time>2010-05-14T08:58:07Z</time>
<extensions>
<tp1:TrackPointExtension>
<tp1:hr>127</tp1:hr>
</tp1:TrackPointExtension>
</extensions>
</trkpt>
<trkpt lat="43.9619640" lon="12.6455160">
<ele>126.9930000</ele>
<time>2010-05-14T08:58:10Z</time>
<extensions>
<tp1:TrackPointExtension>
<tp1:hr>127</tp1:hr>
</tp1:TrackPointExtension>
</extensions>
</trkpt>
<trkpt lat="43.9619940" lon="12.6452110">
<ele>127.2180000</ele>
<time>2010-05-14T08:58:13Z</time>
<extensions>
<tp1:TrackPointExtension>
<tp1:hr>127</tp1:hr>
</tp1:TrackPointExtension>
</extensions>
</trkpt>
<trkpt lat="43.9620870" lon="12.6450470">
<ele>127.1570000</ele>
<time>2010-05-14T08:58:15Z</time>
<extensions>
<tp1:TrackPointExtension>
<tp1:hr>127</tp1:hr>
</tp1:TrackPointExtension>
</extensions>
</trkpt>
<trkpt lat="43.9625530" lon="12.6442250">
<ele>127.4570000</ele>
<time>2010-05-14T08:58:25Z</time>
<extensions>
<tp1:TrackPointExtension>
<tp1:hr>127</tp1:hr>
</tp1:TrackPointExtension>
</extensions>
</trkpt>
<trkpt lat="43.9626940" lon="12.6439070">
<ele>127.6150000</ele>
<time>2010-05-14T08:58:29Z</time>
<extensions>
<tp1:TrackPointExtension>
<tp1:hr>126</tp1:hr>
</tp1:TrackPointExtension>
</extensions>
</trkpt>
<trkpt lat="43.9625810" lon="12.6436750">
<ele>127.4770000</ele>
<time>2010-05-14T08:58:32Z</time>
<extensions>
<tp1:TrackPointExtension>
<tp1:hr>126</tp1:hr>
</tp1:TrackPointExtension>
</extensions>
</trkpt>
<trkpt lat="43.9621060" lon="12.6429490">
<ele>127.4130000</ele>
<time>2010-05-14T08:58:42Z</time>
<extensions>
<tp1:TrackPointExtension>
<tp1:hr>124</tp1:hr>
</tp1:TrackPointExtension>
</extensions>
</trkpt>
<trkpt lat="43.9619390" lon="12.6427240">
<ele>126.3290000</ele>
<time>2010-05-14T08:58:45Z</time>
<extensions>
<tp1:TrackPointExtension>
<tp1:hr>130</tp1:hr>
</tp1:TrackPointExtension>
</extensions>
</trkpt>
<trkpt lat="43.9617320" lon="12.6426590">
<ele>126.4210000</ele>
<time>2010-05-14T08:58:48Z</time>
<extensions>
<tp1:TrackPointExtension>
<tp1:hr>138</tp1:hr>
</tp1:TrackPointExtension>
</extensions>
</trkpt>
<trkpt lat="43.9612500" lon="12.6425090">
<ele>126.9640000</ele>
<time>2010-05-14T08:58:55Z</time>
<extensions>
<tp1:TrackPointExtension>
<tp1:hr>133</tp1:hr>
</tp1:TrackPointExtension>
</extensions>
</trkpt>
<trkpt lat="43.9611830" lon="12.6424880">
<ele>127.1850000</ele>
<time>2010-05-14T08:58:56Z</time>
<extensions>
<tp1:TrackPointExtension>
<tp1:hr>133</tp1:hr>
</tp1:TrackPointExtension>
</extensions>
</trkpt>
<trkpt lat="43.9610510" lon="12.6424460">
<ele>127.3340000</ele>
<time>2010-05-14T08:58:58Z</time>
<extensions>
<tp1:TrackPointExtension>
<tp1:hr>124</tp1:hr>
</tp1:TrackPointExtension>
</extensions>
</trkpt>
<trkpt lat="43.9605450" lon="12.6423050">
<ele>128.7790000</ele>
<time>2010-05-14T08:59:06Z</time>
<extensions>
<tp1:TrackPointExtension>
<tp1:hr>123</tp1:hr>
</tp1:TrackPointExtension>
</extensions>
</trkpt>
<trkpt lat="43.9601570" lon="12.6423280">
<ele>129.4230000</ele>
<time>2010-05-14T08:59:12Z</time>
<extensions>
<tp1:TrackPointExtension>
<tp1:hr>123</tp1:hr>
</tp1:TrackPointExtension>
</extensions>
</trkpt>
<trkpt lat="43.9596620" lon="12.6423320">
<ele>130.9190000</ele>
<time>2010-05-14T08:59:20Z</time>
<extensions>
<tp1:TrackPointExtension>
<tp1:hr>123</tp1:hr>
</tp1:TrackPointExtension>
</extensions>
</trkpt>
<trkpt lat="43.9592700" lon="12.6423060">
<ele>132.6940000</ele>
<time>2010-05-14T08:59:27Z</time>
<extensions>
<tp1:TrackPointExtension>
<tp1:hr>124</tp1:hr>
</tp1:TrackPointExtension>
</extensions>
</trkpt>
<trkpt lat="43.9589270" lon="12.6421400">
<ele>133.9080000</ele>
<time>2010-05-14T08:59:34Z</time>
<extensions>
<tp1:TrackPointExtension>
<tp1:hr>126</tp1:hr>
</tp1:TrackPointExtension>
</extensions>
</trkpt>
<trkpt lat="43.9584490" lon="12.6418720">
<ele>136.3450000</ele>
<time>2010-05-14T08:59:44Z</time>
<extensions>
<tp1:TrackPointExtension>
<tp1:hr>127</tp1:hr>
</tp1:TrackPointExtension>
</extensions>
</trkpt>
<trkpt lat="43.9581010" lon="12.6416580">
<ele>137.5280000</ele>
<time>2010-05-14T08:59:52Z</time>
<extensions>
<tp1:TrackPointExtension>
<tp1:hr>127</tp1:hr>
</tp1:TrackPointExtension>
</extensions>
</trkpt>
<trkpt lat="43.9578010" lon="12.6413580">
<ele>138.6810000</ele>
<time>2010-05-14T09:00:00Z</time>
<extensions>
<tp1:TrackPointExtension>
<tp1:hr>130</tp1:hr>
</tp1:TrackPointExtension>
</extensions>
</trkpt>
<trkpt lat="43.9575220" lon="12.6410790">
<ele>139.8080000</ele>
<time>2010-05-14T09:00:07Z</time>
<extensions>
<tp1:TrackPointExtension>
<tp1:hr>130</tp1:hr>
</tp1:TrackPointExtension>
</extensions>
</trkpt>
<trkpt lat="43.9571970" lon="12.6407040">
<ele>141.4180000</ele>
<time>2010-05-14T09:00:16Z</time>
<extensions>
<tp1:TrackPointExtension>
<tp1:hr>133</tp1:hr>
</tp1:TrackPointExtension>
</extensions>
</trkpt>
<trkpt lat="43.9570670" lon="12.6405260">
<ele>142.0500000</ele>
<time>2010-05-14T09:00:20Z</time>
<extensions>
<tp1:TrackPointExtension>
<tp1:hr>133</tp1:hr>
</tp1:TrackPointExtension>
</extensions>
</trkpt>
<trkpt lat="43.9568850" lon="12.6401000">
<ele>143.0730000</ele>
<time>2010-05-14T09:00:28Z</time>
<extensions>
<tp1:TrackPointExtension>
<tp1:hr>133</tp1:hr>
</tp1:TrackPointExtension>
</extensions>
</trkpt>
<trkpt lat="43.9567410" lon="12.6396490">
<ele>142.9210000</ele>
<time>2010-05-14T09:00:35Z</time>
<extensions>
<tp1:TrackPointExtension>
<tp1:hr>133</tp1:hr>
</tp1:TrackPointExtension>
</extensions>
</trkpt>
<trkpt lat="43.9565940" lon="12.6392260">
<ele>142.6020000</ele>
<time>2010-05-14T09:00:41Z</time>
<extensions>
<tp1:TrackPointExtension>
<tp1:hr>132</tp1:hr>
</tp1:TrackPointExtension>
</extensions>
</trkpt>
<trkpt lat="43.9564320" lon="12.6388420">
<ele>142.7510000</ele>
<time>2010-05-14T09:00:47Z</time>
<extensions>
<tp1:TrackPointExtension>
<tp1:hr>130</tp1:hr>
</tp1:TrackPointExtension>
</extensions>
</trkpt>
<trkpt lat="43.9563220" lon="12.6385800">
<ele>143.1400000</ele>
<time>2010-05-14T09:00:52Z</time>
<extensions>
<tp1:TrackPointExtension>
<tp1:hr>129</tp1:hr>
</tp1:TrackPointExtension>
</extensions>
</trkpt>
<trkpt lat="43.9562990" lon="12.6385260">
<ele>142.6620000</ele>
<time>2010-05-14T09:00:54Z</time>
<extensions>
<tp1:TrackPointExtension>
<tp1:hr>128</tp1:hr>
</tp1:TrackPointExtension>
</extensions>
</trkpt>
<trkpt lat="43.9563850" lon="12.6383120">
<ele>140.0970000</ele>
<time>2010-05-14T09:01:00Z</time>
<extensions>
<tp1:TrackPointExtension>
<tp1:hr>127</tp1:hr>
</tp1:TrackPointExtension>
</extensions>
</trkpt>
<trkpt lat="43.9565190" lon="12.6374640">
<ele>136.1660000</ele>
<time>2010-05-14T09:01:05Z</time>
<extensions>
<tp1:TrackPointExtension>
<tp1:hr>124</tp1:hr>
</tp1:TrackPointExtension>
</extensions>
</trkpt>
<trkpt lat="43.9566250" lon="12.6367960">
<ele>130.9700000</ele>
<time>2010-05-14T09:01:10Z</time>
<extensions>
<tp1:TrackPointExtension>
<tp1:hr>122</tp1:hr>
</tp1:TrackPointExtension>
</extensions>
</trkpt>
<trkpt lat="43.9566690" lon="12.6364800">
<ele>129.4150000</ele>
<time>2010-05-14T09:01:12Z</time>
<extensions>
<tp1:TrackPointExtension>
<tp1:hr>120</tp1:hr>
</tp1:TrackPointExtension>
</extensions>
</trkpt>
<trkpt lat="43.9568190" lon="12.6354080">
<ele>126.5100000</ele>
<time>2010-05-14T09:01:19Z</time>
<extensions>
<tp1:TrackPointExtension>
<tp1:hr>122</tp1:hr>
</tp1:TrackPointExtension>
</extensions>
</trkpt>
<trkpt lat="43.9568900" lon="12.6349890">
<ele>126.6310000</ele>
<time>2010-05-14T09:01:22Z</time>
<extensions>
<tp1:TrackPointExtension>
<tp1:hr>130</tp1:hr>
</tp1:TrackPointExtension>
</extensions>
</trkpt>
<trkpt lat="43.9569190" lon="12.6348580">
<ele>126.7240000</ele>
<time>2010-05-14T09:01:23Z</time>
<extensions>
<tp1:TrackPointExtension>
<tp1:hr>130</tp1:hr>
</tp1:TrackPointExtension>
</extensions>
</trkpt>
<trkpt lat="43.9570920" lon="12.6342220">
<ele>123.0480000</ele>
<time>2010-05-14T09:01:28Z</time>
<extensions>
<tp1:TrackPointExtension>
<tp1:hr>128</tp1:hr>
</tp1:TrackPointExtension>
</extensions>
</trkpt>
<trkpt lat="43.9572780" lon="12.6338530">
<ele>120.0710000</ele>
<time>2010-05-14T09:01:31Z</time>
<extensions>
<tp1:TrackPointExtension>
<tp1:hr>122</tp1:hr>
</tp1:TrackPointExtension>
</extensions>
</trkpt>
<trkpt lat="43.9573510" lon="12.6337370">
<ele>119.8160000</ele>
<time>2010-05-14T09:01:32Z</time>
<extensions>
<tp1:TrackPointExtension>
<tp1:hr>118</tp1:hr>
</tp1:TrackPointExtension>
</extensions>
</trkpt>
<trkpt lat="43.9575090" lon="12.6335180">
<ele>118.3190000</ele>
<time>2010-05-14T09:01:34Z</time>
<extensions>
<tp1:TrackPointExtension>
<tp1:hr>115</tp1:hr>
</tp1:TrackPointExtension>
</extensions>
</trkpt>
<trkpt lat="43.9577630" lon="12.6332050">
<ele>116.9020000</ele>
<time>2010-05-14T09:01:37Z</time>
<extensions>
<tp1:TrackPointExtension>
<tp1:hr>114</tp1:hr>
</tp1:TrackPointExtension>
</extensions>
</trkpt>
<trkpt lat="43.9578470" lon="12.6331020">
<ele>116.5900000</ele>
<time>2010-05-14T09:01:38Z</time>
<extensions>
<tp1:TrackPointExtension>
<tp1:hr>113</tp1:hr>
</tp1:TrackPointExtension>
</extensions>
</trkpt>
<trkpt lat="43.9581390" lon="12.6326460">
<ele>116.4970000</ele>
<time>2010-05-14T09:01:42Z</time>
<extensions>
<tp1:TrackPointExtension>
<tp1:hr>115</tp1:hr>
</tp1:TrackPointExtension>
</extensions>
</trkpt>
<trkpt lat="43.9585420" lon="12.6318150">
<ele>115.8620000</ele>
<time>2010-05-14T09:01:49Z</time>
<extensions>
<tp1:TrackPointExtension>
<tp1:hr>115</tp1:hr>
</tp1:TrackPointExtension>
</extensions>
</trkpt>
<trkpt lat="43.9587120" lon="12.6313310">
<ele>114.6150000</ele>
<time>2010-05-14T09:01:53Z</time>
<extensions>
<tp1:TrackPointExtension>
<tp1:hr>115</tp1:hr>
</tp1:TrackPointExtension>
</extensions>
</trkpt>
<trkpt lat="43.9587550" lon="12.6312110">
<ele>114.4280000</ele>
<time>2010-05-14T09:01:54Z</time>
<extensions>
<tp1:TrackPointExtension>
<tp1:hr>115</tp1:hr>
</tp1:TrackPointExtension>
</extensions>
</trkpt>
<trkpt lat="43.9589680" lon="12.6306190">
<ele>112.8670000</ele>
<time>2010-05-14T09:01:59Z</time>
<extensions>
<tp1:TrackPointExtension>
<tp1:hr>114</tp1:hr>
</tp1:TrackPointExtension>
</extensions>
</trkpt>
<trkpt lat="43.9590360" lon="12.6305340">
<ele>112.7240000</ele>
<time>2010-05-14T09:02:00Z</time>
<extensions>
<tp1:TrackPointExtension>
<tp1:hr>114</tp1:hr>
</tp1:TrackPointExtension>
</extensions>
</trkpt>
<trkpt lat="43.9594060" lon="12.6301580">
<ele>111.7300000</ele>
<time>2010-05-14T09:02:05Z</time>
<extensions>
<tp1:TrackPointExtension>
<tp1:hr>113</tp1:hr>
</tp1:TrackPointExtension>
</extensions>
</trkpt>
<trkpt lat="43.9598180" lon="12.6297710">
<ele>108.5490000</ele>
<time>2010-05-14T09:02:13Z</time>
<extensions>
<tp1:TrackPointExtension>
<tp1:hr>113</tp1:hr>
</tp1:TrackPointExtension>
</extensions>
</trkpt>
<trkpt lat="43.9608640" lon="12.6289750">
<ele>105.6580000</ele>
<time>2010-05-14T09:02:22Z</time>
<extensions>
<tp1:TrackPointExtension>
<tp1:hr>113</tp1:hr>
</tp1:TrackPointExtension>
</extensions>
</trkpt>
<trkpt lat="43.9615940" lon="12.6284180">
<ele>103.2750000</ele>
<time>2010-05-14T09:02:30Z</time>
<extensions>
<tp1:TrackPointExtension>
<tp1:hr>111</tp1:hr>
</tp1:TrackPointExtension>
</extensions>
</trkpt>
<trkpt lat="43.9619410" lon="12.6279630">
<ele>102.4340000</ele>
<time>2010-05-14T09:02:35Z</time>
<extensions>
<tp1:TrackPointExtension>
<tp1:hr>110</tp1:hr>
</tp1:TrackPointExtension>
</extensions>
</trkpt>
<trkpt lat="43.9623080" lon="12.6274090">
<ele>102.4870000</ele>
<time>2010-05-14T09:02:41Z</time>
<extensions>
<tp1:TrackPointExtension>
<tp1:hr>111</tp1:hr>
</tp1:TrackPointExtension>
</extensions>
</trkpt>
<trkpt lat="43.9625290" lon="12.6269680">
<ele>103.8780000</ele>
<time>2010-05-14T09:02:46Z</time>
<extensions>
<tp1:TrackPointExtension>
<tp1:hr>112</tp1:hr>
</tp1:TrackPointExtension>
</extensions>
</trkpt>
<trkpt lat="43.9627770" lon="12.6264540">
<ele>105.6340000</ele>
<time>2010-05-14T09:02:53Z</time>
<extensions>
<tp1:TrackPointExtension>
<tp1:hr>113</tp1:hr>
</tp1:TrackPointExtension>
</extensions>
</trkpt>
<trkpt lat="43.9630310" lon="12.6259640">
<ele>107.8030000</ele>
<time>2010-05-14T09:03:01Z</time>
<extensions>
<tp1:TrackPointExtension>
<tp1:hr>116</tp1:hr>
</tp1:TrackPointExtension>
</extensions>
</trkpt>
<trkpt lat="43.9633020" lon="12.6255660">
<ele>110.3630000</ele>
<time>2010-05-14T09:03:09Z</time>
<extensions>
<tp1:TrackPointExtension>
<tp1:hr>120</tp1:hr>
</tp1:TrackPointExtension>
</extensions>
</trkpt>
<trkpt lat="43.9635500" lon="12.6252020">
<ele>112.0620000</ele>
<time>2010-05-14T09:03:17Z</time>
<extensions>
<tp1:TrackPointExtension>
<tp1:hr>122</tp1:hr>
</tp1:TrackPointExtension>
</extensions>
</trkpt>
<trkpt lat="43.9637170" lon="12.6245960">
<ele>112.4750000</ele>
<time>2010-05-14T09:03:27Z</time>
<extensions>
<tp1:TrackPointExtension>
<tp1:hr>123</tp1:hr>
</tp1:TrackPointExtension>
</extensions>
</trkpt>
<trkpt lat="43.9638370" lon="12.6240630">
<ele>110.3200000</ele>
<time>2010-05-14T09:03:34Z</time>
<extensions>
<tp1:TrackPointExtension>
<tp1:hr>121</tp1:hr>
</tp1:TrackPointExtension>
</extensions>
</trkpt>
<trkpt lat="43.9639550" lon="12.6234900">
<ele>107.6620000</ele>
<time>2010-05-14T09:03:40Z</time>
<extensions>
<tp1:TrackPointExtension>
<tp1:hr>119</tp1:hr>
</tp1:TrackPointExtension>
</extensions>
</trkpt>
<trkpt lat="43.9639730" lon="12.6233930">
<ele>107.3790000</ele>
<time>2010-05-14T09:03:41Z</time>
<extensions>
<tp1:TrackPointExtension>
<tp1:hr>119</tp1:hr>
</tp1:TrackPointExtension>
</extensions>
</trkpt>
<trkpt lat="43.9639900" lon="12.6233030">
<ele>107.2570000</ele>
<time>2010-05-14T09:03:42Z</time>
<extensions>
<tp1:TrackPointExtension>
<tp1:hr>119</tp1:hr>
</tp1:TrackPointExtension>
</extensions>
</trkpt>
<trkpt lat="43.9640240" lon="12.6231200">
<ele>106.0000000</ele>
<time>2010-05-14T09:03:46Z</time>
<extensions>
<tp1:TrackPointExtension>
<tp1:hr>119</tp1:hr>
</tp1:TrackPointExtension>
</extensions>
</trkpt>
<trkpt lat="43.9637420" lon="12.6223930">
<ele>106.1940000</ele>
<time>2010-05-14T09:03:54Z</time>
<extensions>
<tp1:TrackPointExtension>
<tp1:hr>121</tp1:hr>
</tp1:TrackPointExtension>
</extensions>
</trkpt>
<trkpt lat="43.9635050" lon="12.6219880">
<ele>106.8130000</ele>
<time>2010-05-14T09:04:00Z</time>
<extensions>
<tp1:TrackPointExtension>
<tp1:hr>122</tp1:hr>
</tp1:TrackPointExtension>
</extensions>
</trkpt>
<trkpt lat="43.9631770" lon="12.6215880">
<ele>106.1600000</ele>
<time>2010-05-14T09:04:07Z</time>
<extensions>
<tp1:TrackPointExtension>
<tp1:hr>121</tp1:hr>
</tp1:TrackPointExtension>
</extensions>
</trkpt>
<trkpt lat="43.9627790" lon="12.6211140">
<ele>104.7380000</ele>
<time>2010-05-14T09:04:14Z</time>
<extensions>
<tp1:TrackPointExtension>
<tp1:hr>121</tp1:hr>
</tp1:TrackPointExtension>
</extensions>
</trkpt>
<trkpt lat="43.9622350" lon="12.6204600">
<ele>103.0360000</ele>
<time>2010-05-14T09:04:23Z</time>
<extensions>
<tp1:TrackPointExtension>
<tp1:hr>121</tp1:hr>
</tp1:TrackPointExtension>
</extensions>
</trkpt>
<trkpt lat="43.9619130" lon="12.6200000">
<ele>101.7040000</ele>
<time>2010-05-14T09:04:29Z</time>
<extensions>
<tp1:TrackPointExtension>
<tp1:hr>118</tp1:hr>
</tp1:TrackPointExtension>
</extensions>
</trkpt>
<trkpt lat="43.9616360" lon="12.6196070">
<ele>98.1860000</ele>
<time>2010-05-14T09:04:34Z</time>
<extensions>
<tp1:TrackPointExtension>
<tp1:hr>115</tp1:hr>
</tp1:TrackPointExtension>
</extensions>
</trkpt>
<trkpt lat="43.9612330" lon="12.6190320">
<ele>93.6520000</ele>
<time>2010-05-14T09:04:40Z</time>
<extensions>
<tp1:TrackPointExtension>
<tp1:hr>113</tp1:hr>
</tp1:TrackPointExtension>
</extensions>
</trkpt>
<trkpt lat="43.9608800" lon="12.6185290">
<ele>90.8880000</ele>
<time>2010-05-14T09:04:45Z</time>
<extensions>
<tp1:TrackPointExtension>
<tp1:hr>112</tp1:hr>
</tp1:TrackPointExtension>
</extensions>
</trkpt>
<trkpt lat="43.9605450" lon="12.6183210">
<ele>89.6540000</ele>
<time>2010-05-14T09:04:49Z</time>
<extensions>
<tp1:TrackPointExtension>
<tp1:hr>110</tp1:hr>
</tp1:TrackPointExtension>
</extensions>
</trkpt>
<trkpt lat="43.9600470" lon="12.6180510">
<ele>89.3560000</ele>
<time>2010-05-14T09:04:55Z</time>
<extensions>
<tp1:TrackPointExtension>
<tp1:hr>107</tp1:hr>
</tp1:TrackPointExtension>
</extensions>
</trkpt>
<trkpt lat="43.9594210" lon="12.6177130">
<ele>88.1040000</ele>
<time>2010-05-14T09:05:03Z</time>
<extensions>
<tp1:TrackPointExtension>
<tp1:hr>106</tp1:hr>
</tp1:TrackPointExtension>
</extensions>
</trkpt>
<trkpt lat="43.9593600" lon="12.6176800">
<ele>88.1540000</ele>
<time>2010-05-14T09:05:04Z</time>
<extensions>
<tp1:TrackPointExtension>
<tp1:hr>105</tp1:hr>
</tp1:TrackPointExtension>
</extensions>
</trkpt>
<trkpt lat="43.9592410" lon="12.6175670">
<ele>86.6150000</ele>
<time>2010-05-14T09:05:07Z</time>
<extensions>
<tp1:TrackPointExtension>
<tp1:hr>103</tp1:hr>
</tp1:TrackPointExtension>
</extensions>
</trkpt>
<trkpt lat="43.9592430" lon="12.6174600">
<ele>85.2720000</ele>
<time>2010-05-14T09:05:09Z</time>
<extensions>
<tp1:TrackPointExtension>
<tp1:hr>103</tp1:hr>
</tp1:TrackPointExtension>
</extensions>
</trkpt>
<trkpt lat="43.9593310" lon="12.6173480">
<ele>83.7770000</ele>
<time>2010-05-14T09:05:11Z</time>
<extensions>
<tp1:TrackPointExtension>
<tp1:hr>102</tp1:hr>
</tp1:TrackPointExtension>
</extensions>
</trkpt>
<trkpt lat="43.9594580" lon="12.6172530">
<ele>82.6930000</ele>
<time>2010-05-14T09:05:13Z</time>
<extensions>
<tp1:TrackPointExtension>
<tp1:hr>101</tp1:hr>
</tp1:TrackPointExtension>
</extensions>
</trkpt>
<trkpt lat="43.9601540" lon="12.6172400">
<ele>80.3200000</ele>
<time>2010-05-14T09:05:21Z</time>
<extensions>
<tp1:TrackPointExtension>
<tp1:hr>102</tp1:hr>
</tp1:TrackPointExtension>
</extensions>
</trkpt>
<trkpt lat="43.9608000" lon="12.6172580">
<ele>76.4110000</ele>
<time>2010-05-14T09:05:28Z</time>
<extensions>
<tp1:TrackPointExtension>
<tp1:hr>103</tp1:hr>
</tp1:TrackPointExtension>
</extensions>
</trkpt>
<trkpt lat="43.9614030" lon="12.6172740">
<ele>73.3180000</ele>
<time>2010-05-14T09:05:34Z</time>
<extensions>
<tp1:TrackPointExtension>
<tp1:hr>103</tp1:hr>
</tp1:TrackPointExtension>
</extensions>
</trkpt>
<trkpt lat="43.9614940" lon="12.6172770">
<ele>72.7950000</ele>
<time>2010-05-14T09:05:35Z</time>
<extensions>
<tp1:TrackPointExtension>
<tp1:hr>102</tp1:hr>
</tp1:TrackPointExtension>
</extensions>
</trkpt>
<trkpt lat="43.9617300" lon="12.6172750">
<ele>71.3480000</ele>
<time>2010-05-14T09:05:38Z</time>
<extensions>
<tp1:TrackPointExtension>
<tp1:hr>102</tp1:hr>
</tp1:TrackPointExtension>
</extensions>
</trkpt>
<trkpt lat="43.9618740" lon="12.6171240">
<ele>69.4540000</ele>
<time>2010-05-14T09:05:41Z</time>
<extensions>
<tp1:TrackPointExtension>
<tp1:hr>101</tp1:hr>
</tp1:TrackPointExtension>
</extensions>
</trkpt>
<trkpt lat="43.9618780" lon="12.6169700">
<ele>67.5630000</ele>
<time>2010-05-14T09:05:43Z</time>
<extensions>
<tp1:TrackPointExtension>
<tp1:hr>101</tp1:hr>
</tp1:TrackPointExtension>
</extensions>
</trkpt>
<trkpt lat="43.9618430" lon="12.6167990">
<ele>66.2380000</ele>
<time>2010-05-14T09:05:45Z</time>
<extensions>
<tp1:TrackPointExtension>
<tp1:hr>100</tp1:hr>
</tp1:TrackPointExtension>
</extensions>
</trkpt>
<trkpt lat="43.9617940" lon="12.6167190">
<ele>65.5240000</ele>
<time>2010-05-14T09:05:46Z</time>
<extensions>
<tp1:TrackPointExtension>
<tp1:hr>100</tp1:hr>
</tp1:TrackPointExtension>
</extensions>
</trkpt>
<trkpt lat="43.9614530" lon="12.6163140">
<ele>62.0640000</ele>
<time>2010-05-14T09:05:51Z</time>
<extensions>
<tp1:TrackPointExtension>
<tp1:hr>98</tp1:hr>
</tp1:TrackPointExtension>
</extensions>
</trkpt>
<trkpt lat="43.9613810" lon="12.6162290">
<ele>61.6830000</ele>
<time>2010-05-14T09:05:52Z</time>
<extensions>
<tp1:TrackPointExtension>
<tp1:hr>98</tp1:hr>
</tp1:TrackPointExtension>
</extensions>
</trkpt>
<trkpt lat="43.9611300" lon="12.6158510">
<ele>58.0650000</ele>
<time>2010-05-14T09:05:56Z</time>
<extensions>
<tp1:TrackPointExtension>
<tp1:hr>98</tp1:hr>
</tp1:TrackPointExtension>
</extensions>
</trkpt>
<trkpt lat="43.9611070" lon="12.6157230">
<ele>57.1510000</ele>
<time>2010-05-14T09:05:57Z</time>
<extensions>
<tp1:TrackPointExtension>
<tp1:hr>98</tp1:hr>
</tp1:TrackPointExtension>
</extensions>
</trkpt>
<trkpt lat="43.9610050" lon="12.6151720">
<ele>54.3440000</ele>
<time>2010-05-14T09:06:01Z</time>
<extensions>
<tp1:TrackPointExtension>
<tp1:hr>97</tp1:hr>
</tp1:TrackPointExtension>
</extensions>
</trkpt>
<trkpt lat="43.9609300" lon="12.6147670">
<ele>52.9780000</ele>
<time>2010-05-14T09:06:04Z</time>
<extensions>
<tp1:TrackPointExtension>
<tp1:hr>103</tp1:hr>
</tp1:TrackPointExtension>
</extensions>
</trkpt>
<trkpt lat="43.9608860" lon="12.6145280">
<ele>52.3280000</ele>
<time>2010-05-14T09:06:06Z</time>
<extensions>
<tp1:TrackPointExtension>
<tp1:hr>109</tp1:hr>
</tp1:TrackPointExtension>
</extensions>
</trkpt>
<trkpt lat="43.9608530" lon="12.6141820">
<ele>50.9220000</ele>
<time>2010-05-14T09:06:09Z</time>
<extensions>
<tp1:TrackPointExtension>
<tp1:hr>120</tp1:hr>
</tp1:TrackPointExtension>
</extensions>
</trkpt>
<trkpt lat="43.9608740" lon="12.6135750">
<ele>47.2800000</ele>
<time>2010-05-14T09:06:14Z</time>
<extensions>
<tp1:TrackPointExtension>
<tp1:hr>113</tp1:hr>
</tp1:TrackPointExtension>
</extensions>
</trkpt>
<trkpt lat="43.9608790" lon="12.6134460">
<ele>47.5150000</ele>
<time>2010-05-14T09:06:15Z</time>
<extensions>
<tp1:TrackPointExtension>
<tp1:hr>113</tp1:hr>
</tp1:TrackPointExtension>
</extensions>
</trkpt>
<trkpt lat="43.9608870" lon="12.6132030">
<ele>47.9570000</ele>
<time>2010-05-14T09:06:17Z</time>
<extensions>
<tp1:TrackPointExtension>
<tp1:hr>108</tp1:hr>
</tp1:TrackPointExtension>
</extensions>
</trkpt>
<trkpt lat="43.9608910" lon="12.6130880">
<ele>47.8530000</ele>
<time>2010-05-14T09:06:18Z</time>
<extensions>
<tp1:TrackPointExtension>
<tp1:hr>108</tp1:hr>
</tp1:TrackPointExtension>
</extensions>
</trkpt>
<trkpt lat="43.9610210" lon="12.6126040">
<ele>51.0410000</ele>
<time>2010-05-14T09:06:23Z</time>
<extensions>
<tp1:TrackPointExtension>
<tp1:hr>104</tp1:hr>
</tp1:TrackPointExtension>
</extensions>
</trkpt>
<trkpt lat="43.9610510" lon="12.6125270">
<ele>51.8040000</ele>
<time>2010-05-14T09:06:24Z</time>
<extensions>
<tp1:TrackPointExtension>
<tp1:hr>104</tp1:hr>
</tp1:TrackPointExtension>
</extensions>
</trkpt>
<trkpt lat="43.9612750" lon="12.6119590">
<ele>52.9850000</ele>
<time>2010-05-14T09:06:32Z</time>
<extensions>
<tp1:TrackPointExtension>
<tp1:hr>106</tp1:hr>
</tp1:TrackPointExtension>
</extensions>
</trkpt>
<trkpt lat="43.9615280" lon="12.6113150">
<ele>53.9580000</ele>
<time>2010-05-14T09:06:41Z</time>
<extensions>
<tp1:TrackPointExtension>
<tp1:hr>111</tp1:hr>
</tp1:TrackPointExtension>
</extensions>
</trkpt>
<trkpt lat="43.9617460" lon="12.6108330">
<ele>56.2150000</ele>
<time>2010-05-14T09:06:49Z</time>
<extensions>
<tp1:TrackPointExtension>
<tp1:hr>114</tp1:hr>
</tp1:TrackPointExtension>
</extensions>
</trkpt>
<trkpt lat="43.9619290" lon="12.6104440">
<ele>58.1180000</ele>
<time>2010-05-14T09:06:57Z</time>
<extensions>
<tp1:TrackPointExtension>
<tp1:hr>117</tp1:hr>
</tp1:TrackPointExtension>
</extensions>
</trkpt>
<trkpt lat="43.9620860" lon="12.6101120">
<ele>60.8630000</ele>
<time>2010-05-14T09:07:05Z</time>
<extensions>
<tp1:TrackPointExtension>
<tp1:hr>121</tp1:hr>
</tp1:TrackPointExtension>
</extensions>
</trkpt>
<trkpt lat="43.9621420" lon="12.6099940">
<ele>62.1290000</ele>
<time>2010-05-14T09:07:08Z</time>
<extensions>
<tp1:TrackPointExtension>
<tp1:hr>122</tp1:hr>
</tp1:TrackPointExtension>
</extensions>
</trkpt>
<trkpt lat="43.9622460" lon="12.6097730">
<ele>64.6800000</ele>
<time>2010-05-14T09:07:14Z</time>
<extensions>
<tp1:TrackPointExtension>
<tp1:hr>125</tp1:hr>
</tp1:TrackPointExtension>
</extensions>
</trkpt>
<trkpt lat="43.9623630" lon="12.6095250">
<ele>67.6900000</ele>
<time>2010-05-14T09:07:21Z</time>
<extensions>
<tp1:TrackPointExtension>
<tp1:hr>128</tp1:hr>
</tp1:TrackPointExtension>
</extensions>
</trkpt>
<trkpt lat="43.9624740" lon="12.6092900">
<ele>69.8130000</ele>
<time>2010-05-14T09:07:28Z</time>
<extensions>
<tp1:TrackPointExtension>
<tp1:hr>131</tp1:hr>
</tp1:TrackPointExtension>
</extensions>
</trkpt>
<trkpt lat="43.9625870" lon="12.6090500">
<ele>71.8640000</ele>
<time>2010-05-14T09:07:35Z</time>
<extensions>
<tp1:TrackPointExtension>
<tp1:hr>134</tp1:hr>
</tp1:TrackPointExtension>
</extensions>
</trkpt>
<trkpt lat="43.9626600" lon="12.6087950">
<ele>73.7380000</ele>
<time>2010-05-14T09:07:42Z</time>
<extensions>
<tp1:TrackPointExtension>
<tp1:hr>135</tp1:hr>
</tp1:TrackPointExtension>
</extensions>
</trkpt>
<trkpt lat="43.9626810" lon="12.6085160">
<ele>75.0360000</ele>
<time>2010-05-14T09:07:49Z</time>
<extensions>
<tp1:TrackPointExtension>
<tp1:hr>137</tp1:hr>
</tp1:TrackPointExtension>
</extensions>
</trkpt>
<trkpt lat="43.9626940" lon="12.6081450">
<ele>76.8730000</ele>
<time>2010-05-14T09:07:58Z</time>
<extensions>
<tp1:TrackPointExtension>
<tp1:hr>138</tp1:hr>
</tp1:TrackPointExtension>
</extensions>
</trkpt>
<trkpt lat="43.9626940" lon="12.6077750">
<ele>78.4400000</ele>
<time>2010-05-14T09:08:07Z</time>
<extensions>
<tp1:TrackPointExtension>
<tp1:hr>138</tp1:hr>
</tp1:TrackPointExtension>
</extensions>
</trkpt>
<trkpt lat="43.9626940" lon="12.6073940">
<ele>80.5340000</ele>
<time>2010-05-14T09:08:16Z</time>
<extensions>
<tp1:TrackPointExtension>
<tp1:hr>139</tp1:hr>
</tp1:TrackPointExtension>
</extensions>
</trkpt>
<trkpt lat="43.9626940" lon="12.6070280">
<ele>82.8370000</ele>
<time>2010-05-14T09:08:25Z</time>
<extensions>
<tp1:TrackPointExtension>
<tp1:hr>139</tp1:hr>
</tp1:TrackPointExtension>
</extensions>
</trkpt>
<trkpt lat="43.9626940" lon="12.6066730">
<ele>85.0250000</ele>
<time>2010-05-14T09:08:34Z</time>
<extensions>
<tp1:TrackPointExtension>
<tp1:hr>139</tp1:hr>
</tp1:TrackPointExtension>
</extensions>
</trkpt>
<trkpt lat="43.9626940" lon="12.6064490">
<ele>86.7290000</ele>
<time>2010-05-14T09:08:40Z</time>
<extensions>
<tp1:TrackPointExtension>
<tp1:hr>140</tp1:hr>
</tp1:TrackPointExtension>
</extensions>
</trkpt>
<trkpt lat="43.9626940" lon="12.6062670">
<ele>88.1250000</ele>
<time>2010-05-14T09:08:46Z</time>
<extensions>
<tp1:TrackPointExtension>
<tp1:hr>140</tp1:hr>
</tp1:TrackPointExtension>
</extensions>
</trkpt>
<trkpt lat="43.9628220" lon="12.6061680">
<ele>88.5890000</ele>
<time>2010-05-14T09:08:52Z</time>
<extensions>
<tp1:TrackPointExtension>
<tp1:hr>140</tp1:hr>
</tp1:TrackPointExtension>
</extensions>
</trkpt>
<trkpt lat="43.9631960" lon="12.6058740">
<ele>88.7430000</ele>
<time>2010-05-14T09:08:59Z</time>
<extensions>
<tp1:TrackPointExtension>
<tp1:hr>139</tp1:hr>
</tp1:TrackPointExtension>
</extensions>
</trkpt>
<trkpt lat="43.9635120" lon="12.6057160">
<ele>91.0920000</ele>
<time>2010-05-14T09:09:08Z</time>
<extensions>
<tp1:TrackPointExtension>
<tp1:hr>138</tp1:hr>
</tp1:TrackPointExtension>
</extensions>
</trkpt>
<trkpt lat="43.9636800" lon="12.6055260">
<ele>92.1270000</ele>
<time>2010-05-14T09:09:14Z</time>
<extensions>
<tp1:TrackPointExtension>
<tp1:hr>138</tp1:hr>
</tp1:TrackPointExtension>
</extensions>
</trkpt>
<trkpt lat="43.9638090" lon="12.6053530">
<ele>93.0560000</ele>
<time>2010-05-14T09:09:19Z</time>
<extensions>
<tp1:TrackPointExtension>
<tp1:hr>138</tp1:hr>
</tp1:TrackPointExtension>
</extensions>
</trkpt>
<trkpt lat="43.9639090" lon="12.6050780">
<ele>95.0750000</ele>
<time>2010-05-14T09:09:26Z</time>
<extensions>
<tp1:TrackPointExtension>
<tp1:hr>138</tp1:hr>
</tp1:TrackPointExtension>
</extensions>
</trkpt>
<trkpt lat="43.9639810" lon="12.6047750">
<ele>97.5700000</ele>
<time>2010-05-14T09:09:33Z</time>
<extensions>
<tp1:TrackPointExtension>
<tp1:hr>138</tp1:hr>
</tp1:TrackPointExtension>
</extensions>
</trkpt>
<trkpt lat="43.9639810" lon="12.6044480">
<ele>101.0480000</ele>
<time>2010-05-14T09:09:41Z</time>
<extensions>
<tp1:TrackPointExtension>
<tp1:hr>139</tp1:hr>
</tp1:TrackPointExtension>
</extensions>
</trkpt>
<trkpt lat="43.9639810" lon="12.6043870">
<ele>101.6800000</ele>
<time>2010-05-14T09:09:43Z</time>
<extensions>
<tp1:TrackPointExtension>
<tp1:hr>140</tp1:hr>
</tp1:TrackPointExtension>
</extensions>
</trkpt>
<trkpt lat="43.9639900" lon="12.6042780">
<ele>101.6810000</ele>
<time>2010-05-14T09:09:45Z</time>
<extensions>
<tp1:TrackPointExtension>
<tp1:hr>140</tp1:hr>
</tp1:TrackPointExtension>
</extensions>
</trkpt>
</trkseg>
<trkseg>
<trkpt lat="43.9639830" lon="12.6042790">
<ele>101.7840000</ele>
<time>2010-05-14T09:10:00Z</time>
<extensions>
<tp1:TrackPointExtension>
<tp1:hr>135</tp1:hr>
</tp1:TrackPointExtension>
</extensions>
</trkpt>
<trkpt lat="43.9639260" lon="12.6042800">
<ele>102.0420000</ele>
<time>2010-05-14T09:10:03Z</time>
<extensions>
<tp1:TrackPointExtension>
<tp1:hr>134</tp1:hr>
</tp1:TrackPointExtension>
</extensions>
</trkpt>
<trkpt lat="43.9636770" lon="12.6042790">
<ele>103.2670000</ele>
<time>2010-05-14T09:10:11Z</time>
<extensions>
<tp1:TrackPointExtension>
<tp1:hr>134</tp1:hr>
</tp1:TrackPointExtension>
</extensions>
</trkpt>
<trkpt lat="43.9633670" lon="12.6041860">
<ele>104.6990000</ele>
<time>2010-05-14T09:10:19Z</time>
<extensions>
<tp1:TrackPointExtension>
<tp1:hr>135</tp1:hr>
</tp1:TrackPointExtension>
</extensions>
</trkpt>
<trkpt lat="43.9629990" lon="12.6040780">
<ele>106.5310000</ele>
<time>2010-05-14T09:10:28Z</time>
<extensions>
<tp1:TrackPointExtension>
<tp1:hr>135</tp1:hr>
</tp1:TrackPointExtension>
</extensions>
</trkpt>
<trkpt lat="43.9626440" lon="12.6039720">
<ele>108.5140000</ele>
<time>2010-05-14T09:10:37Z</time>
<extensions>
<tp1:TrackPointExtension>
<tp1:hr>135</tp1:hr>
</tp1:TrackPointExtension>
</extensions>
</trkpt>
<trkpt lat="43.9623070" lon="12.6037650">
<ele>110.5140000</ele>
<time>2010-05-14T09:10:47Z</time>
<extensions>
<tp1:TrackPointExtension>
<tp1:hr>136</tp1:hr>
</tp1:TrackPointExtension>
</extensions>
</trkpt>
<trkpt lat="43.9619730" lon="12.6038020">
<ele>111.2880000</ele>
<time>2010-05-14T09:10:54Z</time>
<extensions>
<tp1:TrackPointExtension>
<tp1:hr>136</tp1:hr>
</tp1:TrackPointExtension>
</extensions>
</trkpt>
<trkpt lat="43.9615500" lon="12.6038490">
<ele>111.8380000</ele>
<time>2010-05-14T09:11:03Z</time>
<extensions>
<tp1:TrackPointExtension>
<tp1:hr>136</tp1:hr>
</tp1:TrackPointExtension>
</extensions>
</trkpt>
<trkpt lat="43.9611340" lon="12.6038950">
<ele>111.7580000</ele>
<time>2010-05-14T09:11:11Z</time>
<extensions>
<tp1:TrackPointExtension>
<tp1:hr>135</tp1:hr>
</tp1:TrackPointExtension>
</extensions>
</trkpt>
<trkpt lat="43.9606900" lon="12.6039440">
<ele>111.8720000</ele>
<time>2010-05-14T09:11:19Z</time>
<extensions>
<tp1:TrackPointExtension>
<tp1:hr>134</tp1:hr>
</tp1:TrackPointExtension>
</extensions>
</trkpt>
<trkpt lat="43.9604780" lon="12.6039680">
<ele>112.5990000</ele>
<time>2010-05-14T09:11:23Z</time>
<extensions>
<tp1:TrackPointExtension>
<tp1:hr>133</tp1:hr>
</tp1:TrackPointExtension>
</extensions>
</trkpt>
<trkpt lat="43.9603760" lon="12.6039790">
<ele>113.2980000</ele>
<time>2010-05-14T09:11:27Z</time>
<extensions>
<tp1:TrackPointExtension>
<tp1:hr>131</tp1:hr>
</tp1:TrackPointExtension>
</extensions>
</trkpt>
<trkpt lat="43.9603760" lon="12.6039790">
<ele>113.2460000</ele>
<time>2010-05-14T09:11:31Z</time>
<extensions>
<tp1:TrackPointExtension>
<tp1:hr>129</tp1:hr>
</tp1:TrackPointExtension>
</extensions>
</trkpt>
<trkpt lat="43.9601280" lon="12.6039960">
<ele>113.2750000</ele>
<time>2010-05-14T09:11:34Z</time>
<extensions>
<tp1:TrackPointExtension>
<tp1:hr>130</tp1:hr>
</tp1:TrackPointExtension>
</extensions>
</trkpt>
<trkpt lat="43.9598600" lon="12.6040350">
<ele>112.9570000</ele>
<time>2010-05-14T09:11:39Z</time>
<extensions>
<tp1:TrackPointExtension>
<tp1:hr>129</tp1:hr>
</tp1:TrackPointExtension>
</extensions>
</trkpt>
<trkpt lat="43.9595110" lon="12.6040850">
<ele>113.3210000</ele>
<time>2010-05-14T09:11:45Z</time>
<extensions>
<tp1:TrackPointExtension>
<tp1:hr>129</tp1:hr>
</tp1:TrackPointExtension>
</extensions>
</trkpt>
<trkpt lat="43.9591720" lon="12.6040500">
<ele>114.3150000</ele>
<time>2010-05-14T09:11:51Z</time>
<extensions>
<tp1:TrackPointExtension>
<tp1:hr>129</tp1:hr>
</tp1:TrackPointExtension>
</extensions>
</trkpt>
<trkpt lat="43.9588970" lon="12.6038580">
<ele>115.9520000</ele>
<time>2010-05-14T09:11:57Z</time>
<extensions>
<tp1:TrackPointExtension>
<tp1:hr>128</tp1:hr>
</tp1:TrackPointExtension>
</extensions>
</trkpt>
<trkpt lat="43.9587570" lon="12.6036140">
<ele>116.9480000</ele>
<time>2010-05-14T09:12:02Z</time>
<extensions>
<tp1:TrackPointExtension>
<tp1:hr>128</tp1:hr>
</tp1:TrackPointExtension>
</extensions>
</trkpt>
<trkpt lat="43.9587170" lon="12.6029220">
<ele>119.4050000</ele>
<time>2010-05-14T09:12:12Z</time>
<extensions>
<tp1:TrackPointExtension>
<tp1:hr>129</tp1:hr>
</tp1:TrackPointExtension>
</extensions>
</trkpt>
<trkpt lat="43.9586900" lon="12.6022860">
<ele>121.7350000</ele>
<time>2010-05-14T09:12:22Z</time>
<extensions>
<tp1:TrackPointExtension>
<tp1:hr>130</tp1:hr>
</tp1:TrackPointExtension>
</extensions>
</trkpt>
<trkpt lat="43.9586630" lon="12.6016640">
<ele>123.6930000</ele>
<time>2010-05-14T09:12:32Z</time>
<extensions>
<tp1:TrackPointExtension>
<tp1:hr>132</tp1:hr>
</tp1:TrackPointExtension>
</extensions>
</trkpt>
<trkpt lat="43.9585260" lon="12.6011930">
<ele>124.5720000</ele>
<time>2010-05-14T09:12:40Z</time>
<extensions>
<tp1:TrackPointExtension>
<tp1:hr>132</tp1:hr>
</tp1:TrackPointExtension>
</extensions>
</trkpt>
<trkpt lat="43.9584080" lon="12.6008530">
<ele>125.3330000</ele>
<time>2010-05-14T09:12:46Z</time>
<extensions>
<tp1:TrackPointExtension>
<tp1:hr>138</tp1:hr>
</tp1:TrackPointExtension>
</extensions>
</trkpt>
<trkpt lat="43.9583670" lon="12.6007340">
<ele>125.4970000</ele>
<time>2010-05-14T09:12:48Z</time>
<extensions>
<tp1:TrackPointExtension>
<tp1:hr>146</tp1:hr>
</tp1:TrackPointExtension>
</extensions>
</trkpt>
<trkpt lat="43.9581590" lon="12.6001360">
<ele>126.2260000</ele>
<time>2010-05-14T09:12:58Z</time>
<extensions>
<tp1:TrackPointExtension>
<tp1:hr>142</tp1:hr>
</tp1:TrackPointExtension>
</extensions>
</trkpt>
<trkpt lat="43.9581170" lon="12.6000160">
<ele>126.1000000</ele>
<time>2010-05-14T09:13:00Z</time>
<extensions>
<tp1:TrackPointExtension>
<tp1:hr>137</tp1:hr>
</tp1:TrackPointExtension>
</extensions>
</trkpt>
<trkpt lat="43.9580960" lon="12.5999560">
<ele>126.3800000</ele>
<time>2010-05-14T09:13:01Z</time>
<extensions>
<tp1:TrackPointExtension>
<tp1:hr>137</tp1:hr>
</tp1:TrackPointExtension>
</extensions>
</trkpt>
<trkpt lat="43.9578690" lon="12.5994200">
<ele>127.1440000</ele>
<time>2010-05-14T09:13:10Z</time>
<extensions>
<tp1:TrackPointExtension>
<tp1:hr>132</tp1:hr>
</tp1:TrackPointExtension>
</extensions>
</trkpt>
<trkpt lat="43.9575880" lon="12.5989640">
<ele>127.6590000</ele>
<time>2010-05-14T09:13:18Z</time>
<extensions>
<tp1:TrackPointExtension>
<tp1:hr>131</tp1:hr>
</tp1:TrackPointExtension>
</extensions>
</trkpt>
<trkpt lat="43.9570810" lon="12.5985210">
<ele>128.3300000</ele>
<time>2010-05-14T09:13:29Z</time>
<extensions>
<tp1:TrackPointExtension>
<tp1:hr>130</tp1:hr>
</tp1:TrackPointExtension>
</extensions>
</trkpt>
<trkpt lat="43.9566520" lon="12.5981460">
<ele>128.5140000</ele>
<time>2010-05-14T09:13:38Z</time>
<extensions>
<tp1:TrackPointExtension>
<tp1:hr>130</tp1:hr>
</tp1:TrackPointExtension>
</extensions>
</trkpt>
<trkpt lat="43.9561370" lon="12.5977760">
<ele>129.1130000</ele>
<time>2010-05-14T09:13:48Z</time>
<extensions>
<tp1:TrackPointExtension>
<tp1:hr>129</tp1:hr>
</tp1:TrackPointExtension>
</extensions>
</trkpt>
<trkpt lat="43.9556220" lon="12.5974140">
<ele>129.9650000</ele>
<time>2010-05-14T09:13:58Z</time>
<extensions>
<tp1:TrackPointExtension>
<tp1:hr>128</tp1:hr>
</tp1:TrackPointExtension>
</extensions>
</trkpt>
<trkpt lat="43.9551180" lon="12.5970600">
<ele>131.1180000</ele>
<time>2010-05-14T09:14:08Z</time>
<extensions>
<tp1:TrackPointExtension>
<tp1:hr>125</tp1:hr>
</tp1:TrackPointExtension>
</extensions>
</trkpt>
<trkpt lat="43.9548720" lon="12.5968870">
<ele>131.7280000</ele>
<time>2010-05-14T09:14:13Z</time>
<extensions>
<tp1:TrackPointExtension>
<tp1:hr>130</tp1:hr>
</tp1:TrackPointExtension>
</extensions>
</trkpt>
<trkpt lat="43.9542860" lon="12.5964760">
<ele>132.5120000</ele>
<time>2010-05-14T09:14:25Z</time>
<extensions>
<tp1:TrackPointExtension>
<tp1:hr>130</tp1:hr>
</tp1:TrackPointExtension>
</extensions>
</trkpt>
<trkpt lat="43.9540730" lon="12.5963510">
<ele>132.9940000</ele>
<time>2010-05-14T09:14:29Z</time>
<extensions>
<tp1:TrackPointExtension>
<tp1:hr>139</tp1:hr>
</tp1:TrackPointExtension>
</extensions>
</trkpt>
<trkpt lat="43.9539690" lon="12.5963090">
<ele>133.9220000</ele>
<time>2010-05-14T09:14:31Z</time>
<extensions>
<tp1:TrackPointExtension>
<tp1:hr>141</tp1:hr>
</tp1:TrackPointExtension>
</extensions>
</trkpt>
<trkpt lat="43.9537210" lon="12.5962250">
<ele>134.8950000</ele>
<time>2010-05-14T09:14:36Z</time>
<extensions>
<tp1:TrackPointExtension>
<tp1:hr>135</tp1:hr>
</tp1:TrackPointExtension>
</extensions>
</trkpt>
<trkpt lat="43.9536170" lon="12.5962260">
<ele>135.0330000</ele>
<time>2010-05-14T09:14:38Z</time>
<extensions>
<tp1:TrackPointExtension>
<tp1:hr>134</tp1:hr>
</tp1:TrackPointExtension>
</extensions>
</trkpt>
<trkpt lat="43.9532800" lon="12.5963020">
<ele>136.3070000</ele>
<time>2010-05-14T09:14:45Z</time>
<extensions>
<tp1:TrackPointExtension>
<tp1:hr>130</tp1:hr>
</tp1:TrackPointExtension>
</extensions>
</trkpt>
<trkpt lat="43.9531370" lon="12.5963430">
<ele>136.6130000</ele>
<time>2010-05-14T09:14:48Z</time>
<extensions>
<tp1:TrackPointExtension>
<tp1:hr>129</tp1:hr>
</tp1:TrackPointExtension>
</extensions>
</trkpt>
<trkpt lat="43.9528620" lon="12.5963350">
<ele>137.7130000</ele>
<time>2010-05-14T09:14:54Z</time>
<extensions>
<tp1:TrackPointExtension>
<tp1:hr>128</tp1:hr>
</tp1:TrackPointExtension>
</extensions>
</trkpt>
<trkpt lat="43.9527930" lon="12.5962530">
<ele>138.2030000</ele>
<time>2010-05-14T09:14:56Z</time>
<extensions>
<tp1:TrackPointExtension>
<tp1:hr>128</tp1:hr>
</tp1:TrackPointExtension>
</extensions>
</trkpt>
<trkpt lat="43.9527210" lon="12.5961660">
<ele>138.4480000</ele>
<time>2010-05-14T09:14:58Z</time>
<extensions>
<tp1:TrackPointExtension>
<tp1:hr>128</tp1:hr>
</tp1:TrackPointExtension>
</extensions>
</trkpt>
<trkpt lat="43.9523700" lon="12.5956880">
<ele>139.3770000</ele>
<time>2010-05-14T09:15:08Z</time>
<extensions>
<tp1:TrackPointExtension>
<tp1:hr>130</tp1:hr>
</tp1:TrackPointExtension>
</extensions>
</trkpt>
<trkpt lat="43.9521230" lon="12.5953420">
<ele>139.7870000</ele>
<time>2010-05-14T09:15:15Z</time>
<extensions>
<tp1:TrackPointExtension>
<tp1:hr>129</tp1:hr>
</tp1:TrackPointExtension>
</extensions>
</trkpt>
<trkpt lat="43.9518280" lon="12.5950560">
<ele>140.2580000</ele>
<time>2010-05-14T09:15:22Z</time>
<extensions>
<tp1:TrackPointExtension>
<tp1:hr>128</tp1:hr>
</tp1:TrackPointExtension>
</extensions>
</trkpt>
<trkpt lat="43.9514500" lon="12.5948230">
<ele>140.8080000</ele>
<time>2010-05-14T09:15:30Z</time>
<extensions>
<tp1:TrackPointExtension>
<tp1:hr>129</tp1:hr>
</tp1:TrackPointExtension>
</extensions>
</trkpt>
<trkpt lat="43.9510350" lon="12.5946800">
<ele>141.1460000</ele>
<time>2010-05-14T09:15:38Z</time>
<extensions>
<tp1:TrackPointExtension>
<tp1:hr>129</tp1:hr>
</tp1:TrackPointExtension>
</extensions>
</trkpt>
<trkpt lat="43.9505150" lon="12.5947780">
<ele>140.8010000</ele>
<time>2010-05-14T09:15:47Z</time>
<extensions>
<tp1:TrackPointExtension>
<tp1:hr>128</tp1:hr>
</tp1:TrackPointExtension>
</extensions>
</trkpt>
<trkpt lat="43.9499980" lon="12.5948500">
<ele>142.5640000</ele>
<time>2010-05-14T09:15:56Z</time>
<extensions>
<tp1:TrackPointExtension>
<tp1:hr>126</tp1:hr>
</tp1:TrackPointExtension>
</extensions>
</trkpt>
<trkpt lat="43.9493490" lon="12.5949340">
<ele>142.3160000</ele>
<time>2010-05-14T09:16:07Z</time>
<extensions>
<tp1:TrackPointExtension>
<tp1:hr>126</tp1:hr>
</tp1:TrackPointExtension>
</extensions>
</trkpt>
<trkpt lat="43.9488050" lon="12.5949950">
<ele>142.7750000</ele>
<time>2010-05-14T09:16:16Z</time>
<extensions>
<tp1:TrackPointExtension>
<tp1:hr>126</tp1:hr>
</tp1:TrackPointExtension>
</extensions>
</trkpt>
<trkpt lat="43.9483160" lon="12.5950420">
<ele>143.1910000</ele>
<time>2010-05-14T09:16:24Z</time>
<extensions>
<tp1:TrackPointExtension>
<tp1:hr>124</tp1:hr>
</tp1:TrackPointExtension>
</extensions>
</trkpt>
<trkpt lat="43.9479860" lon="12.5950740">
<ele>143.4560000</ele>
<time>2010-05-14T09:16:30Z</time>
<extensions>
<tp1:TrackPointExtension>
<tp1:hr>119</tp1:hr>
</tp1:TrackPointExtension>
</extensions>
</trkpt>
<trkpt lat="43.9476430" lon="12.5950810">
<ele>142.9430000</ele>
<time>2010-05-14T09:16:36Z</time>
<extensions>
<tp1:TrackPointExtension>
<tp1:hr>119</tp1:hr>
</tp1:TrackPointExtension>
</extensions>
</trkpt>
<trkpt lat="43.9471150" lon="12.5950150">
<ele>142.3960000</ele>
<time>2010-05-14T09:16:44Z</time>
<extensions>
<tp1:TrackPointExtension>
<tp1:hr>120</tp1:hr>
</tp1:TrackPointExtension>
</extensions>
</trkpt>
<trkpt lat="43.9464960" lon="12.5950250">
<ele>141.2880000</ele>
<time>2010-05-14T09:16:53Z</time>
<extensions>
<tp1:TrackPointExtension>
<tp1:hr>119</tp1:hr>
</tp1:TrackPointExtension>
</extensions>
</trkpt>
<trkpt lat="43.9462880" lon="12.5950300">
<ele>140.7080000</ele>
<time>2010-05-14T09:16:56Z</time>
<extensions>
<tp1:TrackPointExtension>
<tp1:hr>126</tp1:hr>
</tp1:TrackPointExtension>
</extensions>
</trkpt>
<trkpt lat="43.9462180" lon="12.5950320">
<ele>141.0310000</ele>
<time>2010-05-14T09:16:57Z</time>
<extensions>
<tp1:TrackPointExtension>
<tp1:hr>126</tp1:hr>
</tp1:TrackPointExtension>
</extensions>
</trkpt>
<trkpt lat="43.9461490" lon="12.5950340">
<ele>140.2410000</ele>
<time>2010-05-14T09:16:58Z</time>
<extensions>
<tp1:TrackPointExtension>
<tp1:hr>131</tp1:hr>
</tp1:TrackPointExtension>
</extensions>
</trkpt>
<trkpt lat="43.9460790" lon="12.5950360">
<ele>140.4480000</ele>
<time>2010-05-14T09:16:59Z</time>
<extensions>
<tp1:TrackPointExtension>
<tp1:hr>131</tp1:hr>
</tp1:TrackPointExtension>
</extensions>
</trkpt>
<trkpt lat="43.9455400" lon="12.5950490">
<ele>139.7150000</ele>
<time>2010-05-14T09:17:07Z</time>
<extensions>
<tp1:TrackPointExtension>
<tp1:hr>127</tp1:hr>
</tp1:TrackPointExtension>
</extensions>
</trkpt>
<trkpt lat="43.9454080" lon="12.5950530">
<ele>139.7840000</ele>
<time>2010-05-14T09:17:09Z</time>
<extensions>
<tp1:TrackPointExtension>
<tp1:hr>122</tp1:hr>
</tp1:TrackPointExtension>
</extensions>
</trkpt>
<trkpt lat="43.9453990" lon="12.5950530">
<ele>139.8600000</ele>
<time>2010-05-14T09:17:11Z</time>
<extensions>
<tp1:TrackPointExtension>
<tp1:hr>117</tp1:hr>
</tp1:TrackPointExtension>
</extensions>
</trkpt>
<trkpt lat="43.9447820" lon="12.5954440">
<ele>140.0070000</ele>
<time>2010-05-14T09:17:19Z</time>
<extensions>
<tp1:TrackPointExtension>
<tp1:hr>115</tp1:hr>
</tp1:TrackPointExtension>
</extensions>
</trkpt>
<trkpt lat="43.9443120" lon="12.5957740">
<ele>140.7100000</ele>
<time>2010-05-14T09:17:27Z</time>
<extensions>
<tp1:TrackPointExtension>
<tp1:hr>115</tp1:hr>
</tp1:TrackPointExtension>
</extensions>
</trkpt>
<trkpt lat="43.9438030" lon="12.5961430">
<ele>141.7150000</ele>
<time>2010-05-14T09:17:36Z</time>
<extensions>
<tp1:TrackPointExtension>
<tp1:hr>117</tp1:hr>
</tp1:TrackPointExtension>
</extensions>
</trkpt>
<trkpt lat="43.9437430" lon="12.5961630">
<ele>141.9810000</ele>
<time>2010-05-14T09:17:37Z</time>
<extensions>
<tp1:TrackPointExtension>
<tp1:hr>117</tp1:hr>
</tp1:TrackPointExtension>
</extensions>
</trkpt>
<trkpt lat="43.9433870" lon="12.5961590">
<ele>143.1200000</ele>
<time>2010-05-14T09:17:43Z</time>
<extensions>
<tp1:TrackPointExtension>
<tp1:hr>118</tp1:hr>
</tp1:TrackPointExtension>
</extensions>
</trkpt>
<trkpt lat="43.9429100" lon="12.5960400">
<ele>145.0080000</ele>
<time>2010-05-14T09:17:53Z</time>
<extensions>
<tp1:TrackPointExtension>
<tp1:hr>121</tp1:hr>
</tp1:TrackPointExtension>
</extensions>
</trkpt>
<trkpt lat="43.9421480" lon="12.5958300">
<ele>146.0310000</ele>
<time>2010-05-14T09:18:05Z</time>
<extensions>
<tp1:TrackPointExtension>
<tp1:hr>124</tp1:hr>
</tp1:TrackPointExtension>
</extensions>
</trkpt>
<trkpt lat="43.9416390" lon="12.5956900">
<ele>146.1210000</ele>
<time>2010-05-14T09:18:14Z</time>
<extensions>
<tp1:TrackPointExtension>
<tp1:hr>125</tp1:hr>
</tp1:TrackPointExtension>
</extensions>
</trkpt>
<trkpt lat="43.9411390" lon="12.5955550">
<ele>144.9430000</ele>
<time>2010-05-14T09:18:22Z</time>
<extensions>
<tp1:TrackPointExtension>
<tp1:hr>125</tp1:hr>
</tp1:TrackPointExtension>
</extensions>
</trkpt>
<trkpt lat="43.9408570" lon="12.5954880">
<ele>145.6620000</ele>
<time>2010-05-14T09:18:27Z</time>
<extensions>
<tp1:TrackPointExtension>
<tp1:hr>122</tp1:hr>
</tp1:TrackPointExtension>
</extensions>
</trkpt>
<trkpt lat="43.9406210" lon="12.5954320">
<ele>146.0080000</ele>
<time>2010-05-14T09:18:32Z</time>
<extensions>
<tp1:TrackPointExtension>
<tp1:hr>120</tp1:hr>
</tp1:TrackPointExtension>
</extensions>
</trkpt>
<trkpt lat="43.9402560" lon="12.5953500">
<ele>146.3280000</ele>
<time>2010-05-14T09:18:39Z</time>
<extensions>
<tp1:TrackPointExtension>
<tp1:hr>120</tp1:hr>
</tp1:TrackPointExtension>
</extensions>
</trkpt>
<trkpt lat="43.9397340" lon="12.5953100">
<ele>147.4690000</ele>
<time>2010-05-14T09:18:47Z</time>
<extensions>
<tp1:TrackPointExtension>
<tp1:hr>122</tp1:hr>
</tp1:TrackPointExtension>
</extensions>
</trkpt>
<trkpt lat="43.9396770" lon="12.5953100">
<ele>147.4590000</ele>
<time>2010-05-14T09:18:48Z</time>
<extensions>
<tp1:TrackPointExtension>
<tp1:hr>123</tp1:hr>
</tp1:TrackPointExtension>
</extensions>
</trkpt>
<trkpt lat="43.9392630" lon="12.5953190">
<ele>147.9740000</ele>
<time>2010-05-14T09:18:55Z</time>
<extensions>
<tp1:TrackPointExtension>
<tp1:hr>124</tp1:hr>
</tp1:TrackPointExtension>
</extensions>
</trkpt>
<trkpt lat="43.9388170" lon="12.5953140">
<ele>148.2640000</ele>
<time>2010-05-14T09:19:02Z</time>
<extensions>
<tp1:TrackPointExtension>
<tp1:hr>123</tp1:hr>
</tp1:TrackPointExtension>
</extensions>
</trkpt>
<trkpt lat="43.9384400" lon="12.5950890">
<ele>148.1000000</ele>
<time>2010-05-14T09:19:09Z</time>
<extensions>
<tp1:TrackPointExtension>
<tp1:hr>122</tp1:hr>
</tp1:TrackPointExtension>
</extensions>
</trkpt>
<trkpt lat="43.9380470" lon="12.5950530">
<ele>147.9710000</ele>
<time>2010-05-14T09:19:15Z</time>
<extensions>
<tp1:TrackPointExtension>
<tp1:hr>121</tp1:hr>
</tp1:TrackPointExtension>
</extensions>
</trkpt>
<trkpt lat="43.9376210" lon="12.5949760">
<ele>148.1800000</ele>
<time>2010-05-14T09:19:22Z</time>
<extensions>
<tp1:TrackPointExtension>
<tp1:hr>120</tp1:hr>
</tp1:TrackPointExtension>
</extensions>
</trkpt>
<trkpt lat="43.9372540" lon="12.5947000">
<ele>148.8060000</ele>
<time>2010-05-14T09:19:29Z</time>
<extensions>
<tp1:TrackPointExtension>
<tp1:hr>119</tp1:hr>
</tp1:TrackPointExtension>
</extensions>
</trkpt>
<trkpt lat="43.9368330" lon="12.5943630">
<ele>149.5120000</ele>
<time>2010-05-14T09:19:37Z</time>
<extensions>
<tp1:TrackPointExtension>
<tp1:hr>120</tp1:hr>
</tp1:TrackPointExtension>
</extensions>
</trkpt>
<trkpt lat="43.9363570" lon="12.5939820">
<ele>150.1420000</ele>
<time>2010-05-14T09:19:46Z</time>
<extensions>
<tp1:TrackPointExtension>
<tp1:hr>121</tp1:hr>
</tp1:TrackPointExtension>
</extensions>
</trkpt>
<trkpt lat="43.9359380" lon="12.5938080">
<ele>150.4880000</ele>
<time>2010-05-14T09:19:53Z</time>
<extensions>
<tp1:TrackPointExtension>
<tp1:hr>122</tp1:hr>
</tp1:TrackPointExtension>
</extensions>
</trkpt>
<trkpt lat="43.9353500" lon="12.5937310">
<ele>150.4030000</ele>
<time>2010-05-14T09:20:02Z</time>
<extensions>
<tp1:TrackPointExtension>
<tp1:hr>123</tp1:hr>
</tp1:TrackPointExtension>
</extensions>
</trkpt>
<trkpt lat="43.9348310" lon="12.5936510">
<ele>150.7020000</ele>
<time>2010-05-14T09:20:10Z</time>
<extensions>
<tp1:TrackPointExtension>
<tp1:hr>122</tp1:hr>
</tp1:TrackPointExtension>
</extensions>
</trkpt>
<trkpt lat="43.9344050" lon="12.5935770">
<ele>151.8030000</ele>
<time>2010-05-14T09:20:17Z</time>
<extensions>
<tp1:TrackPointExtension>
<tp1:hr>123</tp1:hr>
</tp1:TrackPointExtension>
</extensions>
</trkpt>
<trkpt lat="43.9338830" lon="12.5934030">
<ele>153.2580000</ele>
<time>2010-05-14T09:20:26Z</time>
<extensions>
<tp1:TrackPointExtension>
<tp1:hr>123</tp1:hr>
</tp1:TrackPointExtension>
</extensions>
</trkpt>
<trkpt lat="43.9331400" lon="12.5931160">
<ele>155.3590000</ele>
<time>2010-05-14T09:20:39Z</time>
<extensions>
<tp1:TrackPointExtension>
<tp1:hr>125</tp1:hr>
</tp1:TrackPointExtension>
</extensions>
</trkpt>
<trkpt lat="43.9326690" lon="12.5928980">
<ele>156.4190000</ele>
<time>2010-05-14T09:20:48Z</time>
<extensions>
<tp1:TrackPointExtension>
<tp1:hr>126</tp1:hr>
</tp1:TrackPointExtension>
</extensions>
</trkpt>
<trkpt lat="43.9322530" lon="12.5928900">
<ele>157.3420000</ele>
<time>2010-05-14T09:20:56Z</time>
<extensions>
<tp1:TrackPointExtension>
<tp1:hr>126</tp1:hr>
</tp1:TrackPointExtension>
</extensions>
</trkpt>
<trkpt lat="43.9318510" lon="12.5929240">
<ele>160.0970000</ele>
<time>2010-05-14T09:21:04Z</time>
<extensions>
<tp1:TrackPointExtension>
<tp1:hr>127</tp1:hr>
</tp1:TrackPointExtension>
</extensions>
</trkpt>
<trkpt lat="43.9314420" lon="12.5929360">
<ele>161.9510000</ele>
<time>2010-05-14T09:21:13Z</time>
<extensions>
<tp1:TrackPointExtension>
<tp1:hr>129</tp1:hr>
</tp1:TrackPointExtension>
</extensions>
</trkpt>
<trkpt lat="43.9309720" lon="12.5928690">
<ele>164.1000000</ele>
<time>2010-05-14T09:21:23Z</time>
<extensions>
<tp1:TrackPointExtension>
<tp1:hr>130</tp1:hr>
</tp1:TrackPointExtension>
</extensions>
</trkpt>
<trkpt lat="43.9304320" lon="12.5928210">
<ele>165.4400000</ele>
<time>2010-05-14T09:21:34Z</time>
<extensions>
<tp1:TrackPointExtension>
<tp1:hr>131</tp1:hr>
</tp1:TrackPointExtension>
</extensions>
</trkpt>
<trkpt lat="43.9299920" lon="12.5928210">
<ele>167.5810000</ele>
<time>2010-05-14T09:21:43Z</time>
<extensions>
<tp1:TrackPointExtension>
<tp1:hr>132</tp1:hr>
</tp1:TrackPointExtension>
</extensions>
</trkpt>
<trkpt lat="43.9295390" lon="12.5929660">
<ele>168.9100000</ele>
<time>2010-05-14T09:21:52Z</time>
<extensions>
<tp1:TrackPointExtension>
<tp1:hr>134</tp1:hr>
</tp1:TrackPointExtension>
</extensions>
</trkpt>
<trkpt lat="43.9292400" lon="12.5930830">
<ele>169.7790000</ele>
<time>2010-05-14T09:21:58Z</time>
<extensions>
<tp1:TrackPointExtension>
<tp1:hr>134</tp1:hr>
</tp1:TrackPointExtension>
</extensions>
</trkpt>
<trkpt lat="43.9287880" lon="12.5932610">
<ele>170.7170000</ele>
<time>2010-05-14T09:22:07Z</time>
<extensions>
<tp1:TrackPointExtension>
<tp1:hr>134</tp1:hr>
</tp1:TrackPointExtension>
</extensions>
</trkpt>
<trkpt lat="43.9283980" lon="12.5933320">
<ele>172.6710000</ele>
<time>2010-05-14T09:22:15Z</time>
<extensions>
<tp1:TrackPointExtension>
<tp1:hr>134</tp1:hr>
</tp1:TrackPointExtension>
</extensions>
</trkpt>
<trkpt lat="43.9281190" lon="12.5932730">
<ele>174.6540000</ele>
<time>2010-05-14T09:22:22Z</time>
<extensions>
<tp1:TrackPointExtension>
<tp1:hr>135</tp1:hr>
</tp1:TrackPointExtension>
</extensions>
</trkpt>
<trkpt lat="43.9277840" lon="12.5931860">
<ele>176.8480000</ele>
<time>2010-05-14T09:22:31Z</time>
<extensions>
<tp1:TrackPointExtension>
<tp1:hr>135</tp1:hr>
</tp1:TrackPointExtension>
</extensions>
</trkpt>
<trkpt lat="43.9274910" lon="12.5931090">
<ele>179.3600000</ele>
<time>2010-05-14T09:22:39Z</time>
<extensions>
<tp1:TrackPointExtension>
<tp1:hr>137</tp1:hr>
</tp1:TrackPointExtension>
</extensions>
</trkpt>
<trkpt lat="43.9271650" lon="12.5930580">
<ele>182.0370000</ele>
<time>2010-05-14T09:22:48Z</time>
<extensions>
<tp1:TrackPointExtension>
<tp1:hr>138</tp1:hr>
</tp1:TrackPointExtension>
</extensions>
</trkpt>
<trkpt lat="43.9268360" lon="12.5930720">
<ele>184.0990000</ele>
<time>2010-05-14T09:22:57Z</time>
<extensions>
<tp1:TrackPointExtension>
<tp1:hr>139</tp1:hr>
</tp1:TrackPointExtension>
</extensions>
</trkpt>
<trkpt lat="43.9265600" lon="12.5931640">
<ele>184.9890000</ele>
<time>2010-05-14T09:23:04Z</time>
<extensions>
<tp1:TrackPointExtension>
<tp1:hr>139</tp1:hr>
</tp1:TrackPointExtension>
</extensions>
</trkpt>
<trkpt lat="43.9265180" lon="12.5931780">
<ele>184.8960000</ele>
<time>2010-05-14T09:23:05Z</time>
<extensions>
<tp1:TrackPointExtension>
<tp1:hr>139</tp1:hr>
</tp1:TrackPointExtension>
</extensions>
</trkpt>
<trkpt lat="43.9261340" lon="12.5933060">
<ele>185.7860000</ele>
<time>2010-05-14T09:23:14Z</time>
<extensions>
<tp1:TrackPointExtension>
<tp1:hr>137</tp1:hr>
</tp1:TrackPointExtension>
</extensions>
</trkpt>
<trkpt lat="43.9255970" lon="12.5934180">
<ele>187.5840000</ele>
<time>2010-05-14T09:23:26Z</time>
<extensions>
<tp1:TrackPointExtension>
<tp1:hr>136</tp1:hr>
</tp1:TrackPointExtension>
</extensions>
</trkpt>
<trkpt lat="43.9251220" lon="12.5935180">
<ele>189.6480000</ele>
<time>2010-05-14T09:23:37Z</time>
<extensions>
<tp1:TrackPointExtension>
<tp1:hr>135</tp1:hr>
</tp1:TrackPointExtension>
</extensions>
</trkpt>
<trkpt lat="43.9248500" lon="12.5935770">
<ele>191.1770000</ele>
<time>2010-05-14T09:23:44Z</time>
<extensions>
<tp1:TrackPointExtension>
<tp1:hr>135</tp1:hr>
</tp1:TrackPointExtension>
</extensions>
</trkpt>
<trkpt lat="43.9245460" lon="12.5936420">
<ele>192.7140000</ele>
<time>2010-05-14T09:23:52Z</time>
<extensions>
<tp1:TrackPointExtension>
<tp1:hr>134</tp1:hr>
</tp1:TrackPointExtension>
</extensions>
</trkpt>
<trkpt lat="43.9241760" lon="12.5936950">
<ele>194.9360000</ele>
<time>2010-05-14T09:24:02Z</time>
<extensions>
<tp1:TrackPointExtension>
<tp1:hr>133</tp1:hr>
</tp1:TrackPointExtension>
</extensions>
</trkpt>
<trkpt lat="43.9239140" lon="12.5937150">
<ele>196.5230000</ele>
<time>2010-05-14T09:24:09Z</time>
<extensions>
<tp1:TrackPointExtension>
<tp1:hr>133</tp1:hr>
</tp1:TrackPointExtension>
</extensions>
</trkpt>
<trkpt lat="43.9235390" lon="12.5937220">
<ele>198.6520000</ele>
<time>2010-05-14T09:24:19Z</time>
<extensions>
<tp1:TrackPointExtension>
<tp1:hr>135</tp1:hr>
</tp1:TrackPointExtension>
</extensions>
</trkpt>
<trkpt lat="43.9232330" lon="12.5936840">
<ele>200.6460000</ele>
<time>2010-05-14T09:24:27Z</time>
<extensions>
<tp1:TrackPointExtension>
<tp1:hr>135</tp1:hr>
</tp1:TrackPointExtension>
</extensions>
</trkpt>
<trkpt lat="43.9231340" lon="12.5933770">
<ele>200.8290000</ele>
<time>2010-05-14T09:24:32Z</time>
<extensions>
<tp1:TrackPointExtension>
<tp1:hr>134</tp1:hr>
</tp1:TrackPointExtension>
</extensions>
</trkpt>
<trkpt lat="43.9231900" lon="12.5930910">
<ele>200.7110000</ele>
<time>2010-05-14T09:24:36Z</time>
<extensions>
<tp1:TrackPointExtension>
<tp1:hr>133</tp1:hr>
</tp1:TrackPointExtension>
</extensions>
</trkpt>
<trkpt lat="43.9233740" lon="12.5928800">
<ele>199.8040000</ele>
<time>2010-05-14T09:24:41Z</time>
<extensions>
<tp1:TrackPointExtension>
<tp1:hr>130</tp1:hr>
</tp1:TrackPointExtension>
</extensions>
</trkpt>
<trkpt lat="43.9234260" lon="12.5928210">
<ele>199.0500000</ele>
<time>2010-05-14T09:24:46Z</time>
<extensions>
<tp1:TrackPointExtension>
<tp1:hr>127</tp1:hr>
</tp1:TrackPointExtension>
</extensions>
</trkpt>
<trkpt lat="43.9235120" lon="12.5926070">
<ele>198.7390000</ele>
<time>2010-05-14T09:24:49Z</time>
<extensions>
<tp1:TrackPointExtension>
<tp1:hr>127</tp1:hr>
</tp1:TrackPointExtension>
</extensions>
</trkpt>
<trkpt lat="43.9235120" lon="12.5926070">
<ele>197.8190000</ele>
<time>2010-05-14T09:24:52Z</time>
<extensions>
<tp1:TrackPointExtension>
<tp1:hr>125</tp1:hr>
</tp1:TrackPointExtension>
</extensions>
</trkpt>
<trkpt lat="43.9231870" lon="12.5920020">
<ele>195.2760000</ele>
<time>2010-05-14T09:24:59Z</time>
<extensions>
<tp1:TrackPointExtension>
<tp1:hr>123</tp1:hr>
</tp1:TrackPointExtension>
</extensions>
</trkpt>
<trkpt lat="43.9228680" lon="12.5916200">
<ele>191.8550000</ele>
<time>2010-05-14T09:25:06Z</time>
<extensions>
<tp1:TrackPointExtension>
<tp1:hr>120</tp1:hr>
</tp1:TrackPointExtension>
</extensions>
</trkpt>
<trkpt lat="43.9224790" lon="12.5910880">
<ele>190.5270000</ele>
<time>2010-05-14T09:25:12Z</time>
<extensions>
<tp1:TrackPointExtension>
<tp1:hr>116</tp1:hr>
</tp1:TrackPointExtension>
</extensions>
</trkpt>
<trkpt lat="43.9222670" lon="12.5912790">
<ele>188.0400000</ele>
<time>2010-05-14T09:25:20Z</time>
<extensions>
<tp1:TrackPointExtension>
<tp1:hr>112</tp1:hr>
</tp1:TrackPointExtension>
</extensions>
</trkpt>
<trkpt lat="43.9225300" lon="12.5918360">
<ele>185.8500000</ele>
<time>2010-05-14T09:25:26Z</time>
<extensions>
<tp1:TrackPointExtension>
<tp1:hr>111</tp1:hr>
</tp1:TrackPointExtension>
</extensions>
</trkpt>
<trkpt lat="43.9226110" lon="12.5922040">
<ele>183.6400000</ele>
<time>2010-05-14T09:25:30Z</time>
<extensions>
<tp1:TrackPointExtension>
<tp1:hr>110</tp1:hr>
</tp1:TrackPointExtension>
</extensions>
</trkpt>
<trkpt lat="43.9226110" lon="12.5922040">
<ele>183.6400000</ele>
<time>2010-05-14T09:25:31Z</time>
<extensions>
<tp1:TrackPointExtension>
<tp1:hr>109</tp1:hr>
</tp1:TrackPointExtension>
</extensions>
</trkpt>
<trkpt lat="43.9224710" lon="12.5924140">
<ele>181.8190000</ele>
<time>2010-05-14T09:25:33Z</time>
<extensions>
<tp1:TrackPointExtension>
<tp1:hr>109</tp1:hr>
</tp1:TrackPointExtension>
</extensions>
</trkpt>
<trkpt lat="43.9216410" lon="12.5924920">
<ele>177.8900000</ele>
<time>2010-05-14T09:25:43Z</time>
<extensions>
<tp1:TrackPointExtension>
<tp1:hr>107</tp1:hr>
</tp1:TrackPointExtension>
</extensions>
</trkpt>
<trkpt lat="43.9212020" lon="12.5925470">
<ele>175.9310000</ele>
<time>2010-05-14T09:25:48Z</time>
<extensions>
<tp1:TrackPointExtension>
<tp1:hr>106</tp1:hr>
</tp1:TrackPointExtension>
</extensions>
</trkpt>
<trkpt lat="43.9210030" lon="12.5928060">
<ele>173.9980000</ele>
<time>2010-05-14T09:25:52Z</time>
<extensions>
<tp1:TrackPointExtension>
<tp1:hr>105</tp1:hr>
</tp1:TrackPointExtension>
</extensions>
</trkpt>
<trkpt lat="43.9208360" lon="12.5932240">
<ele>171.8350000</ele>
<time>2010-05-14T09:25:56Z</time>
<extensions>
<tp1:TrackPointExtension>
<tp1:hr>104</tp1:hr>
</tp1:TrackPointExtension>
</extensions>
</trkpt>
<trkpt lat="43.9205930" lon="12.5936300">
<ele>169.0900000</ele>
<time>2010-05-14T09:26:00Z</time>
<extensions>
<tp1:TrackPointExtension>
<tp1:hr>104</tp1:hr>
</tp1:TrackPointExtension>
</extensions>
</trkpt>
<trkpt lat="43.9199940" lon="12.5941980">
<ele>166.1470000</ele>
<time>2010-05-14T09:26:07Z</time>
<extensions>
<tp1:TrackPointExtension>
<tp1:hr>104</tp1:hr>
</tp1:TrackPointExtension>
</extensions>
</trkpt>
<trkpt lat="43.9196980" lon="12.5945890">
<ele>164.0660000</ele>
<time>2010-05-14T09:26:11Z</time>
<extensions>
<tp1:TrackPointExtension>
<tp1:hr>104</tp1:hr>
</tp1:TrackPointExtension>
</extensions>
</trkpt>
<trkpt lat="43.9192670" lon="12.5952260">
<ele>161.4380000</ele>
<time>2010-05-14T09:26:17Z</time>
<extensions>
<tp1:TrackPointExtension>
<tp1:hr>103</tp1:hr>
</tp1:TrackPointExtension>
</extensions>
</trkpt>
<trkpt lat="43.9190130" lon="12.5956000">
<ele>159.5250000</ele>
<time>2010-05-14T09:26:21Z</time>
<extensions>
<tp1:TrackPointExtension>
<tp1:hr>101</tp1:hr>
</tp1:TrackPointExtension>
</extensions>
</trkpt>
<trkpt lat="43.9189220" lon="12.5958060">
<ele>158.7510000</ele>
<time>2010-05-14T09:26:23Z</time>
<extensions>
<tp1:TrackPointExtension>
<tp1:hr>100</tp1:hr>
</tp1:TrackPointExtension>
</extensions>
</trkpt>
<trkpt lat="43.9188840" lon="12.5961340">
<ele>157.1570000</ele>
<time>2010-05-14T09:26:26Z</time>
<extensions>
<tp1:TrackPointExtension>
<tp1:hr>99</tp1:hr>
</tp1:TrackPointExtension>
</extensions>
</trkpt>
<trkpt lat="43.9189150" lon="12.5963830">
<ele>156.3070000</ele>
<time>2010-05-14T09:26:28Z</time>
<extensions>
<tp1:TrackPointExtension>
<tp1:hr>99</tp1:hr>
</tp1:TrackPointExtension>
</extensions>
</trkpt>
<trkpt lat="43.9189970" lon="12.5970450">
<ele>153.3500000</ele>
<time>2010-05-14T09:26:33Z</time>
<extensions>
<tp1:TrackPointExtension>
<tp1:hr>99</tp1:hr>
</tp1:TrackPointExtension>
</extensions>
</trkpt>
<trkpt lat="43.9190410" lon="12.5973950">
<ele>152.2380000</ele>
<time>2010-05-14T09:26:36Z</time>
<extensions>
<tp1:TrackPointExtension>
<tp1:hr>98</tp1:hr>
</tp1:TrackPointExtension>
</extensions>
</trkpt>
<trkpt lat="43.9189930" lon="12.5976770">
<ele>150.8560000</ele>
<time>2010-05-14T09:26:39Z</time>
<extensions>
<tp1:TrackPointExtension>
<tp1:hr>98</tp1:hr>
</tp1:TrackPointExtension>
</extensions>
</trkpt>
<trkpt lat="43.9189360" lon="12.5977030">
<ele>150.6190000</ele>
<time>2010-05-14T09:26:40Z</time>
<extensions>
<tp1:TrackPointExtension>
<tp1:hr>98</tp1:hr>
</tp1:TrackPointExtension>
</extensions>
</trkpt>
<trkpt lat="43.9187950" lon="12.5977690">
<ele>149.4900000</ele>
<time>2010-05-14T09:26:42Z</time>
<extensions>
<tp1:TrackPointExtension>
<tp1:hr>98</tp1:hr>
</tp1:TrackPointExtension>
</extensions>
</trkpt>
<trkpt lat="43.9186380" lon="12.5978430">
<ele>148.6620000</ele>
<time>2010-05-14T09:26:44Z</time>
<extensions>
<tp1:TrackPointExtension>
<tp1:hr>99</tp1:hr>
</tp1:TrackPointExtension>
</extensions>
</trkpt>
<trkpt lat="43.9184750" lon="12.5979190">
<ele>148.0730000</ele>
<time>2010-05-14T09:26:46Z</time>
<extensions>
<tp1:TrackPointExtension>
<tp1:hr>99</tp1:hr>
</tp1:TrackPointExtension>
</extensions>
</trkpt>
<trkpt lat="43.9182310" lon="12.5980860">
<ele>146.5220000</ele>
<time>2010-05-14T09:26:49Z</time>
<extensions>
<tp1:TrackPointExtension>
<tp1:hr>101</tp1:hr>
</tp1:TrackPointExtension>
</extensions>
</trkpt>
<trkpt lat="43.9181000" lon="12.5982000">
<ele>146.2620000</ele>
<time>2010-05-14T09:26:51Z</time>
<extensions>
<tp1:TrackPointExtension>
<tp1:hr>101</tp1:hr>
</tp1:TrackPointExtension>
</extensions>
</trkpt>
<trkpt lat="43.9179330" lon="12.5982430">
<ele>144.5530000</ele>
<time>2010-05-14T09:26:55Z</time>
<extensions>
<tp1:TrackPointExtension>
<tp1:hr>101</tp1:hr>
</tp1:TrackPointExtension>
</extensions>
</trkpt>
<trkpt lat="43.9178900" lon="12.5981610">
<ele>143.4730000</ele>
<time>2010-05-14T09:26:57Z</time>
<extensions>
<tp1:TrackPointExtension>
<tp1:hr>101</tp1:hr>
</tp1:TrackPointExtension>
</extensions>
</trkpt>
<trkpt lat="43.9179100" lon="12.5979940">
<ele>142.5830000</ele>
<time>2010-05-14T09:26:59Z</time>
<extensions>
<tp1:TrackPointExtension>
<tp1:hr>101</tp1:hr>
</tp1:TrackPointExtension>
</extensions>
</trkpt>
<trkpt lat="43.9180510" lon="12.5975350">
<ele>140.4480000</ele>
<time>2010-05-14T09:27:04Z</time>
<extensions>
<tp1:TrackPointExtension>
<tp1:hr>101</tp1:hr>
</tp1:TrackPointExtension>
</extensions>
</trkpt>
<trkpt lat="43.9181030" lon="12.5972540">
<ele>139.5110000</ele>
<time>2010-05-14T09:27:07Z</time>
<extensions>
<tp1:TrackPointExtension>
<tp1:hr>101</tp1:hr>
</tp1:TrackPointExtension>
</extensions>
</trkpt>
<trkpt lat="43.9180130" lon="12.5970950">
<ele>138.2620000</ele>
<time>2010-05-14T09:27:10Z</time>
<extensions>
<tp1:TrackPointExtension>
<tp1:hr>100</tp1:hr>
</tp1:TrackPointExtension>
</extensions>
</trkpt>
<trkpt lat="43.9179530" lon="12.5970540">
<ele>137.9130000</ele>
<time>2010-05-14T09:27:11Z</time>
<extensions>
<tp1:TrackPointExtension>
<tp1:hr>99</tp1:hr>
</tp1:TrackPointExtension>
</extensions>
</trkpt>
<trkpt lat="43.9176540" lon="12.5968550">
<ele>136.2050000</ele>
<time>2010-05-14T09:27:16Z</time>
<extensions>
<tp1:TrackPointExtension>
<tp1:hr>98</tp1:hr>
</tp1:TrackPointExtension>
</extensions>
</trkpt>
<trkpt lat="43.9175900" lon="12.5968120">
<ele>135.3580000</ele>
<time>2010-05-14T09:27:19Z</time>
<extensions>
<tp1:TrackPointExtension>
<tp1:hr>97</tp1:hr>
</tp1:TrackPointExtension>
</extensions>
</trkpt>
<trkpt lat="43.9173720" lon="12.5967760">
<ele>134.4920000</ele>
<time>2010-05-14T09:27:22Z</time>
<extensions>
<tp1:TrackPointExtension>
<tp1:hr>97</tp1:hr>
</tp1:TrackPointExtension>
</extensions>
</trkpt>
<trkpt lat="43.9171910" lon="12.5968170">
<ele>133.5010000</ele>
<time>2010-05-14T09:27:26Z</time>
<extensions>
<tp1:TrackPointExtension>
<tp1:hr>103</tp1:hr>
</tp1:TrackPointExtension>
</extensions>
</trkpt>
<trkpt lat="43.9171030" lon="12.5968460">
<ele>133.1020000</ele>
<time>2010-05-14T09:27:29Z</time>
<extensions>
<tp1:TrackPointExtension>
<tp1:hr>108</tp1:hr>
</tp1:TrackPointExtension>
</extensions>
</trkpt>
<trkpt lat="43.9170760" lon="12.5968550">
<ele>133.0150000</ele>
<time>2010-05-14T09:27:30Z</time>
<extensions>
<tp1:TrackPointExtension>
<tp1:hr>116</tp1:hr>
</tp1:TrackPointExtension>
</extensions>
</trkpt>
<trkpt lat="43.9170750" lon="12.5968550">
<ele>133.2350000</ele>
<time>2010-05-14T09:27:31Z</time>
<extensions>
<tp1:TrackPointExtension>
<tp1:hr>116</tp1:hr>
</tp1:TrackPointExtension>
</extensions>
</trkpt>
<trkpt lat="43.9170750" lon="12.5968550">
<ele>133.1640000</ele>
<time>2010-05-14T09:27:33Z</time>
<extensions>
<tp1:TrackPointExtension>
<tp1:hr>115</tp1:hr>
</tp1:TrackPointExtension>
</extensions>
</trkpt>
<trkpt lat="43.9168860" lon="12.5971720">
<ele>132.4800000</ele>
<time>2010-05-14T09:27:38Z</time>
<extensions>
<tp1:TrackPointExtension>
<tp1:hr>113</tp1:hr>
</tp1:TrackPointExtension>
</extensions>
</trkpt>
<trkpt lat="43.9168040" lon="12.5972180">
<ele>131.8250000</ele>
<time>2010-05-14T09:27:40Z</time>
<extensions>
<tp1:TrackPointExtension>
<tp1:hr>109</tp1:hr>
</tp1:TrackPointExtension>
</extensions>
</trkpt>
<trkpt lat="43.9167180" lon="12.5972680">
<ele>131.4920000</ele>
<time>2010-05-14T09:27:42Z</time>
<extensions>
<tp1:TrackPointExtension>
<tp1:hr>103</tp1:hr>
</tp1:TrackPointExtension>
</extensions>
</trkpt>
<trkpt lat="43.9164250" lon="12.5975040">
<ele>130.0510000</ele>
<time>2010-05-14T09:27:48Z</time>
<extensions>
<tp1:TrackPointExtension>
<tp1:hr>106</tp1:hr>
</tp1:TrackPointExtension>
</extensions>
</trkpt>
<trkpt lat="43.9162340" lon="12.5976630">
<ele>129.5280000</ele>
<time>2010-05-14T09:27:51Z</time>
<extensions>
<tp1:TrackPointExtension>
<tp1:hr>111</tp1:hr>
</tp1:TrackPointExtension>
</extensions>
</trkpt>
<trkpt lat="43.9158060" lon="12.5979890">
<ele>127.4120000</ele>
<time>2010-05-14T09:27:58Z</time>
<extensions>
<tp1:TrackPointExtension>
<tp1:hr>113</tp1:hr>
</tp1:TrackPointExtension>
</extensions>
</trkpt>
<trkpt lat="43.9153490" lon="12.5983320">
<ele>125.2320000</ele>
<time>2010-05-14T09:28:05Z</time>
<extensions>
<tp1:TrackPointExtension>
<tp1:hr>111</tp1:hr>
</tp1:TrackPointExtension>
</extensions>
</trkpt>
<trkpt lat="43.9149590" lon="12.5986310">
<ele>123.5310000</ele>
<time>2010-05-14T09:28:11Z</time>
<extensions>
<tp1:TrackPointExtension>
<tp1:hr>110</tp1:hr>
</tp1:TrackPointExtension>
</extensions>
</trkpt>
<trkpt lat="43.9148250" lon="12.5987980">
<ele>122.9650000</ele>
<time>2010-05-14T09:28:14Z</time>
<extensions>
<tp1:TrackPointExtension>
<tp1:hr>108</tp1:hr>
</tp1:TrackPointExtension>
</extensions>
</trkpt>
<trkpt lat="43.9146090" lon="12.5991700">
<ele>120.6450000</ele>
<time>2010-05-14T09:28:21Z</time>
<extensions>
<tp1:TrackPointExtension>
<tp1:hr>106</tp1:hr>
</tp1:TrackPointExtension>
</extensions>
</trkpt>
<trkpt lat="43.9145140" lon="12.5993390">
<ele>118.8070000</ele>
<time>2010-05-14T09:28:26Z</time>
<extensions>
<tp1:TrackPointExtension>
<tp1:hr>106</tp1:hr>
</tp1:TrackPointExtension>
</extensions>
</trkpt>
<trkpt lat="43.9144940" lon="12.5993750">
<ele>118.6590000</ele>
<time>2010-05-14T09:28:27Z</time>
<extensions>
<tp1:TrackPointExtension>
<tp1:hr>106</tp1:hr>
</tp1:TrackPointExtension>
</extensions>
</trkpt>
<trkpt lat="43.9144360" lon="12.5994770">
<ele>117.9560000</ele>
<time>2010-05-14T09:28:31Z</time>
<extensions>
<tp1:TrackPointExtension>
<tp1:hr>106</tp1:hr>
</tp1:TrackPointExtension>
</extensions>
</trkpt>
<trkpt lat="43.9143290" lon="12.5994540">
<ele>117.8500000</ele>
<time>2010-05-14T09:28:32Z</time>
<extensions>
<tp1:TrackPointExtension>
<tp1:hr>106</tp1:hr>
</tp1:TrackPointExtension>
</extensions>
</trkpt>
<trkpt lat="43.9139220" lon="12.5991550">
<ele>117.1840000</ele>
<time>2010-05-14T09:28:40Z</time>
<extensions>
<tp1:TrackPointExtension>
<tp1:hr>110</tp1:hr>
</tp1:TrackPointExtension>
</extensions>
</trkpt>
<trkpt lat="43.9134500" lon="12.5988090">
<ele>116.9730000</ele>
<time>2010-05-14T09:28:48Z</time>
<extensions>
<tp1:TrackPointExtension>
<tp1:hr>110</tp1:hr>
</tp1:TrackPointExtension>
</extensions>
</trkpt>
<trkpt lat="43.9130750" lon="12.5985700">
<ele>115.0980000</ele>
<time>2010-05-14T09:28:54Z</time>
<extensions>
<tp1:TrackPointExtension>
<tp1:hr>107</tp1:hr>
</tp1:TrackPointExtension>
</extensions>
</trkpt>
<trkpt lat="43.9125870" lon="12.5983570">
<ele>113.9010000</ele>
<time>2010-05-14T09:29:01Z</time>
<extensions>
<tp1:TrackPointExtension>
<tp1:hr>107</tp1:hr>
</tp1:TrackPointExtension>
</extensions>
</trkpt>
<trkpt lat="43.9122110" lon="12.5983720">
<ele>114.0920000</ele>
<time>2010-05-14T09:29:06Z</time>
<extensions>
<tp1:TrackPointExtension>
<tp1:hr>107</tp1:hr>
</tp1:TrackPointExtension>
</extensions>
</trkpt>
<trkpt lat="43.9118420" lon="12.5983870">
<ele>114.0450000</ele>
<time>2010-05-14T09:29:11Z</time>
<extensions>
<tp1:TrackPointExtension>
<tp1:hr>109</tp1:hr>
</tp1:TrackPointExtension>
</extensions>
</trkpt>
<trkpt lat="43.9117690" lon="12.5983890">
<ele>114.2710000</ele>
<time>2010-05-14T09:29:12Z</time>
<extensions>
<tp1:TrackPointExtension>
<tp1:hr>109</tp1:hr>
</tp1:TrackPointExtension>
</extensions>
</trkpt>
<trkpt lat="43.9114850" lon="12.5984090">
<ele>114.9010000</ele>
<time>2010-05-14T09:29:16Z</time>
<extensions>
<tp1:TrackPointExtension>
<tp1:hr>110</tp1:hr>
</tp1:TrackPointExtension>
</extensions>
</trkpt>
<trkpt lat="43.9112960" lon="12.5985600">
<ele>114.4240000</ele>
<time>2010-05-14T09:29:19Z</time>
<extensions>
<tp1:TrackPointExtension>
<tp1:hr>111</tp1:hr>
</tp1:TrackPointExtension>
</extensions>
</trkpt>
<trkpt lat="43.9108820" lon="12.5992340">
<ele>115.2730000</ele>
<time>2010-05-14T09:29:28Z</time>
<extensions>
<tp1:TrackPointExtension>
<tp1:hr>113</tp1:hr>
</tp1:TrackPointExtension>
</extensions>
</trkpt>
<trkpt lat="43.9106000" lon="12.5996810">
<ele>116.8770000</ele>
<time>2010-05-14T09:29:35Z</time>
<extensions>
<tp1:TrackPointExtension>
<tp1:hr>114</tp1:hr>
</tp1:TrackPointExtension>
</extensions>
</trkpt>
<trkpt lat="43.9105010" lon="12.5998380">
<ele>118.3440000</ele>
<time>2010-05-14T09:29:38Z</time>
<extensions>
<tp1:TrackPointExtension>
<tp1:hr>115</tp1:hr>
</tp1:TrackPointExtension>
</extensions>
</trkpt>
<trkpt lat="43.9103540" lon="12.6001220">
<ele>119.8850000</ele>
<time>2010-05-14T09:29:44Z</time>
<extensions>
<tp1:TrackPointExtension>
<tp1:hr>116</tp1:hr>
</tp1:TrackPointExtension>
</extensions>
</trkpt>
<trkpt lat="43.9103060" lon="12.6002890">
<ele>120.4820000</ele>
<time>2010-05-14T09:29:47Z</time>
<extensions>
<tp1:TrackPointExtension>
<tp1:hr>117</tp1:hr>
</tp1:TrackPointExtension>
</extensions>
</trkpt>
<trkpt lat="43.9102290" lon="12.6008530">
<ele>122.4550000</ele>
<time>2010-05-14T09:29:57Z</time>
<extensions>
<tp1:TrackPointExtension>
<tp1:hr>120</tp1:hr>
</tp1:TrackPointExtension>
</extensions>
</trkpt>
<trkpt lat="43.9101590" lon="12.6013850">
<ele>124.6510000</ele>
<time>2010-05-14T09:30:06Z</time>
<extensions>
<tp1:TrackPointExtension>
<tp1:hr>123</tp1:hr>
</tp1:TrackPointExtension>
</extensions>
</trkpt>
<trkpt lat="43.9100670" lon="12.6016750">
<ele>126.1890000</ele>
<time>2010-05-14T09:30:12Z</time>
<extensions>
<tp1:TrackPointExtension>
<tp1:hr>124</tp1:hr>
</tp1:TrackPointExtension>
</extensions>
</trkpt>
<trkpt lat="43.9100410" lon="12.6017010">
<ele>126.8710000</ele>
<time>2010-05-14T09:30:13Z</time>
<extensions>
<tp1:TrackPointExtension>
<tp1:hr>125</tp1:hr>
</tp1:TrackPointExtension>
</extensions>
</trkpt>
<trkpt lat="43.9099400" lon="12.6017480">
<ele>128.9620000</ele>
<time>2010-05-14T09:30:17Z</time>
<extensions>
<tp1:TrackPointExtension>
<tp1:hr>125</tp1:hr>
</tp1:TrackPointExtension>
</extensions>
</trkpt>
<trkpt lat="43.9099030" lon="12.6016560">
<ele>129.1310000</ele>
<time>2010-05-14T09:30:18Z</time>
<extensions>
<tp1:TrackPointExtension>
<tp1:hr>125</tp1:hr>
</tp1:TrackPointExtension>
</extensions>
</trkpt>
<trkpt lat="43.9098840" lon="12.6013240">
<ele>132.0570000</ele>
<time>2010-05-14T09:30:27Z</time>
<extensions>
<tp1:TrackPointExtension>
<tp1:hr>128</tp1:hr>
</tp1:TrackPointExtension>
</extensions>
</trkpt>
<trkpt lat="43.9099010" lon="12.6009920">
<ele>133.9640000</ele>
<time>2010-05-14T09:30:35Z</time>
<extensions>
<tp1:TrackPointExtension>
<tp1:hr>132</tp1:hr>
</tp1:TrackPointExtension>
</extensions>
</trkpt>
<trkpt lat="43.9098260" lon="12.6008000">
<ele>135.8770000</ele>
<time>2010-05-14T09:30:40Z</time>
<extensions>
<tp1:TrackPointExtension>
<tp1:hr>133</tp1:hr>
</tp1:TrackPointExtension>
</extensions>
</trkpt>
<trkpt lat="43.9096820" lon="12.6006270">
<ele>136.5930000</ele>
<time>2010-05-14T09:30:46Z</time>
<extensions>
<tp1:TrackPointExtension>
<tp1:hr>134</tp1:hr>
</tp1:TrackPointExtension>
</extensions>
</trkpt>
<trkpt lat="43.9093790" lon="12.6003950">
<ele>138.0130000</ele>
<time>2010-05-14T09:30:56Z</time>
<extensions>
<tp1:TrackPointExtension>
<tp1:hr>134</tp1:hr>
</tp1:TrackPointExtension>
</extensions>
</trkpt>
<trkpt lat="43.9092040" lon="12.6004640">
<ele>138.0540000</ele>
<time>2010-05-14T09:31:01Z</time>
<extensions>
<tp1:TrackPointExtension>
<tp1:hr>134</tp1:hr>
</tp1:TrackPointExtension>
</extensions>
</trkpt>
<trkpt lat="43.9089040" lon="12.6006480">
<ele>138.4080000</ele>
<time>2010-05-14T09:31:09Z</time>
<extensions>
<tp1:TrackPointExtension>
<tp1:hr>134</tp1:hr>
</tp1:TrackPointExtension>
</extensions>
</trkpt>
<trkpt lat="43.9085580" lon="12.6008600">
<ele>139.0790000</ele>
<time>2010-05-14T09:31:17Z</time>
<extensions>
<tp1:TrackPointExtension>
<tp1:hr>134</tp1:hr>
</tp1:TrackPointExtension>
</extensions>
</trkpt>
<trkpt lat="43.9080390" lon="12.6011790">
<ele>139.0590000</ele>
<time>2010-05-14T09:31:28Z</time>
<extensions>
<tp1:TrackPointExtension>
<tp1:hr>133</tp1:hr>
</tp1:TrackPointExtension>
</extensions>
</trkpt>
<trkpt lat="43.9077140" lon="12.6013790">
<ele>139.0530000</ele>
<time>2010-05-14T09:31:35Z</time>
<extensions>
<tp1:TrackPointExtension>
<tp1:hr>130</tp1:hr>
</tp1:TrackPointExtension>
</extensions>
</trkpt>
<trkpt lat="43.9073410" lon="12.6015730">
<ele>138.5540000</ele>
<time>2010-05-14T09:31:42Z</time>
<extensions>
<tp1:TrackPointExtension>
<tp1:hr>128</tp1:hr>
</tp1:TrackPointExtension>
</extensions>
</trkpt>
<trkpt lat="43.9069630" lon="12.6016410">
<ele>138.2300000</ele>
<time>2010-05-14T09:31:48Z</time>
<extensions>
<tp1:TrackPointExtension>
<tp1:hr>127</tp1:hr>
</tp1:TrackPointExtension>
</extensions>
</trkpt>
<trkpt lat="43.9064480" lon="12.6015440">
<ele>137.8930000</ele>
<time>2010-05-14T09:31:56Z</time>
<extensions>
<tp1:TrackPointExtension>
<tp1:hr>126</tp1:hr>
</tp1:TrackPointExtension>
</extensions>
</trkpt>
<trkpt lat="43.9061310" lon="12.6015760">
<ele>136.5570000</ele>
<time>2010-05-14T09:32:01Z</time>
<extensions>
<tp1:TrackPointExtension>
<tp1:hr>123</tp1:hr>
</tp1:TrackPointExtension>
</extensions>
</trkpt>
<trkpt lat="43.9056650" lon="12.6020010">
<ele>134.0420000</ele>
<time>2010-05-14T09:32:08Z</time>
<extensions>
<tp1:TrackPointExtension>
<tp1:hr>117</tp1:hr>
</tp1:TrackPointExtension>
</extensions>
</trkpt>
<trkpt lat="43.9051440" lon="12.6023920">
<ele>131.2240000</ele>
<time>2010-05-14T09:32:15Z</time>
<extensions>
<tp1:TrackPointExtension>
<tp1:hr>110</tp1:hr>
</tp1:TrackPointExtension>
</extensions>
</trkpt>
<trkpt lat="43.9050700" lon="12.6024550">
<ele>130.8790000</ele>
<time>2010-05-14T09:32:16Z</time>
<extensions>
<tp1:TrackPointExtension>
<tp1:hr>108</tp1:hr>
</tp1:TrackPointExtension>
</extensions>
</trkpt>
<trkpt lat="43.9048130" lon="12.6027430">
<ele>129.3340000</ele>
<time>2010-05-14T09:32:20Z</time>
<extensions>
<tp1:TrackPointExtension>
<tp1:hr>108</tp1:hr>
</tp1:TrackPointExtension>
</extensions>
</trkpt>
<trkpt lat="43.9047760" lon="12.6028510">
<ele>129.1420000</ele>
<time>2010-05-14T09:32:21Z</time>
<extensions>
<tp1:TrackPointExtension>
<tp1:hr>107</tp1:hr>
</tp1:TrackPointExtension>
</extensions>
</trkpt>
<trkpt lat="43.9047390" lon="12.6029630">
<ele>128.5490000</ele>
<time>2010-05-14T09:32:22Z</time>
<extensions>
<tp1:TrackPointExtension>
<tp1:hr>107</tp1:hr>
</tp1:TrackPointExtension>
</extensions>
</trkpt>
<trkpt lat="43.9045500" lon="12.6035290">
<ele>126.8150000</ele>
<time>2010-05-14T09:32:27Z</time>
<extensions>
<tp1:TrackPointExtension>
<tp1:hr>107</tp1:hr>
</tp1:TrackPointExtension>
</extensions>
</trkpt>
<trkpt lat="43.9043730" lon="12.6038680">
<ele>124.8710000</ele>
<time>2010-05-14T09:32:31Z</time>
<extensions>
<tp1:TrackPointExtension>
<tp1:hr>106</tp1:hr>
</tp1:TrackPointExtension>
</extensions>
</trkpt>
<trkpt lat="43.9042210" lon="12.6039770">
<ele>123.2470000</ele>
<time>2010-05-14T09:32:33Z</time>
<extensions>
<tp1:TrackPointExtension>
<tp1:hr>105</tp1:hr>
</tp1:TrackPointExtension>
</extensions>
</trkpt>
<trkpt lat="43.9040570" lon="12.6040620">
<ele>121.9410000</ele>
<time>2010-05-14T09:32:35Z</time>
<extensions>
<tp1:TrackPointExtension>
<tp1:hr>105</tp1:hr>
</tp1:TrackPointExtension>
</extensions>
</trkpt>
<trkpt lat="43.9039030" lon="12.6041610">
<ele>121.2010000</ele>
<time>2010-05-14T09:32:37Z</time>
<extensions>
<tp1:TrackPointExtension>
<tp1:hr>104</tp1:hr>
</tp1:TrackPointExtension>
</extensions>
</trkpt>
<trkpt lat="43.9037270" lon="12.6043960">
<ele>118.8790000</ele>
<time>2010-05-14T09:32:40Z</time>
<extensions>
<tp1:TrackPointExtension>
<tp1:hr>103</tp1:hr>
</tp1:TrackPointExtension>
</extensions>
</trkpt>
<trkpt lat="43.9036700" lon="12.6047020">
<ele>116.7220000</ele>
<time>2010-05-14T09:32:43Z</time>
<extensions>
<tp1:TrackPointExtension>
<tp1:hr>102</tp1:hr>
</tp1:TrackPointExtension>
</extensions>
</trkpt>
<trkpt lat="43.9036970" lon="12.6048190">
<ele>115.9810000</ele>
<time>2010-05-14T09:32:44Z</time>
<extensions>
<tp1:TrackPointExtension>
<tp1:hr>101</tp1:hr>
</tp1:TrackPointExtension>
</extensions>
</trkpt>
<trkpt lat="43.9038280" lon="12.6053990">
<ele>112.6790000</ele>
<time>2010-05-14T09:32:49Z</time>
<extensions>
<tp1:TrackPointExtension>
<tp1:hr>101</tp1:hr>
</tp1:TrackPointExtension>
</extensions>
</trkpt>
<trkpt lat="43.9038350" lon="12.6057820">
<ele>110.3020000</ele>
<time>2010-05-14T09:32:53Z</time>
<extensions>
<tp1:TrackPointExtension>
<tp1:hr>99</tp1:hr>
</tp1:TrackPointExtension>
</extensions>
</trkpt>
<trkpt lat="43.9037280" lon="12.6059960">
<ele>109.2610000</ele>
<time>2010-05-14T09:32:56Z</time>
<extensions>
<tp1:TrackPointExtension>
<tp1:hr>99</tp1:hr>
</tp1:TrackPointExtension>
</extensions>
</trkpt>
<trkpt lat="43.9036130" lon="12.6060700">
<ele>109.1910000</ele>
<time>2010-05-14T09:32:58Z</time>
<extensions>
<tp1:TrackPointExtension>
<tp1:hr>103</tp1:hr>
</tp1:TrackPointExtension>
</extensions>
</trkpt>
<trkpt lat="43.9034230" lon="12.6061910">
<ele>107.6210000</ele>
<time>2010-05-14T09:33:01Z</time>
<extensions>
<tp1:TrackPointExtension>
<tp1:hr>113</tp1:hr>
</tp1:TrackPointExtension>
</extensions>
</trkpt>
<trkpt lat="43.9033560" lon="12.6062330">
<ele>107.2260000</ele>
<time>2010-05-14T09:33:02Z</time>
<extensions>
<tp1:TrackPointExtension>
<tp1:hr>120</tp1:hr>
</tp1:TrackPointExtension>
</extensions>
</trkpt>
<trkpt lat="43.9028990" lon="12.6064890">
<ele>104.5560000</ele>
<time>2010-05-14T09:33:08Z</time>
<extensions>
<tp1:TrackPointExtension>
<tp1:hr>116</tp1:hr>
</tp1:TrackPointExtension>
</extensions>
</trkpt>
<trkpt lat="43.9027290" lon="12.6065810">
<ele>104.0500000</ele>
<time>2010-05-14T09:33:10Z</time>
<extensions>
<tp1:TrackPointExtension>
<tp1:hr>115</tp1:hr>
</tp1:TrackPointExtension>
</extensions>
</trkpt>
<trkpt lat="43.9024740" lon="12.6069420">
<ele>104.0170000</ele>
<time>2010-05-14T09:33:14Z</time>
<extensions>
<tp1:TrackPointExtension>
<tp1:hr>111</tp1:hr>
</tp1:TrackPointExtension>
</extensions>
</trkpt>
<trkpt lat="43.9022210" lon="12.6074040">
<ele>104.1930000</ele>
<time>2010-05-14T09:33:19Z</time>
<extensions>
<tp1:TrackPointExtension>
<tp1:hr>108</tp1:hr>
</tp1:TrackPointExtension>
</extensions>
</trkpt>
<trkpt lat="43.9018860" lon="12.6080150">
<ele>104.1720000</ele>
<time>2010-05-14T09:33:26Z</time>
<extensions>
<tp1:TrackPointExtension>
<tp1:hr>108</tp1:hr>
</tp1:TrackPointExtension>
</extensions>
</trkpt>
<trkpt lat="43.9017390" lon="12.6083340">
<ele>105.9970000</ele>
<time>2010-05-14T09:33:30Z</time>
<extensions>
<tp1:TrackPointExtension>
<tp1:hr>109</tp1:hr>
</tp1:TrackPointExtension>
</extensions>
</trkpt>
<trkpt lat="43.9017100" lon="12.6084050">
<ele>106.5370000</ele>
<time>2010-05-14T09:33:31Z</time>
<extensions>
<tp1:TrackPointExtension>
<tp1:hr>109</tp1:hr>
</tp1:TrackPointExtension>
</extensions>
</trkpt>
<trkpt lat="43.9016460" lon="12.6088960">
<ele>109.3590000</ele>
<time>2010-05-14T09:33:39Z</time>
<extensions>
<tp1:TrackPointExtension>
<tp1:hr>112</tp1:hr>
</tp1:TrackPointExtension>
</extensions>
</trkpt>
<trkpt lat="43.9015930" lon="12.6093080">
<ele>111.6590000</ele>
<time>2010-05-14T09:33:47Z</time>
<extensions>
<tp1:TrackPointExtension>
<tp1:hr>116</tp1:hr>
</tp1:TrackPointExtension>
</extensions>
</trkpt>
<trkpt lat="43.9015820" lon="12.6096710">
<ele>113.8950000</ele>
<time>2010-05-14T09:33:55Z</time>
<extensions>
<tp1:TrackPointExtension>
<tp1:hr>121</tp1:hr>
</tp1:TrackPointExtension>
</extensions>
</trkpt>
<trkpt lat="43.9016050" lon="12.6100470">
<ele>116.2460000</ele>
<time>2010-05-14T09:34:04Z</time>
<extensions>
<tp1:TrackPointExtension>
<tp1:hr>125</tp1:hr>
</tp1:TrackPointExtension>
</extensions>
</trkpt>
<trkpt lat="43.9016470" lon="12.6103090">
<ele>117.6840000</ele>
<time>2010-05-14T09:34:10Z</time>
<extensions>
<tp1:TrackPointExtension>
<tp1:hr>127</tp1:hr>
</tp1:TrackPointExtension>
</extensions>
</trkpt>
<trkpt lat="43.9017000" lon="12.6106440">
<ele>120.0940000</ele>
<time>2010-05-14T09:34:18Z</time>
<extensions>
<tp1:TrackPointExtension>
<tp1:hr>128</tp1:hr>
</tp1:TrackPointExtension>
</extensions>
</trkpt>
<trkpt lat="43.9017960" lon="12.6109050">
<ele>121.5610000</ele>
<time>2010-05-14T09:34:25Z</time>
<extensions>
<tp1:TrackPointExtension>
<tp1:hr>129</tp1:hr>
</tp1:TrackPointExtension>
</extensions>
</trkpt>
<trkpt lat="43.9019000" lon="12.6111330">
<ele>123.4150000</ele>
<time>2010-05-14T09:34:32Z</time>
<extensions>
<tp1:TrackPointExtension>
<tp1:hr>129</tp1:hr>
</tp1:TrackPointExtension>
</extensions>
</trkpt>
<trkpt lat="43.9020390" lon="12.6113470">
<ele>124.9860000</ele>
<time>2010-05-14T09:34:39Z</time>
<extensions>
<tp1:TrackPointExtension>
<tp1:hr>130</tp1:hr>
</tp1:TrackPointExtension>
</extensions>
</trkpt>
<trkpt lat="43.9021770" lon="12.6115040">
<ele>126.3830000</ele>
<time>2010-05-14T09:34:45Z</time>
<extensions>
<tp1:TrackPointExtension>
<tp1:hr>132</tp1:hr>
</tp1:TrackPointExtension>
</extensions>
</trkpt>
<trkpt lat="43.9023850" lon="12.6116210">
<ele>128.0360000</ele>
<time>2010-05-14T09:34:52Z</time>
<extensions>
<tp1:TrackPointExtension>
<tp1:hr>133</tp1:hr>
</tp1:TrackPointExtension>
</extensions>
</trkpt>
<trkpt lat="43.9024620" lon="12.6118560">
<ele>129.7340000</ele>
<time>2010-05-14T09:34:58Z</time>
<extensions>
<tp1:TrackPointExtension>
<tp1:hr>133</tp1:hr>
</tp1:TrackPointExtension>
</extensions>
</trkpt>
<trkpt lat="43.9024830" lon="12.6121160">
<ele>130.9240000</ele>
<time>2010-05-14T09:35:04Z</time>
<extensions>
<tp1:TrackPointExtension>
<tp1:hr>135</tp1:hr>
</tp1:TrackPointExtension>
</extensions>
</trkpt>
<trkpt lat="43.9024050" lon="12.6122940">
<ele>132.4050000</ele>
<time>2010-05-14T09:35:09Z</time>
<extensions>
<tp1:TrackPointExtension>
<tp1:hr>135</tp1:hr>
</tp1:TrackPointExtension>
</extensions>
</trkpt>
<trkpt lat="43.9022520" lon="12.6123400">
<ele>133.7640000</ele>
<time>2010-05-14T09:35:15Z</time>
<extensions>
<tp1:TrackPointExtension>
<tp1:hr>136</tp1:hr>
</tp1:TrackPointExtension>
</extensions>
</trkpt>
<trkpt lat="43.9019840" lon="12.6123080">
<ele>136.0720000</ele>
<time>2010-05-14T09:35:24Z</time>
<extensions>
<tp1:TrackPointExtension>
<tp1:hr>138</tp1:hr>
</tp1:TrackPointExtension>
</extensions>
</trkpt>
<trkpt lat="43.9016760" lon="12.6122700">
<ele>138.4280000</ele>
<time>2010-05-14T09:35:34Z</time>
<extensions>
<tp1:TrackPointExtension>
<tp1:hr>139</tp1:hr>
</tp1:TrackPointExtension>
</extensions>
</trkpt>
<trkpt lat="43.9014350" lon="12.6122410">
<ele>140.1430000</ele>
<time>2010-05-14T09:35:42Z</time>
<extensions>
<tp1:TrackPointExtension>
<tp1:hr>139</tp1:hr>
</tp1:TrackPointExtension>
</extensions>
</trkpt>
<trkpt lat="43.9011640" lon="12.6122080">
<ele>142.3440000</ele>
<time>2010-05-14T09:35:51Z</time>
<extensions>
<tp1:TrackPointExtension>
<tp1:hr>139</tp1:hr>
</tp1:TrackPointExtension>
</extensions>
</trkpt>
<trkpt lat="43.9008920" lon="12.6121750">
<ele>144.3130000</ele>
<time>2010-05-14T09:36:00Z</time>
<extensions>
<tp1:TrackPointExtension>
<tp1:hr>139</tp1:hr>
</tp1:TrackPointExtension>
</extensions>
</trkpt>
<trkpt lat="43.9005740" lon="12.6121360">
<ele>147.0050000</ele>
<time>2010-05-14T09:36:11Z</time>
<extensions>
<tp1:TrackPointExtension>
<tp1:hr>139</tp1:hr>
</tp1:TrackPointExtension>
</extensions>
</trkpt>
<trkpt lat="43.9004550" lon="12.6119150">
<ele>147.9430000</ele>
<time>2010-05-14T09:36:17Z</time>
<extensions>
<tp1:TrackPointExtension>
<tp1:hr>139</tp1:hr>
</tp1:TrackPointExtension>
</extensions>
</trkpt>
<trkpt lat="43.9003090" lon="12.6118740">
<ele>149.6870000</ele>
<time>2010-05-14T09:36:23Z</time>
<extensions>
<tp1:TrackPointExtension>
<tp1:hr>139</tp1:hr>
</tp1:TrackPointExtension>
</extensions>
</trkpt>
<trkpt lat="43.9001200" lon="12.6118630">
<ele>151.1120000</ele>
<time>2010-05-14T09:36:30Z</time>
<extensions>
<tp1:TrackPointExtension>
<tp1:hr>139</tp1:hr>
</tp1:TrackPointExtension>
</extensions>
</trkpt>
<trkpt lat="43.8998710" lon="12.6118500">
<ele>153.3620000</ele>
<time>2010-05-14T09:36:39Z</time>
<extensions>
<tp1:TrackPointExtension>
<tp1:hr>138</tp1:hr>
</tp1:TrackPointExtension>
</extensions>
</trkpt>
<trkpt lat="43.8996890" lon="12.6118400">
<ele>155.0850000</ele>
<time>2010-05-14T09:36:46Z</time>
<extensions>
<tp1:TrackPointExtension>
<tp1:hr>139</tp1:hr>
</tp1:TrackPointExtension>
</extensions>
</trkpt>
<trkpt lat="43.8995150" lon="12.6118200">
<ele>156.8800000</ele>
<time>2010-05-14T09:36:53Z</time>
<extensions>
<tp1:TrackPointExtension>
<tp1:hr>139</tp1:hr>
</tp1:TrackPointExtension>
</extensions>
</trkpt>
<trkpt lat="43.8992750" lon="12.6117600">
<ele>159.4380000</ele>
<time>2010-05-14T09:37:03Z</time>
<extensions>
<tp1:TrackPointExtension>
<tp1:hr>139</tp1:hr>
</tp1:TrackPointExtension>
</extensions>
</trkpt>
<trkpt lat="43.8991090" lon="12.6116620">
<ele>161.4370000</ele>
<time>2010-05-14T09:37:11Z</time>
<extensions>
<tp1:TrackPointExtension>
<tp1:hr>139</tp1:hr>
</tp1:TrackPointExtension>
</extensions>
</trkpt>
<trkpt lat="43.8989790" lon="12.6115650">
<ele>163.8020000</ele>
<time>2010-05-14T09:37:18Z</time>
<extensions>
<tp1:TrackPointExtension>
<tp1:hr>140</tp1:hr>
</tp1:TrackPointExtension>
</extensions>
</trkpt>
<trkpt lat="43.8988400" lon="12.6114110">
<ele>166.6120000</ele>
<time>2010-05-14T09:37:27Z</time>
<extensions>
<tp1:TrackPointExtension>
<tp1:hr>141</tp1:hr>
</tp1:TrackPointExtension>
</extensions>
</trkpt>
<trkpt lat="43.8987650" lon="12.6112620">
<ele>168.9770000</ele>
<time>2010-05-14T09:37:34Z</time>
<extensions>
<tp1:TrackPointExtension>
<tp1:hr>142</tp1:hr>
</tp1:TrackPointExtension>
</extensions>
</trkpt>
<trkpt lat="43.8986980" lon="12.6110760">
<ele>171.1840000</ele>
<time>2010-05-14T09:37:42Z</time>
<extensions>
<tp1:TrackPointExtension>
<tp1:hr>143</tp1:hr>
</tp1:TrackPointExtension>
</extensions>
</trkpt>
<trkpt lat="43.8986690" lon="12.6108520">
<ele>172.8840000</ele>
<time>2010-05-14T09:37:50Z</time>
<extensions>
<tp1:TrackPointExtension>
<tp1:hr>143</tp1:hr>
</tp1:TrackPointExtension>
</extensions>
</trkpt>
<trkpt lat="43.8986780" lon="12.6106310">
<ele>174.9260000</ele>
<time>2010-05-14T09:37:58Z</time>
<extensions>
<tp1:TrackPointExtension>
<tp1:hr>144</tp1:hr>
</tp1:TrackPointExtension>
</extensions>
</trkpt>
<trkpt lat="43.8986880" lon="12.6103860">
<ele>177.6860000</ele>
<time>2010-05-14T09:38:07Z</time>
<extensions>
<tp1:TrackPointExtension>
<tp1:hr>144</tp1:hr>
</tp1:TrackPointExtension>
</extensions>
</trkpt>
<trkpt lat="43.8986960" lon="12.6101740">
<ele>179.8540000</ele>
<time>2010-05-14T09:38:15Z</time>
<extensions>
<tp1:TrackPointExtension>
<tp1:hr>144</tp1:hr>
</tp1:TrackPointExtension>
</extensions>
</trkpt>
<trkpt lat="43.8987020" lon="12.6100230">
<ele>181.4420000</ele>
<time>2010-05-14T09:38:21Z</time>
<extensions>
<tp1:TrackPointExtension>
<tp1:hr>145</tp1:hr>
</tp1:TrackPointExtension>
</extensions>
</trkpt>
<trkpt lat="43.8987070" lon="12.6098150">
<ele>183.4990000</ele>
<time>2010-05-14T09:38:29Z</time>
<extensions>
<tp1:TrackPointExtension>
<tp1:hr>146</tp1:hr>
</tp1:TrackPointExtension>
</extensions>
</trkpt>
<trkpt lat="43.8986550" lon="12.6096780">
<ele>185.2550000</ele>
<time>2010-05-14T09:38:35Z</time>
<extensions>
<tp1:TrackPointExtension>
<tp1:hr>146</tp1:hr>
</tp1:TrackPointExtension>
</extensions>
</trkpt>
<trkpt lat="43.8985920" lon="12.6096730">
<ele>186.4680000</ele>
<time>2010-05-14T09:38:39Z</time>
<extensions>
<tp1:TrackPointExtension>
<tp1:hr>146</tp1:hr>
</tp1:TrackPointExtension>
</extensions>
</trkpt>
<trkpt lat="43.8984850" lon="12.6097800">
<ele>188.6700000</ele>
<time>2010-05-14T09:38:46Z</time>
<extensions>
<tp1:TrackPointExtension>
<tp1:hr>146</tp1:hr>
</tp1:TrackPointExtension>
</extensions>
</trkpt>
<trkpt lat="43.8983860" lon="12.6098790">
<ele>190.2040000</ele>
<time>2010-05-14T09:38:52Z</time>
<extensions>
<tp1:TrackPointExtension>
<tp1:hr>147</tp1:hr>
</tp1:TrackPointExtension>
</extensions>
</trkpt>
<trkpt lat="43.8982440" lon="12.6099800">
<ele>192.7710000</ele>
<time>2010-05-14T09:39:00Z</time>
<extensions>
<tp1:TrackPointExtension>
<tp1:hr>148</tp1:hr>
</tp1:TrackPointExtension>
</extensions>
</trkpt>
<trkpt lat="43.8980920" lon="12.6099460">
<ele>194.8800000</ele>
<time>2010-05-14T09:39:08Z</time>
<extensions>
<tp1:TrackPointExtension>
<tp1:hr>149</tp1:hr>
</tp1:TrackPointExtension>
</extensions>
</trkpt>
<trkpt lat="43.8979600" lon="12.6099170">
<ele>197.1480000</ele>
<time>2010-05-14T09:39:15Z</time>
<extensions>
<tp1:TrackPointExtension>
<tp1:hr>150</tp1:hr>
</tp1:TrackPointExtension>
</extensions>
</trkpt>
<trkpt lat="43.8978340" lon="12.6098890">
<ele>199.0020000</ele>
<time>2010-05-14T09:39:22Z</time>
<extensions>
<tp1:TrackPointExtension>
<tp1:hr>150</tp1:hr>
</tp1:TrackPointExtension>
</extensions>
</trkpt>
<trkpt lat="43.8976960" lon="12.6098580">
<ele>200.9890000</ele>
<time>2010-05-14T09:39:30Z</time>
<extensions>
<tp1:TrackPointExtension>
<tp1:hr>150</tp1:hr>
</tp1:TrackPointExtension>
</extensions>
</trkpt>
<trkpt lat="43.8976100" lon="12.6098390">
<ele>202.0570000</ele>
<time>2010-05-14T09:39:35Z</time>
<extensions>
<tp1:TrackPointExtension>
<tp1:hr>150</tp1:hr>
</tp1:TrackPointExtension>
</extensions>
</trkpt>
<trkpt lat="43.8975850" lon="12.6098330">
<ele>202.2910000</ele>
<time>2010-05-14T09:39:38Z</time>
<extensions>
<tp1:TrackPointExtension>
<tp1:hr>150</tp1:hr>
</tp1:TrackPointExtension>
</extensions>
</trkpt>
</trkseg>
<trkseg>
<trkpt lat="43.8975850" lon="12.6098330">
<ele>202.8990000</ele>
<time>2010-05-14T09:40:00Z</time>
<extensions>
<tp1:TrackPointExtension>
<tp1:hr>149</tp1:hr>
</tp1:TrackPointExtension>
</extensions>
</trkpt>
<trkpt lat="43.8975850" lon="12.6098330">
<ele>203.1540000</ele>
<time>2010-05-14T09:40:03Z</time>
<extensions>
<tp1:TrackPointExtension>
<tp1:hr>143</tp1:hr>
</tp1:TrackPointExtension>
</extensions>
</trkpt>
<trkpt lat="43.8975850" lon="12.6098330">
<ele>203.5820000</ele>
<time>2010-05-14T09:40:06Z</time>
<extensions>
<tp1:TrackPointExtension>
<tp1:hr>138</tp1:hr>
</tp1:TrackPointExtension>
</extensions>
</trkpt>
<trkpt lat="43.8974430" lon="12.6098410">
<ele>204.7030000</ele>
<time>2010-05-14T09:40:16Z</time>
<extensions>
<tp1:TrackPointExtension>
<tp1:hr>133</tp1:hr>
</tp1:TrackPointExtension>
</extensions>
</trkpt>
<trkpt lat="43.8973410" lon="12.6098820">
<ele>205.7320000</ele>
<time>2010-05-14T09:40:26Z</time>
<extensions>
<tp1:TrackPointExtension>
<tp1:hr>132</tp1:hr>
</tp1:TrackPointExtension>
</extensions>
</trkpt>
<trkpt lat="43.8972480" lon="12.6099190">
<ele>207.0040000</ele>
<time>2010-05-14T09:40:36Z</time>
<extensions>
<tp1:TrackPointExtension>
<tp1:hr>129</tp1:hr>
</tp1:TrackPointExtension>
</extensions>
</trkpt>
<trkpt lat="43.8971580" lon="12.6099550">
<ele>208.3640000</ele>
<time>2010-05-14T09:40:45Z</time>
<extensions>
<tp1:TrackPointExtension>
<tp1:hr>127</tp1:hr>
</tp1:TrackPointExtension>
</extensions>
</trkpt>
<trkpt lat="43.8970790" lon="12.6099860">
<ele>209.3530000</ele>
<time>2010-05-14T09:40:53Z</time>
<extensions>
<tp1:TrackPointExtension>
<tp1:hr>125</tp1:hr>
</tp1:TrackPointExtension>
</extensions>
</trkpt>
<trkpt lat="43.8969950" lon="12.6100200">
<ele>210.4050000</ele>
<time>2010-05-14T09:41:02Z</time>
<extensions>
<tp1:TrackPointExtension>
<tp1:hr>128</tp1:hr>
</tp1:TrackPointExtension>
</extensions>
</trkpt>
<trkpt lat="43.8969080" lon="12.6100550">
<ele>211.6420000</ele>
<time>2010-05-14T09:41:11Z</time>
<extensions>
<tp1:TrackPointExtension>
<tp1:hr>125</tp1:hr>
</tp1:TrackPointExtension>
</extensions>
</trkpt>
<trkpt lat="43.8968540" lon="12.6101030">
<ele>212.5610000</ele>
<time>2010-05-14T09:41:19Z</time>
<extensions>
<tp1:TrackPointExtension>
<tp1:hr>124</tp1:hr>
</tp1:TrackPointExtension>
</extensions>
</trkpt>
<trkpt lat="43.8968510" lon="12.6101140">
<ele>212.7510000</ele>
<time>2010-05-14T09:41:20Z</time>
<extensions>
<tp1:TrackPointExtension>
<tp1:hr>124</tp1:hr>
</tp1:TrackPointExtension>
</extensions>
</trkpt>
<trkpt lat="43.8968300" lon="12.6102010">
<ele>213.4610000</ele>
<time>2010-05-14T09:41:27Z</time>
<extensions>
<tp1:TrackPointExtension>
<tp1:hr>122</tp1:hr>
</tp1:TrackPointExtension>
</extensions>
</trkpt>
<trkpt lat="43.8968190" lon="12.6103060">
<ele>214.0640000</ele>
<time>2010-05-14T09:41:35Z</time>
<extensions>
<tp1:TrackPointExtension>
<tp1:hr>122</tp1:hr>
</tp1:TrackPointExtension>
</extensions>
</trkpt>
<trkpt lat="43.8968190" lon="12.6103060">
<ele>213.9940000</ele>
<time>2010-05-14T09:41:39Z</time>
<extensions>
<tp1:TrackPointExtension>
<tp1:hr>120</tp1:hr>
</tp1:TrackPointExtension>
</extensions>
</trkpt>
</trkseg>
<trkseg>
<trkpt lat="43.8968190" lon="12.6104300">
<ele>214.7950000</ele>
<time>2010-05-14T09:41:55Z</time>
<extensions>
<tp1:TrackPointExtension>
<tp1:hr>120</tp1:hr>
</tp1:TrackPointExtension>
</extensions>
</trkpt>
<trkpt lat="43.8968190" lon="12.6106340">
<ele>216.2540000</ele>
<time>2010-05-14T09:42:01Z</time>
<extensions>
<tp1:TrackPointExtension>
<tp1:hr>120</tp1:hr>
</tp1:TrackPointExtension>
</extensions>
</trkpt>
<trkpt lat="43.8968140" lon="12.6108590">
<ele>217.9160000</ele>
<time>2010-05-14T09:42:08Z</time>
<extensions>
<tp1:TrackPointExtension>
<tp1:hr>123</tp1:hr>
</tp1:TrackPointExtension>
</extensions>
</trkpt>
<trkpt lat="43.8967280" lon="12.6111170">
<ele>220.3530000</ele>
<time>2010-05-14T09:42:17Z</time>
<extensions>
<tp1:TrackPointExtension>
<tp1:hr>126</tp1:hr>
</tp1:TrackPointExtension>
</extensions>
</trkpt>
<trkpt lat="43.8966450" lon="12.6112920">
<ele>221.8440000</ele>
<time>2010-05-14T09:42:25Z</time>
<extensions>
<tp1:TrackPointExtension>
<tp1:hr>127</tp1:hr>
</tp1:TrackPointExtension>
</extensions>
</trkpt>
<trkpt lat="43.8965540" lon="12.6114070">
<ele>223.8250000</ele>
<time>2010-05-14T09:42:32Z</time>
<extensions>
<tp1:TrackPointExtension>
<tp1:hr>129</tp1:hr>
</tp1:TrackPointExtension>
</extensions>
</trkpt>
<trkpt lat="43.8964010" lon="12.6114840">
<ele>226.8250000</ele>
<time>2010-05-14T09:42:42Z</time>
<extensions>
<tp1:TrackPointExtension>
<tp1:hr>131</tp1:hr>
</tp1:TrackPointExtension>
</extensions>
</trkpt>
<trkpt lat="43.8962950" lon="12.6115360">
<ele>228.8290000</ele>
<time>2010-05-14T09:42:49Z</time>
<extensions>
<tp1:TrackPointExtension>
<tp1:hr>133</tp1:hr>
</tp1:TrackPointExtension>
</extensions>
</trkpt>
<trkpt lat="43.8962660" lon="12.6115470">
<ele>229.0690000</ele>
<time>2010-05-14T09:42:51Z</time>
<extensions>
<tp1:TrackPointExtension>
<tp1:hr>133</tp1:hr>
</tp1:TrackPointExtension>
</extensions>
</trkpt>
<trkpt lat="43.8962470" lon="12.6115540">
<ele>229.2960000</ele>
<time>2010-05-14T09:42:54Z</time>
<extensions>
<tp1:TrackPointExtension>
<tp1:hr>134</tp1:hr>
</tp1:TrackPointExtension>
</extensions>
</trkpt>
</trkseg>
<trkseg>
<trkpt lat="43.8960940" lon="12.6116110">
<ele>232.0500000</ele>
<time>2010-05-14T09:43:13Z</time>
<extensions>
<tp1:TrackPointExtension>
<tp1:hr>135</tp1:hr>
</tp1:TrackPointExtension>
</extensions>
</trkpt>
<trkpt lat="43.8960110" lon="12.6116420">
<ele>233.4260000</ele>
<time>2010-05-14T09:43:23Z</time>
<extensions>
<tp1:TrackPointExtension>
<tp1:hr>132</tp1:hr>
</tp1:TrackPointExtension>
</extensions>
</trkpt>
<trkpt lat="43.8959760" lon="12.6116550">
<ele>234.2180000</ele>
<time>2010-05-14T09:43:27Z</time>
<extensions>
<tp1:TrackPointExtension>
<tp1:hr>132</tp1:hr>
</tp1:TrackPointExtension>
</extensions>
</trkpt>
<trkpt lat="43.8959650" lon="12.6116600">
<ele>234.2480000</ele>
<time>2010-05-14T09:43:31Z</time>
<extensions>
<tp1:TrackPointExtension>
<tp1:hr>132</tp1:hr>
</tp1:TrackPointExtension>
</extensions>
</trkpt>
</trkseg>
<trkseg>
<trkpt lat="43.8959160" lon="12.6116610">
<ele>235.3830000</ele>
<time>2010-05-14T09:43:37Z</time>
<extensions>
<tp1:TrackPointExtension>
<tp1:hr>132</tp1:hr>
</tp1:TrackPointExtension>
</extensions>
</trkpt>
<trkpt lat="43.8958580" lon="12.6116610">
<ele>236.3110000</ele>
<time>2010-05-14T09:43:46Z</time>
<extensions>
<tp1:TrackPointExtension>
<tp1:hr>131</tp1:hr>
</tp1:TrackPointExtension>
</extensions>
</trkpt>
<trkpt lat="43.8958580" lon="12.6116610">
<ele>237.4800000</ele>
<time>2010-05-14T09:43:52Z</time>
<extensions>
<tp1:TrackPointExtension>
<tp1:hr>134</tp1:hr>
</tp1:TrackPointExtension>
</extensions>
</trkpt>
<trkpt lat="43.8957610" lon="12.6116060">
<ele>238.2060000</ele>
<time>2010-05-14T09:43:56Z</time>
<extensions>
<tp1:TrackPointExtension>
<tp1:hr>142</tp1:hr>
</tp1:TrackPointExtension>
</extensions>
</trkpt>
<trkpt lat="43.8957570" lon="12.6115970">
<ele>238.3630000</ele>
<time>2010-05-14T09:43:57Z</time>
<extensions>
<tp1:TrackPointExtension>
<tp1:hr>142</tp1:hr>
</tp1:TrackPointExtension>
</extensions>
</trkpt>
<trkpt lat="43.8957520" lon="12.6115410">
<ele>239.2500000</ele>
<time>2010-05-14T09:44:00Z</time>
<extensions>
<tp1:TrackPointExtension>
<tp1:hr>136</tp1:hr>
</tp1:TrackPointExtension>
</extensions>
</trkpt>
<trkpt lat="43.8957610" lon="12.6114860">
<ele>240.3440000</ele>
<time>2010-05-14T09:44:05Z</time>
<extensions>
<tp1:TrackPointExtension>
<tp1:hr>131</tp1:hr>
</tp1:TrackPointExtension>
</extensions>
</trkpt>
<trkpt lat="43.8957630" lon="12.6114740">
<ele>240.6370000</ele>
<time>2010-05-14T09:44:06Z</time>
<extensions>
<tp1:TrackPointExtension>
<tp1:hr>130</tp1:hr>
</tp1:TrackPointExtension>
</extensions>
</trkpt>
<trkpt lat="43.8957900" lon="12.6113130">
<ele>241.8540000</ele>
<time>2010-05-14T09:44:19Z</time>
<extensions>
<tp1:TrackPointExtension>
<tp1:hr>133</tp1:hr>
</tp1:TrackPointExtension>
</extensions>
</trkpt>
<trkpt lat="43.8957980" lon="12.6112620">
<ele>242.3290000</ele>
<time>2010-05-14T09:44:23Z</time>
<extensions>
<tp1:TrackPointExtension>
<tp1:hr>138</tp1:hr>
</tp1:TrackPointExtension>
</extensions>
</trkpt>
<trkpt lat="43.8958040" lon="12.6112260">
<ele>242.6410000</ele>
<time>2010-05-14T09:44:26Z</time>
<extensions>
<tp1:TrackPointExtension>
<tp1:hr>133</tp1:hr>
</tp1:TrackPointExtension>
</extensions>
</trkpt>
<trkpt lat="43.8958110" lon="12.6111860">
<ele>242.8820000</ele>
<time>2010-05-14T09:44:29Z</time>
<extensions>
<tp1:TrackPointExtension>
<tp1:hr>127</tp1:hr>
</tp1:TrackPointExtension>
</extensions>
</trkpt>
<trkpt lat="43.8958290" lon="12.6110740">
<ele>243.6270000</ele>
<time>2010-05-14T09:44:38Z</time>
<extensions>
<tp1:TrackPointExtension>
<tp1:hr>123</tp1:hr>
</tp1:TrackPointExtension>
</extensions>
</trkpt>
<trkpt lat="43.8958140" lon="12.6109700">
<ele>244.3750000</ele>
<time>2010-05-14T09:44:46Z</time>
<extensions>
<tp1:TrackPointExtension>
<tp1:hr>121</tp1:hr>
</tp1:TrackPointExtension>
</extensions>
</trkpt>
<trkpt lat="43.8958040" lon="12.6109210">
<ele>244.8270000</ele>
<time>2010-05-14T09:44:51Z</time>
<extensions>
<tp1:TrackPointExtension>
<tp1:hr>122</tp1:hr>
</tp1:TrackPointExtension>
</extensions>
</trkpt>
<trkpt lat="43.8957990" lon="12.6108970">
<ele>245.0060000</ele>
<time>2010-05-14T09:44:55Z</time>
<extensions>
<tp1:TrackPointExtension>
<tp1:hr>127</tp1:hr>
</tp1:TrackPointExtension>
</extensions>
</trkpt>
</trkseg>
<trkseg>
<trkpt lat="43.8956710" lon="12.6105930">
<ele>247.2600000</ele>
<time>2010-05-14T09:45:14Z</time>
<extensions>
<tp1:TrackPointExtension>
<tp1:hr>122</tp1:hr>
</tp1:TrackPointExtension>
</extensions>
</trkpt>
<trkpt lat="43.8955560" lon="12.6103470">
<ele>248.7450000</ele>
<time>2010-05-14T09:45:22Z</time>
<extensions>
<tp1:TrackPointExtension>
<tp1:hr>122</tp1:hr>
</tp1:TrackPointExtension>
</extensions>
</trkpt>
<trkpt lat="43.8954760" lon="12.6101400">
<ele>249.8240000</ele>
<time>2010-05-14T09:45:29Z</time>
<extensions>
<tp1:TrackPointExtension>
<tp1:hr>122</tp1:hr>
</tp1:TrackPointExtension>
</extensions>
</trkpt>
<trkpt lat="43.8954660" lon="12.6099260">
<ele>250.6160000</ele>
<time>2010-05-14T09:45:35Z</time>
<extensions>
<tp1:TrackPointExtension>
<tp1:hr>123</tp1:hr>
</tp1:TrackPointExtension>
</extensions>
</trkpt>
<trkpt lat="43.8955530" lon="12.6096650">
<ele>251.7840000</ele>
<time>2010-05-14T09:45:42Z</time>
<extensions>
<tp1:TrackPointExtension>
<tp1:hr>124</tp1:hr>
</tp1:TrackPointExtension>
</extensions>
</trkpt>
<trkpt lat="43.8957360" lon="12.6094390">
<ele>253.2980000</ele>
<time>2010-05-14T09:45:50Z</time>
<extensions>
<tp1:TrackPointExtension>
<tp1:hr>125</tp1:hr>
</tp1:TrackPointExtension>
</extensions>
</trkpt>
<trkpt lat="43.8958790" lon="12.6092960">
<ele>254.9330000</ele>
<time>2010-05-14T09:45:57Z</time>
<extensions>
<tp1:TrackPointExtension>
<tp1:hr>125</tp1:hr>
</tp1:TrackPointExtension>
</extensions>
</trkpt>
<trkpt lat="43.8959170" lon="12.6092580">
<ele>255.4060000</ele>
<time>2010-05-14T09:45:59Z</time>
<extensions>
<tp1:TrackPointExtension>
<tp1:hr>126</tp1:hr>
</tp1:TrackPointExtension>
</extensions>
</trkpt>
<trkpt lat="43.8959480" lon="12.6091310">
<ele>256.4080000</ele>
<time>2010-05-14T09:46:04Z</time>
<extensions>
<tp1:TrackPointExtension>
<tp1:hr>127</tp1:hr>
</tp1:TrackPointExtension>
</extensions>
</trkpt>
<trkpt lat="43.8958750" lon="12.6091400">
<ele>257.9210000</ele>
<time>2010-05-14T09:46:08Z</time>
<extensions>
<tp1:TrackPointExtension>
<tp1:hr>128</tp1:hr>
</tp1:TrackPointExtension>
</extensions>
</trkpt>
<trkpt lat="43.8958320" lon="12.6091450">
<ele>258.3050000</ele>
<time>2010-05-14T09:46:10Z</time>
<extensions>
<tp1:TrackPointExtension>
<tp1:hr>128</tp1:hr>
</tp1:TrackPointExtension>
</extensions>
</trkpt>
<trkpt lat="43.8956810" lon="12.6091640">
<ele>260.5760000</ele>
<time>2010-05-14T09:46:17Z</time>
<extensions>
<tp1:TrackPointExtension>
<tp1:hr>130</tp1:hr>
</tp1:TrackPointExtension>
</extensions>
</trkpt>
<trkpt lat="43.8955490" lon="12.6092060">
<ele>262.1150000</ele>
<time>2010-05-14T09:46:23Z</time>
<extensions>
<tp1:TrackPointExtension>
<tp1:hr>132</tp1:hr>
</tp1:TrackPointExtension>
</extensions>
</trkpt>
<trkpt lat="43.8953790" lon="12.6092910">
<ele>263.5310000</ele>
<time>2010-05-14T09:46:31Z</time>
<extensions>
<tp1:TrackPointExtension>
<tp1:hr>135</tp1:hr>
</tp1:TrackPointExtension>
</extensions>
</trkpt>
<trkpt lat="43.8952480" lon="12.6093570">
<ele>264.5770000</ele>
<time>2010-05-14T09:46:37Z</time>
<extensions>
<tp1:TrackPointExtension>
<tp1:hr>135</tp1:hr>
</tp1:TrackPointExtension>
</extensions>
</trkpt>
<trkpt lat="43.8951260" lon="12.6094360">
<ele>265.7440000</ele>
<time>2010-05-14T09:46:43Z</time>
<extensions>
<tp1:TrackPointExtension>
<tp1:hr>135</tp1:hr>
</tp1:TrackPointExtension>
</extensions>
</trkpt>
<trkpt lat="43.8949710" lon="12.6095600">
<ele>267.7280000</ele>
<time>2010-05-14T09:46:51Z</time>
<extensions>
<tp1:TrackPointExtension>
<tp1:hr>136</tp1:hr>
</tp1:TrackPointExtension>
</extensions>
</trkpt>
<trkpt lat="43.8948200" lon="12.6096810">
<ele>269.3030000</ele>
<time>2010-05-14T09:46:59Z</time>
<extensions>
<tp1:TrackPointExtension>
<tp1:hr>136</tp1:hr>
</tp1:TrackPointExtension>
</extensions>
</trkpt>
<trkpt lat="43.8946710" lon="12.6098000">
<ele>271.7660000</ele>
<time>2010-05-14T09:47:07Z</time>
<extensions>
<tp1:TrackPointExtension>
<tp1:hr>137</tp1:hr>
</tp1:TrackPointExtension>
</extensions>
</trkpt>
<trkpt lat="43.8945080" lon="12.6099300">
<ele>273.7430000</ele>
<time>2010-05-14T09:47:16Z</time>
<extensions>
<tp1:TrackPointExtension>
<tp1:hr>137</tp1:hr>
</tp1:TrackPointExtension>
</extensions>
</trkpt>
<trkpt lat="43.8944040" lon="12.6100140">
<ele>276.0180000</ele>
<time>2010-05-14T09:47:23Z</time>
<extensions>
<tp1:TrackPointExtension>
<tp1:hr>138</tp1:hr>
</tp1:TrackPointExtension>
</extensions>
</trkpt>
<trkpt lat="43.8942780" lon="12.6100860">
<ele>277.0010000</ele>
<time>2010-05-14T09:47:31Z</time>
<extensions>
<tp1:TrackPointExtension>
<tp1:hr>138</tp1:hr>
</tp1:TrackPointExtension>
</extensions>
</trkpt>
<trkpt lat="43.8941690" lon="12.6101130">
<ele>278.5190000</ele>
<time>2010-05-14T09:47:38Z</time>
<extensions>
<tp1:TrackPointExtension>
<tp1:hr>138</tp1:hr>
</tp1:TrackPointExtension>
</extensions>
</trkpt>
<trkpt lat="43.8940510" lon="12.6100810">
<ele>280.7600000</ele>
<time>2010-05-14T09:47:45Z</time>
<extensions>
<tp1:TrackPointExtension>
<tp1:hr>138</tp1:hr>
</tp1:TrackPointExtension>
</extensions>
</trkpt>
<trkpt lat="43.8939210" lon="12.6100010">
<ele>281.7280000</ele>
<time>2010-05-14T09:47:53Z</time>
<extensions>
<tp1:TrackPointExtension>
<tp1:hr>139</tp1:hr>
</tp1:TrackPointExtension>
</extensions>
</trkpt>
<trkpt lat="43.8938840" lon="12.6099160">
<ele>283.6840000</ele>
<time>2010-05-14T09:47:57Z</time>
<extensions>
<tp1:TrackPointExtension>
<tp1:hr>139</tp1:hr>
</tp1:TrackPointExtension>
</extensions>
</trkpt>
<trkpt lat="43.8938320" lon="12.6096890">
<ele>284.8380000</ele>
<time>2010-05-14T09:48:06Z</time>
<extensions>
<tp1:TrackPointExtension>
<tp1:hr>140</tp1:hr>
</tp1:TrackPointExtension>
</extensions>
</trkpt>
<trkpt lat="43.8937970" lon="12.6095400">
<ele>286.9750000</ele>
<time>2010-05-14T09:48:12Z</time>
<extensions>
<tp1:TrackPointExtension>
<tp1:hr>140</tp1:hr>
</tp1:TrackPointExtension>
</extensions>
</trkpt>
<trkpt lat="43.8937230" lon="12.6093810">
<ele>288.9760000</ele>
<time>2010-05-14T09:48:20Z</time>
<extensions>
<tp1:TrackPointExtension>
<tp1:hr>139</tp1:hr>
</tp1:TrackPointExtension>
</extensions>
</trkpt>
<trkpt lat="43.8936990" lon="12.6093570">
<ele>289.5240000</ele>
<time>2010-05-14T09:48:22Z</time>
<extensions>
<tp1:TrackPointExtension>
<tp1:hr>139</tp1:hr>
</tp1:TrackPointExtension>
</extensions>
</trkpt>
<trkpt lat="43.8936890" lon="12.6093460">
<ele>289.5070000</ele>
<time>2010-05-14T09:48:25Z</time>
<extensions>
<tp1:TrackPointExtension>
<tp1:hr>139</tp1:hr>
</tp1:TrackPointExtension>
</extensions>
</trkpt>
</trkseg>
<trkseg>
<trkpt lat="43.8936890" lon="12.6093460">
<ele>290.5550000</ele>
<time>2010-05-14T09:48:29Z</time>
<extensions>
<tp1:TrackPointExtension>
<tp1:hr>138</tp1:hr>
</tp1:TrackPointExtension>
</extensions>
</trkpt>
<trkpt lat="43.8935670" lon="12.6092880">
<ele>292.4050000</ele>
<time>2010-05-14T09:48:41Z</time>
<extensions>
<tp1:TrackPointExtension>
<tp1:hr>134</tp1:hr>
</tp1:TrackPointExtension>
</extensions>
</trkpt>
<trkpt lat="43.8934690" lon="12.6092720">
<ele>293.8300000</ele>
<time>2010-05-14T09:48:52Z</time>
<extensions>
<tp1:TrackPointExtension>
<tp1:hr>133</tp1:hr>
</tp1:TrackPointExtension>
</extensions>
</trkpt>
<trkpt lat="43.8933950" lon="12.6092590">
<ele>294.8910000</ele>
<time>2010-05-14T09:49:01Z</time>
<extensions>
<tp1:TrackPointExtension>
<tp1:hr>132</tp1:hr>
</tp1:TrackPointExtension>
</extensions>
</trkpt>
<trkpt lat="43.8933180" lon="12.6092470">
<ele>295.8670000</ele>
<time>2010-05-14T09:49:10Z</time>
<extensions>
<tp1:TrackPointExtension>
<tp1:hr>131</tp1:hr>
</tp1:TrackPointExtension>
</extensions>
</trkpt>
<trkpt lat="43.8932110" lon="12.6092290">
<ele>297.9820000</ele>
<time>2010-05-14T09:49:22Z</time>
<extensions>
<tp1:TrackPointExtension>
<tp1:hr>131</tp1:hr>
</tp1:TrackPointExtension>
</extensions>
</trkpt>
<trkpt lat="43.8931150" lon="12.6092100">
<ele>299.7060000</ele>
<time>2010-05-14T09:49:33Z</time>
<extensions>
<tp1:TrackPointExtension>
<tp1:hr>127</tp1:hr>
</tp1:TrackPointExtension>
</extensions>
</trkpt>
<trkpt lat="43.8930390" lon="12.6091790">
<ele>301.3260000</ele>
<time>2010-05-14T09:49:42Z</time>
<extensions>
<tp1:TrackPointExtension>
<tp1:hr>127</tp1:hr>
</tp1:TrackPointExtension>
</extensions>
</trkpt>
<trkpt lat="43.8929640" lon="12.6091490">
<ele>302.9420000</ele>
<time>2010-05-14T09:49:52Z</time>
<extensions>
<tp1:TrackPointExtension>
<tp1:hr>125</tp1:hr>
</tp1:TrackPointExtension>
</extensions>
</trkpt>
<trkpt lat="43.8928930" lon="12.6090160">
<ele>305.4170000</ele>
<time>2010-05-14T09:50:04Z</time>
<extensions>
<tp1:TrackPointExtension>
<tp1:hr>126</tp1:hr>
</tp1:TrackPointExtension>
</extensions>
</trkpt>
<trkpt lat="43.8928690" lon="12.6088870">
<ele>307.1150000</ele>
<time>2010-05-14T09:50:15Z</time>
<extensions>
<tp1:TrackPointExtension>
<tp1:hr>125</tp1:hr>
</tp1:TrackPointExtension>
</extensions>
</trkpt>
<trkpt lat="43.8928450" lon="12.6087540">
<ele>308.9080000</ele>
<time>2010-05-14T09:50:26Z</time>
<extensions>
<tp1:TrackPointExtension>
<tp1:hr>124</tp1:hr>
</tp1:TrackPointExtension>
</extensions>
</trkpt>
<trkpt lat="43.8928480" lon="12.6085960">
<ele>310.8380000</ele>
<time>2010-05-14T09:50:36Z</time>
<extensions>
<tp1:TrackPointExtension>
<tp1:hr>123</tp1:hr>
</tp1:TrackPointExtension>
</extensions>
</trkpt>
<trkpt lat="43.8928820" lon="12.6084930">
<ele>312.2880000</ele>
<time>2010-05-14T09:50:45Z</time>
<extensions>
<tp1:TrackPointExtension>
<tp1:hr>123</tp1:hr>
</tp1:TrackPointExtension>
</extensions>
</trkpt>
<trkpt lat="43.8929270" lon="12.6083680">
<ele>313.6380000</ele>
<time>2010-05-14T09:50:54Z</time>
<extensions>
<tp1:TrackPointExtension>
<tp1:hr>122</tp1:hr>
</tp1:TrackPointExtension>
</extensions>
</trkpt>
<trkpt lat="43.8929870" lon="12.6082340">
<ele>315.0420000</ele>
<time>2010-05-14T09:51:05Z</time>
<extensions>
<tp1:TrackPointExtension>
<tp1:hr>122</tp1:hr>
</tp1:TrackPointExtension>
</extensions>
</trkpt>
<trkpt lat="43.8930430" lon="12.6081070">
<ele>316.9490000</ele>
<time>2010-05-14T09:51:16Z</time>
<extensions>
<tp1:TrackPointExtension>
<tp1:hr>121</tp1:hr>
</tp1:TrackPointExtension>
</extensions>
</trkpt>
<trkpt lat="43.8930850" lon="12.6080130">
<ele>318.1010000</ele>
<time>2010-05-14T09:51:25Z</time>
<extensions>
<tp1:TrackPointExtension>
<tp1:hr>120</tp1:hr>
</tp1:TrackPointExtension>
</extensions>
</trkpt>
<trkpt lat="43.8930850" lon="12.6079700">
<ele>319.7740000</ele>
<time>2010-05-14T09:51:32Z</time>
<extensions>
<tp1:TrackPointExtension>
<tp1:hr>122</tp1:hr>
</tp1:TrackPointExtension>
</extensions>
</trkpt>
<trkpt lat="43.8928700" lon="12.6077130">
<ele>320.0640000</ele>
<time>2010-05-14T09:51:36Z</time>
<extensions>
<tp1:TrackPointExtension>
<tp1:hr>122</tp1:hr>
</tp1:TrackPointExtension>
</extensions>
</trkpt>
<trkpt lat="43.8930110" lon="12.6079470">
<ele>320.7480000</ele>
<time>2010-05-14T09:51:44Z</time>
<extensions>
<tp1:TrackPointExtension>
<tp1:hr>121</tp1:hr>
</tp1:TrackPointExtension>
</extensions>
</trkpt>
<trkpt lat="43.8929440" lon="12.6079890">
<ele>322.1790000</ele>
<time>2010-05-14T09:51:53Z</time>
<extensions>
<tp1:TrackPointExtension>
<tp1:hr>120</tp1:hr>
</tp1:TrackPointExtension>
</extensions>
</trkpt>
<trkpt lat="43.8928550" lon="12.6080440">
<ele>322.5550000</ele>
<time>2010-05-14T09:52:02Z</time>
<extensions>
<tp1:TrackPointExtension>
<tp1:hr>118</tp1:hr>
</tp1:TrackPointExtension>
</extensions>
</trkpt>
<trkpt lat="43.8927510" lon="12.6081100">
<ele>324.0300000</ele>
<time>2010-05-14T09:52:14Z</time>
<extensions>
<tp1:TrackPointExtension>
<tp1:hr>118</tp1:hr>
</tp1:TrackPointExtension>
</extensions>
</trkpt>
<trkpt lat="43.8926730" lon="12.6081680">
<ele>325.5270000</ele>
<time>2010-05-14T09:52:24Z</time>
<extensions>
<tp1:TrackPointExtension>
<tp1:hr>117</tp1:hr>
</tp1:TrackPointExtension>
</extensions>
</trkpt>
<trkpt lat="43.8925880" lon="12.6082190">
<ele>327.1980000</ele>
<time>2010-05-14T09:52:34Z</time>
<extensions>
<tp1:TrackPointExtension>
<tp1:hr>117</tp1:hr>
</tp1:TrackPointExtension>
</extensions>
</trkpt>
<trkpt lat="43.8925260" lon="12.6081990">
<ele>328.5320000</ele>
<time>2010-05-14T09:52:43Z</time>
<extensions>
<tp1:TrackPointExtension>
<tp1:hr>117</tp1:hr>
</tp1:TrackPointExtension>
</extensions>
</trkpt>
<trkpt lat="43.8924470" lon="12.6081110">
<ele>330.1360000</ele>
<time>2010-05-14T09:52:53Z</time>
<extensions>
<tp1:TrackPointExtension>
<tp1:hr>118</tp1:hr>
</tp1:TrackPointExtension>
</extensions>
</trkpt>
<trkpt lat="43.8924410" lon="12.6080990">
<ele>331.9340000</ele>
<time>2010-05-14T09:53:04Z</time>
<extensions>
<tp1:TrackPointExtension>
<tp1:hr>118</tp1:hr>
</tp1:TrackPointExtension>
</extensions>
</trkpt>
<trkpt lat="43.8923430" lon="12.6078690">
<ele>333.6140000</ele>
<time>2010-05-14T09:53:15Z</time>
<extensions>
<tp1:TrackPointExtension>
<tp1:hr>119</tp1:hr>
</tp1:TrackPointExtension>
</extensions>
</trkpt>
<trkpt lat="43.8923060" lon="12.6077950">
<ele>333.9680000</ele>
<time>2010-05-14T09:53:25Z</time>
<extensions>
<tp1:TrackPointExtension>
<tp1:hr>118</tp1:hr>
</tp1:TrackPointExtension>
</extensions>
</trkpt>
<trkpt lat="43.8922740" lon="12.6077790">
<ele>334.2010000</ele>
<time>2010-05-14T09:53:29Z</time>
<extensions>
<tp1:TrackPointExtension>
<tp1:hr>118</tp1:hr>
</tp1:TrackPointExtension>
</extensions>
</trkpt>
<trkpt lat="43.8922640" lon="12.6077740">
<ele>334.1460000</ele>
<time>2010-05-14T09:53:32Z</time>
<extensions>
<tp1:TrackPointExtension>
<tp1:hr>116</tp1:hr>
</tp1:TrackPointExtension>
</extensions>
</trkpt>
</trkseg>
<trkseg>
<trkpt lat="43.8922390" lon="12.6077620">
<ele>334.0790000</ele>
<time>2010-05-14T09:53:51Z</time>
<extensions>
<tp1:TrackPointExtension>
<tp1:hr>112</tp1:hr>
</tp1:TrackPointExtension>
</extensions>
</trkpt>
<trkpt lat="43.8921700" lon="12.6077270">
<ele>334.5680000</ele>
<time>2010-05-14T09:54:00Z</time>
<extensions>
<tp1:TrackPointExtension>
<tp1:hr>110</tp1:hr>
</tp1:TrackPointExtension>
</extensions>
</trkpt>
<trkpt lat="43.8921410" lon="12.6077130">
<ele>336.4580000</ele>
<time>2010-05-14T09:54:14Z</time>
<extensions>
<tp1:TrackPointExtension>
<tp1:hr>108</tp1:hr>
</tp1:TrackPointExtension>
</extensions>
</trkpt>
<trkpt lat="43.8919590" lon="12.6076520">
<ele>337.7490000</ele>
<time>2010-05-14T09:54:25Z</time>
<extensions>
<tp1:TrackPointExtension>
<tp1:hr>110</tp1:hr>
</tp1:TrackPointExtension>
</extensions>
</trkpt>
<trkpt lat="43.8918550" lon="12.6076180">
<ele>339.4740000</ele>
<time>2010-05-14T09:54:37Z</time>
<extensions>
<tp1:TrackPointExtension>
<tp1:hr>110</tp1:hr>
</tp1:TrackPointExtension>
</extensions>
</trkpt>
<trkpt lat="43.8917620" lon="12.6075860">
<ele>341.3910000</ele>
<time>2010-05-14T09:54:48Z</time>
<extensions>
<tp1:TrackPointExtension>
<tp1:hr>108</tp1:hr>
</tp1:TrackPointExtension>
</extensions>
</trkpt>
<trkpt lat="43.8916430" lon="12.6075470">
<ele>343.4160000</ele>
<time>2010-05-14T09:55:01Z</time>
<extensions>
<tp1:TrackPointExtension>
<tp1:hr>109</tp1:hr>
</tp1:TrackPointExtension>
</extensions>
</trkpt>
<trkpt lat="43.8915620" lon="12.6074350">
<ele>344.9280000</ele>
<time>2010-05-14T09:55:14Z</time>
<extensions>
<tp1:TrackPointExtension>
<tp1:hr>112</tp1:hr>
</tp1:TrackPointExtension>
</extensions>
</trkpt>
<trkpt lat="43.8914930" lon="12.6073150">
<ele>346.1470000</ele>
<time>2010-05-14T09:55:26Z</time>
<extensions>
<tp1:TrackPointExtension>
<tp1:hr>113</tp1:hr>
</tp1:TrackPointExtension>
</extensions>
</trkpt>
<trkpt lat="43.8914840" lon="12.6072830">
<ele>346.2510000</ele>
<time>2010-05-14T09:55:29Z</time>
<extensions>
<tp1:TrackPointExtension>
<tp1:hr>113</tp1:hr>
</tp1:TrackPointExtension>
</extensions>
</trkpt>
<trkpt lat="43.8914790" lon="12.6072690">
<ele>346.0920000</ele>
<time>2010-05-14T09:55:33Z</time>
<extensions>
<tp1:TrackPointExtension>
<tp1:hr>111</tp1:hr>
</tp1:TrackPointExtension>
</extensions>
</trkpt>
</trkseg>
<trkseg>
<trkpt lat="43.8914810" lon="12.6072730">
<ele>345.0070000</ele>
<time>2010-05-14T09:56:25Z</time>
<extensions>
<tp1:TrackPointExtension>
<tp1:hr>114</tp1:hr>
</tp1:TrackPointExtension>
</extensions>
</trkpt>
</trkseg>
<trkseg>
<trkpt lat="43.8914460" lon="12.6071610">
<ele>346.3260000</ele>
<time>2010-05-14T09:58:27Z</time>
<extensions>
<tp1:TrackPointExtension>
<tp1:hr>116</tp1:hr>
</tp1:TrackPointExtension>
</extensions>
</trkpt>
<trkpt lat="43.8913990" lon="12.6070060">
<ele>347.4590000</ele>
<time>2010-05-14T09:58:33Z</time>
<extensions>
<tp1:TrackPointExtension>
<tp1:hr>119</tp1:hr>
</tp1:TrackPointExtension>
</extensions>
</trkpt>
<trkpt lat="43.8913120" lon="12.6067230">
<ele>349.0980000</ele>
<time>2010-05-14T09:58:42Z</time>
<extensions>
<tp1:TrackPointExtension>
<tp1:hr>122</tp1:hr>
</tp1:TrackPointExtension>
</extensions>
</trkpt>
<trkpt lat="43.8912300" lon="12.6064570">
<ele>350.1810000</ele>
<time>2010-05-14T09:58:50Z</time>
<extensions>
<tp1:TrackPointExtension>
<tp1:hr>122</tp1:hr>
</tp1:TrackPointExtension>
</extensions>
</trkpt>
<trkpt lat="43.8911480" lon="12.6061680">
<ele>351.7210000</ele>
<time>2010-05-14T09:58:59Z</time>
<extensions>
<tp1:TrackPointExtension>
<tp1:hr>123</tp1:hr>
</tp1:TrackPointExtension>
</extensions>
</trkpt>
<trkpt lat="43.8911130" lon="12.6058870">
<ele>352.0930000</ele>
<time>2010-05-14T09:59:07Z</time>
<extensions>
<tp1:TrackPointExtension>
<tp1:hr>125</tp1:hr>
</tp1:TrackPointExtension>
</extensions>
</trkpt>
<trkpt lat="43.8910810" lon="12.6056270">
<ele>353.3570000</ele>
<time>2010-05-14T09:59:14Z</time>
<extensions>
<tp1:TrackPointExtension>
<tp1:hr>127</tp1:hr>
</tp1:TrackPointExtension>
</extensions>
</trkpt>
<trkpt lat="43.8910430" lon="12.6053240">
<ele>354.9480000</ele>
<time>2010-05-14T09:59:23Z</time>
<extensions>
<tp1:TrackPointExtension>
<tp1:hr>127</tp1:hr>
</tp1:TrackPointExtension>
</extensions>
</trkpt>
<trkpt lat="43.8910340" lon="12.6052560">
<ele>355.3950000</ele>
<time>2010-05-14T09:59:25Z</time>
<extensions>
<tp1:TrackPointExtension>
<tp1:hr>127</tp1:hr>
</tp1:TrackPointExtension>
</extensions>
</trkpt>
<trkpt lat="43.8910060" lon="12.6052130">
<ele>356.7050000</ele>
<time>2010-05-14T09:59:30Z</time>
<extensions>
<tp1:TrackPointExtension>
<tp1:hr>128</tp1:hr>
</tp1:TrackPointExtension>
</extensions>
</trkpt>
<trkpt lat="43.8909940" lon="12.6052330">
<ele>357.1520000</ele>
<time>2010-05-14T09:59:31Z</time>
<extensions>
<tp1:TrackPointExtension>
<tp1:hr>128</tp1:hr>
</tp1:TrackPointExtension>
</extensions>
</trkpt>
<trkpt lat="43.8908960" lon="12.6054360">
<ele>358.8360000</ele>
<time>2010-05-14T09:59:39Z</time>
<extensions>
<tp1:TrackPointExtension>
<tp1:hr>128</tp1:hr>
</tp1:TrackPointExtension>
</extensions>
</trkpt>
<trkpt lat="43.8908960" lon="12.6055930">
<ele>359.9460000</ele>
<time>2010-05-14T09:59:44Z</time>
<extensions>
<tp1:TrackPointExtension>
<tp1:hr>129</tp1:hr>
</tp1:TrackPointExtension>
</extensions>
</trkpt>
<trkpt lat="43.8908960" lon="12.6057980">
<ele>360.8220000</ele>
<time>2010-05-14T09:59:50Z</time>
<extensions>
<tp1:TrackPointExtension>
<tp1:hr>129</tp1:hr>
</tp1:TrackPointExtension>
</extensions>
</trkpt>
<trkpt lat="43.8908960" lon="12.6060360">
<ele>362.1030000</ele>
<time>2010-05-14T09:59:57Z</time>
<extensions>
<tp1:TrackPointExtension>
<tp1:hr>129</tp1:hr>
</tp1:TrackPointExtension>
</extensions>
</trkpt>
<trkpt lat="43.8908960" lon="12.6063370">
<ele>363.4800000</ele>
<time>2010-05-14T10:00:06Z</time>
<extensions>
<tp1:TrackPointExtension>
<tp1:hr>130</tp1:hr>
</tp1:TrackPointExtension>
</extensions>
</trkpt>
<trkpt lat="43.8908960" lon="12.6064680">
<ele>365.3020000</ele>
<time>2010-05-14T10:00:14Z</time>
<extensions>
<tp1:TrackPointExtension>
<tp1:hr>130</tp1:hr>
</tp1:TrackPointExtension>
</extensions>
</trkpt>
<trkpt lat="43.8908070" lon="12.6068940">
<ele>367.9340000</ele>
<time>2010-05-14T10:00:24Z</time>
<extensions>
<tp1:TrackPointExtension>
<tp1:hr>131</tp1:hr>
</tp1:TrackPointExtension>
</extensions>
</trkpt>
<trkpt lat="43.8907630" lon="12.6071030">
<ele>369.6110000</ele>
<time>2010-05-14T10:00:31Z</time>
<extensions>
<tp1:TrackPointExtension>
<tp1:hr>132</tp1:hr>
</tp1:TrackPointExtension>
</extensions>
</trkpt>
<trkpt lat="43.8907250" lon="12.6072840">
<ele>371.4230000</ele>
<time>2010-05-14T10:00:41Z</time>
<extensions>
<tp1:TrackPointExtension>
<tp1:hr>132</tp1:hr>
</tp1:TrackPointExtension>
</extensions>
</trkpt>
<trkpt lat="43.8906630" lon="12.6077600">
<ele>373.0120000</ele>
<time>2010-05-14T10:00:51Z</time>
<extensions>
<tp1:TrackPointExtension>
<tp1:hr>132</tp1:hr>
</tp1:TrackPointExtension>
</extensions>
</trkpt>
<trkpt lat="43.8906230" lon="12.6080630">
<ele>374.4690000</ele>
<time>2010-05-14T10:01:00Z</time>
<extensions>
<tp1:TrackPointExtension>
<tp1:hr>131</tp1:hr>
</tp1:TrackPointExtension>
</extensions>
</trkpt>
<trkpt lat="43.8906060" lon="12.6084430">
<ele>376.5600000</ele>
<time>2010-05-14T10:01:12Z</time>
<extensions>
<tp1:TrackPointExtension>
<tp1:hr>131</tp1:hr>
</tp1:TrackPointExtension>
</extensions>
</trkpt>
<trkpt lat="43.8906200" lon="12.6086820">
<ele>378.0000000</ele>
<time>2010-05-14T10:01:19Z</time>
<extensions>
<tp1:TrackPointExtension>
<tp1:hr>131</tp1:hr>
</tp1:TrackPointExtension>
</extensions>
</trkpt>
<trkpt lat="43.8906360" lon="12.6089480">
<ele>380.3400000</ele>
<time>2010-05-14T10:01:27Z</time>
<extensions>
<tp1:TrackPointExtension>
<tp1:hr>131</tp1:hr>
</tp1:TrackPointExtension>
</extensions>
</trkpt>
<trkpt lat="43.8905790" lon="12.6092090">
<ele>381.5510000</ele>
<time>2010-05-14T10:01:34Z</time>
<extensions>
<tp1:TrackPointExtension>
<tp1:hr>132</tp1:hr>
</tp1:TrackPointExtension>
</extensions>
</trkpt>
<trkpt lat="43.8905530" lon="12.6093010">
<ele>382.7750000</ele>
<time>2010-05-14T10:01:41Z</time>
<extensions>
<tp1:TrackPointExtension>
<tp1:hr>132</tp1:hr>
</tp1:TrackPointExtension>
</extensions>
</trkpt>
<trkpt lat="43.8904750" lon="12.6096140">
<ele>383.5480000</ele>
<time>2010-05-14T10:01:47Z</time>
<extensions>
<tp1:TrackPointExtension>
<tp1:hr>132</tp1:hr>
</tp1:TrackPointExtension>
</extensions>
</trkpt>
<trkpt lat="43.8904200" lon="12.6098310">
<ele>383.0640000</ele>
<time>2010-05-14T10:01:53Z</time>
<extensions>
<tp1:TrackPointExtension>
<tp1:hr>130</tp1:hr>
</tp1:TrackPointExtension>
</extensions>
</trkpt>
<trkpt lat="43.8903600" lon="12.6100720">
<ele>382.4640000</ele>
<time>2010-05-14T10:01:59Z</time>
<extensions>
<tp1:TrackPointExtension>
<tp1:hr>128</tp1:hr>
</tp1:TrackPointExtension>
</extensions>
</trkpt>
<trkpt lat="43.8903220" lon="12.6101840">
<ele>382.1230000</ele>
<time>2010-05-14T10:02:03Z</time>
<extensions>
<tp1:TrackPointExtension>
<tp1:hr>126</tp1:hr>
</tp1:TrackPointExtension>
</extensions>
</trkpt>
<trkpt lat="43.8902530" lon="12.6102880">
<ele>382.3180000</ele>
<time>2010-05-14T10:02:09Z</time>
<extensions>
<tp1:TrackPointExtension>
<tp1:hr>125</tp1:hr>
</tp1:TrackPointExtension>
</extensions>
</trkpt>
<trkpt lat="43.8902530" lon="12.6102880">
<ele>382.5910000</ele>
<time>2010-05-14T10:02:11Z</time>
<extensions>
<tp1:TrackPointExtension>
<tp1:hr>125</tp1:hr>
</tp1:TrackPointExtension>
</extensions>
</trkpt>
<trkpt lat="43.8902620" lon="12.6103640">
<ele>382.5960000</ele>
<time>2010-05-14T10:02:14Z</time>
<extensions>
<tp1:TrackPointExtension>
<tp1:hr>124</tp1:hr>
</tp1:TrackPointExtension>
</extensions>
</trkpt>
</trkseg>
<trkseg>
<trkpt lat="43.8902620" lon="12.6103640">
<ele>382.9480000</ele>
<time>2010-05-14T10:02:32Z</time>
<extensions>
<tp1:TrackPointExtension>
<tp1:hr>116</tp1:hr>
</tp1:TrackPointExtension>
</extensions>
</trkpt>
<trkpt lat="43.8902620" lon="12.6103640">
<ele>383.2170000</ele>
<time>2010-05-14T10:02:33Z</time>
<extensions>
<tp1:TrackPointExtension>
<tp1:hr>116</tp1:hr>
</tp1:TrackPointExtension>
</extensions>
</trkpt>
<trkpt lat="43.8902620" lon="12.6103640">
<ele>383.1750000</ele>
<time>2010-05-14T10:02:40Z</time>
<extensions>
<tp1:TrackPointExtension>
<tp1:hr>114</tp1:hr>
</tp1:TrackPointExtension>
</extensions>
</trkpt>
<trkpt lat="43.8902620" lon="12.6103640">
<ele>383.0440000</ele>
<time>2010-05-14T10:02:44Z</time>
<extensions>
<tp1:TrackPointExtension>
<tp1:hr>111</tp1:hr>
</tp1:TrackPointExtension>
</extensions>
</trkpt>
</trkseg>
<trkseg>
<trkpt lat="43.8902620" lon="12.6103640">
<ele>384.3330000</ele>
<time>2010-05-14T10:07:45Z</time>
</trkpt>
</trkseg>
<trkseg>
<trkpt lat="43.8902620" lon="12.6103640">
<ele>387.7500000</ele>
<time>2010-05-14T10:15:33Z</time>
<extensions>
<tp1:TrackPointExtension>
<tp1:hr>89</tp1:hr>
</tp1:TrackPointExtension>
</extensions>
</trkpt>
<trkpt lat="43.8902620" lon="12.6103640">
<ele>387.7270000</ele>
<time>2010-05-14T10:15:34Z</time>
<extensions>
<tp1:TrackPointExtension>
<tp1:hr>89</tp1:hr>
</tp1:TrackPointExtension>
</extensions>
</trkpt>
<trkpt lat="43.8902620" lon="12.6103640">
<ele>387.9910000</ele>
<time>2010-05-14T10:15:38Z</time>
<extensions>
<tp1:TrackPointExtension>
<tp1:hr>88</tp1:hr>
</tp1:TrackPointExtension>
</extensions>
</trkpt>
</trkseg>
<trkseg>
<trkpt lat="43.8901040" lon="12.6103660">
<ele>388.0530000</ele>
<time>2010-05-14T10:15:49Z</time>
<extensions>
<tp1:TrackPointExtension>
<tp1:hr>89</tp1:hr>
</tp1:TrackPointExtension>
</extensions>
</trkpt>
<trkpt lat="43.8899700" lon="12.6104370">
<ele>388.9770000</ele>
<time>2010-05-14T10:15:56Z</time>
<extensions>
<tp1:TrackPointExtension>
<tp1:hr>93</tp1:hr>
</tp1:TrackPointExtension>
</extensions>
</trkpt>
<trkpt lat="43.8898290" lon="12.6105120">
<ele>389.3040000</ele>
<time>2010-05-14T10:16:02Z</time>
<extensions>
<tp1:TrackPointExtension>
<tp1:hr>95</tp1:hr>
</tp1:TrackPointExtension>
</extensions>
</trkpt>
<trkpt lat="43.8897260" lon="12.6105670">
<ele>388.5010000</ele>
<time>2010-05-14T10:16:06Z</time>
<extensions>
<tp1:TrackPointExtension>
<tp1:hr>97</tp1:hr>
</tp1:TrackPointExtension>
</extensions>
</trkpt>
<trkpt lat="43.8895260" lon="12.6106720">
<ele>386.8430000</ele>
<time>2010-05-14T10:16:12Z</time>
<extensions>
<tp1:TrackPointExtension>
<tp1:hr>96</tp1:hr>
</tp1:TrackPointExtension>
</extensions>
</trkpt>
<trkpt lat="43.8893640" lon="12.6107140">
<ele>385.5810000</ele>
<time>2010-05-14T10:16:17Z</time>
<extensions>
<tp1:TrackPointExtension>
<tp1:hr>96</tp1:hr>
</tp1:TrackPointExtension>
</extensions>
</trkpt>
<trkpt lat="43.8892540" lon="12.6107410">
<ele>385.2090000</ele>
<time>2010-05-14T10:16:22Z</time>
<extensions>
<tp1:TrackPointExtension>
<tp1:hr>96</tp1:hr>
</tp1:TrackPointExtension>
</extensions>
</trkpt>
<trkpt lat="43.8891800" lon="12.6107600">
<ele>384.1930000</ele>
<time>2010-05-14T10:16:26Z</time>
<extensions>
<tp1:TrackPointExtension>
<tp1:hr>96</tp1:hr>
</tp1:TrackPointExtension>
</extensions>
</trkpt>
<trkpt lat="43.8889650" lon="12.6109740">
<ele>383.4250000</ele>
<time>2010-05-14T10:16:31Z</time>
<extensions>
<tp1:TrackPointExtension>
<tp1:hr>96</tp1:hr>
</tp1:TrackPointExtension>
</extensions>
</trkpt>
<trkpt lat="43.8885950" lon="12.6112790">
<ele>383.3090000</ele>
<time>2010-05-14T10:16:39Z</time>
<extensions>
<tp1:TrackPointExtension>
<tp1:hr>96</tp1:hr>
</tp1:TrackPointExtension>
</extensions>
</trkpt>
<trkpt lat="43.8882450" lon="12.6115390">
<ele>383.5610000</ele>
<time>2010-05-14T10:16:46Z</time>
<extensions>
<tp1:TrackPointExtension>
<tp1:hr>97</tp1:hr>
</tp1:TrackPointExtension>
</extensions>
</trkpt>
<trkpt lat="43.8879650" lon="12.6117540">
<ele>383.5790000</ele>
<time>2010-05-14T10:16:51Z</time>
<extensions>
<tp1:TrackPointExtension>
<tp1:hr>100</tp1:hr>
</tp1:TrackPointExtension>
</extensions>
</trkpt>
<trkpt lat="43.8875700" lon="12.6119740">
<ele>383.9080000</ele>
<time>2010-05-14T10:16:58Z</time>
<extensions>
<tp1:TrackPointExtension>
<tp1:hr>100</tp1:hr>
</tp1:TrackPointExtension>
</extensions>
</trkpt>
<trkpt lat="43.8873270" lon="12.6121090">
<ele>383.3990000</ele>
<time>2010-05-14T10:17:02Z</time>
<extensions>
<tp1:TrackPointExtension>
<tp1:hr>100</tp1:hr>
</tp1:TrackPointExtension>
</extensions>
</trkpt>
<trkpt lat="43.8868520" lon="12.6123730">
<ele>382.0300000</ele>
<time>2010-05-14T10:17:09Z</time>
<extensions>
<tp1:TrackPointExtension>
<tp1:hr>102</tp1:hr>
</tp1:TrackPointExtension>
</extensions>
</trkpt>
<trkpt lat="43.8862730" lon="12.6126820">
<ele>380.8740000</ele>
<time>2010-05-14T10:17:17Z</time>
<extensions>
<tp1:TrackPointExtension>
<tp1:hr>102</tp1:hr>
</tp1:TrackPointExtension>
</extensions>
</trkpt>
<trkpt lat="43.8858510" lon="12.6129570">
<ele>380.3000000</ele>
<time>2010-05-14T10:17:23Z</time>
<extensions>
<tp1:TrackPointExtension>
<tp1:hr>102</tp1:hr>
</tp1:TrackPointExtension>
</extensions>
</trkpt>
<trkpt lat="43.8854360" lon="12.6131970">
<ele>380.2410000</ele>
<time>2010-05-14T10:17:29Z</time>
<extensions>
<tp1:TrackPointExtension>
<tp1:hr>104</tp1:hr>
</tp1:TrackPointExtension>
</extensions>
</trkpt>
<trkpt lat="43.8851320" lon="12.6133730">
<ele>379.7770000</ele>
<time>2010-05-14T10:17:34Z</time>
<extensions>
<tp1:TrackPointExtension>
<tp1:hr>102</tp1:hr>
</tp1:TrackPointExtension>
</extensions>
</trkpt>
<trkpt lat="43.8850090" lon="12.6134430">
<ele>379.8330000</ele>
<time>2010-05-14T10:17:38Z</time>
<extensions>
<tp1:TrackPointExtension>
<tp1:hr>99</tp1:hr>
</tp1:TrackPointExtension>
</extensions>
</trkpt>
</trkseg>
<trkseg>
<trkpt lat="43.8849120" lon="12.6134900">
<ele>379.2290000</ele>
<time>2010-05-14T10:18:41Z</time>
<extensions>
<tp1:TrackPointExtension>
<tp1:hr>93</tp1:hr>
</tp1:TrackPointExtension>
</extensions>
</trkpt>
<trkpt lat="43.8847580" lon="12.6135540">
<ele>378.2820000</ele>
<time>2010-05-14T10:18:45Z</time>
<extensions>
<tp1:TrackPointExtension>
<tp1:hr>94</tp1:hr>
</tp1:TrackPointExtension>
</extensions>
</trkpt>
<trkpt lat="43.8843750" lon="12.6137150">
<ele>377.1170000</ele>
<time>2010-05-14T10:18:52Z</time>
<extensions>
<tp1:TrackPointExtension>
<tp1:hr>99</tp1:hr>
</tp1:TrackPointExtension>
</extensions>
</trkpt>
<trkpt lat="43.8839400" lon="12.6138970">
<ele>376.5050000</ele>
<time>2010-05-14T10:18:59Z</time>
<extensions>
<tp1:TrackPointExtension>
<tp1:hr>101</tp1:hr>
</tp1:TrackPointExtension>
</extensions>
</trkpt>
<trkpt lat="43.8835000" lon="12.6141360">
<ele>375.9760000</ele>
<time>2010-05-14T10:19:06Z</time>
<extensions>
<tp1:TrackPointExtension>
<tp1:hr>102</tp1:hr>
</tp1:TrackPointExtension>
</extensions>
</trkpt>
<trkpt lat="43.8831660" lon="12.6143810">
<ele>375.3830000</ele>
<time>2010-05-14T10:19:12Z</time>
<extensions>
<tp1:TrackPointExtension>
<tp1:hr>100</tp1:hr>
</tp1:TrackPointExtension>
</extensions>
</trkpt>
<trkpt lat="43.8830250" lon="12.6144420">
<ele>375.3620000</ele>
<time>2010-05-14T10:19:15Z</time>
<extensions>
<tp1:TrackPointExtension>
<tp1:hr>99</tp1:hr>
</tp1:TrackPointExtension>
</extensions>
</trkpt>
<trkpt lat="43.8830000" lon="12.6148220">
<ele>373.0870000</ele>
<time>2010-05-14T10:19:19Z</time>
<extensions>
<tp1:TrackPointExtension>
<tp1:hr>98</tp1:hr>
</tp1:TrackPointExtension>
</extensions>
</trkpt>
<trkpt lat="43.8830000" lon="12.6149120">
<ele>372.5030000</ele>
<time>2010-05-14T10:19:20Z</time>
<extensions>
<tp1:TrackPointExtension>
<tp1:hr>98</tp1:hr>
</tp1:TrackPointExtension>
</extensions>
</trkpt>
<trkpt lat="43.8831250" lon="12.6156620">
<ele>367.5800000</ele>
<time>2010-05-14T10:19:27Z</time>
<extensions>
<tp1:TrackPointExtension>
<tp1:hr>96</tp1:hr>
</tp1:TrackPointExtension>
</extensions>
</trkpt>
<trkpt lat="43.8831720" lon="12.6159100">
<ele>365.4620000</ele>
<time>2010-05-14T10:19:31Z</time>
<extensions>
<tp1:TrackPointExtension>
<tp1:hr>95</tp1:hr>
</tp1:TrackPointExtension>
</extensions>
</trkpt>
<trkpt lat="43.8833000" lon="12.6167250">
<ele>363.4230000</ele>
<time>2010-05-14T10:19:37Z</time>
<extensions>
<tp1:TrackPointExtension>
<tp1:hr>93</tp1:hr>
</tp1:TrackPointExtension>
</extensions>
</trkpt>
<trkpt lat="43.8832430" lon="12.6173210">
<ele>362.2890000</ele>
<time>2010-05-14T10:19:42Z</time>
<extensions>
<tp1:TrackPointExtension>
<tp1:hr>90</tp1:hr>
</tp1:TrackPointExtension>
</extensions>
</trkpt>
<trkpt lat="43.8831720" lon="12.6180550">
<ele>361.3840000</ele>
<time>2010-05-14T10:19:50Z</time>
<extensions>
<tp1:TrackPointExtension>
<tp1:hr>89</tp1:hr>
</tp1:TrackPointExtension>
</extensions>
</trkpt>
<trkpt lat="43.8830910" lon="12.6185790">
<ele>360.0440000</ele>
<time>2010-05-14T10:19:55Z</time>
<extensions>
<tp1:TrackPointExtension>
<tp1:hr>89</tp1:hr>
</tp1:TrackPointExtension>
</extensions>
</trkpt>
<trkpt lat="43.8829010" lon="12.6190870">
<ele>358.3590000</ele>
<time>2010-05-14T10:20:01Z</time>
<extensions>
<tp1:TrackPointExtension>
<tp1:hr>88</tp1:hr>
</tp1:TrackPointExtension>
</extensions>
</trkpt>
<trkpt lat="43.8828680" lon="12.6191740">
<ele>358.2800000</ele>
<time>2010-05-14T10:20:02Z</time>
<extensions>
<tp1:TrackPointExtension>
<tp1:hr>88</tp1:hr>
</tp1:TrackPointExtension>
</extensions>
</trkpt>
<trkpt lat="43.8827670" lon="12.6195670">
<ele>356.2540000</ele>
<time>2010-05-14T10:20:06Z</time>
<extensions>
<tp1:TrackPointExtension>
<tp1:hr>89</tp1:hr>
</tp1:TrackPointExtension>
</extensions>
</trkpt>
<trkpt lat="43.8827050" lon="12.6201910">
<ele>353.0710000</ele>
<time>2010-05-14T10:20:11Z</time>
<extensions>
<tp1:TrackPointExtension>
<tp1:hr>91</tp1:hr>
</tp1:TrackPointExtension>
</extensions>
</trkpt>
<trkpt lat="43.8825280" lon="12.6208450">
<ele>351.6810000</ele>
<time>2010-05-14T10:20:17Z</time>
<extensions>
<tp1:TrackPointExtension>
<tp1:hr>90</tp1:hr>
</tp1:TrackPointExtension>
</extensions>
</trkpt>
<trkpt lat="43.8822660" lon="12.6218610">
<ele>348.7210000</ele>
<time>2010-05-14T10:20:25Z</time>
<extensions>
<tp1:TrackPointExtension>
<tp1:hr>88</tp1:hr>
</tp1:TrackPointExtension>
</extensions>
</trkpt>
<trkpt lat="43.8821360" lon="12.6224410">
<ele>346.3240000</ele>
<time>2010-05-14T10:20:30Z</time>
<extensions>
<tp1:TrackPointExtension>
<tp1:hr>88</tp1:hr>
</tp1:TrackPointExtension>
</extensions>
</trkpt>
<trkpt lat="43.8820950" lon="12.6226540">
<ele>345.4760000</ele>
<time>2010-05-14T10:20:32Z</time>
<extensions>
<tp1:TrackPointExtension>
<tp1:hr>87</tp1:hr>
</tp1:TrackPointExtension>
</extensions>
</trkpt>
<trkpt lat="43.8819420" lon="12.6228330">
<ele>343.9240000</ele>
<time>2010-05-14T10:20:36Z</time>
<extensions>
<tp1:TrackPointExtension>
<tp1:hr>87</tp1:hr>
</tp1:TrackPointExtension>
</extensions>
</trkpt>
<trkpt lat="43.8818530" lon="12.6228500">
<ele>342.9700000</ele>
<time>2010-05-14T10:20:38Z</time>
<extensions>
<tp1:TrackPointExtension>
<tp1:hr>86</tp1:hr>
</tp1:TrackPointExtension>
</extensions>
</trkpt>
<trkpt lat="43.8816230" lon="12.6227640">
<ele>342.8350000</ele>
<time>2010-05-14T10:20:43Z</time>
<extensions>
<tp1:TrackPointExtension>
<tp1:hr>86</tp1:hr>
</tp1:TrackPointExtension>
</extensions>
</trkpt>
<trkpt lat="43.8815410" lon="12.6227330">
<ele>342.0010000</ele>
<time>2010-05-14T10:20:46Z</time>
<extensions>
<tp1:TrackPointExtension>
<tp1:hr>86</tp1:hr>
</tp1:TrackPointExtension>
</extensions>
</trkpt>
<trkpt lat="43.8814550" lon="12.6225620">
<ele>342.0840000</ele>
<time>2010-05-14T10:20:51Z</time>
<extensions>
<tp1:TrackPointExtension>
<tp1:hr>86</tp1:hr>
</tp1:TrackPointExtension>
</extensions>
</trkpt>
<trkpt lat="43.8814670" lon="12.6228260">
<ele>341.2790000</ele>
<time>2010-05-14T10:20:54Z</time>
<extensions>
<tp1:TrackPointExtension>
<tp1:hr>86</tp1:hr>
</tp1:TrackPointExtension>
</extensions>
</trkpt>
<trkpt lat="43.8815680" lon="12.6231520">
<ele>339.3080000</ele>
<time>2010-05-14T10:21:00Z</time>
<extensions>
<tp1:TrackPointExtension>
<tp1:hr>86</tp1:hr>
</tp1:TrackPointExtension>
</extensions>
</trkpt>
<trkpt lat="43.8817540" lon="12.6233760">
<ele>338.0160000</ele>
<time>2010-05-14T10:21:04Z</time>
<extensions>
<tp1:TrackPointExtension>
<tp1:hr>86</tp1:hr>
</tp1:TrackPointExtension>
</extensions>
</trkpt>
<trkpt lat="43.8817550" lon="12.6233770">
<ele>336.9770000</ele>
<time>2010-05-14T10:21:06Z</time>
<extensions>
<tp1:TrackPointExtension>
<tp1:hr>86</tp1:hr>
</tp1:TrackPointExtension>
</extensions>
</trkpt>
<trkpt lat="43.8823470" lon="12.6234540">
<ele>334.6470000</ele>
<time>2010-05-14T10:21:14Z</time>
<extensions>
<tp1:TrackPointExtension>
<tp1:hr>87</tp1:hr>
</tp1:TrackPointExtension>
</extensions>
</trkpt>
<trkpt lat="43.8825650" lon="12.6234830">
<ele>332.8190000</ele>
<time>2010-05-14T10:21:17Z</time>
<extensions>
<tp1:TrackPointExtension>
<tp1:hr>87</tp1:hr>
</tp1:TrackPointExtension>
</extensions>
</trkpt>
<trkpt lat="43.8829190" lon="12.6236530">
<ele>330.7340000</ele>
<time>2010-05-14T10:21:22Z</time>
<extensions>
<tp1:TrackPointExtension>
<tp1:hr>88</tp1:hr>
</tp1:TrackPointExtension>
</extensions>
</trkpt>
<trkpt lat="43.8830800" lon="12.6239070">
<ele>329.0810000</ele>
<time>2010-05-14T10:21:25Z</time>
<extensions>
<tp1:TrackPointExtension>
<tp1:hr>87</tp1:hr>
</tp1:TrackPointExtension>
</extensions>
</trkpt>
<trkpt lat="43.8831380" lon="12.6241290">
<ele>328.1590000</ele>
<time>2010-05-14T10:21:27Z</time>
<extensions>
<tp1:TrackPointExtension>
<tp1:hr>87</tp1:hr>
</tp1:TrackPointExtension>
</extensions>
</trkpt>
<trkpt lat="43.8831660" lon="12.6244650">
<ele>326.8110000</ele>
<time>2010-05-14T10:21:30Z</time>
<extensions>
<tp1:TrackPointExtension>
<tp1:hr>87</tp1:hr>
</tp1:TrackPointExtension>
</extensions>
</trkpt>
<trkpt lat="43.8832090" lon="12.6246770">
<ele>326.1580000</ele>
<time>2010-05-14T10:21:32Z</time>
<extensions>
<tp1:TrackPointExtension>
<tp1:hr>87</tp1:hr>
</tp1:TrackPointExtension>
</extensions>
</trkpt>
<trkpt lat="43.8832690" lon="12.6248960">
<ele>325.3700000</ele>
<time>2010-05-14T10:21:34Z</time>
<extensions>
<tp1:TrackPointExtension>
<tp1:hr>87</tp1:hr>
</tp1:TrackPointExtension>
</extensions>
</trkpt>
<trkpt lat="43.8833930" lon="12.6253580">
<ele>323.3870000</ele>
<time>2010-05-14T10:21:38Z</time>
<extensions>
<tp1:TrackPointExtension>
<tp1:hr>87</tp1:hr>
</tp1:TrackPointExtension>
</extensions>
</trkpt>
<trkpt lat="43.8834550" lon="12.6258450">
<ele>321.4700000</ele>
<time>2010-05-14T10:21:42Z</time>
<extensions>
<tp1:TrackPointExtension>
<tp1:hr>86</tp1:hr>
</tp1:TrackPointExtension>
</extensions>
</trkpt>
<trkpt lat="43.8833950" lon="12.6265380">
<ele>319.6670000</ele>
<time>2010-05-14T10:21:48Z</time>
<extensions>
<tp1:TrackPointExtension>
<tp1:hr>86</tp1:hr>
</tp1:TrackPointExtension>
</extensions>
</trkpt>
<trkpt lat="43.8834720" lon="12.6268100">
<ele>318.4440000</ele>
<time>2010-05-14T10:21:52Z</time>
<extensions>
<tp1:TrackPointExtension>
<tp1:hr>86</tp1:hr>
</tp1:TrackPointExtension>
</extensions>
</trkpt>
<trkpt lat="43.8835920" lon="12.6268960">
<ele>316.8400000</ele>
<time>2010-05-14T10:21:55Z</time>
<extensions>
<tp1:TrackPointExtension>
<tp1:hr>86</tp1:hr>
</tp1:TrackPointExtension>
</extensions>
</trkpt>
<trkpt lat="43.8837740" lon="12.6268950">
<ele>315.9250000</ele>
<time>2010-05-14T10:21:58Z</time>
<extensions>
<tp1:TrackPointExtension>
<tp1:hr>86</tp1:hr>
</tp1:TrackPointExtension>
</extensions>
</trkpt>
<trkpt lat="43.8838350" lon="12.6268330">
<ele>315.3090000</ele>
<time>2010-05-14T10:21:59Z</time>
<extensions>
<tp1:TrackPointExtension>
<tp1:hr>86</tp1:hr>
</tp1:TrackPointExtension>
</extensions>
</trkpt>
<trkpt lat="43.8839550" lon="12.6267130">
<ele>314.6040000</ele>
<time>2010-05-14T10:22:01Z</time>
<extensions>
<tp1:TrackPointExtension>
<tp1:hr>86</tp1:hr>
</tp1:TrackPointExtension>
</extensions>
</trkpt>
<trkpt lat="43.8842130" lon="12.6265040">
<ele>313.3410000</ele>
<time>2010-05-14T10:22:05Z</time>
<extensions>
<tp1:TrackPointExtension>
<tp1:hr>86</tp1:hr>
</tp1:TrackPointExtension>
</extensions>
</trkpt>
<trkpt lat="43.8847610" lon="12.6266860">
<ele>310.4650000</ele>
<time>2010-05-14T10:22:12Z</time>
<extensions>
<tp1:TrackPointExtension>
<tp1:hr>86</tp1:hr>
</tp1:TrackPointExtension>
</extensions>
</trkpt>
<trkpt lat="43.8850540" lon="12.6268190">
<ele>309.1440000</ele>
<time>2010-05-14T10:22:16Z</time>
<extensions>
<tp1:TrackPointExtension>
<tp1:hr>86</tp1:hr>
</tp1:TrackPointExtension>
</extensions>
</trkpt>
<trkpt lat="43.8854490" lon="12.6269990">
<ele>307.0240000</ele>
<time>2010-05-14T10:22:21Z</time>
<extensions>
<tp1:TrackPointExtension>
<tp1:hr>86</tp1:hr>
</tp1:TrackPointExtension>
</extensions>
</trkpt>
<trkpt lat="43.8856940" lon="12.6271100">
<ele>305.5470000</ele>
<time>2010-05-14T10:22:24Z</time>
<extensions>
<tp1:TrackPointExtension>
<tp1:hr>87</tp1:hr>
</tp1:TrackPointExtension>
</extensions>
</trkpt>
<trkpt lat="43.8858470" lon="12.6272110">
<ele>304.1400000</ele>
<time>2010-05-14T10:22:26Z</time>
<extensions>
<tp1:TrackPointExtension>
<tp1:hr>88</tp1:hr>
</tp1:TrackPointExtension>
</extensions>
</trkpt>
<trkpt lat="43.8861560" lon="12.6276290">
<ele>302.4270000</ele>
<time>2010-05-14T10:22:31Z</time>
<extensions>
<tp1:TrackPointExtension>
<tp1:hr>87</tp1:hr>
</tp1:TrackPointExtension>
</extensions>
</trkpt>
<trkpt lat="43.8862170" lon="12.6277230">
<ele>301.7400000</ele>
<time>2010-05-14T10:22:32Z</time>
<extensions>
<tp1:TrackPointExtension>
<tp1:hr>88</tp1:hr>
</tp1:TrackPointExtension>
</extensions>
</trkpt>
<trkpt lat="43.8865840" lon="12.6278970">
<ele>299.2660000</ele>
<time>2010-05-14T10:22:37Z</time>
<extensions>
<tp1:TrackPointExtension>
<tp1:hr>88</tp1:hr>
</tp1:TrackPointExtension>
</extensions>
</trkpt>
<trkpt lat="43.8866770" lon="12.6278850">
<ele>298.9390000</ele>
<time>2010-05-14T10:22:38Z</time>
<extensions>
<tp1:TrackPointExtension>
<tp1:hr>88</tp1:hr>
</tp1:TrackPointExtension>
</extensions>
</trkpt>
<trkpt lat="43.8868380" lon="12.6278280">
<ele>298.1710000</ele>
<time>2010-05-14T10:22:40Z</time>
<extensions>
<tp1:TrackPointExtension>
<tp1:hr>89</tp1:hr>
</tp1:TrackPointExtension>
</extensions>
</trkpt>
<trkpt lat="43.8871700" lon="12.6277770">
<ele>295.6330000</ele>
<time>2010-05-14T10:22:44Z</time>
<extensions>
<tp1:TrackPointExtension>
<tp1:hr>90</tp1:hr>
</tp1:TrackPointExtension>
</extensions>
</trkpt>
<trkpt lat="43.8873380" lon="12.6278050">
<ele>294.6300000</ele>
<time>2010-05-14T10:22:46Z</time>
<extensions>
<tp1:TrackPointExtension>
<tp1:hr>90</tp1:hr>
</tp1:TrackPointExtension>
</extensions>
</trkpt>
<trkpt lat="43.8877570" lon="12.6279490">
<ele>292.3380000</ele>
<time>2010-05-14T10:22:51Z</time>
<extensions>
<tp1:TrackPointExtension>
<tp1:hr>90</tp1:hr>
</tp1:TrackPointExtension>
</extensions>
</trkpt>
<trkpt lat="43.8880090" lon="12.6280800">
<ele>290.8400000</ele>
<time>2010-05-14T10:22:54Z</time>
<extensions>
<tp1:TrackPointExtension>
<tp1:hr>90</tp1:hr>
</tp1:TrackPointExtension>
</extensions>
</trkpt>
<trkpt lat="43.8885820" lon="12.6283870">
<ele>287.8430000</ele>
<time>2010-05-14T10:23:01Z</time>
<extensions>
<tp1:TrackPointExtension>
<tp1:hr>86</tp1:hr>
</tp1:TrackPointExtension>
</extensions>
</trkpt>
<trkpt lat="43.8888660" lon="12.6285860">
<ele>286.1080000</ele>
<time>2010-05-14T10:23:05Z</time>
<extensions>
<tp1:TrackPointExtension>
<tp1:hr>87</tp1:hr>
</tp1:TrackPointExtension>
</extensions>
</trkpt>
<trkpt lat="43.8893940" lon="12.6289560">
<ele>282.2740000</ele>
<time>2010-05-14T10:23:12Z</time>
<extensions>
<tp1:TrackPointExtension>
<tp1:hr>88</tp1:hr>
</tp1:TrackPointExtension>
</extensions>
</trkpt>
<trkpt lat="43.8897400" lon="12.6289280">
<ele>280.0600000</ele>
<time>2010-05-14T10:23:16Z</time>
<extensions>
<tp1:TrackPointExtension>
<tp1:hr>88</tp1:hr>
</tp1:TrackPointExtension>
</extensions>
</trkpt>
<trkpt lat="43.8901840" lon="12.6288350">
<ele>277.8100000</ele>
<time>2010-05-14T10:23:21Z</time>
<extensions>
<tp1:TrackPointExtension>
<tp1:hr>88</tp1:hr>
</tp1:TrackPointExtension>
</extensions>
</trkpt>
<trkpt lat="43.8903370" lon="12.6288030">
<ele>276.9680000</ele>
<time>2010-05-14T10:23:23Z</time>
<extensions>
<tp1:TrackPointExtension>
<tp1:hr>88</tp1:hr>
</tp1:TrackPointExtension>
</extensions>
</trkpt>
<trkpt lat="43.8906410" lon="12.6288560">
<ele>275.1690000</ele>
<time>2010-05-14T10:23:27Z</time>
<extensions>
<tp1:TrackPointExtension>
<tp1:hr>88</tp1:hr>
</tp1:TrackPointExtension>
</extensions>
</trkpt>
<trkpt lat="43.8907990" lon="12.6290460">
<ele>274.1290000</ele>
<time>2010-05-14T10:23:30Z</time>
<extensions>
<tp1:TrackPointExtension>
<tp1:hr>88</tp1:hr>
</tp1:TrackPointExtension>
</extensions>
</trkpt>
<trkpt lat="43.8908510" lon="12.6291240">
<ele>273.7660000</ele>
<time>2010-05-14T10:23:31Z</time>
<extensions>
<tp1:TrackPointExtension>
<tp1:hr>88</tp1:hr>
</tp1:TrackPointExtension>
</extensions>
</trkpt>
<trkpt lat="43.8910140" lon="12.6297970">
<ele>271.2810000</ele>
<time>2010-05-14T10:23:37Z</time>
<extensions>
<tp1:TrackPointExtension>
<tp1:hr>89</tp1:hr>
</tp1:TrackPointExtension>
</extensions>
</trkpt>
<trkpt lat="43.8910970" lon="12.6301430">
<ele>270.5120000</ele>
<time>2010-05-14T10:23:40Z</time>
<extensions>
<tp1:TrackPointExtension>
<tp1:hr>89</tp1:hr>
</tp1:TrackPointExtension>
</extensions>
</trkpt>
<trkpt lat="43.8912690" lon="12.6304010">
<ele>269.1020000</ele>
<time>2010-05-14T10:23:43Z</time>
<extensions>
<tp1:TrackPointExtension>
<tp1:hr>87</tp1:hr>
</tp1:TrackPointExtension>
</extensions>
</trkpt>
<trkpt lat="43.8915440" lon="12.6307050">
<ele>266.6840000</ele>
<time>2010-05-14T10:23:47Z</time>
<extensions>
<tp1:TrackPointExtension>
<tp1:hr>87</tp1:hr>
</tp1:TrackPointExtension>
</extensions>
</trkpt>
<trkpt lat="43.8916030" lon="12.6307990">
<ele>266.3850000</ele>
<time>2010-05-14T10:23:48Z</time>
<extensions>
<tp1:TrackPointExtension>
<tp1:hr>87</tp1:hr>
</tp1:TrackPointExtension>
</extensions>
</trkpt>
<trkpt lat="43.8917400" lon="12.6312560">
<ele>264.9060000</ele>
<time>2010-05-14T10:23:52Z</time>
<extensions>
<tp1:TrackPointExtension>
<tp1:hr>88</tp1:hr>
</tp1:TrackPointExtension>
</extensions>
</trkpt>
<trkpt lat="43.8917640" lon="12.6315000">
<ele>264.5040000</ele>
<time>2010-05-14T10:23:54Z</time>
<extensions>
<tp1:TrackPointExtension>
<tp1:hr>88</tp1:hr>
</tp1:TrackPointExtension>
</extensions>
</trkpt>
<trkpt lat="43.8917980" lon="12.6318370">
<ele>263.4970000</ele>
<time>2010-05-14T10:23:57Z</time>
<extensions>
<tp1:TrackPointExtension>
<tp1:hr>89</tp1:hr>
</tp1:TrackPointExtension>
</extensions>
</trkpt>
<trkpt lat="43.8918590" lon="12.6322300">
<ele>262.3950000</ele>
<time>2010-05-14T10:24:01Z</time>
<extensions>
<tp1:TrackPointExtension>
<tp1:hr>89</tp1:hr>
</tp1:TrackPointExtension>
</extensions>
</trkpt>
<trkpt lat="43.8920640" lon="12.6325030">
<ele>260.1820000</ele>
<time>2010-05-14T10:24:05Z</time>
<extensions>
<tp1:TrackPointExtension>
<tp1:hr>88</tp1:hr>
</tp1:TrackPointExtension>
</extensions>
</trkpt>
<trkpt lat="43.8923100" lon="12.6325710">
<ele>258.5640000</ele>
<time>2010-05-14T10:24:08Z</time>
<extensions>
<tp1:TrackPointExtension>
<tp1:hr>88</tp1:hr>
</tp1:TrackPointExtension>
</extensions>
</trkpt>
<trkpt lat="43.8929220" lon="12.6326160">
<ele>254.5980000</ele>
<time>2010-05-14T10:24:14Z</time>
<extensions>
<tp1:TrackPointExtension>
<tp1:hr>88</tp1:hr>
</tp1:TrackPointExtension>
</extensions>
</trkpt>
<trkpt lat="43.8936420" lon="12.6327860">
<ele>250.6250000</ele>
<time>2010-05-14T10:24:21Z</time>
<extensions>
<tp1:TrackPointExtension>
<tp1:hr>88</tp1:hr>
</tp1:TrackPointExtension>
</extensions>
</trkpt>
<trkpt lat="43.8940880" lon="12.6328920">
<ele>248.1460000</ele>
<time>2010-05-14T10:24:26Z</time>
<extensions>
<tp1:TrackPointExtension>
<tp1:hr>87</tp1:hr>
</tp1:TrackPointExtension>
</extensions>
</trkpt>
<trkpt lat="43.8942510" lon="12.6329310">
<ele>246.6570000</ele>
<time>2010-05-14T10:24:28Z</time>
<extensions>
<tp1:TrackPointExtension>
<tp1:hr>87</tp1:hr>
</tp1:TrackPointExtension>
</extensions>
</trkpt>
<trkpt lat="43.8945010" lon="12.6329900">
<ele>244.8580000</ele>
<time>2010-05-14T10:24:32Z</time>
<extensions>
<tp1:TrackPointExtension>
<tp1:hr>87</tp1:hr>
</tp1:TrackPointExtension>
</extensions>
</trkpt>
<trkpt lat="43.8948570" lon="12.6329080">
<ele>243.1760000</ele>
<time>2010-05-14T10:24:35Z</time>
<extensions>
<tp1:TrackPointExtension>
<tp1:hr>87</tp1:hr>
</tp1:TrackPointExtension>
</extensions>
</trkpt>
<trkpt lat="43.8952000" lon="12.6329310">
<ele>241.3980000</ele>
<time>2010-05-14T10:24:39Z</time>
<extensions>
<tp1:TrackPointExtension>
<tp1:hr>88</tp1:hr>
</tp1:TrackPointExtension>
</extensions>
</trkpt>
<trkpt lat="43.8953600" lon="12.6331620">
<ele>240.2490000</ele>
<time>2010-05-14T10:24:42Z</time>
<extensions>
<tp1:TrackPointExtension>
<tp1:hr>88</tp1:hr>
</tp1:TrackPointExtension>
</extensions>
</trkpt>
<trkpt lat="43.8954620" lon="12.6334700">
<ele>237.8610000</ele>
<time>2010-05-14T10:24:45Z</time>
<extensions>
<tp1:TrackPointExtension>
<tp1:hr>87</tp1:hr>
</tp1:TrackPointExtension>
</extensions>
</trkpt>
<trkpt lat="43.8954530" lon="12.6337630">
<ele>236.9390000</ele>
<time>2010-05-14T10:24:48Z</time>
<extensions>
<tp1:TrackPointExtension>
<tp1:hr>87</tp1:hr>
</tp1:TrackPointExtension>
</extensions>
</trkpt>
<trkpt lat="43.8953720" lon="12.6339340">
<ele>236.3010000</ele>
<time>2010-05-14T10:24:50Z</time>
<extensions>
<tp1:TrackPointExtension>
<tp1:hr>87</tp1:hr>
</tp1:TrackPointExtension>
</extensions>
</trkpt>
<trkpt lat="43.8950680" lon="12.6343730">
<ele>233.1570000</ele>
<time>2010-05-14T10:24:55Z</time>
<extensions>
<tp1:TrackPointExtension>
<tp1:hr>86</tp1:hr>
</tp1:TrackPointExtension>
</extensions>
</trkpt>
<trkpt lat="43.8950070" lon="12.6344530">
<ele>232.6100000</ele>
<time>2010-05-14T10:24:56Z</time>
<extensions>
<tp1:TrackPointExtension>
<tp1:hr>86</tp1:hr>
</tp1:TrackPointExtension>
</extensions>
</trkpt>
<trkpt lat="43.8947550" lon="12.6349050">
<ele>229.9670000</ele>
<time>2010-05-14T10:25:01Z</time>
<extensions>
<tp1:TrackPointExtension>
<tp1:hr>86</tp1:hr>
</tp1:TrackPointExtension>
</extensions>
</trkpt>
<trkpt lat="43.8947410" lon="12.6350210">
<ele>229.7440000</ele>
<time>2010-05-14T10:25:02Z</time>
<extensions>
<tp1:TrackPointExtension>
<tp1:hr>86</tp1:hr>
</tp1:TrackPointExtension>
</extensions>
</trkpt>
<trkpt lat="43.8947160" lon="12.6355090">
<ele>228.2350000</ele>
<time>2010-05-14T10:25:06Z</time>
<extensions>
<tp1:TrackPointExtension>
<tp1:hr>85</tp1:hr>
</tp1:TrackPointExtension>
</extensions>
</trkpt>
<trkpt lat="43.8947330" lon="12.6359350">
<ele>227.3340000</ele>
<time>2010-05-14T10:25:10Z</time>
<extensions>
<tp1:TrackPointExtension>
<tp1:hr>84</tp1:hr>
</tp1:TrackPointExtension>
</extensions>
</trkpt>
<trkpt lat="43.8948450" lon="12.6360800">
<ele>226.2780000</ele>
<time>2010-05-14T10:25:13Z</time>
<extensions>
<tp1:TrackPointExtension>
<tp1:hr>84</tp1:hr>
</tp1:TrackPointExtension>
</extensions>
</trkpt>
<trkpt lat="43.8949070" lon="12.6360920">
<ele>226.2780000</ele>
<time>2010-05-14T10:25:14Z</time>
<extensions>
<tp1:TrackPointExtension>
<tp1:hr>84</tp1:hr>
</tp1:TrackPointExtension>
</extensions>
</trkpt>
<trkpt lat="43.8953450" lon="12.6363270">
<ele>223.3340000</ele>
<time>2010-05-14T10:25:21Z</time>
<extensions>
<tp1:TrackPointExtension>
<tp1:hr>85</tp1:hr>
</tp1:TrackPointExtension>
</extensions>
</trkpt>
<trkpt lat="43.8953960" lon="12.6363450">
<ele>222.7170000</ele>
<time>2010-05-14T10:25:22Z</time>
<extensions>
<tp1:TrackPointExtension>
<tp1:hr>85</tp1:hr>
</tp1:TrackPointExtension>
</extensions>
</trkpt>
<trkpt lat="43.8955180" lon="12.6363690">
<ele>221.5190000</ele>
<time>2010-05-14T10:25:24Z</time>
<extensions>
<tp1:TrackPointExtension>
<tp1:hr>85</tp1:hr>
</tp1:TrackPointExtension>
</extensions>
</trkpt>
<trkpt lat="43.8956600" lon="12.6363370">
<ele>219.9160000</ele>
<time>2010-05-14T10:25:27Z</time>
<extensions>
<tp1:TrackPointExtension>
<tp1:hr>85</tp1:hr>
</tp1:TrackPointExtension>
</extensions>
</trkpt>
<trkpt lat="43.8957130" lon="12.6362650">
<ele>219.2830000</ele>
<time>2010-05-14T10:25:28Z</time>
<extensions>
<tp1:TrackPointExtension>
<tp1:hr>85</tp1:hr>
</tp1:TrackPointExtension>
</extensions>
</trkpt>
<trkpt lat="43.8959530" lon="12.6359380">
<ele>217.1790000</ele>
<time>2010-05-14T10:25:32Z</time>
<extensions>
<tp1:TrackPointExtension>
<tp1:hr>85</tp1:hr>
</tp1:TrackPointExtension>
</extensions>
</trkpt>
<trkpt lat="43.8961570" lon="12.6356780">
<ele>215.8740000</ele>
<time>2010-05-14T10:25:35Z</time>
<extensions>
<tp1:TrackPointExtension>
<tp1:hr>85</tp1:hr>
</tp1:TrackPointExtension>
</extensions>
</trkpt>
<trkpt lat="43.8964470" lon="12.6354970">
<ele>213.4380000</ele>
<time>2010-05-14T10:25:39Z</time>
<extensions>
<tp1:TrackPointExtension>
<tp1:hr>85</tp1:hr>
</tp1:TrackPointExtension>
</extensions>
</trkpt>
<trkpt lat="43.8967920" lon="12.6355700">
<ele>211.4090000</ele>
<time>2010-05-14T10:25:43Z</time>
<extensions>
<tp1:TrackPointExtension>
<tp1:hr>85</tp1:hr>
</tp1:TrackPointExtension>
</extensions>
</trkpt>
<trkpt lat="43.8971820" lon="12.6356960">
<ele>209.0350000</ele>
<time>2010-05-14T10:25:48Z</time>
<extensions>
<tp1:TrackPointExtension>
<tp1:hr>85</tp1:hr>
</tp1:TrackPointExtension>
</extensions>
</trkpt>
<trkpt lat="43.8975200" lon="12.6357410">
<ele>207.2280000</ele>
<time>2010-05-14T10:25:52Z</time>
<extensions>
<tp1:TrackPointExtension>
<tp1:hr>85</tp1:hr>
</tp1:TrackPointExtension>
</extensions>
</trkpt>
<trkpt lat="43.8977540" lon="12.6357720">
<ele>205.5300000</ele>
<time>2010-05-14T10:25:55Z</time>
<extensions>
<tp1:TrackPointExtension>
<tp1:hr>85</tp1:hr>
</tp1:TrackPointExtension>
</extensions>
</trkpt>
<trkpt lat="43.8979360" lon="12.6359970">
<ele>203.8380000</ele>
<time>2010-05-14T10:25:58Z</time>
<extensions>
<tp1:TrackPointExtension>
<tp1:hr>85</tp1:hr>
</tp1:TrackPointExtension>
</extensions>
</trkpt>
<trkpt lat="43.8982920" lon="12.6364630">
<ele>200.1900000</ele>
<time>2010-05-14T10:26:04Z</time>
<extensions>
<tp1:TrackPointExtension>
<tp1:hr>85</tp1:hr>
</tp1:TrackPointExtension>
</extensions>
</trkpt>
<trkpt lat="43.8985040" lon="12.6368180">
<ele>198.0120000</ele>
<time>2010-05-14T10:26:08Z</time>
<extensions>
<tp1:TrackPointExtension>
<tp1:hr>85</tp1:hr>
</tp1:TrackPointExtension>
</extensions>
</trkpt>
<trkpt lat="43.8986800" lon="12.6372020">
<ele>196.8410000</ele>
<time>2010-05-14T10:26:13Z</time>
<extensions>
<tp1:TrackPointExtension>
<tp1:hr>86</tp1:hr>
</tp1:TrackPointExtension>
</extensions>
</trkpt>
<trkpt lat="43.8988880" lon="12.6372820">
<ele>194.1400000</ele>
<time>2010-05-14T10:26:16Z</time>
<extensions>
<tp1:TrackPointExtension>
<tp1:hr>86</tp1:hr>
</tp1:TrackPointExtension>
</extensions>
</trkpt>
<trkpt lat="43.8992220" lon="12.6372820">
<ele>191.9880000</ele>
<time>2010-05-14T10:26:20Z</time>
<extensions>
<tp1:TrackPointExtension>
<tp1:hr>87</tp1:hr>
</tp1:TrackPointExtension>
</extensions>
</trkpt>
<trkpt lat="43.8992930" lon="12.6372420">
<ele>191.7140000</ele>
<time>2010-05-14T10:26:21Z</time>
<extensions>
<tp1:TrackPointExtension>
<tp1:hr>87</tp1:hr>
</tp1:TrackPointExtension>
</extensions>
</trkpt>
<trkpt lat="43.8994250" lon="12.6371690">
<ele>190.4450000</ele>
<time>2010-05-14T10:26:23Z</time>
<extensions>
<tp1:TrackPointExtension>
<tp1:hr>86</tp1:hr>
</tp1:TrackPointExtension>
</extensions>
</trkpt>
<trkpt lat="43.8997140" lon="12.6371500">
<ele>188.7950000</ele>
<time>2010-05-14T10:26:27Z</time>
<extensions>
<tp1:TrackPointExtension>
<tp1:hr>86</tp1:hr>
</tp1:TrackPointExtension>
</extensions>
</trkpt>
<trkpt lat="43.8997520" lon="12.6372320">
<ele>187.9070000</ele>
<time>2010-05-14T10:26:28Z</time>
<extensions>
<tp1:TrackPointExtension>
<tp1:hr>85</tp1:hr>
</tp1:TrackPointExtension>
</extensions>
</trkpt>
<trkpt lat="43.8999500" lon="12.6376990">
<ele>186.1950000</ele>
<time>2010-05-14T10:26:33Z</time>
<extensions>
<tp1:TrackPointExtension>
<tp1:hr>85</tp1:hr>
</tp1:TrackPointExtension>
</extensions>
</trkpt>
<trkpt lat="43.9001110" lon="12.6380810">
<ele>184.3670000</ele>
<time>2010-05-14T10:26:37Z</time>
<extensions>
<tp1:TrackPointExtension>
<tp1:hr>85</tp1:hr>
</tp1:TrackPointExtension>
</extensions>
</trkpt>
<trkpt lat="43.9002170" lon="12.6383790">
<ele>182.8250000</ele>
<time>2010-05-14T10:26:40Z</time>
<extensions>
<tp1:TrackPointExtension>
<tp1:hr>85</tp1:hr>
</tp1:TrackPointExtension>
</extensions>
</trkpt>
<trkpt lat="43.9002320" lon="12.6385020">
<ele>182.6330000</ele>
<time>2010-05-14T10:26:41Z</time>
<extensions>
<tp1:TrackPointExtension>
<tp1:hr>85</tp1:hr>
</tp1:TrackPointExtension>
</extensions>
</trkpt>
<trkpt lat="43.9002930" lon="12.6390130">
<ele>180.3360000</ele>
<time>2010-05-14T10:26:45Z</time>
<extensions>
<tp1:TrackPointExtension>
<tp1:hr>84</tp1:hr>
</tp1:TrackPointExtension>
</extensions>
</trkpt>
<trkpt lat="43.9003090" lon="12.6391430">
<ele>180.0930000</ele>
<time>2010-05-14T10:26:46Z</time>
<extensions>
<tp1:TrackPointExtension>
<tp1:hr>84</tp1:hr>
</tp1:TrackPointExtension>
</extensions>
</trkpt>
<trkpt lat="43.9005080" lon="12.6401860">
<ele>175.6630000</ele>
<time>2010-05-14T10:26:54Z</time>
<extensions>
<tp1:TrackPointExtension>
<tp1:hr>84</tp1:hr>
</tp1:TrackPointExtension>
</extensions>
</trkpt>
<trkpt lat="43.9005350" lon="12.6403150">
<ele>175.3640000</ele>
<time>2010-05-14T10:26:55Z</time>
<extensions>
<tp1:TrackPointExtension>
<tp1:hr>84</tp1:hr>
</tp1:TrackPointExtension>
</extensions>
</trkpt>
<trkpt lat="43.9005880" lon="12.6405630">
<ele>174.5040000</ele>
<time>2010-05-14T10:26:57Z</time>
<extensions>
<tp1:TrackPointExtension>
<tp1:hr>85</tp1:hr>
</tp1:TrackPointExtension>
</extensions>
</trkpt>
<trkpt lat="43.9007800" lon="12.6410670">
<ele>171.9320000</ele>
<time>2010-05-14T10:27:02Z</time>
<extensions>
<tp1:TrackPointExtension>
<tp1:hr>85</tp1:hr>
</tp1:TrackPointExtension>
</extensions>
</trkpt>
<trkpt lat="43.9008830" lon="12.6412600">
<ele>170.6730000</ele>
<time>2010-05-14T10:27:04Z</time>
<extensions>
<tp1:TrackPointExtension>
<tp1:hr>85</tp1:hr>
</tp1:TrackPointExtension>
</extensions>
</trkpt>
<trkpt lat="43.9010810" lon="12.6416440">
<ele>167.9660000</ele>
<time>2010-05-14T10:27:08Z</time>
<extensions>
<tp1:TrackPointExtension>
<tp1:hr>85</tp1:hr>
</tp1:TrackPointExtension>
</extensions>
</trkpt>
<trkpt lat="43.9013250" lon="12.6423460">
<ele>164.6860000</ele>
<time>2010-05-14T10:27:15Z</time>
<extensions>
<tp1:TrackPointExtension>
<tp1:hr>85</tp1:hr>
</tp1:TrackPointExtension>
</extensions>
</trkpt>
<trkpt lat="43.9014560" lon="12.6427100">
<ele>162.9440000</ele>
<time>2010-05-14T10:27:18Z</time>
<extensions>
<tp1:TrackPointExtension>
<tp1:hr>85</tp1:hr>
</tp1:TrackPointExtension>
</extensions>
</trkpt>
<trkpt lat="43.9017210" lon="12.6431530">
<ele>160.5670000</ele>
<time>2010-05-14T10:27:23Z</time>
<extensions>
<tp1:TrackPointExtension>
<tp1:hr>85</tp1:hr>
</tp1:TrackPointExtension>
</extensions>
</trkpt>
<trkpt lat="43.9018830" lon="12.6436340">
<ele>158.0460000</ele>
<time>2010-05-14T10:27:28Z</time>
<extensions>
<tp1:TrackPointExtension>
<tp1:hr>85</tp1:hr>
</tp1:TrackPointExtension>
</extensions>
</trkpt>
<trkpt lat="43.9018830" lon="12.6438490">
<ele>156.7460000</ele>
<time>2010-05-14T10:27:30Z</time>
<extensions>
<tp1:TrackPointExtension>
<tp1:hr>85</tp1:hr>
</tp1:TrackPointExtension>
</extensions>
</trkpt>
<trkpt lat="43.9018360" lon="12.6442820">
<ele>155.3480000</ele>
<time>2010-05-14T10:27:34Z</time>
<extensions>
<tp1:TrackPointExtension>
<tp1:hr>85</tp1:hr>
</tp1:TrackPointExtension>
</extensions>
</trkpt>
<trkpt lat="43.9017490" lon="12.6450560">
<ele>152.5430000</ele>
<time>2010-05-14T10:27:41Z</time>
<extensions>
<tp1:TrackPointExtension>
<tp1:hr>84</tp1:hr>
</tp1:TrackPointExtension>
</extensions>
</trkpt>
<trkpt lat="43.9017130" lon="12.6454200">
<ele>151.1630000</ele>
<time>2010-05-14T10:27:45Z</time>
<extensions>
<tp1:TrackPointExtension>
<tp1:hr>84</tp1:hr>
</tp1:TrackPointExtension>
</extensions>
</trkpt>
<trkpt lat="43.9018170" lon="12.6456580">
<ele>148.9620000</ele>
<time>2010-05-14T10:27:49Z</time>
<extensions>
<tp1:TrackPointExtension>
<tp1:hr>84</tp1:hr>
</tp1:TrackPointExtension>
</extensions>
</trkpt>
<trkpt lat="43.9019000" lon="12.6457300">
<ele>148.3430000</ele>
<time>2010-05-14T10:27:52Z</time>
<extensions>
<tp1:TrackPointExtension>
<tp1:hr>85</tp1:hr>
</tp1:TrackPointExtension>
</extensions>
</trkpt>
<trkpt lat="43.9020450" lon="12.6456510">
<ele>146.3300000</ele>
<time>2010-05-14T10:27:55Z</time>
<extensions>
<tp1:TrackPointExtension>
<tp1:hr>86</tp1:hr>
</tp1:TrackPointExtension>
</extensions>
</trkpt>
<trkpt lat="43.9021930" lon="12.6454590">
<ele>144.9440000</ele>
<time>2010-05-14T10:27:58Z</time>
<extensions>
<tp1:TrackPointExtension>
<tp1:hr>86</tp1:hr>
</tp1:TrackPointExtension>
</extensions>
</trkpt>
<trkpt lat="43.9026070" lon="12.6445470">
<ele>140.3730000</ele>
<time>2010-05-14T10:28:09Z</time>
<extensions>
<tp1:TrackPointExtension>
<tp1:hr>86</tp1:hr>
</tp1:TrackPointExtension>
</extensions>
</trkpt>
<trkpt lat="43.9026850" lon="12.6443650">
<ele>139.7260000</ele>
<time>2010-05-14T10:28:11Z</time>
<extensions>
<tp1:TrackPointExtension>
<tp1:hr>86</tp1:hr>
</tp1:TrackPointExtension>
</extensions>
</trkpt>
<trkpt lat="43.9030210" lon="12.6436180">
<ele>135.5840000</ele>
<time>2010-05-14T10:28:19Z</time>
<extensions>
<tp1:TrackPointExtension>
<tp1:hr>86</tp1:hr>
</tp1:TrackPointExtension>
</extensions>
</trkpt>
<trkpt lat="43.9031300" lon="12.6433320">
<ele>134.2530000</ele>
<time>2010-05-14T10:28:22Z</time>
<extensions>
<tp1:TrackPointExtension>
<tp1:hr>86</tp1:hr>
</tp1:TrackPointExtension>
</extensions>
</trkpt>
<trkpt lat="43.9033060" lon="12.6428690">
<ele>132.4840000</ele>
<time>2010-05-14T10:28:27Z</time>
<extensions>
<tp1:TrackPointExtension>
<tp1:hr>85</tp1:hr>
</tp1:TrackPointExtension>
</extensions>
</trkpt>
<trkpt lat="43.9033490" lon="12.6423460">
<ele>130.5330000</ele>
<time>2010-05-14T10:28:32Z</time>
<extensions>
<tp1:TrackPointExtension>
<tp1:hr>85</tp1:hr>
</tp1:TrackPointExtension>
</extensions>
</trkpt>
<trkpt lat="43.9034230" lon="12.6420920">
<ele>129.2150000</ele>
<time>2010-05-14T10:28:35Z</time>
<extensions>
<tp1:TrackPointExtension>
<tp1:hr>85</tp1:hr>
</tp1:TrackPointExtension>
</extensions>
</trkpt>
<trkpt lat="43.9035200" lon="12.6419950">
<ele>128.1380000</ele>
<time>2010-05-14T10:28:37Z</time>
<extensions>
<tp1:TrackPointExtension>
<tp1:hr>85</tp1:hr>
</tp1:TrackPointExtension>
</extensions>
</trkpt>
<trkpt lat="43.9035890" lon="12.6419670">
<ele>127.8950000</ele>
<time>2010-05-14T10:28:38Z</time>
<extensions>
<tp1:TrackPointExtension>
<tp1:hr>85</tp1:hr>
</tp1:TrackPointExtension>
</extensions>
</trkpt>
<trkpt lat="43.9037780" lon="12.6421460">
<ele>126.5920000</ele>
<time>2010-05-14T10:28:41Z</time>
<extensions>
<tp1:TrackPointExtension>
<tp1:hr>85</tp1:hr>
</tp1:TrackPointExtension>
</extensions>
</trkpt>
<trkpt lat="43.9040370" lon="12.6428980">
<ele>123.4160000</ele>
<time>2010-05-14T10:28:48Z</time>
<extensions>
<tp1:TrackPointExtension>
<tp1:hr>86</tp1:hr>
</tp1:TrackPointExtension>
</extensions>
</trkpt>
<trkpt lat="43.9041760" lon="12.6434430">
<ele>121.4190000</ele>
<time>2010-05-14T10:28:53Z</time>
<extensions>
<tp1:TrackPointExtension>
<tp1:hr>85</tp1:hr>
</tp1:TrackPointExtension>
</extensions>
</trkpt>
<trkpt lat="43.9043590" lon="12.6439440">
<ele>119.4610000</ele>
<time>2010-05-14T10:28:59Z</time>
<extensions>
<tp1:TrackPointExtension>
<tp1:hr>85</tp1:hr>
</tp1:TrackPointExtension>
</extensions>
</trkpt>
<trkpt lat="43.9045900" lon="12.6440280">
<ele>117.9290000</ele>
<time>2010-05-14T10:29:04Z</time>
<extensions>
<tp1:TrackPointExtension>
<tp1:hr>84</tp1:hr>
</tp1:TrackPointExtension>
</extensions>
</trkpt>
<trkpt lat="43.9047500" lon="12.6440860">
<ele>117.1200000</ele>
<time>2010-05-14T10:29:08Z</time>
<extensions>
<tp1:TrackPointExtension>
<tp1:hr>84</tp1:hr>
</tp1:TrackPointExtension>
</extensions>
</trkpt>
<trkpt lat="43.9048010" lon="12.6444170">
<ele>116.1610000</ele>
<time>2010-05-14T10:29:12Z</time>
<extensions>
<tp1:TrackPointExtension>
<tp1:hr>85</tp1:hr>
</tp1:TrackPointExtension>
</extensions>
</trkpt>
<trkpt lat="43.9048160" lon="12.6449720">
<ele>114.0910000</ele>
<time>2010-05-14T10:29:18Z</time>
<extensions>
<tp1:TrackPointExtension>
<tp1:hr>89</tp1:hr>
</tp1:TrackPointExtension>
</extensions>
</trkpt>
<trkpt lat="43.9048410" lon="12.6455490">
<ele>112.5390000</ele>
<time>2010-05-14T10:29:23Z</time>
<extensions>
<tp1:TrackPointExtension>
<tp1:hr>94</tp1:hr>
</tp1:TrackPointExtension>
</extensions>
</trkpt>
<trkpt lat="43.9048250" lon="12.6460270">
<ele>111.2970000</ele>
<time>2010-05-14T10:29:27Z</time>
<extensions>
<tp1:TrackPointExtension>
<tp1:hr>93</tp1:hr>
</tp1:TrackPointExtension>
</extensions>
</trkpt>
<trkpt lat="43.9047080" lon="12.6464970">
<ele>110.2130000</ele>
<time>2010-05-14T10:29:32Z</time>
<extensions>
<tp1:TrackPointExtension>
<tp1:hr>90</tp1:hr>
</tp1:TrackPointExtension>
</extensions>
</trkpt>
<trkpt lat="43.9046150" lon="12.6469010">
<ele>108.3010000</ele>
<time>2010-05-14T10:29:39Z</time>
<extensions>
<tp1:TrackPointExtension>
<tp1:hr>89</tp1:hr>
</tp1:TrackPointExtension>
</extensions>
</trkpt>
<trkpt lat="43.9045860" lon="12.6470230">
<ele>106.4840000</ele>
<time>2010-05-14T10:29:43Z</time>
<extensions>
<tp1:TrackPointExtension>
<tp1:hr>88</tp1:hr>
</tp1:TrackPointExtension>
</extensions>
</trkpt>
<trkpt lat="43.9045370" lon="12.6472770">
<ele>106.4840000</ele>
<time>2010-05-14T10:29:44Z</time>
<extensions>
<tp1:TrackPointExtension>
<tp1:hr>88</tp1:hr>
</tp1:TrackPointExtension>
</extensions>
</trkpt>
<trkpt lat="43.9044880" lon="12.6475270">
<ele>106.0550000</ele>
<time>2010-05-14T10:29:47Z</time>
<extensions>
<tp1:TrackPointExtension>
<tp1:hr>89</tp1:hr>
</tp1:TrackPointExtension>
</extensions>
</trkpt>
<trkpt lat="43.9044110" lon="12.6479270">
<ele>104.9690000</ele>
<time>2010-05-14T10:29:52Z</time>
<extensions>
<tp1:TrackPointExtension>
<tp1:hr>89</tp1:hr>
</tp1:TrackPointExtension>
</extensions>
</trkpt>
<trkpt lat="43.9043180" lon="12.6484030">
<ele>103.8380000</ele>
<time>2010-05-14T10:29:57Z</time>
<extensions>
<tp1:TrackPointExtension>
<tp1:hr>89</tp1:hr>
</tp1:TrackPointExtension>
</extensions>
</trkpt>
<trkpt lat="43.9042570" lon="12.6490580">
<ele>103.6700000</ele>
<time>2010-05-14T10:30:03Z</time>
<extensions>
<tp1:TrackPointExtension>
<tp1:hr>92</tp1:hr>
</tp1:TrackPointExtension>
</extensions>
</trkpt>
<trkpt lat="43.9041670" lon="12.6495750">
<ele>103.4320000</ele>
<time>2010-05-14T10:30:08Z</time>
<extensions>
<tp1:TrackPointExtension>
<tp1:hr>95</tp1:hr>
</tp1:TrackPointExtension>
</extensions>
</trkpt>
<trkpt lat="43.9039770" lon="12.6499070">
<ele>102.1470000</ele>
<time>2010-05-14T10:30:12Z</time>
<extensions>
<tp1:TrackPointExtension>
<tp1:hr>97</tp1:hr>
</tp1:TrackPointExtension>
</extensions>
</trkpt>
<trkpt lat="43.9038400" lon="12.6499870">
<ele>102.2540000</ele>
<time>2010-05-14T10:30:14Z</time>
<extensions>
<tp1:TrackPointExtension>
<tp1:hr>99</tp1:hr>
</tp1:TrackPointExtension>
</extensions>
</trkpt>
<trkpt lat="43.9036090" lon="12.6500900">
<ele>102.3040000</ele>
<time>2010-05-14T10:30:17Z</time>
<extensions>
<tp1:TrackPointExtension>
<tp1:hr>99</tp1:hr>
</tp1:TrackPointExtension>
</extensions>
</trkpt>
<trkpt lat="43.9033340" lon="12.6504460">
<ele>102.6660000</ele>
<time>2010-05-14T10:30:22Z</time>
<extensions>
<tp1:TrackPointExtension>
<tp1:hr>100</tp1:hr>
</tp1:TrackPointExtension>
</extensions>
</trkpt>
<trkpt lat="43.9033040" lon="12.6505410">
<ele>102.1440000</ele>
<time>2010-05-14T10:30:23Z</time>
<extensions>
<tp1:TrackPointExtension>
<tp1:hr>100</tp1:hr>
</tp1:TrackPointExtension>
</extensions>
</trkpt>
<trkpt lat="43.9030530" lon="12.6512270">
<ele>102.3580000</ele>
<time>2010-05-14T10:30:30Z</time>
<extensions>
<tp1:TrackPointExtension>
<tp1:hr>103</tp1:hr>
</tp1:TrackPointExtension>
</extensions>
</trkpt>
<trkpt lat="43.9028110" lon="12.6516290">
<ele>102.2190000</ele>
<time>2010-05-14T10:30:35Z</time>
<extensions>
<tp1:TrackPointExtension>
<tp1:hr>105</tp1:hr>
</tp1:TrackPointExtension>
</extensions>
</trkpt>
<trkpt lat="43.9027450" lon="12.6516820">
<ele>102.1800000</ele>
<time>2010-05-14T10:30:36Z</time>
<extensions>
<tp1:TrackPointExtension>
<tp1:hr>106</tp1:hr>
</tp1:TrackPointExtension>
</extensions>
</trkpt>
<trkpt lat="43.9022210" lon="12.6520640">
<ele>101.4870000</ele>
<time>2010-05-14T10:30:44Z</time>
<extensions>
<tp1:TrackPointExtension>
<tp1:hr>108</tp1:hr>
</tp1:TrackPointExtension>
</extensions>
</trkpt>
<trkpt lat="43.9018650" lon="12.6522320">
<ele>100.4890000</ele>
<time>2010-05-14T10:30:49Z</time>
<extensions>
<tp1:TrackPointExtension>
<tp1:hr>109</tp1:hr>
</tp1:TrackPointExtension>
</extensions>
</trkpt>
<trkpt lat="43.9017180" lon="12.6523010">
<ele>99.6500000</ele>
<time>2010-05-14T10:30:51Z</time>
<extensions>
<tp1:TrackPointExtension>
<tp1:hr>110</tp1:hr>
</tp1:TrackPointExtension>
</extensions>
</trkpt>
<trkpt lat="43.9014950" lon="12.6525720">
<ele>98.0160000</ele>
<time>2010-05-14T10:30:55Z</time>
<extensions>
<tp1:TrackPointExtension>
<tp1:hr>110</tp1:hr>
</tp1:TrackPointExtension>
</extensions>
</trkpt>
<trkpt lat="43.9014510" lon="12.6526670">
<ele>97.6450000</ele>
<time>2010-05-14T10:30:56Z</time>
<extensions>
<tp1:TrackPointExtension>
<tp1:hr>110</tp1:hr>
</tp1:TrackPointExtension>
</extensions>
</trkpt>
<trkpt lat="43.9013220" lon="12.6529530">
<ele>96.1210000</ele>
<time>2010-05-14T10:30:59Z</time>
<extensions>
<tp1:TrackPointExtension>
<tp1:hr>109</tp1:hr>
</tp1:TrackPointExtension>
</extensions>
</trkpt>
<trkpt lat="43.9010810" lon="12.6532550">
<ele>93.9290000</ele>
<time>2010-05-14T10:31:03Z</time>
<extensions>
<tp1:TrackPointExtension>
<tp1:hr>107</tp1:hr>
</tp1:TrackPointExtension>
</extensions>
</trkpt>
<trkpt lat="43.9010020" lon="12.6532850">
<ele>93.5940000</ele>
<time>2010-05-14T10:31:04Z</time>
<extensions>
<tp1:TrackPointExtension>
<tp1:hr>107</tp1:hr>
</tp1:TrackPointExtension>
</extensions>
</trkpt>
<trkpt lat="43.9004320" lon="12.6531780">
<ele>90.6040000</ele>
<time>2010-05-14T10:31:11Z</time>
<extensions>
<tp1:TrackPointExtension>
<tp1:hr>103</tp1:hr>
</tp1:TrackPointExtension>
</extensions>
</trkpt>
<trkpt lat="43.9001900" lon="12.6531600">
<ele>89.1230000</ele>
<time>2010-05-14T10:31:14Z</time>
<extensions>
<tp1:TrackPointExtension>
<tp1:hr>100</tp1:hr>
</tp1:TrackPointExtension>
</extensions>
</trkpt>
<trkpt lat="43.8998010" lon="12.6532020">
<ele>87.3530000</ele>
<time>2010-05-14T10:31:19Z</time>
<extensions>
<tp1:TrackPointExtension>
<tp1:hr>98</tp1:hr>
</tp1:TrackPointExtension>
</extensions>
</trkpt>
<trkpt lat="43.8995230" lon="12.6533090">
<ele>84.7480000</ele>
<time>2010-05-14T10:31:23Z</time>
<extensions>
<tp1:TrackPointExtension>
<tp1:hr>95</tp1:hr>
</tp1:TrackPointExtension>
</extensions>
</trkpt>
<trkpt lat="43.8993510" lon="12.6533750">
<ele>83.2610000</ele>
<time>2010-05-14T10:31:27Z</time>
<extensions>
<tp1:TrackPointExtension>
<tp1:hr>93</tp1:hr>
</tp1:TrackPointExtension>
</extensions>
</trkpt>
<trkpt lat="43.8992270" lon="12.6536370">
<ele>82.1360000</ele>
<time>2010-05-14T10:31:29Z</time>
<extensions>
<tp1:TrackPointExtension>
<tp1:hr>93</tp1:hr>
</tp1:TrackPointExtension>
</extensions>
</trkpt>
<trkpt lat="43.8989860" lon="12.6541210">
<ele>78.9280000</ele>
<time>2010-05-14T10:31:34Z</time>
<extensions>
<tp1:TrackPointExtension>
<tp1:hr>92</tp1:hr>
</tp1:TrackPointExtension>
</extensions>
</trkpt>
<trkpt lat="43.8989080" lon="12.6541850">
<ele>78.7270000</ele>
<time>2010-05-14T10:31:35Z</time>
<extensions>
<tp1:TrackPointExtension>
<tp1:hr>92</tp1:hr>
</tp1:TrackPointExtension>
</extensions>
</trkpt>
<trkpt lat="43.8983160" lon="12.6546470">
<ele>78.9830000</ele>
<time>2010-05-14T10:31:43Z</time>
<extensions>
<tp1:TrackPointExtension>
<tp1:hr>93</tp1:hr>
</tp1:TrackPointExtension>
</extensions>
</trkpt>
<trkpt lat="43.8979710" lon="12.6548940">
<ele>79.7610000</ele>
<time>2010-05-14T10:31:48Z</time>
<extensions>
<tp1:TrackPointExtension>
<tp1:hr>96</tp1:hr>
</tp1:TrackPointExtension>
</extensions>
</trkpt>
<trkpt lat="43.8976900" lon="12.6552260">
<ele>82.0490000</ele>
<time>2010-05-14T10:31:54Z</time>
<extensions>
<tp1:TrackPointExtension>
<tp1:hr>100</tp1:hr>
</tp1:TrackPointExtension>
</extensions>
</trkpt>
<trkpt lat="43.8974540" lon="12.6555210">
<ele>84.0310000</ele>
<time>2010-05-14T10:32:00Z</time>
<extensions>
<tp1:TrackPointExtension>
<tp1:hr>106</tp1:hr>
</tp1:TrackPointExtension>
</extensions>
</trkpt>
<trkpt lat="43.8972540" lon="12.6557700">
<ele>85.9790000</ele>
<time>2010-05-14T10:32:06Z</time>
<extensions>
<tp1:TrackPointExtension>
<tp1:hr>108</tp1:hr>
</tp1:TrackPointExtension>
</extensions>
</trkpt>
<trkpt lat="43.8970340" lon="12.6559520">
<ele>87.6320000</ele>
<time>2010-05-14T10:32:13Z</time>
<extensions>
<tp1:TrackPointExtension>
<tp1:hr>112</tp1:hr>
</tp1:TrackPointExtension>
</extensions>
</trkpt>
<trkpt lat="43.8967520" lon="12.6561810">
<ele>89.2690000</ele>
<time>2010-05-14T10:32:22Z</time>
<extensions>
<tp1:TrackPointExtension>
<tp1:hr>117</tp1:hr>
</tp1:TrackPointExtension>
</extensions>
</trkpt>
<trkpt lat="43.8965270" lon="12.6563430">
<ele>90.7710000</ele>
<time>2010-05-14T10:32:29Z</time>
<extensions>
<tp1:TrackPointExtension>
<tp1:hr>119</tp1:hr>
</tp1:TrackPointExtension>
</extensions>
</trkpt>
<trkpt lat="43.8964150" lon="12.6563650">
<ele>91.7910000</ele>
<time>2010-05-14T10:32:33Z</time>
<extensions>
<tp1:TrackPointExtension>
<tp1:hr>119</tp1:hr>
</tp1:TrackPointExtension>
</extensions>
</trkpt>
<trkpt lat="43.8963410" lon="12.6561440">
<ele>93.1750000</ele>
<time>2010-05-14T10:32:37Z</time>
<extensions>
<tp1:TrackPointExtension>
<tp1:hr>120</tp1:hr>
</tp1:TrackPointExtension>
</extensions>
</trkpt>
<trkpt lat="43.8964790" lon="12.6558680">
<ele>95.0140000</ele>
<time>2010-05-14T10:32:44Z</time>
<extensions>
<tp1:TrackPointExtension>
<tp1:hr>122</tp1:hr>
</tp1:TrackPointExtension>
</extensions>
</trkpt>
<trkpt lat="43.8966300" lon="12.6555810">
<ele>96.5210000</ele>
<time>2010-05-14T10:32:52Z</time>
<extensions>
<tp1:TrackPointExtension>
<tp1:hr>124</tp1:hr>
</tp1:TrackPointExtension>
</extensions>
</trkpt>
<trkpt lat="43.8968120" lon="12.6552320">
<ele>97.4960000</ele>
<time>2010-05-14T10:33:01Z</time>
<extensions>
<tp1:TrackPointExtension>
<tp1:hr>125</tp1:hr>
</tp1:TrackPointExtension>
</extensions>
</trkpt>
<trkpt lat="43.8968540" lon="12.6549730">
<ele>99.0330000</ele>
<time>2010-05-14T10:33:07Z</time>
<extensions>
<tp1:TrackPointExtension>
<tp1:hr>125</tp1:hr>
</tp1:TrackPointExtension>
</extensions>
</trkpt>
<trkpt lat="43.8967880" lon="12.6548100">
<ele>100.3150000</ele>
<time>2010-05-14T10:33:12Z</time>
<extensions>
<tp1:TrackPointExtension>
<tp1:hr>125</tp1:hr>
</tp1:TrackPointExtension>
</extensions>
</trkpt>
<trkpt lat="43.8966810" lon="12.6547520">
<ele>101.4190000</ele>
<time>2010-05-14T10:33:17Z</time>
<extensions>
<tp1:TrackPointExtension>
<tp1:hr>126</tp1:hr>
</tp1:TrackPointExtension>
</extensions>
</trkpt>
<trkpt lat="43.8964850" lon="12.6548330">
<ele>102.9600000</ele>
<time>2010-05-14T10:33:24Z</time>
<extensions>
<tp1:TrackPointExtension>
<tp1:hr>127</tp1:hr>
</tp1:TrackPointExtension>
</extensions>
</trkpt>
<trkpt lat="43.8962250" lon="12.6549400">
<ele>104.4020000</ele>
<time>2010-05-14T10:33:33Z</time>
<extensions>
<tp1:TrackPointExtension>
<tp1:hr>126</tp1:hr>
</tp1:TrackPointExtension>
</extensions>
</trkpt>
<trkpt lat="43.8959930" lon="12.6550350">
<ele>106.3110000</ele>
<time>2010-05-14T10:33:41Z</time>
<extensions>
<tp1:TrackPointExtension>
<tp1:hr>126</tp1:hr>
</tp1:TrackPointExtension>
</extensions>
</trkpt>
<trkpt lat="43.8957950" lon="12.6550760">
<ele>107.6220000</ele>
<time>2010-05-14T10:33:48Z</time>
<extensions>
<tp1:TrackPointExtension>
<tp1:hr>126</tp1:hr>
</tp1:TrackPointExtension>
</extensions>
</trkpt>
<trkpt lat="43.8955520" lon="12.6550310">
<ele>109.3180000</ele>
<time>2010-05-14T10:33:56Z</time>
<extensions>
<tp1:TrackPointExtension>
<tp1:hr>126</tp1:hr>
</tp1:TrackPointExtension>
</extensions>
</trkpt>
<trkpt lat="43.8953030" lon="12.6548570">
<ele>111.0260000</ele>
<time>2010-05-14T10:34:05Z</time>
<extensions>
<tp1:TrackPointExtension>
<tp1:hr>127</tp1:hr>
</tp1:TrackPointExtension>
</extensions>
</trkpt>
<trkpt lat="43.8951910" lon="12.6546680">
<ele>112.2410000</ele>
<time>2010-05-14T10:34:11Z</time>
<extensions>
<tp1:TrackPointExtension>
<tp1:hr>127</tp1:hr>
</tp1:TrackPointExtension>
</extensions>
</trkpt>
<trkpt lat="43.8951880" lon="12.6544870">
<ele>113.3580000</ele>
<time>2010-05-14T10:34:16Z</time>
<extensions>
<tp1:TrackPointExtension>
<tp1:hr>127</tp1:hr>
</tp1:TrackPointExtension>
</extensions>
</trkpt>
<trkpt lat="43.8953000" lon="12.6543520">
<ele>114.7350000</ele>
<time>2010-05-14T10:34:21Z</time>
<extensions>
<tp1:TrackPointExtension>
<tp1:hr>127</tp1:hr>
</tp1:TrackPointExtension>
</extensions>
</trkpt>
<trkpt lat="43.8955350" lon="12.6541200">
<ele>116.0330000</ele>
<time>2010-05-14T10:34:30Z</time>
<extensions>
<tp1:TrackPointExtension>
<tp1:hr>127</tp1:hr>
</tp1:TrackPointExtension>
</extensions>
</trkpt>
<trkpt lat="43.8956380" lon="12.6538390">
<ele>116.9660000</ele>
<time>2010-05-14T10:34:37Z</time>
<extensions>
<tp1:TrackPointExtension>
<tp1:hr>127</tp1:hr>
</tp1:TrackPointExtension>
</extensions>
</trkpt>
<trkpt lat="43.8956940" lon="12.6535200">
<ele>118.4240000</ele>
<time>2010-05-14T10:34:44Z</time>
<extensions>
<tp1:TrackPointExtension>
<tp1:hr>127</tp1:hr>
</tp1:TrackPointExtension>
</extensions>
</trkpt>
<trkpt lat="43.8956620" lon="12.6532160">
<ele>119.4850000</ele>
<time>2010-05-14T10:34:51Z</time>
<extensions>
<tp1:TrackPointExtension>
<tp1:hr>127</tp1:hr>
</tp1:TrackPointExtension>
</extensions>
</trkpt>
<trkpt lat="43.8954430" lon="12.6528230">
<ele>122.0040000</ele>
<time>2010-05-14T10:35:02Z</time>
<extensions>
<tp1:TrackPointExtension>
<tp1:hr>126</tp1:hr>
</tp1:TrackPointExtension>
</extensions>
</trkpt>
<trkpt lat="43.8952330" lon="12.6524560">
<ele>124.8720000</ele>
<time>2010-05-14T10:35:13Z</time>
<extensions>
<tp1:TrackPointExtension>
<tp1:hr>127</tp1:hr>
</tp1:TrackPointExtension>
</extensions>
</trkpt>
<trkpt lat="43.8950860" lon="12.6522720">
<ele>126.4140000</ele>
<time>2010-05-14T10:35:20Z</time>
<extensions>
<tp1:TrackPointExtension>
<tp1:hr>127</tp1:hr>
</tp1:TrackPointExtension>
</extensions>
</trkpt>
<trkpt lat="43.8949860" lon="12.6522830">
<ele>127.2430000</ele>
<time>2010-05-14T10:35:24Z</time>
<extensions>
<tp1:TrackPointExtension>
<tp1:hr>128</tp1:hr>
</tp1:TrackPointExtension>
</extensions>
</trkpt>
<trkpt lat="43.8949230" lon="12.6523620">
<ele>128.2890000</ele>
<time>2010-05-14T10:35:28Z</time>
<extensions>
<tp1:TrackPointExtension>
<tp1:hr>129</tp1:hr>
</tp1:TrackPointExtension>
</extensions>
</trkpt>
<trkpt lat="43.8948890" lon="12.6526570">
<ele>129.6090000</ele>
<time>2010-05-14T10:35:35Z</time>
<extensions>
<tp1:TrackPointExtension>
<tp1:hr>129</tp1:hr>
</tp1:TrackPointExtension>
</extensions>
</trkpt>
<trkpt lat="43.8948830" lon="12.6527000">
<ele>129.8760000</ele>
<time>2010-05-14T10:35:36Z</time>
<extensions>
<tp1:TrackPointExtension>
<tp1:hr>129</tp1:hr>
</tp1:TrackPointExtension>
</extensions>
</trkpt>
<trkpt lat="43.8948460" lon="12.6530230">
<ele>130.9540000</ele>
<time>2010-05-14T10:35:43Z</time>
<extensions>
<tp1:TrackPointExtension>
<tp1:hr>129</tp1:hr>
</tp1:TrackPointExtension>
</extensions>
</trkpt>
<trkpt lat="43.8948200" lon="12.6530730">
<ele>131.2760000</ele>
<time>2010-05-14T10:35:44Z</time>
<extensions>
<tp1:TrackPointExtension>
<tp1:hr>128</tp1:hr>
</tp1:TrackPointExtension>
</extensions>
</trkpt>
<trkpt lat="43.8946460" lon="12.6532880">
<ele>132.7840000</ele>
<time>2010-05-14T10:35:51Z</time>
<extensions>
<tp1:TrackPointExtension>
<tp1:hr>127</tp1:hr>
</tp1:TrackPointExtension>
</extensions>
</trkpt>
<trkpt lat="43.8944710" lon="12.6533650">
<ele>134.5740000</ele>
<time>2010-05-14T10:35:57Z</time>
<extensions>
<tp1:TrackPointExtension>
<tp1:hr>127</tp1:hr>
</tp1:TrackPointExtension>
</extensions>
</trkpt>
<trkpt lat="43.8942520" lon="12.6532620">
<ele>136.6570000</ele>
<time>2010-05-14T10:36:05Z</time>
<extensions>
<tp1:TrackPointExtension>
<tp1:hr>128</tp1:hr>
</tp1:TrackPointExtension>
</extensions>
</trkpt>
<trkpt lat="43.8940470" lon="12.6531420">
<ele>138.2570000</ele>
<time>2010-05-14T10:36:13Z</time>
<extensions>
<tp1:TrackPointExtension>
<tp1:hr>130</tp1:hr>
</tp1:TrackPointExtension>
</extensions>
</trkpt>
<trkpt lat="43.8938400" lon="12.6530260">
<ele>139.4220000</ele>
<time>2010-05-14T10:36:21Z</time>
<extensions>
<tp1:TrackPointExtension>
<tp1:hr>131</tp1:hr>
</tp1:TrackPointExtension>
</extensions>
</trkpt>
<trkpt lat="43.8935160" lon="12.6529250">
<ele>142.5360000</ele>
<time>2010-05-14T10:36:33Z</time>
<extensions>
<tp1:TrackPointExtension>
<tp1:hr>130</tp1:hr>
</tp1:TrackPointExtension>
</extensions>
</trkpt>
<trkpt lat="43.8932220" lon="12.6528340">
<ele>144.2890000</ele>
<time>2010-05-14T10:36:44Z</time>
<extensions>
<tp1:TrackPointExtension>
<tp1:hr>129</tp1:hr>
</tp1:TrackPointExtension>
</extensions>
</trkpt>
<trkpt lat="43.8929910" lon="12.6527630">
<ele>146.9990000</ele>
<time>2010-05-14T10:36:53Z</time>
<extensions>
<tp1:TrackPointExtension>
<tp1:hr>130</tp1:hr>
</tp1:TrackPointExtension>
</extensions>
</trkpt>
<trkpt lat="43.8927830" lon="12.6526980">
<ele>148.3790000</ele>
<time>2010-05-14T10:37:01Z</time>
<extensions>
<tp1:TrackPointExtension>
<tp1:hr>129</tp1:hr>
</tp1:TrackPointExtension>
</extensions>
</trkpt>
<trkpt lat="43.8925590" lon="12.6526180">
<ele>150.6810000</ele>
<time>2010-05-14T10:37:10Z</time>
<extensions>
<tp1:TrackPointExtension>
<tp1:hr>129</tp1:hr>
</tp1:TrackPointExtension>
</extensions>
</trkpt>
<trkpt lat="43.8923300" lon="12.6525780">
<ele>152.8580000</ele>
<time>2010-05-14T10:37:19Z</time>
<extensions>
<tp1:TrackPointExtension>
<tp1:hr>130</tp1:hr>
</tp1:TrackPointExtension>
</extensions>
</trkpt>
<trkpt lat="43.8921210" lon="12.6525870">
<ele>154.6070000</ele>
<time>2010-05-14T10:37:27Z</time>
<extensions>
<tp1:TrackPointExtension>
<tp1:hr>130</tp1:hr>
</tp1:TrackPointExtension>
</extensions>
</trkpt>
<trkpt lat="43.8919310" lon="12.6526680">
<ele>156.2860000</ele>
<time>2010-05-14T10:37:35Z</time>
<extensions>
<tp1:TrackPointExtension>
<tp1:hr>130</tp1:hr>
</tp1:TrackPointExtension>
</extensions>
</trkpt>
<trkpt lat="43.8917260" lon="12.6527560">
<ele>157.7950000</ele>
<time>2010-05-14T10:37:43Z</time>
<extensions>
<tp1:TrackPointExtension>
<tp1:hr>130</tp1:hr>
</tp1:TrackPointExtension>
</extensions>
</trkpt>
<trkpt lat="43.8914880" lon="12.6528960">
<ele>159.6210000</ele>
<time>2010-05-14T10:37:52Z</time>
<extensions>
<tp1:TrackPointExtension>
<tp1:hr>129</tp1:hr>
</tp1:TrackPointExtension>
</extensions>
</trkpt>
<trkpt lat="43.8913190" lon="12.6530450">
<ele>160.3310000</ele>
<time>2010-05-14T10:37:59Z</time>
<extensions>
<tp1:TrackPointExtension>
<tp1:hr>129</tp1:hr>
</tp1:TrackPointExtension>
</extensions>
</trkpt>
<trkpt lat="43.8912020" lon="12.6532990">
<ele>161.8600000</ele>
<time>2010-05-14T10:38:06Z</time>
<extensions>
<tp1:TrackPointExtension>
<tp1:hr>128</tp1:hr>
</tp1:TrackPointExtension>
</extensions>
</trkpt>
<trkpt lat="43.8911070" lon="12.6535050">
<ele>162.2940000</ele>
<time>2010-05-14T10:38:12Z</time>
<extensions>
<tp1:TrackPointExtension>
<tp1:hr>127</tp1:hr>
</tp1:TrackPointExtension>
</extensions>
</trkpt>
<trkpt lat="43.8909550" lon="12.6537020">
<ele>163.3900000</ele>
<time>2010-05-14T10:38:19Z</time>
<extensions>
<tp1:TrackPointExtension>
<tp1:hr>127</tp1:hr>
</tp1:TrackPointExtension>
</extensions>
</trkpt>
<trkpt lat="43.8907480" lon="12.6537420">
<ele>165.0080000</ele>
<time>2010-05-14T10:38:26Z</time>
<extensions>
<tp1:TrackPointExtension>
<tp1:hr>127</tp1:hr>
</tp1:TrackPointExtension>
</extensions>
</trkpt>
<trkpt lat="43.8905080" lon="12.6537280">
<ele>166.4410000</ele>
<time>2010-05-14T10:38:34Z</time>
<extensions>
<tp1:TrackPointExtension>
<tp1:hr>127</tp1:hr>
</tp1:TrackPointExtension>
</extensions>
</trkpt>
<trkpt lat="43.8902800" lon="12.6536420">
<ele>168.1830000</ele>
<time>2010-05-14T10:38:42Z</time>
<extensions>
<tp1:TrackPointExtension>
<tp1:hr>127</tp1:hr>
</tp1:TrackPointExtension>
</extensions>
</trkpt>
<trkpt lat="43.8902060" lon="12.6535150">
<ele>169.2330000</ele>
<time>2010-05-14T10:38:46Z</time>
<extensions>
<tp1:TrackPointExtension>
<tp1:hr>128</tp1:hr>
</tp1:TrackPointExtension>
</extensions>
</trkpt>
<trkpt lat="43.8902400" lon="12.6533440">
<ele>170.7920000</ele>
<time>2010-05-14T10:38:50Z</time>
<extensions>
<tp1:TrackPointExtension>
<tp1:hr>128</tp1:hr>
</tp1:TrackPointExtension>
</extensions>
</trkpt>
<trkpt lat="43.8904420" lon="12.6531960">
<ele>170.8930000</ele>
<time>2010-05-14T10:38:57Z</time>
<extensions>
<tp1:TrackPointExtension>
<tp1:hr>129</tp1:hr>
</tp1:TrackPointExtension>
</extensions>
</trkpt>
<trkpt lat="43.8905980" lon="12.6530270">
<ele>172.0330000</ele>
<time>2010-05-14T10:39:03Z</time>
<extensions>
<tp1:TrackPointExtension>
<tp1:hr>128</tp1:hr>
</tp1:TrackPointExtension>
</extensions>
</trkpt>
<trkpt lat="43.8907130" lon="12.6526820">
<ele>172.3360000</ele>
<time>2010-05-14T10:39:11Z</time>
<extensions>
<tp1:TrackPointExtension>
<tp1:hr>126</tp1:hr>
</tp1:TrackPointExtension>
</extensions>
</trkpt>
<trkpt lat="43.8908240" lon="12.6522840">
<ele>174.0850000</ele>
<time>2010-05-14T10:39:20Z</time>
<extensions>
<tp1:TrackPointExtension>
<tp1:hr>126</tp1:hr>
</tp1:TrackPointExtension>
</extensions>
</trkpt>
<trkpt lat="43.8908480" lon="12.6521970">
<ele>175.1300000</ele>
<time>2010-05-14T10:39:22Z</time>
<extensions>
<tp1:TrackPointExtension>
<tp1:hr>126</tp1:hr>
</tp1:TrackPointExtension>
</extensions>
</trkpt>
<trkpt lat="43.8909370" lon="12.6518820">
<ele>176.1570000</ele>
<time>2010-05-14T10:39:29Z</time>
<extensions>
<tp1:TrackPointExtension>
<tp1:hr>125</tp1:hr>
</tp1:TrackPointExtension>
</extensions>
</trkpt>
<trkpt lat="43.8908720" lon="12.6516700">
<ele>177.3230000</ele>
<time>2010-05-14T10:39:34Z</time>
<extensions>
<tp1:TrackPointExtension>
<tp1:hr>125</tp1:hr>
</tp1:TrackPointExtension>
</extensions>
</trkpt>
<trkpt lat="43.8907650" lon="12.6515880">
<ele>177.5490000</ele>
<time>2010-05-14T10:39:38Z</time>
<extensions>
<tp1:TrackPointExtension>
<tp1:hr>126</tp1:hr>
</tp1:TrackPointExtension>
</extensions>
</trkpt>
<trkpt lat="43.8905180" lon="12.6515150">
<ele>179.1990000</ele>
<time>2010-05-14T10:39:46Z</time>
<extensions>
<tp1:TrackPointExtension>
<tp1:hr>125</tp1:hr>
</tp1:TrackPointExtension>
</extensions>
</trkpt>
<trkpt lat="43.8902560" lon="12.6515350">
<ele>180.2550000</ele>
<time>2010-05-14T10:39:54Z</time>
<extensions>
<tp1:TrackPointExtension>
<tp1:hr>125</tp1:hr>
</tp1:TrackPointExtension>
</extensions>
</trkpt>
<trkpt lat="43.8900000" lon="12.6516740">
<ele>181.1900000</ele>
<time>2010-05-14T10:40:02Z</time>
<extensions>
<tp1:TrackPointExtension>
<tp1:hr>124</tp1:hr>
</tp1:TrackPointExtension>
</extensions>
</trkpt>
<trkpt lat="43.8898030" lon="12.6518350">
<ele>182.5710000</ele>
<time>2010-05-14T10:40:09Z</time>
<extensions>
<tp1:TrackPointExtension>
<tp1:hr>123</tp1:hr>
</tp1:TrackPointExtension>
</extensions>
</trkpt>
<trkpt lat="43.8895460" lon="12.6520450">
<ele>182.8420000</ele>
<time>2010-05-14T10:40:18Z</time>
<extensions>
<tp1:TrackPointExtension>
<tp1:hr>123</tp1:hr>
</tp1:TrackPointExtension>
</extensions>
</trkpt>
<trkpt lat="43.8893070" lon="12.6522400">
<ele>184.8310000</ele>
<time>2010-05-14T10:40:26Z</time>
<extensions>
<tp1:TrackPointExtension>
<tp1:hr>123</tp1:hr>
</tp1:TrackPointExtension>
</extensions>
</trkpt>
<trkpt lat="43.8890800" lon="12.6523650">
<ele>185.7290000</ele>
<time>2010-05-14T10:40:33Z</time>
<extensions>
<tp1:TrackPointExtension>
<tp1:hr>124</tp1:hr>
</tp1:TrackPointExtension>
</extensions>
</trkpt>
<trkpt lat="43.8888340" lon="12.6523350">
<ele>187.0040000</ele>
<time>2010-05-14T10:40:40Z</time>
<extensions>
<tp1:TrackPointExtension>
<tp1:hr>123</tp1:hr>
</tp1:TrackPointExtension>
</extensions>
</trkpt>
<trkpt lat="43.8885360" lon="12.6522160">
<ele>188.5670000</ele>
<time>2010-05-14T10:40:50Z</time>
<extensions>
<tp1:TrackPointExtension>
<tp1:hr>125</tp1:hr>
</tp1:TrackPointExtension>
</extensions>
</trkpt>
<trkpt lat="43.8883260" lon="12.6521580">
<ele>190.5460000</ele>
<time>2010-05-14T10:40:56Z</time>
<extensions>
<tp1:TrackPointExtension>
<tp1:hr>126</tp1:hr>
</tp1:TrackPointExtension>
</extensions>
</trkpt>
<trkpt lat="43.8882700" lon="12.6521980">
<ele>191.4320000</ele>
<time>2010-05-14T10:40:58Z</time>
<extensions>
<tp1:TrackPointExtension>
<tp1:hr>126</tp1:hr>
</tp1:TrackPointExtension>
</extensions>
</trkpt>
<trkpt lat="43.8880560" lon="12.6523480">
<ele>192.2400000</ele>
<time>2010-05-14T10:41:06Z</time>
<extensions>
<tp1:TrackPointExtension>
<tp1:hr>127</tp1:hr>
</tp1:TrackPointExtension>
</extensions>
</trkpt>
<trkpt lat="43.8878820" lon="12.6524180">
<ele>192.7370000</ele>
<time>2010-05-14T10:41:12Z</time>
<extensions>
<tp1:TrackPointExtension>
<tp1:hr>127</tp1:hr>
</tp1:TrackPointExtension>
</extensions>
</trkpt>
<trkpt lat="43.8876050" lon="12.6523220">
<ele>194.8890000</ele>
<time>2010-05-14T10:41:21Z</time>
<extensions>
<tp1:TrackPointExtension>
<tp1:hr>128</tp1:hr>
</tp1:TrackPointExtension>
</extensions>
</trkpt>
<trkpt lat="43.8874130" lon="12.6522090">
<ele>197.9630000</ele>
<time>2010-05-14T10:41:28Z</time>
<extensions>
<tp1:TrackPointExtension>
<tp1:hr>128</tp1:hr>
</tp1:TrackPointExtension>
</extensions>
</trkpt>
<trkpt lat="43.8872910" lon="12.6520870">
<ele>198.8830000</ele>
<time>2010-05-14T10:41:37Z</time>
<extensions>
<tp1:TrackPointExtension>
<tp1:hr>129</tp1:hr>
</tp1:TrackPointExtension>
</extensions>
</trkpt>
<trkpt lat="43.8870280" lon="12.6517810">
<ele>199.8510000</ele>
<time>2010-05-14T10:41:45Z</time>
<extensions>
<tp1:TrackPointExtension>
<tp1:hr>129</tp1:hr>
</tp1:TrackPointExtension>
</extensions>
</trkpt>
<trkpt lat="43.8867790" lon="12.6516910">
<ele>201.0690000</ele>
<time>2010-05-14T10:41:54Z</time>
<extensions>
<tp1:TrackPointExtension>
<tp1:hr>129</tp1:hr>
</tp1:TrackPointExtension>
</extensions>
</trkpt>
<trkpt lat="43.8865790" lon="12.6516410">
<ele>202.3590000</ele>
<time>2010-05-14T10:42:01Z</time>
<extensions>
<tp1:TrackPointExtension>
<tp1:hr>129</tp1:hr>
</tp1:TrackPointExtension>
</extensions>
</trkpt>
<trkpt lat="43.8863780" lon="12.6515910">
<ele>203.0210000</ele>
<time>2010-05-14T10:42:08Z</time>
<extensions>
<tp1:TrackPointExtension>
<tp1:hr>127</tp1:hr>
</tp1:TrackPointExtension>
</extensions>
</trkpt>
<trkpt lat="43.8861030" lon="12.6515140">
<ele>204.2670000</ele>
<time>2010-05-14T10:42:17Z</time>
<extensions>
<tp1:TrackPointExtension>
<tp1:hr>127</tp1:hr>
</tp1:TrackPointExtension>
</extensions>
</trkpt>
<trkpt lat="43.8858470" lon="12.6513870">
<ele>204.5330000</ele>
<time>2010-05-14T10:42:26Z</time>
<extensions>
<tp1:TrackPointExtension>
<tp1:hr>128</tp1:hr>
</tp1:TrackPointExtension>
</extensions>
</trkpt>
<trkpt lat="43.8855910" lon="12.6512290">
<ele>206.3940000</ele>
<time>2010-05-14T10:42:35Z</time>
<extensions>
<tp1:TrackPointExtension>
<tp1:hr>128</tp1:hr>
</tp1:TrackPointExtension>
</extensions>
</trkpt>
<trkpt lat="43.8854650" lon="12.6510270">
<ele>207.5880000</ele>
<time>2010-05-14T10:42:41Z</time>
<extensions>
<tp1:TrackPointExtension>
<tp1:hr>129</tp1:hr>
</tp1:TrackPointExtension>
</extensions>
</trkpt>
<trkpt lat="43.8853600" lon="12.6506890">
<ele>209.3120000</ele>
<time>2010-05-14T10:42:49Z</time>
<extensions>
<tp1:TrackPointExtension>
<tp1:hr>128</tp1:hr>
</tp1:TrackPointExtension>
</extensions>
</trkpt>
<trkpt lat="43.8852610" lon="12.6504280">
<ele>210.5100000</ele>
<time>2010-05-14T10:42:56Z</time>
<extensions>
<tp1:TrackPointExtension>
<tp1:hr>128</tp1:hr>
</tp1:TrackPointExtension>
</extensions>
</trkpt>
<trkpt lat="43.8851280" lon="12.6503710">
<ele>211.5240000</ele>
<time>2010-05-14T10:43:01Z</time>
<extensions>
<tp1:TrackPointExtension>
<tp1:hr>128</tp1:hr>
</tp1:TrackPointExtension>
</extensions>
</trkpt>
<trkpt lat="43.8850170" lon="12.6504570">
<ele>213.0610000</ele>
<time>2010-05-14T10:43:06Z</time>
<extensions>
<tp1:TrackPointExtension>
<tp1:hr>128</tp1:hr>
</tp1:TrackPointExtension>
</extensions>
</trkpt>
<trkpt lat="43.8850320" lon="12.6506220">
<ele>213.9770000</ele>
<time>2010-05-14T10:43:11Z</time>
<extensions>
<tp1:TrackPointExtension>
<tp1:hr>129</tp1:hr>
</tp1:TrackPointExtension>
</extensions>
</trkpt>
<trkpt lat="43.8850600" lon="12.6509290">
<ele>215.4910000</ele>
<time>2010-05-14T10:43:18Z</time>
<extensions>
<tp1:TrackPointExtension>
<tp1:hr>129</tp1:hr>
</tp1:TrackPointExtension>
</extensions>
</trkpt>
<trkpt lat="43.8851830" lon="12.6512130">
<ele>216.8990000</ele>
<time>2010-05-14T10:43:26Z</time>
<extensions>
<tp1:TrackPointExtension>
<tp1:hr>129</tp1:hr>
</tp1:TrackPointExtension>
</extensions>
</trkpt>
<trkpt lat="43.8854030" lon="12.6515210">
<ele>218.7490000</ele>
<time>2010-05-14T10:43:35Z</time>
<extensions>
<tp1:TrackPointExtension>
<tp1:hr>127</tp1:hr>
</tp1:TrackPointExtension>
</extensions>
</trkpt>
<trkpt lat="43.8855260" lon="12.6518520">
<ele>220.2070000</ele>
<time>2010-05-14T10:43:42Z</time>
<extensions>
<tp1:TrackPointExtension>
<tp1:hr>126</tp1:hr>
</tp1:TrackPointExtension>
</extensions>
</trkpt>
<trkpt lat="43.8854690" lon="12.6520020">
<ele>220.7360000</ele>
<time>2010-05-14T10:43:46Z</time>
<extensions>
<tp1:TrackPointExtension>
<tp1:hr>125</tp1:hr>
</tp1:TrackPointExtension>
</extensions>
</trkpt>
<trkpt lat="43.8853490" lon="12.6519870">
<ele>221.9130000</ele>
<time>2010-05-14T10:43:50Z</time>
<extensions>
<tp1:TrackPointExtension>
<tp1:hr>125</tp1:hr>
</tp1:TrackPointExtension>
</extensions>
</trkpt>
<trkpt lat="43.8850810" lon="12.6516420">
<ele>223.6730000</ele>
<time>2010-05-14T10:44:02Z</time>
<extensions>
<tp1:TrackPointExtension>
<tp1:hr>129</tp1:hr>
</tp1:TrackPointExtension>
</extensions>
</trkpt>
<trkpt lat="43.8847540" lon="12.6513090">
<ele>225.8470000</ele>
<time>2010-05-14T10:44:15Z</time>
<extensions>
<tp1:TrackPointExtension>
<tp1:hr>129</tp1:hr>
</tp1:TrackPointExtension>
</extensions>
</trkpt>
<trkpt lat="43.8845770" lon="12.6511480">
<ele>226.3880000</ele>
<time>2010-05-14T10:44:22Z</time>
<extensions>
<tp1:TrackPointExtension>
<tp1:hr>129</tp1:hr>
</tp1:TrackPointExtension>
</extensions>
</trkpt>
<trkpt lat="43.8843340" lon="12.6509320">
<ele>227.5230000</ele>
<time>2010-05-14T10:44:31Z</time>
<extensions>
<tp1:TrackPointExtension>
<tp1:hr>129</tp1:hr>
</tp1:TrackPointExtension>
</extensions>
</trkpt>
<trkpt lat="43.8841580" lon="12.6506880">
<ele>228.4510000</ele>
<time>2010-05-14T10:44:38Z</time>
<extensions>
<tp1:TrackPointExtension>
<tp1:hr>127</tp1:hr>
</tp1:TrackPointExtension>
</extensions>
</trkpt>
<trkpt lat="43.8840540" lon="12.6503700">
<ele>229.8290000</ele>
<time>2010-05-14T10:44:45Z</time>
<extensions>
<tp1:TrackPointExtension>
<tp1:hr>126</tp1:hr>
</tp1:TrackPointExtension>
</extensions>
</trkpt>
<trkpt lat="43.8839670" lon="12.6500090">
<ele>232.2690000</ele>
<time>2010-05-14T10:44:53Z</time>
<extensions>
<tp1:TrackPointExtension>
<tp1:hr>127</tp1:hr>
</tp1:TrackPointExtension>
</extensions>
</trkpt>
<trkpt lat="43.8838860" lon="12.6496710">
<ele>233.5300000</ele>
<time>2010-05-14T10:45:01Z</time>
<extensions>
<tp1:TrackPointExtension>
<tp1:hr>127</tp1:hr>
</tp1:TrackPointExtension>
</extensions>
</trkpt>
<trkpt lat="43.8837240" lon="12.6493880">
<ele>235.3930000</ele>
<time>2010-05-14T10:45:10Z</time>
<extensions>
<tp1:TrackPointExtension>
<tp1:hr>128</tp1:hr>
</tp1:TrackPointExtension>
</extensions>
</trkpt>
<trkpt lat="43.8834940" lon="12.6491100">
<ele>237.1070000</ele>
<time>2010-05-14T10:45:20Z</time>
<extensions>
<tp1:TrackPointExtension>
<tp1:hr>130</tp1:hr>
</tp1:TrackPointExtension>
</extensions>
</trkpt>
<trkpt lat="43.8832330" lon="12.6488050">
<ele>239.0060000</ele>
<time>2010-05-14T10:45:31Z</time>
<extensions>
<tp1:TrackPointExtension>
<tp1:hr>129</tp1:hr>
</tp1:TrackPointExtension>
</extensions>
</trkpt>
<trkpt lat="43.8830310" lon="12.6486320">
<ele>240.4320000</ele>
<time>2010-05-14T10:45:39Z</time>
<extensions>
<tp1:TrackPointExtension>
<tp1:hr>129</tp1:hr>
</tp1:TrackPointExtension>
</extensions>
</trkpt>
<trkpt lat="43.8828430" lon="12.6485960">
<ele>241.4020000</ele>
<time>2010-05-14T10:45:45Z</time>
<extensions>
<tp1:TrackPointExtension>
<tp1:hr>129</tp1:hr>
</tp1:TrackPointExtension>
</extensions>
</trkpt>
<trkpt lat="43.8826980" lon="12.6487450">
<ele>242.6080000</ele>
<time>2010-05-14T10:45:51Z</time>
<extensions>
<tp1:TrackPointExtension>
<tp1:hr>128</tp1:hr>
</tp1:TrackPointExtension>
</extensions>
</trkpt>
<trkpt lat="43.8826390" lon="12.6489880">
<ele>243.6870000</ele>
<time>2010-05-14T10:45:57Z</time>
<extensions>
<tp1:TrackPointExtension>
<tp1:hr>129</tp1:hr>
</tp1:TrackPointExtension>
</extensions>
</trkpt>
<trkpt lat="43.8825790" lon="12.6492420">
<ele>244.8470000</ele>
<time>2010-05-14T10:46:03Z</time>
<extensions>
<tp1:TrackPointExtension>
<tp1:hr>129</tp1:hr>
</tp1:TrackPointExtension>
</extensions>
</trkpt>
<trkpt lat="43.8825160" lon="12.6495070">
<ele>245.9180000</ele>
<time>2010-05-14T10:46:09Z</time>
<extensions>
<tp1:TrackPointExtension>
<tp1:hr>129</tp1:hr>
</tp1:TrackPointExtension>
</extensions>
</trkpt>
<trkpt lat="43.8824300" lon="12.6498620">
<ele>247.8070000</ele>
<time>2010-05-14T10:46:17Z</time>
<extensions>
<tp1:TrackPointExtension>
<tp1:hr>128</tp1:hr>
</tp1:TrackPointExtension>
</extensions>
</trkpt>
<trkpt lat="43.8822830" lon="12.6501010">
<ele>249.2490000</ele>
<time>2010-05-14T10:46:24Z</time>
<extensions>
<tp1:TrackPointExtension>
<tp1:hr>128</tp1:hr>
</tp1:TrackPointExtension>
</extensions>
</trkpt>
<trkpt lat="43.8821200" lon="12.6502310">
<ele>250.6430000</ele>
<time>2010-05-14T10:46:30Z</time>
<extensions>
<tp1:TrackPointExtension>
<tp1:hr>128</tp1:hr>
</tp1:TrackPointExtension>
</extensions>
</trkpt>
<trkpt lat="43.8819280" lon="12.6503280">
<ele>252.0620000</ele>
<time>2010-05-14T10:46:37Z</time>
<extensions>
<tp1:TrackPointExtension>
<tp1:hr>128</tp1:hr>
</tp1:TrackPointExtension>
</extensions>
</trkpt>
<trkpt lat="43.8819270" lon="12.6503280">
<ele>252.8270000</ele>
<time>2010-05-14T10:46:42Z</time>
<extensions>
<tp1:TrackPointExtension>
<tp1:hr>128</tp1:hr>
</tp1:TrackPointExtension>
</extensions>
</trkpt>
<trkpt lat="43.8817980" lon="12.6504570">
<ele>253.5950000</ele>
<time>2010-05-14T10:46:46Z</time>
<extensions>
<tp1:TrackPointExtension>
<tp1:hr>128</tp1:hr>
</tp1:TrackPointExtension>
</extensions>
</trkpt>
<trkpt lat="43.8817980" lon="12.6506710">
<ele>253.8280000</ele>
<time>2010-05-14T10:46:53Z</time>
<extensions>
<tp1:TrackPointExtension>
<tp1:hr>127</tp1:hr>
</tp1:TrackPointExtension>
</extensions>
</trkpt>
<trkpt lat="43.8820240" lon="12.6512510">
<ele>254.4120000</ele>
<time>2010-05-14T10:47:01Z</time>
<extensions>
<tp1:TrackPointExtension>
<tp1:hr>125</tp1:hr>
</tp1:TrackPointExtension>
</extensions>
</trkpt>
<trkpt lat="43.8822200" lon="12.6516440">
<ele>254.5200000</ele>
<time>2010-05-14T10:47:09Z</time>
<extensions>
<tp1:TrackPointExtension>
<tp1:hr>124</tp1:hr>
</tp1:TrackPointExtension>
</extensions>
</trkpt>
<trkpt lat="43.8823590" lon="12.6519210">
<ele>254.4690000</ele>
<time>2010-05-14T10:47:15Z</time>
<extensions>
<tp1:TrackPointExtension>
<tp1:hr>121</tp1:hr>
</tp1:TrackPointExtension>
</extensions>
</trkpt>
<trkpt lat="43.8824690" lon="12.6521410">
<ele>255.1690000</ele>
<time>2010-05-14T10:47:20Z</time>
<extensions>
<tp1:TrackPointExtension>
<tp1:hr>119</tp1:hr>
</tp1:TrackPointExtension>
</extensions>
</trkpt>
<trkpt lat="43.8825880" lon="12.6523710">
<ele>255.6020000</ele>
<time>2010-05-14T10:47:25Z</time>
<extensions>
<tp1:TrackPointExtension>
<tp1:hr>119</tp1:hr>
</tp1:TrackPointExtension>
</extensions>
</trkpt>
<trkpt lat="43.8828210" lon="12.6527200">
<ele>256.0430000</ele>
<time>2010-05-14T10:47:33Z</time>
<extensions>
<tp1:TrackPointExtension>
<tp1:hr>117</tp1:hr>
</tp1:TrackPointExtension>
</extensions>
</trkpt>
<trkpt lat="43.8830320" lon="12.6531190">
<ele>256.5600000</ele>
<time>2010-05-14T10:47:41Z</time>
<extensions>
<tp1:TrackPointExtension>
<tp1:hr>116</tp1:hr>
</tp1:TrackPointExtension>
</extensions>
</trkpt>
<trkpt lat="43.8830810" lon="12.6532280">
<ele>256.4930000</ele>
<time>2010-05-14T10:47:43Z</time>
<extensions>
<tp1:TrackPointExtension>
<tp1:hr>116</tp1:hr>
</tp1:TrackPointExtension>
</extensions>
</trkpt>
<trkpt lat="43.8831130" lon="12.6535630">
<ele>256.9450000</ele>
<time>2010-05-14T10:47:48Z</time>
<extensions>
<tp1:TrackPointExtension>
<tp1:hr>115</tp1:hr>
</tp1:TrackPointExtension>
</extensions>
</trkpt>
<trkpt lat="43.8830950" lon="12.6536280">
<ele>256.9980000</ele>
<time>2010-05-14T10:47:49Z</time>
<extensions>
<tp1:TrackPointExtension>
<tp1:hr>115</tp1:hr>
</tp1:TrackPointExtension>
</extensions>
</trkpt>
<trkpt lat="43.8829360" lon="12.6542210">
<ele>258.7240000</ele>
<time>2010-05-14T10:47:58Z</time>
<extensions>
<tp1:TrackPointExtension>
<tp1:hr>115</tp1:hr>
</tp1:TrackPointExtension>
</extensions>
</trkpt>
<trkpt lat="43.8828880" lon="12.6543980">
<ele>258.9580000</ele>
<time>2010-05-14T10:48:01Z</time>
<extensions>
<tp1:TrackPointExtension>
<tp1:hr>115</tp1:hr>
</tp1:TrackPointExtension>
</extensions>
</trkpt>
<trkpt lat="43.8827750" lon="12.6546900">
<ele>259.9360000</ele>
<time>2010-05-14T10:48:06Z</time>
<extensions>
<tp1:TrackPointExtension>
<tp1:hr>116</tp1:hr>
</tp1:TrackPointExtension>
</extensions>
</trkpt>
<trkpt lat="43.8825800" lon="12.6548060">
<ele>261.3280000</ele>
<time>2010-05-14T10:48:12Z</time>
<extensions>
<tp1:TrackPointExtension>
<tp1:hr>117</tp1:hr>
</tp1:TrackPointExtension>
</extensions>
</trkpt>
<trkpt lat="43.8823560" lon="12.6548340">
<ele>262.5140000</ele>
<time>2010-05-14T10:48:19Z</time>
<extensions>
<tp1:TrackPointExtension>
<tp1:hr>119</tp1:hr>
</tp1:TrackPointExtension>
</extensions>
</trkpt>
<trkpt lat="43.8820870" lon="12.6547090">
<ele>264.7410000</ele>
<time>2010-05-14T10:48:27Z</time>
<extensions>
<tp1:TrackPointExtension>
<tp1:hr>121</tp1:hr>
</tp1:TrackPointExtension>
</extensions>
</trkpt>
<trkpt lat="43.8818680" lon="12.6548160">
<ele>265.6380000</ele>
<time>2010-05-14T10:48:34Z</time>
<extensions>
<tp1:TrackPointExtension>
<tp1:hr>121</tp1:hr>
</tp1:TrackPointExtension>
</extensions>
</trkpt>
<trkpt lat="43.8817490" lon="12.6548960">
<ele>267.2120000</ele>
<time>2010-05-14T10:48:38Z</time>
<extensions>
<tp1:TrackPointExtension>
<tp1:hr>122</tp1:hr>
</tp1:TrackPointExtension>
</extensions>
</trkpt>
<trkpt lat="43.8815080" lon="12.6550560">
<ele>268.2120000</ele>
<time>2010-05-14T10:48:46Z</time>
<extensions>
<tp1:TrackPointExtension>
<tp1:hr>124</tp1:hr>
</tp1:TrackPointExtension>
</extensions>
</trkpt>
<trkpt lat="43.8813910" lon="12.6552830">
<ele>270.3710000</ele>
<time>2010-05-14T10:48:53Z</time>
<extensions>
<tp1:TrackPointExtension>
<tp1:hr>125</tp1:hr>
</tp1:TrackPointExtension>
</extensions>
</trkpt>
<trkpt lat="43.8813950" lon="12.6554250">
<ele>271.6630000</ele>
<time>2010-05-14T10:48:58Z</time>
<extensions>
<tp1:TrackPointExtension>
<tp1:hr>125</tp1:hr>
</tp1:TrackPointExtension>
</extensions>
</trkpt>
<trkpt lat="43.8814550" lon="12.6557620">
<ele>273.1640000</ele>
<time>2010-05-14T10:49:05Z</time>
<extensions>
<tp1:TrackPointExtension>
<tp1:hr>126</tp1:hr>
</tp1:TrackPointExtension>
</extensions>
</trkpt>
<trkpt lat="43.8814200" lon="12.6560050">
<ele>274.0900000</ele>
<time>2010-05-14T10:49:10Z</time>
<extensions>
<tp1:TrackPointExtension>
<tp1:hr>126</tp1:hr>
</tp1:TrackPointExtension>
</extensions>
</trkpt>
<trkpt lat="43.8812470" lon="12.6562060">
<ele>274.7420000</ele>
<time>2010-05-14T10:49:16Z</time>
<extensions>
<tp1:TrackPointExtension>
<tp1:hr>127</tp1:hr>
</tp1:TrackPointExtension>
</extensions>
</trkpt>
<trkpt lat="43.8811100" lon="12.6563490">
<ele>275.4180000</ele>
<time>2010-05-14T10:49:22Z</time>
<extensions>
<tp1:TrackPointExtension>
<tp1:hr>126</tp1:hr>
</tp1:TrackPointExtension>
</extensions>
</trkpt>
<trkpt lat="43.8809760" lon="12.6564880">
<ele>275.8640000</ele>
<time>2010-05-14T10:49:28Z</time>
<extensions>
<tp1:TrackPointExtension>
<tp1:hr>123</tp1:hr>
</tp1:TrackPointExtension>
</extensions>
</trkpt>
<trkpt lat="43.8809600" lon="12.6565050">
<ele>275.8290000</ele>
<time>2010-05-14T10:49:30Z</time>
<extensions>
<tp1:TrackPointExtension>
<tp1:hr>122</tp1:hr>
</tp1:TrackPointExtension>
</extensions>
</trkpt>
</trkseg>
<trkseg>
<trkpt lat="43.8809370" lon="12.6565280">
<ele>275.2890000</ele>
<time>2010-05-14T10:49:50Z</time>
<extensions>
<tp1:TrackPointExtension>
<tp1:hr>111</tp1:hr>
</tp1:TrackPointExtension>
</extensions>
</trkpt>
<trkpt lat="43.8808910" lon="12.6565770">
<ele>276.7350000</ele>
<time>2010-05-14T10:49:54Z</time>
<extensions>
<tp1:TrackPointExtension>
<tp1:hr>112</tp1:hr>
</tp1:TrackPointExtension>
</extensions>
</trkpt>
<trkpt lat="43.8807920" lon="12.6564780">
<ele>277.1440000</ele>
<time>2010-05-14T10:50:00Z</time>
<extensions>
<tp1:TrackPointExtension>
<tp1:hr>111</tp1:hr>
</tp1:TrackPointExtension>
</extensions>
</trkpt>
<trkpt lat="43.8807860" lon="12.6564860">
<ele>277.0410000</ele>
<time>2010-05-14T10:50:01Z</time>
<extensions>
<tp1:TrackPointExtension>
<tp1:hr>111</tp1:hr>
</tp1:TrackPointExtension>
</extensions>
</trkpt>
<trkpt lat="43.8808270" lon="12.6566430">
<ele>277.8320000</ele>
<time>2010-05-14T10:50:10Z</time>
<extensions>
<tp1:TrackPointExtension>
<tp1:hr>109</tp1:hr>
</tp1:TrackPointExtension>
</extensions>
</trkpt>
<trkpt lat="43.8808270" lon="12.6566430">
<ele>277.6170000</ele>
<time>2010-05-14T10:50:17Z</time>
<extensions>
<tp1:TrackPointExtension>
<tp1:hr>109</tp1:hr>
</tp1:TrackPointExtension>
</extensions>
</trkpt>
</trkseg>
<trkseg>
<trkpt lat="43.8808270" lon="12.6566430">
<ele>278.5410000</ele>
<time>2010-05-14T10:50:30Z</time>
<extensions>
<tp1:TrackPointExtension>
<tp1:hr>109</tp1:hr>
</tp1:TrackPointExtension>
</extensions>
</trkpt>
</trkseg>
<trkseg>
<trkpt lat="43.8808270" lon="12.6566430">
<ele>278.7560000</ele>
<time>2010-05-14T10:53:10Z</time>
<extensions>
<tp1:TrackPointExtension>
<tp1:hr>92</tp1:hr>
</tp1:TrackPointExtension>
</extensions>
</trkpt>
</trkseg>
<trkseg>
<trkpt lat="43.8808270" lon="12.6566430">
<ele>278.2100000</ele>
<time>2010-05-14T10:53:57Z</time>
<extensions>
<tp1:TrackPointExtension>
<tp1:hr>88</tp1:hr>
</tp1:TrackPointExtension>
</extensions>
</trkpt>
</trkseg>
<trkseg>
<trkpt lat="43.8808270" lon="12.6566430">
<ele>272.0880000</ele>
<time>2010-05-14T10:54:02Z</time>
<extensions>
<tp1:TrackPointExtension>
<tp1:hr>89</tp1:hr>
</tp1:TrackPointExtension>
</extensions>
</trkpt>
<trkpt lat="43.8808270" lon="12.6566430">
<ele>272.0820000</ele>
<time>2010-05-14T10:54:03Z</time>
<extensions>
<tp1:TrackPointExtension>
<tp1:hr>88</tp1:hr>
</tp1:TrackPointExtension>
</extensions>
</trkpt>
</trkseg>
<trkseg>
<trkpt lat="43.8808270" lon="12.6566430">
<ele>279.1850000</ele>
<time>2010-05-14T10:55:25Z</time>
</trkpt>
</trkseg>
<trkseg>
<trkpt lat="43.8808270" lon="12.6566430">
<ele>278.5490000</ele>
<time>2010-05-14T10:57:55Z</time>
<extensions>
<tp1:TrackPointExtension>
<tp1:hr>77</tp1:hr>
</tp1:TrackPointExtension>
</extensions>
</trkpt>
<trkpt lat="43.8808270" lon="12.6566430">
<ele>278.4860000</ele>
<time>2010-05-14T10:57:56Z</time>
<extensions>
<tp1:TrackPointExtension>
<tp1:hr>77</tp1:hr>
</tp1:TrackPointExtension>
</extensions>
</trkpt>
<trkpt lat="43.8808270" lon="12.6566430">
<ele>278.4460000</ele>
<time>2010-05-14T10:57:57Z</time>
<extensions>
<tp1:TrackPointExtension>
<tp1:hr>77</tp1:hr>
</tp1:TrackPointExtension>
</extensions>
</trkpt>
</trkseg>
<trkseg>
<trkpt lat="43.8808270" lon="12.6566430">
<ele>278.7900000</ele>
<time>2010-05-14T10:58:56Z</time>
<extensions>
<tp1:TrackPointExtension>
<tp1:hr>78</tp1:hr>
</tp1:TrackPointExtension>
</extensions>
</trkpt>
<trkpt lat="43.8808270" lon="12.6566430">
<ele>278.7080000</ele>
<time>2010-05-14T10:58:59Z</time>
<extensions>
<tp1:TrackPointExtension>
<tp1:hr>77</tp1:hr>
</tp1:TrackPointExtension>
</extensions>
</trkpt>
</trkseg>
<trkseg>
<trkpt lat="43.8807810" lon="12.6566910">
<ele>278.6780000</ele>
<time>2010-05-14T10:59:07Z</time>
<extensions>
<tp1:TrackPointExtension>
<tp1:hr>77</tp1:hr>
</tp1:TrackPointExtension>
</extensions>
</trkpt>
<trkpt lat="43.8807380" lon="12.6567360">
<ele>278.9440000</ele>
<time>2010-05-14T10:59:12Z</time>
<extensions>
<tp1:TrackPointExtension>
<tp1:hr>78</tp1:hr>
</tp1:TrackPointExtension>
</extensions>
</trkpt>
</trkseg>
<trkseg>
<trkpt lat="43.8807380" lon="12.6567360">
<ele>279.3120000</ele>
<time>2010-05-14T10:59:54Z</time>
</trkpt>
</trkseg>
<trkseg>
<trkpt lat="43.8807380" lon="12.6567360">
<ele>279.6520000</ele>
<time>2010-05-14T11:00:20Z</time>
</trkpt>
<trkpt lat="43.8807380" lon="12.6567360">
<ele>279.5660000</ele>
<time>2010-05-14T11:00:24Z</time>
</trkpt>
</trkseg>
<trkseg>
<trkpt lat="43.8807380" lon="12.6567360">
<ele>279.1930000</ele>
<time>2010-05-14T11:00:30Z</time>
<extensions>
<tp1:TrackPointExtension>
<tp1:hr>80</tp1:hr>
</tp1:TrackPointExtension>
</extensions>
</trkpt>
</trkseg>
<trkseg>
<trkpt lat="43.8807880" lon="12.6566840">
<ele>279.5890000</ele>
<time>2010-05-14T11:00:49Z</time>
<extensions>
<tp1:TrackPointExtension>
<tp1:hr>78</tp1:hr>
</tp1:TrackPointExtension>
</extensions>
</trkpt>
<trkpt lat="43.8807880" lon="12.6566840">
<ele>279.8960000</ele>
<time>2010-05-14T11:00:51Z</time>
<extensions>
<tp1:TrackPointExtension>
<tp1:hr>78</tp1:hr>
</tp1:TrackPointExtension>
</extensions>
</trkpt>
</trkseg>
<trkseg>
<trkpt lat="43.8807880" lon="12.6566840">
<ele>279.7010000</ele>
<time>2010-05-14T11:01:37Z</time>
</trkpt>
</trkseg>
<trkseg>
<trkpt lat="43.8807880" lon="12.6566840">
<ele>279.4130000</ele>
<time>2010-05-14T11:02:27Z</time>
<extensions>
<tp1:TrackPointExtension>
<tp1:hr>78</tp1:hr>
</tp1:TrackPointExtension>
</extensions>
</trkpt>
<trkpt lat="43.8807880" lon="12.6566840">
<ele>279.3490000</ele>
<time>2010-05-14T11:02:30Z</time>
<extensions>
<tp1:TrackPointExtension>
<tp1:hr>78</tp1:hr>
</tp1:TrackPointExtension>
</extensions>
</trkpt>
</trkseg>
<trkseg>
<trkpt lat="43.8807880" lon="12.6566840">
<ele>279.3890000</ele>
<time>2010-05-14T11:02:46Z</time>
<extensions>
<tp1:TrackPointExtension>
<tp1:hr>79</tp1:hr>
</tp1:TrackPointExtension>
</extensions>
</trkpt>
</trkseg>
<trkseg>
<trkpt lat="43.8809650" lon="12.6564990">
<ele>279.7440000</ele>
<time>2010-05-14T11:02:55Z</time>
<extensions>
<tp1:TrackPointExtension>
<tp1:hr>82</tp1:hr>
</tp1:TrackPointExtension>
</extensions>
</trkpt>
<trkpt lat="43.8809650" lon="12.6564990">
<ele>279.6120000</ele>
<time>2010-05-14T11:02:56Z</time>
<extensions>
<tp1:TrackPointExtension>
<tp1:hr>81</tp1:hr>
</tp1:TrackPointExtension>
</extensions>
</trkpt>
</trkseg>
<trkseg>
<trkpt lat="43.8809650" lon="12.6564990">
<ele>279.7490000</ele>
<time>2010-05-14T11:03:22Z</time>
</trkpt>
</trkseg>
<trkseg>
<trkpt lat="43.8809760" lon="12.6564880">
<ele>279.9640000</ele>
<time>2010-05-14T11:03:45Z</time>
</trkpt>
<trkpt lat="43.8809760" lon="12.6564880">
<ele>279.9740000</ele>
<time>2010-05-14T11:03:46Z</time>
</trkpt>
</trkseg>
<trkseg>
<trkpt lat="43.8809760" lon="12.6564880">
<ele>279.4750000</ele>
<time>2010-05-14T11:03:51Z</time>
</trkpt>
</trkseg>
<trkseg>
<trkpt lat="43.8809760" lon="12.6564880">
<ele>279.0610000</ele>
<time>2010-05-14T11:04:37Z</time>
</trkpt>
</trkseg>
<trkseg>
<trkpt lat="43.8809760" lon="12.6564880">
<ele>279.5100000</ele>
<time>2010-05-14T11:04:50Z</time>
</trkpt>
</trkseg>
<trkseg>
<trkpt lat="43.8809760" lon="12.6564880">
<ele>279.2890000</ele>
<time>2010-05-14T11:04:55Z</time>
</trkpt>
<trkpt lat="43.8809760" lon="12.6564880">
<ele>279.1610000</ele>
<time>2010-05-14T11:04:57Z</time>
</trkpt>
</trkseg>
<trkseg>
<trkpt lat="43.8809760" lon="12.6564880">
<ele>279.6160000</ele>
<time>2010-05-14T11:06:42Z</time>
<extensions>
<tp1:TrackPointExtension>
<tp1:hr>82</tp1:hr>
</tp1:TrackPointExtension>
</extensions>
</trkpt>
</trkseg>
<trkseg>
<trkpt lat="43.8808890" lon="12.6565780">
<ele>279.4520000</ele>
<time>2010-05-14T11:06:48Z</time>
<extensions>
<tp1:TrackPointExtension>
<tp1:hr>82</tp1:hr>
</tp1:TrackPointExtension>
</extensions>
</trkpt>
<trkpt lat="43.8808890" lon="12.6565780">
<ele>279.5130000</ele>
<time>2010-05-14T11:06:50Z</time>
<extensions>
<tp1:TrackPointExtension>
<tp1:hr>82</tp1:hr>
</tp1:TrackPointExtension>
</extensions>
</trkpt>
</trkseg>
<trkseg>
<trkpt lat="43.8808890" lon="12.6565780">
<ele>279.4500000</ele>
<time>2010-05-14T11:07:15Z</time>
<extensions>
<tp1:TrackPointExtension>
<tp1:hr>81</tp1:hr>
</tp1:TrackPointExtension>
</extensions>
</trkpt>
</trkseg>
<trkseg>
<trkpt lat="43.8808490" lon="12.6566200">
<ele>278.0720000</ele>
<time>2010-05-14T11:07:39Z</time>
<extensions>
<tp1:TrackPointExtension>
<tp1:hr>83</tp1:hr>
</tp1:TrackPointExtension>
</extensions>
</trkpt>
<trkpt lat="43.8808490" lon="12.6566200">
<ele>277.3060000</ele>
<time>2010-05-14T11:07:45Z</time>
<extensions>
<tp1:TrackPointExtension>
<tp1:hr>86</tp1:hr>
</tp1:TrackPointExtension>
</extensions>
</trkpt>
<trkpt lat="43.8808860" lon="12.6565820">
<ele>276.8180000</ele>
<time>2010-05-14T11:07:50Z</time>
<extensions>
<tp1:TrackPointExtension>
<tp1:hr>88</tp1:hr>
</tp1:TrackPointExtension>
</extensions>
</trkpt>
<trkpt lat="43.8809120" lon="12.6565360">
<ele>276.3170000</ele>
<time>2010-05-14T11:07:59Z</time>
<extensions>
<tp1:TrackPointExtension>
<tp1:hr>89</tp1:hr>
</tp1:TrackPointExtension>
</extensions>
</trkpt>
<trkpt lat="43.8809070" lon="12.6565600">
<ele>276.3220000</ele>
<time>2010-05-14T11:08:06Z</time>
<extensions>
<tp1:TrackPointExtension>
<tp1:hr>91</tp1:hr>
</tp1:TrackPointExtension>
</extensions>
</trkpt>
</trkseg>
<trkseg>
<trkpt lat="43.8808550" lon="12.6566140">
<ele>276.3080000</ele>
<time>2010-05-14T11:08:16Z</time>
<extensions>
<tp1:TrackPointExtension>
<tp1:hr>91</tp1:hr>
</tp1:TrackPointExtension>
</extensions>
</trkpt>
<trkpt lat="43.8807330" lon="12.6567420">
<ele>276.8410000</ele>
<time>2010-05-14T11:08:22Z</time>
<extensions>
<tp1:TrackPointExtension>
<tp1:hr>93</tp1:hr>
</tp1:TrackPointExtension>
</extensions>
</trkpt>
<trkpt lat="43.8805740" lon="12.6569070">
<ele>277.2530000</ele>
<time>2010-05-14T11:08:28Z</time>
<extensions>
<tp1:TrackPointExtension>
<tp1:hr>98</tp1:hr>
</tp1:TrackPointExtension>
</extensions>
</trkpt>
<trkpt lat="43.8803540" lon="12.6571360">
<ele>278.0770000</ele>
<time>2010-05-14T11:08:35Z</time>
<extensions>
<tp1:TrackPointExtension>
<tp1:hr>103</tp1:hr>
</tp1:TrackPointExtension>
</extensions>
</trkpt>
<trkpt lat="43.8800990" lon="12.6574240">
<ele>277.3830000</ele>
<time>2010-05-14T11:08:42Z</time>
<extensions>
<tp1:TrackPointExtension>
<tp1:hr>105</tp1:hr>
</tp1:TrackPointExtension>
</extensions>
</trkpt>
<trkpt lat="43.8797970" lon="12.6577660">
<ele>276.8130000</ele>
<time>2010-05-14T11:08:49Z</time>
<extensions>
<tp1:TrackPointExtension>
<tp1:hr>108</tp1:hr>
</tp1:TrackPointExtension>
</extensions>
</trkpt>
<trkpt lat="43.8797040" lon="12.6578710">
<ele>276.6370000</ele>
<time>2010-05-14T11:08:51Z</time>
<extensions>
<tp1:TrackPointExtension>
<tp1:hr>109</tp1:hr>
</tp1:TrackPointExtension>
</extensions>
</trkpt>
<trkpt lat="43.8795570" lon="12.6579840">
<ele>276.9620000</ele>
<time>2010-05-14T11:08:54Z</time>
<extensions>
<tp1:TrackPointExtension>
<tp1:hr>109</tp1:hr>
</tp1:TrackPointExtension>
</extensions>
</trkpt>
<trkpt lat="43.8791950" lon="12.6580530">
<ele>276.1150000</ele>
<time>2010-05-14T11:09:01Z</time>
<extensions>
<tp1:TrackPointExtension>
<tp1:hr>109</tp1:hr>
</tp1:TrackPointExtension>
</extensions>
</trkpt>
<trkpt lat="43.8787900" lon="12.6580150">
<ele>276.9210000</ele>
<time>2010-05-14T11:09:09Z</time>
<extensions>
<tp1:TrackPointExtension>
<tp1:hr>110</tp1:hr>
</tp1:TrackPointExtension>
</extensions>
</trkpt>
<trkpt lat="43.8784020" lon="12.6579340">
<ele>278.8810000</ele>
<time>2010-05-14T11:09:18Z</time>
<extensions>
<tp1:TrackPointExtension>
<tp1:hr>113</tp1:hr>
</tp1:TrackPointExtension>
</extensions>
</trkpt>
<trkpt lat="43.8779840" lon="12.6578460">
<ele>280.3450000</ele>
<time>2010-05-14T11:09:28Z</time>
<extensions>
<tp1:TrackPointExtension>
<tp1:hr>116</tp1:hr>
</tp1:TrackPointExtension>
</extensions>
</trkpt>
<trkpt lat="43.8775610" lon="12.6577570">
<ele>281.7420000</ele>
<time>2010-05-14T11:09:38Z</time>
<extensions>
<tp1:TrackPointExtension>
<tp1:hr>118</tp1:hr>
</tp1:TrackPointExtension>
</extensions>
</trkpt>
<trkpt lat="43.8773050" lon="12.6577150">
<ele>282.3800000</ele>
<time>2010-05-14T11:09:44Z</time>
<extensions>
<tp1:TrackPointExtension>
<tp1:hr>118</tp1:hr>
</tp1:TrackPointExtension>
</extensions>
</trkpt>
<trkpt lat="43.8770890" lon="12.6578000">
<ele>284.3750000</ele>
<time>2010-05-14T11:09:50Z</time>
<extensions>
<tp1:TrackPointExtension>
<tp1:hr>119</tp1:hr>
</tp1:TrackPointExtension>
</extensions>
</trkpt>
<trkpt lat="43.8770020" lon="12.6579300">
<ele>284.6890000</ele>
<time>2010-05-14T11:09:53Z</time>
<extensions>
<tp1:TrackPointExtension>
<tp1:hr>119</tp1:hr>
</tp1:TrackPointExtension>
</extensions>
</trkpt>
<trkpt lat="43.8768050" lon="12.6583320">
<ele>285.4450000</ele>
<time>2010-05-14T11:10:01Z</time>
<extensions>
<tp1:TrackPointExtension>
<tp1:hr>122</tp1:hr>
</tp1:TrackPointExtension>
</extensions>
</trkpt>
<trkpt lat="43.8767340" lon="12.6586240">
<ele>286.2970000</ele>
<time>2010-05-14T11:10:06Z</time>
<extensions>
<tp1:TrackPointExtension>
<tp1:hr>122</tp1:hr>
</tp1:TrackPointExtension>
</extensions>
</trkpt>
<trkpt lat="43.8767340" lon="12.6591520">
<ele>286.9170000</ele>
<time>2010-05-14T11:10:14Z</time>
<extensions>
<tp1:TrackPointExtension>
<tp1:hr>122</tp1:hr>
</tp1:TrackPointExtension>
</extensions>
</trkpt>
<trkpt lat="43.8767340" lon="12.6596020">
<ele>285.8900000</ele>
<time>2010-05-14T11:10:20Z</time>
<extensions>
<tp1:TrackPointExtension>
<tp1:hr>121</tp1:hr>
</tp1:TrackPointExtension>
</extensions>
</trkpt>
<trkpt lat="43.8766190" lon="12.6600170">
<ele>284.9100000</ele>
<time>2010-05-14T11:10:25Z</time>
<extensions>
<tp1:TrackPointExtension>
<tp1:hr>119</tp1:hr>
</tp1:TrackPointExtension>
</extensions>
</trkpt>
<trkpt lat="43.8762360" lon="12.6607540">
<ele>284.5840000</ele>
<time>2010-05-14T11:10:35Z</time>
<extensions>
<tp1:TrackPointExtension>
<tp1:hr>117</tp1:hr>
</tp1:TrackPointExtension>
</extensions>
</trkpt>
<trkpt lat="43.8760490" lon="12.6610960">
<ele>284.8470000</ele>
<time>2010-05-14T11:10:40Z</time>
<extensions>
<tp1:TrackPointExtension>
<tp1:hr>117</tp1:hr>
</tp1:TrackPointExtension>
</extensions>
</trkpt>
<trkpt lat="43.8757640" lon="12.6614780">
<ele>285.8890000</ele>
<time>2010-05-14T11:10:47Z</time>
<extensions>
<tp1:TrackPointExtension>
<tp1:hr>118</tp1:hr>
</tp1:TrackPointExtension>
</extensions>
</trkpt>
<trkpt lat="43.8754300" lon="12.6618380">
<ele>287.8980000</ele>
<time>2010-05-14T11:10:56Z</time>
<extensions>
<tp1:TrackPointExtension>
<tp1:hr>119</tp1:hr>
</tp1:TrackPointExtension>
</extensions>
</trkpt>
<trkpt lat="43.8751890" lon="12.6620440">
<ele>289.6050000</ele>
<time>2010-05-14T11:11:03Z</time>
<extensions>
<tp1:TrackPointExtension>
<tp1:hr>120</tp1:hr>
</tp1:TrackPointExtension>
</extensions>
</trkpt>
<trkpt lat="43.8748490" lon="12.6622710">
<ele>292.4190000</ele>
<time>2010-05-14T11:11:12Z</time>
<extensions>
<tp1:TrackPointExtension>
<tp1:hr>122</tp1:hr>
</tp1:TrackPointExtension>
</extensions>
</trkpt>
<trkpt lat="43.8745750" lon="12.6624530">
<ele>293.3230000</ele>
<time>2010-05-14T11:11:19Z</time>
<extensions>
<tp1:TrackPointExtension>
<tp1:hr>123</tp1:hr>
</tp1:TrackPointExtension>
</extensions>
</trkpt>
<trkpt lat="43.8743200" lon="12.6628920">
<ele>294.0670000</ele>
<time>2010-05-14T11:11:28Z</time>
<extensions>
<tp1:TrackPointExtension>
<tp1:hr>123</tp1:hr>
</tp1:TrackPointExtension>
</extensions>
</trkpt>
<trkpt lat="43.8742450" lon="12.6630310">
<ele>294.3040000</ele>
<time>2010-05-14T11:11:32Z</time>
<extensions>
<tp1:TrackPointExtension>
<tp1:hr>123</tp1:hr>
</tp1:TrackPointExtension>
</extensions>
</trkpt>
<trkpt lat="43.8742080" lon="12.6633990">
<ele>294.9770000</ele>
<time>2010-05-14T11:11:37Z</time>
<extensions>
<tp1:TrackPointExtension>
<tp1:hr>123</tp1:hr>
</tp1:TrackPointExtension>
</extensions>
</trkpt>
<trkpt lat="43.8742660" lon="12.6639560">
<ele>298.2940000</ele>
<time>2010-05-14T11:11:48Z</time>
<extensions>
<tp1:TrackPointExtension>
<tp1:hr>126</tp1:hr>
</tp1:TrackPointExtension>
</extensions>
</trkpt>
<trkpt lat="43.8743560" lon="12.6644280">
<ele>300.8890000</ele>
<time>2010-05-14T11:11:58Z</time>
<extensions>
<tp1:TrackPointExtension>
<tp1:hr>127</tp1:hr>
</tp1:TrackPointExtension>
</extensions>
</trkpt>
<trkpt lat="43.8744250" lon="12.6648780">
<ele>302.4840000</ele>
<time>2010-05-14T11:12:07Z</time>
<extensions>
<tp1:TrackPointExtension>
<tp1:hr>127</tp1:hr>
</tp1:TrackPointExtension>
</extensions>
</trkpt>
<trkpt lat="43.8744490" lon="12.6652310">
<ele>303.9180000</ele>
<time>2010-05-14T11:12:14Z</time>
<extensions>
<tp1:TrackPointExtension>
<tp1:hr>129</tp1:hr>
</tp1:TrackPointExtension>
</extensions>
</trkpt>
<trkpt lat="43.8744600" lon="12.6657590">
<ele>305.8830000</ele>
<time>2010-05-14T11:12:24Z</time>
<extensions>
<tp1:TrackPointExtension>
<tp1:hr>129</tp1:hr>
</tp1:TrackPointExtension>
</extensions>
</trkpt>
<trkpt lat="43.8744600" lon="12.6659920">
<ele>307.9950000</ele>
<time>2010-05-14T11:12:32Z</time>
<extensions>
<tp1:TrackPointExtension>
<tp1:hr>130</tp1:hr>
</tp1:TrackPointExtension>
</extensions>
</trkpt>
<trkpt lat="43.8744600" lon="12.6666060">
<ele>310.5750000</ele>
<time>2010-05-14T11:12:42Z</time>
<extensions>
<tp1:TrackPointExtension>
<tp1:hr>131</tp1:hr>
</tp1:TrackPointExtension>
</extensions>
</trkpt>
<trkpt lat="43.8744600" lon="12.6669840">
<ele>313.1510000</ele>
<time>2010-05-14T11:12:51Z</time>
<extensions>
<tp1:TrackPointExtension>
<tp1:hr>132</tp1:hr>
</tp1:TrackPointExtension>
</extensions>
</trkpt>
<trkpt lat="43.8744600" lon="12.6674550">
<ele>314.9650000</ele>
<time>2010-05-14T11:13:02Z</time>
<extensions>
<tp1:TrackPointExtension>
<tp1:hr>132</tp1:hr>
</tp1:TrackPointExtension>
</extensions>
</trkpt>
<trkpt lat="43.8744600" lon="12.6677680">
<ele>317.1330000</ele>
<time>2010-05-14T11:13:10Z</time>
<extensions>
<tp1:TrackPointExtension>
<tp1:hr>133</tp1:hr>
</tp1:TrackPointExtension>
</extensions>
</trkpt>
<trkpt lat="43.8744030" lon="12.6681090">
<ele>318.9420000</ele>
<time>2010-05-14T11:13:18Z</time>
<extensions>
<tp1:TrackPointExtension>
<tp1:hr>133</tp1:hr>
</tp1:TrackPointExtension>
</extensions>
</trkpt>
<trkpt lat="43.8743310" lon="12.6683520">
<ele>320.7980000</ele>
<time>2010-05-14T11:13:27Z</time>
<extensions>
<tp1:TrackPointExtension>
<tp1:hr>133</tp1:hr>
</tp1:TrackPointExtension>
</extensions>
</trkpt>
<trkpt lat="43.8742450" lon="12.6684380">
<ele>320.1920000</ele>
<time>2010-05-14T11:13:32Z</time>
<extensions>
<tp1:TrackPointExtension>
<tp1:hr>133</tp1:hr>
</tp1:TrackPointExtension>
</extensions>
</trkpt>
<trkpt lat="43.8745460" lon="12.6687200">
<ele>318.4050000</ele>
<time>2010-05-14T11:13:37Z</time>
<extensions>
<tp1:TrackPointExtension>
<tp1:hr>131</tp1:hr>
</tp1:TrackPointExtension>
</extensions>
</trkpt>
<trkpt lat="43.8745460" lon="12.6691330">
<ele>316.0040000</ele>
<time>2010-05-14T11:13:44Z</time>
<extensions>
<tp1:TrackPointExtension>
<tp1:hr>127</tp1:hr>
</tp1:TrackPointExtension>
</extensions>
</trkpt>
<trkpt lat="43.8745290" lon="12.6695670">
<ele>314.0250000</ele>
<time>2010-05-14T11:13:50Z</time>
<extensions>
<tp1:TrackPointExtension>
<tp1:hr>126</tp1:hr>
</tp1:TrackPointExtension>
</extensions>
</trkpt>
<trkpt lat="43.8744500" lon="12.6700040">
<ele>312.1130000</ele>
<time>2010-05-14T11:13:56Z</time>
<extensions>
<tp1:TrackPointExtension>
<tp1:hr>121</tp1:hr>
</tp1:TrackPointExtension>
</extensions>
</trkpt>
<trkpt lat="43.8742790" lon="12.6703800">
<ele>310.0200000</ele>
<time>2010-05-14T11:14:01Z</time>
<extensions>
<tp1:TrackPointExtension>
<tp1:hr>118</tp1:hr>
</tp1:TrackPointExtension>
</extensions>
</trkpt>
<trkpt lat="43.8742440" lon="12.6704640">
<ele>309.7290000</ele>
<time>2010-05-14T11:14:02Z</time>
<extensions>
<tp1:TrackPointExtension>
<tp1:hr>117</tp1:hr>
</tp1:TrackPointExtension>
</extensions>
</trkpt>
<trkpt lat="43.8740410" lon="12.6709460">
<ele>307.5070000</ele>
<time>2010-05-14T11:14:08Z</time>
<extensions>
<tp1:TrackPointExtension>
<tp1:hr>114</tp1:hr>
</tp1:TrackPointExtension>
</extensions>
</trkpt>
<trkpt lat="43.8738520" lon="12.6714920">
<ele>305.0490000</ele>
<time>2010-05-14T11:14:15Z</time>
<extensions>
<tp1:TrackPointExtension>
<tp1:hr>107</tp1:hr>
</tp1:TrackPointExtension>
</extensions>
</trkpt>
<trkpt lat="43.8737380" lon="12.6718280">
<ele>303.4170000</ele>
<time>2010-05-14T11:14:19Z</time>
<extensions>
<tp1:TrackPointExtension>
<tp1:hr>105</tp1:hr>
</tp1:TrackPointExtension>
</extensions>
</trkpt>
<trkpt lat="43.8735400" lon="12.6724060">
<ele>301.3790000</ele>
<time>2010-05-14T11:14:26Z</time>
<extensions>
<tp1:TrackPointExtension>
<tp1:hr>103</tp1:hr>
</tp1:TrackPointExtension>
</extensions>
</trkpt>
<trkpt lat="43.8734280" lon="12.6727370">
<ele>300.0540000</ele>
<time>2010-05-14T11:14:30Z</time>
<extensions>
<tp1:TrackPointExtension>
<tp1:hr>100</tp1:hr>
</tp1:TrackPointExtension>
</extensions>
</trkpt>
<trkpt lat="43.8733110" lon="12.6732260">
<ele>296.8530000</ele>
<time>2010-05-14T11:14:36Z</time>
<extensions>
<tp1:TrackPointExtension>
<tp1:hr>99</tp1:hr>
</tp1:TrackPointExtension>
</extensions>
</trkpt>
<trkpt lat="43.8731880" lon="12.6737380">
<ele>293.9590000</ele>
<time>2010-05-14T11:14:42Z</time>
<extensions>
<tp1:TrackPointExtension>
<tp1:hr>99</tp1:hr>
</tp1:TrackPointExtension>
</extensions>
</trkpt>
<trkpt lat="43.8731700" lon="12.6738270">
<ele>293.6870000</ele>
<time>2010-05-14T11:14:43Z</time>
<extensions>
<tp1:TrackPointExtension>
<tp1:hr>100</tp1:hr>
</tp1:TrackPointExtension>
</extensions>
</trkpt>
<trkpt lat="43.8731350" lon="12.6742360">
<ele>291.6830000</ele>
<time>2010-05-14T11:14:47Z</time>
<extensions>
<tp1:TrackPointExtension>
<tp1:hr>100</tp1:hr>
</tp1:TrackPointExtension>
</extensions>
</trkpt>
<trkpt lat="43.8732760" lon="12.6748580">
<ele>288.9960000</ele>
<time>2010-05-14T11:14:53Z</time>
<extensions>
<tp1:TrackPointExtension>
<tp1:hr>99</tp1:hr>
</tp1:TrackPointExtension>
</extensions>
</trkpt>
<trkpt lat="43.8735030" lon="12.6755690">
<ele>286.3550000</ele>
<time>2010-05-14T11:15:00Z</time>
<extensions>
<tp1:TrackPointExtension>
<tp1:hr>99</tp1:hr>
</tp1:TrackPointExtension>
</extensions>
</trkpt>
<trkpt lat="43.8736940" lon="12.6761670">
<ele>284.1070000</ele>
<time>2010-05-14T11:15:06Z</time>
<extensions>
<tp1:TrackPointExtension>
<tp1:hr>99</tp1:hr>
</tp1:TrackPointExtension>
</extensions>
</trkpt>
<trkpt lat="43.8737510" lon="12.6763460">
<ele>283.4180000</ele>
<time>2010-05-14T11:15:08Z</time>
<extensions>
<tp1:TrackPointExtension>
<tp1:hr>100</tp1:hr>
</tp1:TrackPointExtension>
</extensions>
</trkpt>
<trkpt lat="43.8739070" lon="12.6766400">
<ele>281.9540000</ele>
<time>2010-05-14T11:15:12Z</time>
<extensions>
<tp1:TrackPointExtension>
<tp1:hr>98</tp1:hr>
</tp1:TrackPointExtension>
</extensions>
</trkpt>
<trkpt lat="43.8741520" lon="12.6766430">
<ele>280.5070000</ele>
<time>2010-05-14T11:15:16Z</time>
<extensions>
<tp1:TrackPointExtension>
<tp1:hr>99</tp1:hr>
</tp1:TrackPointExtension>
</extensions>
</trkpt>
<trkpt lat="43.8742580" lon="12.6766020">
<ele>279.5750000</ele>
<time>2010-05-14T11:15:18Z</time>
<extensions>
<tp1:TrackPointExtension>
<tp1:hr>98</tp1:hr>
</tp1:TrackPointExtension>
</extensions>
</trkpt>
<trkpt lat="43.8746930" lon="12.6763460">
<ele>276.2640000</ele>
<time>2010-05-14T11:15:25Z</time>
<extensions>
<tp1:TrackPointExtension>
<tp1:hr>99</tp1:hr>
</tp1:TrackPointExtension>
</extensions>
</trkpt>
<trkpt lat="43.8748290" lon="12.6762660">
<ele>275.2240000</ele>
<time>2010-05-14T11:15:27Z</time>
<extensions>
<tp1:TrackPointExtension>
<tp1:hr>100</tp1:hr>
</tp1:TrackPointExtension>
</extensions>
</trkpt>
<trkpt lat="43.8749530" lon="12.6761830">
<ele>274.3690000</ele>
<time>2010-05-14T11:15:29Z</time>
<extensions>
<tp1:TrackPointExtension>
<tp1:hr>101</tp1:hr>
</tp1:TrackPointExtension>
</extensions>
</trkpt>
<trkpt lat="43.8752590" lon="12.6758380">
<ele>271.6280000</ele>
<time>2010-05-14T11:15:35Z</time>
<extensions>
<tp1:TrackPointExtension>
<tp1:hr>101</tp1:hr>
</tp1:TrackPointExtension>
</extensions>
</trkpt>
<trkpt lat="43.8755670" lon="12.6750380">
<ele>267.6350000</ele>
<time>2010-05-14T11:15:45Z</time>
<extensions>
<tp1:TrackPointExtension>
<tp1:hr>98</tp1:hr>
</tp1:TrackPointExtension>
</extensions>
</trkpt>
<trkpt lat="43.8757460" lon="12.6745360">
<ele>264.7300000</ele>
<time>2010-05-14T11:15:51Z</time>
<extensions>
<tp1:TrackPointExtension>
<tp1:hr>98</tp1:hr>
</tp1:TrackPointExtension>
</extensions>
</trkpt>
<trkpt lat="43.8757370" lon="12.6742870">
<ele>263.4600000</ele>
<time>2010-05-14T11:15:54Z</time>
<extensions>
<tp1:TrackPointExtension>
<tp1:hr>99</tp1:hr>
</tp1:TrackPointExtension>
</extensions>
</trkpt>
<trkpt lat="43.8757300" lon="12.6741090">
<ele>262.5380000</ele>
<time>2010-05-14T11:15:56Z</time>
<extensions>
<tp1:TrackPointExtension>
<tp1:hr>99</tp1:hr>
</tp1:TrackPointExtension>
</extensions>
</trkpt>
<trkpt lat="43.8757060" lon="12.6735050">
<ele>259.9260000</ele>
<time>2010-05-14T11:16:03Z</time>
<extensions>
<tp1:TrackPointExtension>
<tp1:hr>97</tp1:hr>
</tp1:TrackPointExtension>
</extensions>
</trkpt>
<trkpt lat="43.8757070" lon="12.6734220">
<ele>259.6790000</ele>
<time>2010-05-14T11:16:04Z</time>
<extensions>
<tp1:TrackPointExtension>
<tp1:hr>98</tp1:hr>
</tp1:TrackPointExtension>
</extensions>
</trkpt>
<trkpt lat="43.8757700" lon="12.6728390">
<ele>256.6350000</ele>
<time>2010-05-14T11:16:10Z</time>
<extensions>
<tp1:TrackPointExtension>
<tp1:hr>97</tp1:hr>
</tp1:TrackPointExtension>
</extensions>
</trkpt>
<trkpt lat="43.8758400" lon="12.6725190">
<ele>255.0230000</ele>
<time>2010-05-14T11:16:13Z</time>
<extensions>
<tp1:TrackPointExtension>
<tp1:hr>97</tp1:hr>
</tp1:TrackPointExtension>
</extensions>
</trkpt>
<trkpt lat="43.8759340" lon="12.6720840">
<ele>252.9170000</ele>
<time>2010-05-14T11:16:17Z</time>
<extensions>
<tp1:TrackPointExtension>
<tp1:hr>96</tp1:hr>
</tp1:TrackPointExtension>
</extensions>
</trkpt>
<trkpt lat="43.8759940" lon="12.6718920">
<ele>252.3950000</ele>
<time>2010-05-14T11:16:19Z</time>
<extensions>
<tp1:TrackPointExtension>
<tp1:hr>96</tp1:hr>
</tp1:TrackPointExtension>
</extensions>
</trkpt>
<trkpt lat="43.8761160" lon="12.6716480">
<ele>250.9200000</ele>
<time>2010-05-14T11:16:22Z</time>
<extensions>
<tp1:TrackPointExtension>
<tp1:hr>95</tp1:hr>
</tp1:TrackPointExtension>
</extensions>
</trkpt>
<trkpt lat="43.8763660" lon="12.6714010">
<ele>248.6670000</ele>
<time>2010-05-14T11:16:26Z</time>
<extensions>
<tp1:TrackPointExtension>
<tp1:hr>95</tp1:hr>
</tp1:TrackPointExtension>
</extensions>
</trkpt>
<trkpt lat="43.8765210" lon="12.6712990">
<ele>247.4700000</ele>
<time>2010-05-14T11:16:28Z</time>
<extensions>
<tp1:TrackPointExtension>
<tp1:hr>95</tp1:hr>
</tp1:TrackPointExtension>
</extensions>
</trkpt>
<trkpt lat="43.8773540" lon="12.6711610">
<ele>242.2310000</ele>
<time>2010-05-14T11:16:37Z</time>
<extensions>
<tp1:TrackPointExtension>
<tp1:hr>96</tp1:hr>
</tp1:TrackPointExtension>
</extensions>
</trkpt>
<trkpt lat="43.8778360" lon="12.6710940">
<ele>239.2720000</ele>
<time>2010-05-14T11:16:42Z</time>
<extensions>
<tp1:TrackPointExtension>
<tp1:hr>97</tp1:hr>
</tp1:TrackPointExtension>
</extensions>
</trkpt>
<trkpt lat="43.8781830" lon="12.6710340">
<ele>237.1870000</ele>
<time>2010-05-14T11:16:46Z</time>
<extensions>
<tp1:TrackPointExtension>
<tp1:hr>96</tp1:hr>
</tp1:TrackPointExtension>
</extensions>
</trkpt>
<trkpt lat="43.8786630" lon="12.6709510">
<ele>234.6220000</ele>
<time>2010-05-14T11:16:52Z</time>
<extensions>
<tp1:TrackPointExtension>
<tp1:hr>96</tp1:hr>
</tp1:TrackPointExtension>
</extensions>
</trkpt>
<trkpt lat="43.8788020" lon="12.6709270">
<ele>233.6470000</ele>
<time>2010-05-14T11:16:54Z</time>
<extensions>
<tp1:TrackPointExtension>
<tp1:hr>95</tp1:hr>
</tp1:TrackPointExtension>
</extensions>
</trkpt>
<trkpt lat="43.8790540" lon="12.6708820">
<ele>231.9980000</ele>
<time>2010-05-14T11:16:58Z</time>
<extensions>
<tp1:TrackPointExtension>
<tp1:hr>94</tp1:hr>
</tp1:TrackPointExtension>
</extensions>
</trkpt>
<trkpt lat="43.8791680" lon="12.6707540">
<ele>229.9210000</ele>
<time>2010-05-14T11:17:00Z</time>
<extensions>
<tp1:TrackPointExtension>
<tp1:hr>94</tp1:hr>
</tp1:TrackPointExtension>
</extensions>
</trkpt>
<trkpt lat="43.8794110" lon="12.6704800">
<ele>228.3250000</ele>
<time>2010-05-14T11:17:04Z</time>
<extensions>
<tp1:TrackPointExtension>
<tp1:hr>94</tp1:hr>
</tp1:TrackPointExtension>
</extensions>
</trkpt>
<trkpt lat="43.8795330" lon="12.6703430">
<ele>227.1070000</ele>
<time>2010-05-14T11:17:06Z</time>
<extensions>
<tp1:TrackPointExtension>
<tp1:hr>95</tp1:hr>
</tp1:TrackPointExtension>
</extensions>
</trkpt>
<trkpt lat="43.8798870" lon="12.6700670">
<ele>224.7000000</ele>
<time>2010-05-14T11:17:11Z</time>
<extensions>
<tp1:TrackPointExtension>
<tp1:hr>95</tp1:hr>
</tp1:TrackPointExtension>
</extensions>
</trkpt>
<trkpt lat="43.8799670" lon="12.6700430">
<ele>224.0350000</ele>
<time>2010-05-14T11:17:12Z</time>
<extensions>
<tp1:TrackPointExtension>
<tp1:hr>95</tp1:hr>
</tp1:TrackPointExtension>
</extensions>
</trkpt>
<trkpt lat="43.8803950" lon="12.6699150">
<ele>221.9670000</ele>
<time>2010-05-14T11:17:18Z</time>
<extensions>
<tp1:TrackPointExtension>
<tp1:hr>94</tp1:hr>
</tp1:TrackPointExtension>
</extensions>
</trkpt>
<trkpt lat="43.8805290" lon="12.6698750">
<ele>221.2950000</ele>
<time>2010-05-14T11:17:20Z</time>
<extensions>
<tp1:TrackPointExtension>
<tp1:hr>94</tp1:hr>
</tp1:TrackPointExtension>
</extensions>
</trkpt>
<trkpt lat="43.8808140" lon="12.6696060">
<ele>218.7210000</ele>
<time>2010-05-14T11:17:25Z</time>
<extensions>
<tp1:TrackPointExtension>
<tp1:hr>93</tp1:hr>
</tp1:TrackPointExtension>
</extensions>
</trkpt>
<trkpt lat="43.8809070" lon="12.6694630">
<ele>217.6660000</ele>
<time>2010-05-14T11:17:27Z</time>
<extensions>
<tp1:TrackPointExtension>
<tp1:hr>93</tp1:hr>
</tp1:TrackPointExtension>
</extensions>
</trkpt>
<trkpt lat="43.8809740" lon="12.6691470">
<ele>216.2650000</ele>
<time>2010-05-14T11:17:30Z</time>
<extensions>
<tp1:TrackPointExtension>
<tp1:hr>92</tp1:hr>
</tp1:TrackPointExtension>
</extensions>
</trkpt>
<trkpt lat="43.8810680" lon="12.6687070">
<ele>214.2230000</ele>
<time>2010-05-14T11:17:34Z</time>
<extensions>
<tp1:TrackPointExtension>
<tp1:hr>92</tp1:hr>
</tp1:TrackPointExtension>
</extensions>
</trkpt>
<trkpt lat="43.8812250" lon="12.6679860">
<ele>211.5250000</ele>
<time>2010-05-14T11:17:41Z</time>
<extensions>
<tp1:TrackPointExtension>
<tp1:hr>92</tp1:hr>
</tp1:TrackPointExtension>
</extensions>
</trkpt>
<trkpt lat="43.8812690" lon="12.6678100">
<ele>210.7140000</ele>
<time>2010-05-14T11:17:43Z</time>
<extensions>
<tp1:TrackPointExtension>
<tp1:hr>92</tp1:hr>
</tp1:TrackPointExtension>
</extensions>
</trkpt>
<trkpt lat="43.8813750" lon="12.6675310">
<ele>209.5830000</ele>
<time>2010-05-14T11:17:47Z</time>
<extensions>
<tp1:TrackPointExtension>
<tp1:hr>93</tp1:hr>
</tp1:TrackPointExtension>
</extensions>
</trkpt>
<trkpt lat="43.8814950" lon="12.6674780">
<ele>208.6280000</ele>
<time>2010-05-14T11:17:49Z</time>
<extensions>
<tp1:TrackPointExtension>
<tp1:hr>93</tp1:hr>
</tp1:TrackPointExtension>
</extensions>
</trkpt>
<trkpt lat="43.8816070" lon="12.6676780">
<ele>207.4320000</ele>
<time>2010-05-14T11:17:52Z</time>
<extensions>
<tp1:TrackPointExtension>
<tp1:hr>92</tp1:hr>
</tp1:TrackPointExtension>
</extensions>
</trkpt>
<trkpt lat="43.8816220" lon="12.6677660">
<ele>206.9050000</ele>
<time>2010-05-14T11:17:53Z</time>
<extensions>
<tp1:TrackPointExtension>
<tp1:hr>92</tp1:hr>
</tp1:TrackPointExtension>
</extensions>
</trkpt>
<trkpt lat="43.8816170" lon="12.6681810">
<ele>204.5770000</ele>
<time>2010-05-14T11:17:57Z</time>
<extensions>
<tp1:TrackPointExtension>
<tp1:hr>92</tp1:hr>
</tp1:TrackPointExtension>
</extensions>
</trkpt>
<trkpt lat="43.8816060" lon="12.6686110">
<ele>202.6860000</ele>
<time>2010-05-14T11:18:01Z</time>
<extensions>
<tp1:TrackPointExtension>
<tp1:hr>91</tp1:hr>
</tp1:TrackPointExtension>
</extensions>
</trkpt>
<trkpt lat="43.8815890" lon="12.6692500">
<ele>199.6870000</ele>
<time>2010-05-14T11:18:07Z</time>
<extensions>
<tp1:TrackPointExtension>
<tp1:hr>91</tp1:hr>
</tp1:TrackPointExtension>
</extensions>
</trkpt>
<trkpt lat="43.8815840" lon="12.6694550">
<ele>199.0050000</ele>
<time>2010-05-14T11:18:09Z</time>
<extensions>
<tp1:TrackPointExtension>
<tp1:hr>91</tp1:hr>
</tp1:TrackPointExtension>
</extensions>
</trkpt>
<trkpt lat="43.8816880" lon="12.6698490">
<ele>196.8650000</ele>
<time>2010-05-14T11:18:14Z</time>
<extensions>
<tp1:TrackPointExtension>
<tp1:hr>92</tp1:hr>
</tp1:TrackPointExtension>
</extensions>
</trkpt>
<trkpt lat="43.8818390" lon="12.6701080">
<ele>194.9960000</ele>
<time>2010-05-14T11:18:18Z</time>
<extensions>
<tp1:TrackPointExtension>
<tp1:hr>91</tp1:hr>
</tp1:TrackPointExtension>
</extensions>
</trkpt>
<trkpt lat="43.8818410" lon="12.6701120">
<ele>194.5320000</ele>
<time>2010-05-14T11:18:19Z</time>
<extensions>
<tp1:TrackPointExtension>
<tp1:hr>91</tp1:hr>
</tp1:TrackPointExtension>
</extensions>
</trkpt>
<trkpt lat="43.8824620" lon="12.6703580">
<ele>190.7910000</ele>
<time>2010-05-14T11:18:27Z</time>
<extensions>
<tp1:TrackPointExtension>
<tp1:hr>90</tp1:hr>
</tp1:TrackPointExtension>
</extensions>
</trkpt>
<trkpt lat="43.8828480" lon="12.6706390">
<ele>187.6050000</ele>
<time>2010-05-14T11:18:32Z</time>
<extensions>
<tp1:TrackPointExtension>
<tp1:hr>91</tp1:hr>
</tp1:TrackPointExtension>
</extensions>
</trkpt>
<trkpt lat="43.8830080" lon="12.6707700">
<ele>186.7810000</ele>
<time>2010-05-14T11:18:34Z</time>
<extensions>
<tp1:TrackPointExtension>
<tp1:hr>91</tp1:hr>
</tp1:TrackPointExtension>
</extensions>
</trkpt>
<trkpt lat="43.8834660" lon="12.6712210">
<ele>184.6240000</ele>
<time>2010-05-14T11:18:40Z</time>
<extensions>
<tp1:TrackPointExtension>
<tp1:hr>93</tp1:hr>
</tp1:TrackPointExtension>
</extensions>
</trkpt>
<trkpt lat="43.8838270" lon="12.6715480">
<ele>184.1710000</ele>
<time>2010-05-14T11:18:45Z</time>
<extensions>
<tp1:TrackPointExtension>
<tp1:hr>91</tp1:hr>
</tp1:TrackPointExtension>
</extensions>
</trkpt>
<trkpt lat="43.8842720" lon="12.6718100">
<ele>184.5350000</ele>
<time>2010-05-14T11:18:51Z</time>
<extensions>
<tp1:TrackPointExtension>
<tp1:hr>91</tp1:hr>
</tp1:TrackPointExtension>
</extensions>
</trkpt>
<trkpt lat="43.8846790" lon="12.6720490">
<ele>184.9750000</ele>
<time>2010-05-14T11:18:57Z</time>
<extensions>
<tp1:TrackPointExtension>
<tp1:hr>91</tp1:hr>
</tp1:TrackPointExtension>
</extensions>
</trkpt>
<trkpt lat="43.8852930" lon="12.6725240">
<ele>181.7800000</ele>
<time>2010-05-14T11:19:06Z</time>
<extensions>
<tp1:TrackPointExtension>
<tp1:hr>93</tp1:hr>
</tp1:TrackPointExtension>
</extensions>
</trkpt>
<trkpt lat="43.8860150" lon="12.6729490">
<ele>178.8580000</ele>
<time>2010-05-14T11:19:15Z</time>
<extensions>
<tp1:TrackPointExtension>
<tp1:hr>94</tp1:hr>
</tp1:TrackPointExtension>
</extensions>
</trkpt>
<trkpt lat="43.8865750" lon="12.6732590">
<ele>177.7760000</ele>
<time>2010-05-14T11:19:22Z</time>
<extensions>
<tp1:TrackPointExtension>
<tp1:hr>93</tp1:hr>
</tp1:TrackPointExtension>
</extensions>
</trkpt>
<trkpt lat="43.8872590" lon="12.6736110">
<ele>177.2130000</ele>
<time>2010-05-14T11:19:31Z</time>
<extensions>
<tp1:TrackPointExtension>
<tp1:hr>95</tp1:hr>
</tp1:TrackPointExtension>
</extensions>
</trkpt>
<trkpt lat="43.8879790" lon="12.6739140">
<ele>176.2850000</ele>
<time>2010-05-14T11:19:40Z</time>
<extensions>
<tp1:TrackPointExtension>
<tp1:hr>98</tp1:hr>
</tp1:TrackPointExtension>
</extensions>
</trkpt>
<trkpt lat="43.8884870" lon="12.6740900">
<ele>174.2680000</ele>
<time>2010-05-14T11:19:46Z</time>
<extensions>
<tp1:TrackPointExtension>
<tp1:hr>98</tp1:hr>
</tp1:TrackPointExtension>
</extensions>
</trkpt>
<trkpt lat="43.8886550" lon="12.6741530">
<ele>173.6380000</ele>
<time>2010-05-14T11:19:48Z</time>
<extensions>
<tp1:TrackPointExtension>
<tp1:hr>97</tp1:hr>
</tp1:TrackPointExtension>
</extensions>
</trkpt>
<trkpt lat="43.8891310" lon="12.6743620">
<ele>173.3010000</ele>
<time>2010-05-14T11:19:54Z</time>
<extensions>
<tp1:TrackPointExtension>
<tp1:hr>97</tp1:hr>
</tp1:TrackPointExtension>
</extensions>
</trkpt>
<trkpt lat="43.8894800" lon="12.6746180">
<ele>173.4280000</ele>
<time>2010-05-14T11:20:00Z</time>
<extensions>
<tp1:TrackPointExtension>
<tp1:hr>98</tp1:hr>
</tp1:TrackPointExtension>
</extensions>
</trkpt>
<trkpt lat="43.8898230" lon="12.6751470">
<ele>174.9270000</ele>
<time>2010-05-14T11:20:06Z</time>
<extensions>
<tp1:TrackPointExtension>
<tp1:hr>101</tp1:hr>
</tp1:TrackPointExtension>
</extensions>
</trkpt>
<trkpt lat="43.8900820" lon="12.6756210">
<ele>177.2950000</ele>
<time>2010-05-14T11:20:13Z</time>
<extensions>
<tp1:TrackPointExtension>
<tp1:hr>104</tp1:hr>
</tp1:TrackPointExtension>
</extensions>
</trkpt>
<trkpt lat="43.8904350" lon="12.6762190">
<ele>180.3100000</ele>
<time>2010-05-14T11:20:23Z</time>
<extensions>
<tp1:TrackPointExtension>
<tp1:hr>108</tp1:hr>
</tp1:TrackPointExtension>
</extensions>
</trkpt>
<trkpt lat="43.8906570" lon="12.6765850">
<ele>182.5110000</ele>
<time>2010-05-14T11:20:30Z</time>
<extensions>
<tp1:TrackPointExtension>
<tp1:hr>113</tp1:hr>
</tp1:TrackPointExtension>
</extensions>
</trkpt>
<trkpt lat="43.8909210" lon="12.6770220">
<ele>183.7120000</ele>
<time>2010-05-14T11:20:38Z</time>
<extensions>
<tp1:TrackPointExtension>
<tp1:hr>115</tp1:hr>
</tp1:TrackPointExtension>
</extensions>
</trkpt>
<trkpt lat="43.8912830" lon="12.6774500">
<ele>184.7170000</ele>
<time>2010-05-14T11:20:47Z</time>
<extensions>
<tp1:TrackPointExtension>
<tp1:hr>117</tp1:hr>
</tp1:TrackPointExtension>
</extensions>
</trkpt>
<trkpt lat="43.8916260" lon="12.6777710">
<ele>184.1170000</ele>
<time>2010-05-14T11:20:54Z</time>
<extensions>
<tp1:TrackPointExtension>
<tp1:hr>117</tp1:hr>
</tp1:TrackPointExtension>
</extensions>
</trkpt>
<trkpt lat="43.8919340" lon="12.6780660">
<ele>181.9060000</ele>
<time>2010-05-14T11:20:59Z</time>
<extensions>
<tp1:TrackPointExtension>
<tp1:hr>117</tp1:hr>
</tp1:TrackPointExtension>
</extensions>
</trkpt>
<trkpt lat="43.8922350" lon="12.6786420">
<ele>180.2150000</ele>
<time>2010-05-14T11:21:05Z</time>
<extensions>
<tp1:TrackPointExtension>
<tp1:hr>117</tp1:hr>
</tp1:TrackPointExtension>
</extensions>
</trkpt>
<trkpt lat="43.8927580" lon="12.6794410">
<ele>180.2740000</ele>
<time>2010-05-14T11:21:14Z</time>
<extensions>
<tp1:TrackPointExtension>
<tp1:hr>117</tp1:hr>
</tp1:TrackPointExtension>
</extensions>
</trkpt>
<trkpt lat="43.8931400" lon="12.6798260">
<ele>180.3400000</ele>
<time>2010-05-14T11:21:20Z</time>
<extensions>
<tp1:TrackPointExtension>
<tp1:hr>116</tp1:hr>
</tp1:TrackPointExtension>
</extensions>
</trkpt>
<trkpt lat="43.8935810" lon="12.6801900">
<ele>180.7240000</ele>
<time>2010-05-14T11:21:27Z</time>
<extensions>
<tp1:TrackPointExtension>
<tp1:hr>115</tp1:hr>
</tp1:TrackPointExtension>
</extensions>
</trkpt>
<trkpt lat="43.8939000" lon="12.6804540">
<ele>178.2850000</ele>
<time>2010-05-14T11:21:34Z</time>
<extensions>
<tp1:TrackPointExtension>
<tp1:hr>115</tp1:hr>
</tp1:TrackPointExtension>
</extensions>
</trkpt>
<trkpt lat="43.8947450" lon="12.6810420">
<ele>176.2590000</ele>
<time>2010-05-14T11:21:42Z</time>
<extensions>
<tp1:TrackPointExtension>
<tp1:hr>110</tp1:hr>
</tp1:TrackPointExtension>
</extensions>
</trkpt>
<trkpt lat="43.8951500" lon="12.6813340">
<ele>175.9120000</ele>
<time>2010-05-14T11:21:47Z</time>
<extensions>
<tp1:TrackPointExtension>
<tp1:hr>105</tp1:hr>
</tp1:TrackPointExtension>
</extensions>
</trkpt>
<trkpt lat="43.8957110" lon="12.6817240">
<ele>173.4770000</ele>
<time>2010-05-14T11:21:54Z</time>
<extensions>
<tp1:TrackPointExtension>
<tp1:hr>100</tp1:hr>
</tp1:TrackPointExtension>
</extensions>
</trkpt>
<trkpt lat="43.8961550" lon="12.6820270">
<ele>172.1310000</ele>
<time>2010-05-14T11:22:00Z</time>
<extensions>
<tp1:TrackPointExtension>
<tp1:hr>97</tp1:hr>
</tp1:TrackPointExtension>
</extensions>
</trkpt>
<trkpt lat="43.8964390" lon="12.6822190">
<ele>171.7050000</ele>
<time>2010-05-14T11:22:05Z</time>
<extensions>
<tp1:TrackPointExtension>
<tp1:hr>95</tp1:hr>
</tp1:TrackPointExtension>
</extensions>
</trkpt>
<trkpt lat="43.8966380" lon="12.6823510">
<ele>171.5230000</ele>
<time>2010-05-14T11:22:10Z</time>
<extensions>
<tp1:TrackPointExtension>
<tp1:hr>92</tp1:hr>
</tp1:TrackPointExtension>
</extensions>
</trkpt>
<trkpt lat="43.8967480" lon="12.6824240">
<ele>171.2550000</ele>
<time>2010-05-14T11:22:14Z</time>
<extensions>
<tp1:TrackPointExtension>
<tp1:hr>92</tp1:hr>
</tp1:TrackPointExtension>
</extensions>
</trkpt>
<trkpt lat="43.8968440" lon="12.6824590">
<ele>170.9090000</ele>
<time>2010-05-14T11:22:19Z</time>
<extensions>
<tp1:TrackPointExtension>
<tp1:hr>93</tp1:hr>
</tp1:TrackPointExtension>
</extensions>
</trkpt>
<trkpt lat="43.8971070" lon="12.6823270">
<ele>169.8040000</ele>
<time>2010-05-14T11:22:24Z</time>
<extensions>
<tp1:TrackPointExtension>
<tp1:hr>100</tp1:hr>
</tp1:TrackPointExtension>
</extensions>
</trkpt>
<trkpt lat="43.8975090" lon="12.6821260">
<ele>166.9560000</ele>
<time>2010-05-14T11:22:30Z</time>
<extensions>
<tp1:TrackPointExtension>
<tp1:hr>99</tp1:hr>
</tp1:TrackPointExtension>
</extensions>
</trkpt>
<trkpt lat="43.8977670" lon="12.6819240">
<ele>165.1200000</ele>
<time>2010-05-14T11:22:34Z</time>
<extensions>
<tp1:TrackPointExtension>
<tp1:hr>98</tp1:hr>
</tp1:TrackPointExtension>
</extensions>
</trkpt>
<trkpt lat="43.8978830" lon="12.6818210">
<ele>164.5100000</ele>
<time>2010-05-14T11:22:36Z</time>
<extensions>
<tp1:TrackPointExtension>
<tp1:hr>97</tp1:hr>
</tp1:TrackPointExtension>
</extensions>
</trkpt>
<trkpt lat="43.8981190" lon="12.6816940">
<ele>162.9140000</ele>
<time>2010-05-14T11:22:40Z</time>
<extensions>
<tp1:TrackPointExtension>
<tp1:hr>97</tp1:hr>
</tp1:TrackPointExtension>
</extensions>
</trkpt>
<trkpt lat="43.8981890" lon="12.6816910">
<ele>162.2690000</ele>
<time>2010-05-14T11:22:41Z</time>
<extensions>
<tp1:TrackPointExtension>
<tp1:hr>97</tp1:hr>
</tp1:TrackPointExtension>
</extensions>
</trkpt>
<trkpt lat="43.8988540" lon="12.6816590">
<ele>159.0190000</ele>
<time>2010-05-14T11:22:50Z</time>
<extensions>
<tp1:TrackPointExtension>
<tp1:hr>94</tp1:hr>
</tp1:TrackPointExtension>
</extensions>
</trkpt>
<trkpt lat="43.8989220" lon="12.6816560">
<ele>158.2330000</ele>
<time>2010-05-14T11:22:51Z</time>
<extensions>
<tp1:TrackPointExtension>
<tp1:hr>94</tp1:hr>
</tp1:TrackPointExtension>
</extensions>
</trkpt>
<trkpt lat="43.8991450" lon="12.6815440">
<ele>156.3290000</ele>
<time>2010-05-14T11:22:55Z</time>
<extensions>
<tp1:TrackPointExtension>
<tp1:hr>93</tp1:hr>
</tp1:TrackPointExtension>
</extensions>
</trkpt>
<trkpt lat="43.8992220" lon="12.6814260">
<ele>155.8320000</ele>
<time>2010-05-14T11:22:57Z</time>
<extensions>
<tp1:TrackPointExtension>
<tp1:hr>92</tp1:hr>
</tp1:TrackPointExtension>
</extensions>
</trkpt>
<trkpt lat="43.8992220" lon="12.6812500">
<ele>154.5060000</ele>
<time>2010-05-14T11:22:59Z</time>
<extensions>
<tp1:TrackPointExtension>
<tp1:hr>90</tp1:hr>
</tp1:TrackPointExtension>
</extensions>
</trkpt>
<trkpt lat="43.8990480" lon="12.6808610">
<ele>153.0640000</ele>
<time>2010-05-14T11:23:03Z</time>
<extensions>
<tp1:TrackPointExtension>
<tp1:hr>90</tp1:hr>
</tp1:TrackPointExtension>
</extensions>
</trkpt>
<trkpt lat="43.8989640" lon="12.6805710">
<ele>151.6460000</ele>
<time>2010-05-14T11:23:06Z</time>
<extensions>
<tp1:TrackPointExtension>
<tp1:hr>90</tp1:hr>
</tp1:TrackPointExtension>
</extensions>
</trkpt>
<trkpt lat="43.8989640" lon="12.6804680">
<ele>150.9550000</ele>
<time>2010-05-14T11:23:07Z</time>
<extensions>
<tp1:TrackPointExtension>
<tp1:hr>91</tp1:hr>
</tp1:TrackPointExtension>
</extensions>
</trkpt>
<trkpt lat="43.8989640" lon="12.6795610">
<ele>149.3590000</ele>
<time>2010-05-14T11:23:15Z</time>
<extensions>
<tp1:TrackPointExtension>
<tp1:hr>91</tp1:hr>
</tp1:TrackPointExtension>
</extensions>
</trkpt>
<trkpt lat="43.8989640" lon="12.6787810">
<ele>148.1100000</ele>
<time>2010-05-14T11:23:24Z</time>
<extensions>
<tp1:TrackPointExtension>
<tp1:hr>90</tp1:hr>
</tp1:TrackPointExtension>
</extensions>
</trkpt>
<trkpt lat="43.8991300" lon="12.6778370">
<ele>146.6260000</ele>
<time>2010-05-14T11:23:31Z</time>
<extensions>
<tp1:TrackPointExtension>
<tp1:hr>90</tp1:hr>
</tp1:TrackPointExtension>
</extensions>
</trkpt>
<trkpt lat="43.8992170" lon="12.6771700">
<ele>144.4540000</ele>
<time>2010-05-14T11:23:37Z</time>
<extensions>
<tp1:TrackPointExtension>
<tp1:hr>93</tp1:hr>
</tp1:TrackPointExtension>
</extensions>
</trkpt>
<trkpt lat="43.8991440" lon="12.6767150">
<ele>143.8040000</ele>
<time>2010-05-14T11:23:41Z</time>
<extensions>
<tp1:TrackPointExtension>
<tp1:hr>93</tp1:hr>
</tp1:TrackPointExtension>
</extensions>
</trkpt>
<trkpt lat="43.8990580" lon="12.6762870">
<ele>142.7780000</ele>
<time>2010-05-14T11:23:45Z</time>
<extensions>
<tp1:TrackPointExtension>
<tp1:hr>95</tp1:hr>
</tp1:TrackPointExtension>
</extensions>
</trkpt>
<trkpt lat="43.8990450" lon="12.6758830">
<ele>142.0810000</ele>
<time>2010-05-14T11:23:49Z</time>
<extensions>
<tp1:TrackPointExtension>
<tp1:hr>93</tp1:hr>
</tp1:TrackPointExtension>
</extensions>
</trkpt>
<trkpt lat="43.8990910" lon="12.6758010">
<ele>141.7590000</ele>
<time>2010-05-14T11:23:50Z</time>
<extensions>
<tp1:TrackPointExtension>
<tp1:hr>93</tp1:hr>
</tp1:TrackPointExtension>
</extensions>
</trkpt>
<trkpt lat="43.8994800" lon="12.6752180">
<ele>138.7620000</ele>
<time>2010-05-14T11:23:57Z</time>
<extensions>
<tp1:TrackPointExtension>
<tp1:hr>95</tp1:hr>
</tp1:TrackPointExtension>
</extensions>
</trkpt>
<trkpt lat="43.8996290" lon="12.6749940">
<ele>137.3720000</ele>
<time>2010-05-14T11:24:00Z</time>
<extensions>
<tp1:TrackPointExtension>
<tp1:hr>93</tp1:hr>
</tp1:TrackPointExtension>
</extensions>
</trkpt>
<trkpt lat="43.8997960" lon="12.6747440">
<ele>136.0630000</ele>
<time>2010-05-14T11:24:04Z</time>
<extensions>
<tp1:TrackPointExtension>
<tp1:hr>92</tp1:hr>
</tp1:TrackPointExtension>
</extensions>
</trkpt>
<trkpt lat="43.8999090" lon="12.6745750">
<ele>134.1670000</ele>
<time>2010-05-14T11:24:08Z</time>
<extensions>
<tp1:TrackPointExtension>
<tp1:hr>92</tp1:hr>
</tp1:TrackPointExtension>
</extensions>
</trkpt>
<trkpt lat="43.9001370" lon="12.6745480">
<ele>133.3670000</ele>
<time>2010-05-14T11:24:10Z</time>
<extensions>
<tp1:TrackPointExtension>
<tp1:hr>93</tp1:hr>
</tp1:TrackPointExtension>
</extensions>
</trkpt>
<trkpt lat="43.9004450" lon="12.6745120">
<ele>131.0590000</ele>
<time>2010-05-14T11:24:14Z</time>
<extensions>
<tp1:TrackPointExtension>
<tp1:hr>94</tp1:hr>
</tp1:TrackPointExtension>
</extensions>
</trkpt>
<trkpt lat="43.9007330" lon="12.6744320">
<ele>128.4590000</ele>
<time>2010-05-14T11:24:18Z</time>
<extensions>
<tp1:TrackPointExtension>
<tp1:hr>93</tp1:hr>
</tp1:TrackPointExtension>
</extensions>
</trkpt>
<trkpt lat="43.9008090" lon="12.6743870">
<ele>128.1780000</ele>
<time>2010-05-14T11:24:19Z</time>
<extensions>
<tp1:TrackPointExtension>
<tp1:hr>93</tp1:hr>
</tp1:TrackPointExtension>
</extensions>
</trkpt>
<trkpt lat="43.9012720" lon="12.6738990">
<ele>125.0350000</ele>
<time>2010-05-14T11:24:26Z</time>
<extensions>
<tp1:TrackPointExtension>
<tp1:hr>92</tp1:hr>
</tp1:TrackPointExtension>
</extensions>
</trkpt>
<trkpt lat="43.9016890" lon="12.6737030">
<ele>122.9150000</ele>
<time>2010-05-14T11:24:31Z</time>
<extensions>
<tp1:TrackPointExtension>
<tp1:hr>93</tp1:hr>
</tp1:TrackPointExtension>
</extensions>
</trkpt>
<trkpt lat="43.9020500" lon="12.6736120">
<ele>120.8820000</ele>
<time>2010-05-14T11:24:35Z</time>
<extensions>
<tp1:TrackPointExtension>
<tp1:hr>91</tp1:hr>
</tp1:TrackPointExtension>
</extensions>
</trkpt>
<trkpt lat="43.9024660" lon="12.6735240">
<ele>118.7150000</ele>
<time>2010-05-14T11:24:40Z</time>
<extensions>
<tp1:TrackPointExtension>
<tp1:hr>91</tp1:hr>
</tp1:TrackPointExtension>
</extensions>
</trkpt>
<trkpt lat="43.9025460" lon="12.6735070">
<ele>118.1800000</ele>
<time>2010-05-14T11:24:41Z</time>
<extensions>
<tp1:TrackPointExtension>
<tp1:hr>91</tp1:hr>
</tp1:TrackPointExtension>
</extensions>
</trkpt>
<trkpt lat="43.9029570" lon="12.6736740">
<ele>116.2520000</ele>
<time>2010-05-14T11:24:46Z</time>
<extensions>
<tp1:TrackPointExtension>
<tp1:hr>91</tp1:hr>
</tp1:TrackPointExtension>
</extensions>
</trkpt>
<trkpt lat="43.9035770" lon="12.6740360">
<ele>110.2470000</ele>
<time>2010-05-14T11:24:53Z</time>
<extensions>
<tp1:TrackPointExtension>
<tp1:hr>87</tp1:hr>
</tp1:TrackPointExtension>
</extensions>
</trkpt>
<trkpt lat="43.9036690" lon="12.6740900">
<ele>110.1870000</ele>
<time>2010-05-14T11:24:54Z</time>
<extensions>
<tp1:TrackPointExtension>
<tp1:hr>87</tp1:hr>
</tp1:TrackPointExtension>
</extensions>
</trkpt>
<trkpt lat="43.9039260" lon="12.6742400">
<ele>108.9100000</ele>
<time>2010-05-14T11:24:57Z</time>
<extensions>
<tp1:TrackPointExtension>
<tp1:hr>88</tp1:hr>
</tp1:TrackPointExtension>
</extensions>
</trkpt>
<trkpt lat="43.9043230" lon="12.6743520">
<ele>105.8210000</ele>
<time>2010-05-14T11:25:02Z</time>
<extensions>
<tp1:TrackPointExtension>
<tp1:hr>88</tp1:hr>
</tp1:TrackPointExtension>
</extensions>
</trkpt>
<trkpt lat="43.9044760" lon="12.6743880">
<ele>104.9450000</ele>
<time>2010-05-14T11:25:04Z</time>
<extensions>
<tp1:TrackPointExtension>
<tp1:hr>87</tp1:hr>
</tp1:TrackPointExtension>
</extensions>
</trkpt>
<trkpt lat="43.9048680" lon="12.6745250">
<ele>102.1850000</ele>
<time>2010-05-14T11:25:09Z</time>
<extensions>
<tp1:TrackPointExtension>
<tp1:hr>87</tp1:hr>
</tp1:TrackPointExtension>
</extensions>
</trkpt>
<trkpt lat="43.9049360" lon="12.6745950">
<ele>101.2770000</ele>
<time>2010-05-14T11:25:10Z</time>
<extensions>
<tp1:TrackPointExtension>
<tp1:hr>87</tp1:hr>
</tp1:TrackPointExtension>
</extensions>
</trkpt>
<trkpt lat="43.9050630" lon="12.6747590">
<ele>100.4590000</ele>
<time>2010-05-14T11:25:12Z</time>
<extensions>
<tp1:TrackPointExtension>
<tp1:hr>87</tp1:hr>
</tp1:TrackPointExtension>
</extensions>
</trkpt>
<trkpt lat="43.9054030" lon="12.6751950">
<ele>97.3110000</ele>
<time>2010-05-14T11:25:17Z</time>
<extensions>
<tp1:TrackPointExtension>
<tp1:hr>87</tp1:hr>
</tp1:TrackPointExtension>
</extensions>
</trkpt>
<trkpt lat="43.9059120" lon="12.6755880">
<ele>93.9890000</ele>
<time>2010-05-14T11:25:23Z</time>
<extensions>
<tp1:TrackPointExtension>
<tp1:hr>88</tp1:hr>
</tp1:TrackPointExtension>
</extensions>
</trkpt>
<trkpt lat="43.9063210" lon="12.6758300">
<ele>90.5480000</ele>
<time>2010-05-14T11:25:28Z</time>
<extensions>
<tp1:TrackPointExtension>
<tp1:hr>87</tp1:hr>
</tp1:TrackPointExtension>
</extensions>
</trkpt>
<trkpt lat="43.9064070" lon="12.6758440">
<ele>90.1610000</ele>
<time>2010-05-14T11:25:29Z</time>
<extensions>
<tp1:TrackPointExtension>
<tp1:hr>87</tp1:hr>
</tp1:TrackPointExtension>
</extensions>
</trkpt>
<trkpt lat="43.9069630" lon="12.6758570">
<ele>86.5920000</ele>
<time>2010-05-14T11:25:35Z</time>
<extensions>
<tp1:TrackPointExtension>
<tp1:hr>86</tp1:hr>
</tp1:TrackPointExtension>
</extensions>
</trkpt>
<trkpt lat="43.9073520" lon="12.6757270">
<ele>83.1910000</ele>
<time>2010-05-14T11:25:39Z</time>
<extensions>
<tp1:TrackPointExtension>
<tp1:hr>86</tp1:hr>
</tp1:TrackPointExtension>
</extensions>
</trkpt>
<trkpt lat="43.9074460" lon="12.6756960">
<ele>82.8870000</ele>
<time>2010-05-14T11:25:40Z</time>
<extensions>
<tp1:TrackPointExtension>
<tp1:hr>86</tp1:hr>
</tp1:TrackPointExtension>
</extensions>
</trkpt>
<trkpt lat="43.9078600" lon="12.6753990">
<ele>79.5750000</ele>
<time>2010-05-14T11:25:45Z</time>
<extensions>
<tp1:TrackPointExtension>
<tp1:hr>85</tp1:hr>
</tp1:TrackPointExtension>
</extensions>
</trkpt>
<trkpt lat="43.9084080" lon="12.6749120">
<ele>74.7450000</ele>
<time>2010-05-14T11:25:52Z</time>
<extensions>
<tp1:TrackPointExtension>
<tp1:hr>85</tp1:hr>
</tp1:TrackPointExtension>
</extensions>
</trkpt>
<trkpt lat="43.9084490" lon="12.6748750">
<ele>72.9460000</ele>
<time>2010-05-14T11:25:55Z</time>
<extensions>
<tp1:TrackPointExtension>
<tp1:hr>85</tp1:hr>
</tp1:TrackPointExtension>
</extensions>
</trkpt>
<trkpt lat="43.9087240" lon="12.6746210">
<ele>72.5800000</ele>
<time>2010-05-14T11:25:56Z</time>
<extensions>
<tp1:TrackPointExtension>
<tp1:hr>85</tp1:hr>
</tp1:TrackPointExtension>
</extensions>
</trkpt>
<trkpt lat="43.9089610" lon="12.6744030">
<ele>70.7220000</ele>
<time>2010-05-14T11:25:59Z</time>
<extensions>
<tp1:TrackPointExtension>
<tp1:hr>85</tp1:hr>
</tp1:TrackPointExtension>
</extensions>
</trkpt>
<trkpt lat="43.9092740" lon="12.6739640">
<ele>67.4200000</ele>
<time>2010-05-14T11:26:04Z</time>
<extensions>
<tp1:TrackPointExtension>
<tp1:hr>86</tp1:hr>
</tp1:TrackPointExtension>
</extensions>
</trkpt>
<trkpt lat="43.9093240" lon="12.6738720">
<ele>66.8950000</ele>
<time>2010-05-14T11:26:05Z</time>
<extensions>
<tp1:TrackPointExtension>
<tp1:hr>86</tp1:hr>
</tp1:TrackPointExtension>
</extensions>
</trkpt>
<trkpt lat="43.9094790" lon="12.6735880">
<ele>64.7470000</ele>
<time>2010-05-14T11:26:09Z</time>
<extensions>
<tp1:TrackPointExtension>
<tp1:hr>86</tp1:hr>
</tp1:TrackPointExtension>
</extensions>
</trkpt>
<trkpt lat="43.9096860" lon="12.6734950">
<ele>63.1200000</ele>
<time>2010-05-14T11:26:11Z</time>
<extensions>
<tp1:TrackPointExtension>
<tp1:hr>86</tp1:hr>
</tp1:TrackPointExtension>
</extensions>
</trkpt>
<trkpt lat="43.9103700" lon="12.6734300">
<ele>58.9960000</ele>
<time>2010-05-14T11:26:18Z</time>
<extensions>
<tp1:TrackPointExtension>
<tp1:hr>86</tp1:hr>
</tp1:TrackPointExtension>
</extensions>
</trkpt>
<trkpt lat="43.9112610" lon="12.6733450">
<ele>56.5900000</ele>
<time>2010-05-14T11:26:26Z</time>
<extensions>
<tp1:TrackPointExtension>
<tp1:hr>88</tp1:hr>
</tp1:TrackPointExtension>
</extensions>
</trkpt>
<trkpt lat="43.9118010" lon="12.6733630">
<ele>55.5020000</ele>
<time>2010-05-14T11:26:31Z</time>
<extensions>
<tp1:TrackPointExtension>
<tp1:hr>92</tp1:hr>
</tp1:TrackPointExtension>
</extensions>
</trkpt>
<trkpt lat="43.9123180" lon="12.6734760">
<ele>55.2870000</ele>
<time>2010-05-14T11:26:36Z</time>
<extensions>
<tp1:TrackPointExtension>
<tp1:hr>97</tp1:hr>
</tp1:TrackPointExtension>
</extensions>
</trkpt>
<trkpt lat="43.9126130" lon="12.6735530">
<ele>54.6360000</ele>
<time>2010-05-14T11:26:39Z</time>
<extensions>
<tp1:TrackPointExtension>
<tp1:hr>96</tp1:hr>
</tp1:TrackPointExtension>
</extensions>
</trkpt>
<trkpt lat="43.9130020" lon="12.6736310">
<ele>53.6980000</ele>
<time>2010-05-14T11:26:43Z</time>
<extensions>
<tp1:TrackPointExtension>
<tp1:hr>96</tp1:hr>
</tp1:TrackPointExtension>
</extensions>
</trkpt>
<trkpt lat="43.9131120" lon="12.6735880">
<ele>53.5730000</ele>
<time>2010-05-14T11:26:44Z</time>
<extensions>
<tp1:TrackPointExtension>
<tp1:hr>97</tp1:hr>
</tp1:TrackPointExtension>
</extensions>
</trkpt>
<trkpt lat="43.9136710" lon="12.6733060">
<ele>53.4290000</ele>
<time>2010-05-14T11:26:50Z</time>
<extensions>
<tp1:TrackPointExtension>
<tp1:hr>98</tp1:hr>
</tp1:TrackPointExtension>
</extensions>
</trkpt>
<trkpt lat="43.9141890" lon="12.6731430">
<ele>54.7070000</ele>
<time>2010-05-14T11:26:56Z</time>
<extensions>
<tp1:TrackPointExtension>
<tp1:hr>103</tp1:hr>
</tp1:TrackPointExtension>
</extensions>
</trkpt>
<trkpt lat="43.9146140" lon="12.6730140">
<ele>56.6610000</ele>
<time>2010-05-14T11:27:02Z</time>
<extensions>
<tp1:TrackPointExtension>
<tp1:hr>104</tp1:hr>
</tp1:TrackPointExtension>
</extensions>
</trkpt>
<trkpt lat="43.9150700" lon="12.6728940">
<ele>58.8370000</ele>
<time>2010-05-14T11:27:10Z</time>
<extensions>
<tp1:TrackPointExtension>
<tp1:hr>106</tp1:hr>
</tp1:TrackPointExtension>
</extensions>
</trkpt>
<trkpt lat="43.9155380" lon="12.6727900">
<ele>60.0810000</ele>
<time>2010-05-14T11:27:18Z</time>
<extensions>
<tp1:TrackPointExtension>
<tp1:hr>109</tp1:hr>
</tp1:TrackPointExtension>
</extensions>
</trkpt>
<trkpt lat="43.9161330" lon="12.6726780">
<ele>60.4980000</ele>
<time>2010-05-14T11:27:27Z</time>
<extensions>
<tp1:TrackPointExtension>
<tp1:hr>113</tp1:hr>
</tp1:TrackPointExtension>
</extensions>
</trkpt>
<trkpt lat="43.9164680" lon="12.6726560">
<ele>60.7850000</ele>
<time>2010-05-14T11:27:32Z</time>
<extensions>
<tp1:TrackPointExtension>
<tp1:hr>115</tp1:hr>
</tp1:TrackPointExtension>
</extensions>
</trkpt>
<trkpt lat="43.9167680" lon="12.6727360">
<ele>62.0480000</ele>
<time>2010-05-14T11:27:37Z</time>
<extensions>
<tp1:TrackPointExtension>
<tp1:hr>115</tp1:hr>
</tp1:TrackPointExtension>
</extensions>
</trkpt>
<trkpt lat="43.9168240" lon="12.6727780">
<ele>62.1740000</ele>
<time>2010-05-14T11:27:38Z</time>
<extensions>
<tp1:TrackPointExtension>
<tp1:hr>115</tp1:hr>
</tp1:TrackPointExtension>
</extensions>
</trkpt>
<trkpt lat="43.9173590" lon="12.6731790">
<ele>61.6310000</ele>
<time>2010-05-14T11:27:47Z</time>
<extensions>
<tp1:TrackPointExtension>
<tp1:hr>118</tp1:hr>
</tp1:TrackPointExtension>
</extensions>
</trkpt>
<trkpt lat="43.9174200" lon="12.6732240">
<ele>61.4780000</ele>
<time>2010-05-14T11:27:48Z</time>
<extensions>
<tp1:TrackPointExtension>
<tp1:hr>118</tp1:hr>
</tp1:TrackPointExtension>
</extensions>
</trkpt>
<trkpt lat="43.9179330" lon="12.6736190">
<ele>61.0920000</ele>
<time>2010-05-14T11:27:56Z</time>
<extensions>
<tp1:TrackPointExtension>
<tp1:hr>120</tp1:hr>
</tp1:TrackPointExtension>
</extensions>
</trkpt>
<trkpt lat="43.9185510" lon="12.6741540">
<ele>59.4360000</ele>
<time>2010-05-14T11:28:05Z</time>
<extensions>
<tp1:TrackPointExtension>
<tp1:hr>119</tp1:hr>
</tp1:TrackPointExtension>
</extensions>
</trkpt>
<trkpt lat="43.9192050" lon="12.6747190">
<ele>58.1640000</ele>
<time>2010-05-14T11:28:14Z</time>
<extensions>
<tp1:TrackPointExtension>
<tp1:hr>118</tp1:hr>
</tp1:TrackPointExtension>
</extensions>
</trkpt>
<trkpt lat="43.9199330" lon="12.6753850">
<ele>57.8510000</ele>
<time>2010-05-14T11:28:24Z</time>
<extensions>
<tp1:TrackPointExtension>
<tp1:hr>118</tp1:hr>
</tp1:TrackPointExtension>
</extensions>
</trkpt>
<trkpt lat="43.9205320" lon="12.6758980">
<ele>56.9910000</ele>
<time>2010-05-14T11:28:32Z</time>
<extensions>
<tp1:TrackPointExtension>
<tp1:hr>118</tp1:hr>
</tp1:TrackPointExtension>
</extensions>
</trkpt>
<trkpt lat="43.9209280" lon="12.6761280">
<ele>56.4930000</ele>
<time>2010-05-14T11:28:37Z</time>
<extensions>
<tp1:TrackPointExtension>
<tp1:hr>117</tp1:hr>
</tp1:TrackPointExtension>
</extensions>
</trkpt>
<trkpt lat="43.9215800" lon="12.6762910">
<ele>55.5680000</ele>
<time>2010-05-14T11:28:45Z</time>
<extensions>
<tp1:TrackPointExtension>
<tp1:hr>113</tp1:hr>
</tp1:TrackPointExtension>
</extensions>
</trkpt>
<trkpt lat="43.9218750" lon="12.6763710">
<ele>55.4730000</ele>
<time>2010-05-14T11:28:49Z</time>
<extensions>
<tp1:TrackPointExtension>
<tp1:hr>108</tp1:hr>
</tp1:TrackPointExtension>
</extensions>
</trkpt>
<trkpt lat="43.9221210" lon="12.6764450">
<ele>55.3110000</ele>
<time>2010-05-14T11:28:53Z</time>
<extensions>
<tp1:TrackPointExtension>
<tp1:hr>106</tp1:hr>
</tp1:TrackPointExtension>
</extensions>
</trkpt>
<trkpt lat="43.9221820" lon="12.6764630">
<ele>55.3400000</ele>
<time>2010-05-14T11:28:55Z</time>
<extensions>
<tp1:TrackPointExtension>
<tp1:hr>105</tp1:hr>
</tp1:TrackPointExtension>
</extensions>
</trkpt>
<trkpt lat="43.9223530" lon="12.6765060">
<ele>55.0150000</ele>
<time>2010-05-14T11:29:00Z</time>
<extensions>
<tp1:TrackPointExtension>
<tp1:hr>101</tp1:hr>
</tp1:TrackPointExtension>
</extensions>
</trkpt>
<trkpt lat="43.9223280" lon="12.6764550">
<ele>54.8780000</ele>
<time>2010-05-14T11:29:02Z</time>
<extensions>
<tp1:TrackPointExtension>
<tp1:hr>101</tp1:hr>
</tp1:TrackPointExtension>
</extensions>
</trkpt>
<trkpt lat="43.9222670" lon="12.6763350">
<ele>54.4110000</ele>
<time>2010-05-14T11:29:06Z</time>
<extensions>
<tp1:TrackPointExtension>
<tp1:hr>102</tp1:hr>
</tp1:TrackPointExtension>
</extensions>
</trkpt>
<trkpt lat="43.9221880" lon="12.6754960">
<ele>54.8750000</ele>
<time>2010-05-14T11:29:14Z</time>
<extensions>
<tp1:TrackPointExtension>
<tp1:hr>107</tp1:hr>
</tp1:TrackPointExtension>
</extensions>
</trkpt>
<trkpt lat="43.9220940" lon="12.6748780">
<ele>55.4200000</ele>
<time>2010-05-14T11:29:21Z</time>
<extensions>
<tp1:TrackPointExtension>
<tp1:hr>112</tp1:hr>
</tp1:TrackPointExtension>
</extensions>
</trkpt>
<trkpt lat="43.9219810" lon="12.6738970">
<ele>55.4440000</ele>
<time>2010-05-14T11:29:32Z</time>
<extensions>
<tp1:TrackPointExtension>
<tp1:hr>113</tp1:hr>
</tp1:TrackPointExtension>
</extensions>
</trkpt>
<trkpt lat="43.9218450" lon="12.6729460">
<ele>56.2220000</ele>
<time>2010-05-14T11:29:43Z</time>
<extensions>
<tp1:TrackPointExtension>
<tp1:hr>114</tp1:hr>
</tp1:TrackPointExtension>
</extensions>
</trkpt>
<trkpt lat="43.9217840" lon="12.6725210">
<ele>56.6210000</ele>
<time>2010-05-14T11:29:49Z</time>
<extensions>
<tp1:TrackPointExtension>
<tp1:hr>113</tp1:hr>
</tp1:TrackPointExtension>
</extensions>
</trkpt>
<trkpt lat="43.9217690" lon="12.6724170">
<ele>56.8630000</ele>
<time>2010-05-14T11:29:51Z</time>
<extensions>
<tp1:TrackPointExtension>
<tp1:hr>112</tp1:hr>
</tp1:TrackPointExtension>
</extensions>
</trkpt>
<trkpt lat="43.9218950" lon="12.6721610">
<ele>56.4380000</ele>
<time>2010-05-14T11:29:55Z</time>
<extensions>
<tp1:TrackPointExtension>
<tp1:hr>112</tp1:hr>
</tp1:TrackPointExtension>
</extensions>
</trkpt>
<trkpt lat="43.9220670" lon="12.6721340">
<ele>56.6220000</ele>
<time>2010-05-14T11:29:58Z</time>
<extensions>
<tp1:TrackPointExtension>
<tp1:hr>112</tp1:hr>
</tp1:TrackPointExtension>
</extensions>
</trkpt>
<trkpt lat="43.9225480" lon="12.6722940">
<ele>55.5060000</ele>
<time>2010-05-14T11:30:05Z</time>
<extensions>
<tp1:TrackPointExtension>
<tp1:hr>114</tp1:hr>
</tp1:TrackPointExtension>
</extensions>
</trkpt>
<trkpt lat="43.9228420" lon="12.6726170">
<ele>54.8460000</ele>
<time>2010-05-14T11:30:10Z</time>
<extensions>
<tp1:TrackPointExtension>
<tp1:hr>113</tp1:hr>
</tp1:TrackPointExtension>
</extensions>
</trkpt>
<trkpt lat="43.9231890" lon="12.6731090">
<ele>53.1820000</ele>
<time>2010-05-14T11:30:16Z</time>
<extensions>
<tp1:TrackPointExtension>
<tp1:hr>113</tp1:hr>
</tp1:TrackPointExtension>
</extensions>
</trkpt>
<trkpt lat="43.9236390" lon="12.6738100">
<ele>51.1420000</ele>
<time>2010-05-14T11:30:23Z</time>
<extensions>
<tp1:TrackPointExtension>
<tp1:hr>114</tp1:hr>
</tp1:TrackPointExtension>
</extensions>
</trkpt>
<trkpt lat="43.9243930" lon="12.6750030">
<ele>49.0860000</ele>
<time>2010-05-14T11:30:34Z</time>
<extensions>
<tp1:TrackPointExtension>
<tp1:hr>115</tp1:hr>
</tp1:TrackPointExtension>
</extensions>
</trkpt>
<trkpt lat="43.9250910" lon="12.6761070">
<ele>47.6590000</ele>
<time>2010-05-14T11:30:44Z</time>
<extensions>
<tp1:TrackPointExtension>
<tp1:hr>116</tp1:hr>
</tp1:TrackPointExtension>
</extensions>
</trkpt>
<trkpt lat="43.9259160" lon="12.6774120">
<ele>46.6400000</ele>
<time>2010-05-14T11:30:56Z</time>
<extensions>
<tp1:TrackPointExtension>
<tp1:hr>116</tp1:hr>
</tp1:TrackPointExtension>
</extensions>
</trkpt>
<trkpt lat="43.9265270" lon="12.6784970">
<ele>46.7010000</ele>
<time>2010-05-14T11:31:06Z</time>
<extensions>
<tp1:TrackPointExtension>
<tp1:hr>116</tp1:hr>
</tp1:TrackPointExtension>
</extensions>
</trkpt>
<trkpt lat="43.9271420" lon="12.6796520">
<ele>47.0680000</ele>
<time>2010-05-14T11:31:17Z</time>
<extensions>
<tp1:TrackPointExtension>
<tp1:hr>119</tp1:hr>
</tp1:TrackPointExtension>
</extensions>
</trkpt>
<trkpt lat="43.9276570" lon="12.6806180">
<ele>46.7240000</ele>
<time>2010-05-14T11:31:26Z</time>
<extensions>
<tp1:TrackPointExtension>
<tp1:hr>119</tp1:hr>
</tp1:TrackPointExtension>
</extensions>
</trkpt>
<trkpt lat="43.9281310" lon="12.6814180">
<ele>47.1820000</ele>
<time>2010-05-14T11:31:34Z</time>
<extensions>
<tp1:TrackPointExtension>
<tp1:hr>121</tp1:hr>
</tp1:TrackPointExtension>
</extensions>
</trkpt>
<trkpt lat="43.9287430" lon="12.6821990">
<ele>47.3070000</ele>
<time>2010-05-14T11:31:43Z</time>
<extensions>
<tp1:TrackPointExtension>
<tp1:hr>122</tp1:hr>
</tp1:TrackPointExtension>
</extensions>
</trkpt>
<trkpt lat="43.9294670" lon="12.6830910">
<ele>46.7930000</ele>
<time>2010-05-14T11:31:53Z</time>
<extensions>
<tp1:TrackPointExtension>
<tp1:hr>122</tp1:hr>
</tp1:TrackPointExtension>
</extensions>
</trkpt>
<trkpt lat="43.9301480" lon="12.6839290">
<ele>45.4170000</ele>
<time>2010-05-14T11:32:02Z</time>
<extensions>
<tp1:TrackPointExtension>
<tp1:hr>122</tp1:hr>
</tp1:TrackPointExtension>
</extensions>
</trkpt>
<trkpt lat="43.9307470" lon="12.6846670">
<ele>44.5180000</ele>
<time>2010-05-14T11:32:10Z</time>
<extensions>
<tp1:TrackPointExtension>
<tp1:hr>122</tp1:hr>
</tp1:TrackPointExtension>
</extensions>
</trkpt>
<trkpt lat="43.9314090" lon="12.6854820">
<ele>43.4990000</ele>
<time>2010-05-14T11:32:19Z</time>
<extensions>
<tp1:TrackPointExtension>
<tp1:hr>120</tp1:hr>
</tp1:TrackPointExtension>
</extensions>
</trkpt>
<trkpt lat="43.9317520" lon="12.6859050">
<ele>43.1220000</ele>
<time>2010-05-14T11:32:25Z</time>
<extensions>
<tp1:TrackPointExtension>
<tp1:hr>115</tp1:hr>
</tp1:TrackPointExtension>
</extensions>
</trkpt>
<trkpt lat="43.9320480" lon="12.6864220">
<ele>42.3120000</ele>
<time>2010-05-14T11:32:29Z</time>
<extensions>
<tp1:TrackPointExtension>
<tp1:hr>114</tp1:hr>
</tp1:TrackPointExtension>
</extensions>
</trkpt>
<trkpt lat="43.9320950" lon="12.6865480">
<ele>42.2180000</ele>
<time>2010-05-14T11:32:31Z</time>
<extensions>
<tp1:TrackPointExtension>
<tp1:hr>114</tp1:hr>
</tp1:TrackPointExtension>
</extensions>
</trkpt>
<trkpt lat="43.9322370" lon="12.6871410">
<ele>42.2720000</ele>
<time>2010-05-14T11:32:35Z</time>
<extensions>
<tp1:TrackPointExtension>
<tp1:hr>112</tp1:hr>
</tp1:TrackPointExtension>
</extensions>
</trkpt>
<trkpt lat="43.9324520" lon="12.6872760">
<ele>41.8050000</ele>
<time>2010-05-14T11:32:38Z</time>
<extensions>
<tp1:TrackPointExtension>
<tp1:hr>110</tp1:hr>
</tp1:TrackPointExtension>
</extensions>
</trkpt>
<trkpt lat="43.9328910" lon="12.6874910">
<ele>41.4620000</ele>
<time>2010-05-14T11:32:44Z</time>
<extensions>
<tp1:TrackPointExtension>
<tp1:hr>110</tp1:hr>
</tp1:TrackPointExtension>
</extensions>
</trkpt>
<trkpt lat="43.9329670" lon="12.6875390">
<ele>41.2580000</ele>
<time>2010-05-14T11:32:45Z</time>
<extensions>
<tp1:TrackPointExtension>
<tp1:hr>110</tp1:hr>
</tp1:TrackPointExtension>
</extensions>
</trkpt>
<trkpt lat="43.9335400" lon="12.6881320">
<ele>40.3380000</ele>
<time>2010-05-14T11:32:53Z</time>
<extensions>
<tp1:TrackPointExtension>
<tp1:hr>113</tp1:hr>
</tp1:TrackPointExtension>
</extensions>
</trkpt>
<trkpt lat="43.9345130" lon="12.6893540">
<ele>39.3830000</ele>
<time>2010-05-14T11:33:07Z</time>
<extensions>
<tp1:TrackPointExtension>
<tp1:hr>116</tp1:hr>
</tp1:TrackPointExtension>
</extensions>
</trkpt>
<trkpt lat="43.9353150" lon="12.6904550">
<ele>38.9720000</ele>
<time>2010-05-14T11:33:19Z</time>
<extensions>
<tp1:TrackPointExtension>
<tp1:hr>119</tp1:hr>
</tp1:TrackPointExtension>
</extensions>
</trkpt>
<trkpt lat="43.9357030" lon="12.6910190">
<ele>38.8550000</ele>
<time>2010-05-14T11:33:25Z</time>
<extensions>
<tp1:TrackPointExtension>
<tp1:hr>120</tp1:hr>
</tp1:TrackPointExtension>
</extensions>
</trkpt>
<trkpt lat="43.9364250" lon="12.6920670">
<ele>37.7750000</ele>
<time>2010-05-14T11:33:36Z</time>
<extensions>
<tp1:TrackPointExtension>
<tp1:hr>121</tp1:hr>
</tp1:TrackPointExtension>
</extensions>
</trkpt>
<trkpt lat="43.9372440" lon="12.6932580">
<ele>35.7900000</ele>
<time>2010-05-14T11:33:48Z</time>
<extensions>
<tp1:TrackPointExtension>
<tp1:hr>123</tp1:hr>
</tp1:TrackPointExtension>
</extensions>
</trkpt>
<trkpt lat="43.9376840" lon="12.6939700">
<ele>35.6470000</ele>
<time>2010-05-14T11:33:55Z</time>
<extensions>
<tp1:TrackPointExtension>
<tp1:hr>124</tp1:hr>
</tp1:TrackPointExtension>
</extensions>
</trkpt>
<trkpt lat="43.9380250" lon="12.6947670">
<ele>35.1500000</ele>
<time>2010-05-14T11:34:02Z</time>
<extensions>
<tp1:TrackPointExtension>
<tp1:hr>123</tp1:hr>
</tp1:TrackPointExtension>
</extensions>
</trkpt>
<trkpt lat="43.9382960" lon="12.6958730">
<ele>34.9590000</ele>
<time>2010-05-14T11:34:11Z</time>
<extensions>
<tp1:TrackPointExtension>
<tp1:hr>122</tp1:hr>
</tp1:TrackPointExtension>
</extensions>
</trkpt>
<trkpt lat="43.9385700" lon="12.6971110">
<ele>34.0550000</ele>
<time>2010-05-14T11:34:21Z</time>
<extensions>
<tp1:TrackPointExtension>
<tp1:hr>123</tp1:hr>
</tp1:TrackPointExtension>
</extensions>
</trkpt>
<trkpt lat="43.9388930" lon="12.6985750">
<ele>33.4370000</ele>
<time>2010-05-14T11:34:33Z</time>
<extensions>
<tp1:TrackPointExtension>
<tp1:hr>122</tp1:hr>
</tp1:TrackPointExtension>
</extensions>
</trkpt>
<trkpt lat="43.9391720" lon="12.6997780">
<ele>32.8590000</ele>
<time>2010-05-14T11:34:43Z</time>
<extensions>
<tp1:TrackPointExtension>
<tp1:hr>122</tp1:hr>
</tp1:TrackPointExtension>
</extensions>
</trkpt>
<trkpt lat="43.9394630" lon="12.7006880">
<ele>32.1440000</ele>
<time>2010-05-14T11:34:51Z</time>
<extensions>
<tp1:TrackPointExtension>
<tp1:hr>121</tp1:hr>
</tp1:TrackPointExtension>
</extensions>
</trkpt>
<trkpt lat="43.9396910" lon="12.7012250">
<ele>31.8200000</ele>
<time>2010-05-14T11:34:58Z</time>
<extensions>
<tp1:TrackPointExtension>
<tp1:hr>120</tp1:hr>
</tp1:TrackPointExtension>
</extensions>
</trkpt>
<trkpt lat="43.9398200" lon="12.7019550">
<ele>31.8250000</ele>
<time>2010-05-14T11:35:03Z</time>
<extensions>
<tp1:TrackPointExtension>
<tp1:hr>121</tp1:hr>
</tp1:TrackPointExtension>
</extensions>
</trkpt>
<trkpt lat="43.9398200" lon="12.7019550">
<ele>31.9680000</ele>
<time>2010-05-14T11:35:04Z</time>
<extensions>
<tp1:TrackPointExtension>
<tp1:hr>121</tp1:hr>
</tp1:TrackPointExtension>
</extensions>
</trkpt>
<trkpt lat="43.9399490" lon="12.7026420">
<ele>30.9790000</ele>
<time>2010-05-14T11:35:09Z</time>
<extensions>
<tp1:TrackPointExtension>
<tp1:hr>121</tp1:hr>
</tp1:TrackPointExtension>
</extensions>
</trkpt>
<trkpt lat="43.9400350" lon="12.7026590">
<ele>30.9610000</ele>
<time>2010-05-14T11:35:11Z</time>
<extensions>
<tp1:TrackPointExtension>
<tp1:hr>121</tp1:hr>
</tp1:TrackPointExtension>
</extensions>
</trkpt>
<trkpt lat="43.9401890" lon="12.7027200">
<ele>30.9190000</ele>
<time>2010-05-14T11:35:13Z</time>
<extensions>
<tp1:TrackPointExtension>
<tp1:hr>121</tp1:hr>
</tp1:TrackPointExtension>
</extensions>
</trkpt>
<trkpt lat="43.9404070" lon="12.7032810">
<ele>30.6380000</ele>
<time>2010-05-14T11:35:17Z</time>
<extensions>
<tp1:TrackPointExtension>
<tp1:hr>122</tp1:hr>
</tp1:TrackPointExtension>
</extensions>
</trkpt>
<trkpt lat="43.9407420" lon="12.7039910">
<ele>30.3380000</ele>
<time>2010-05-14T11:35:24Z</time>
<extensions>
<tp1:TrackPointExtension>
<tp1:hr>122</tp1:hr>
</tp1:TrackPointExtension>
</extensions>
</trkpt>
<trkpt lat="43.9412000" lon="12.7051580">
<ele>29.9300000</ele>
<time>2010-05-14T11:35:35Z</time>
<extensions>
<tp1:TrackPointExtension>
<tp1:hr>121</tp1:hr>
</tp1:TrackPointExtension>
</extensions>
</trkpt>
<trkpt lat="43.9416460" lon="12.7062960">
<ele>29.8790000</ele>
<time>2010-05-14T11:35:46Z</time>
<extensions>
<tp1:TrackPointExtension>
<tp1:hr>121</tp1:hr>
</tp1:TrackPointExtension>
</extensions>
</trkpt>
<trkpt lat="43.9420900" lon="12.7074270">
<ele>29.5690000</ele>
<time>2010-05-14T11:35:57Z</time>
<extensions>
<tp1:TrackPointExtension>
<tp1:hr>122</tp1:hr>
</tp1:TrackPointExtension>
</extensions>
</trkpt>
<trkpt lat="43.9425410" lon="12.7085600">
<ele>28.5940000</ele>
<time>2010-05-14T11:36:08Z</time>
<extensions>
<tp1:TrackPointExtension>
<tp1:hr>123</tp1:hr>
</tp1:TrackPointExtension>
</extensions>
</trkpt>
<trkpt lat="43.9429780" lon="12.7096450">
<ele>26.4690000</ele>
<time>2010-05-14T11:36:18Z</time>
<extensions>
<tp1:TrackPointExtension>
<tp1:hr>122</tp1:hr>
</tp1:TrackPointExtension>
</extensions>
</trkpt>
<trkpt lat="43.9434790" lon="12.7108900">
<ele>24.7730000</ele>
<time>2010-05-14T11:36:29Z</time>
<extensions>
<tp1:TrackPointExtension>
<tp1:hr>122</tp1:hr>
</tp1:TrackPointExtension>
</extensions>
</trkpt>
<trkpt lat="43.9436940" lon="12.7117020">
<ele>24.5030000</ele>
<time>2010-05-14T11:36:36Z</time>
<extensions>
<tp1:TrackPointExtension>
<tp1:hr>122</tp1:hr>
</tp1:TrackPointExtension>
</extensions>
</trkpt>
<trkpt lat="43.9439060" lon="12.7127570">
<ele>24.3320000</ele>
<time>2010-05-14T11:36:45Z</time>
<extensions>
<tp1:TrackPointExtension>
<tp1:hr>122</tp1:hr>
</tp1:TrackPointExtension>
</extensions>
</trkpt>
<trkpt lat="43.9440380" lon="12.7137210">
<ele>23.3630000</ele>
<time>2010-05-14T11:36:53Z</time>
<extensions>
<tp1:TrackPointExtension>
<tp1:hr>122</tp1:hr>
</tp1:TrackPointExtension>
</extensions>
</trkpt>
<trkpt lat="43.9440960" lon="12.7148040">
<ele>22.8970000</ele>
<time>2010-05-14T11:37:02Z</time>
<extensions>
<tp1:TrackPointExtension>
<tp1:hr>124</tp1:hr>
</tp1:TrackPointExtension>
</extensions>
</trkpt>
<trkpt lat="43.9441110" lon="12.7158520">
<ele>22.3440000</ele>
<time>2010-05-14T11:37:11Z</time>
<extensions>
<tp1:TrackPointExtension>
<tp1:hr>123</tp1:hr>
</tp1:TrackPointExtension>
</extensions>
</trkpt>
<trkpt lat="43.9440590" lon="12.7166030">
<ele>22.3080000</ele>
<time>2010-05-14T11:37:18Z</time>
<extensions>
<tp1:TrackPointExtension>
<tp1:hr>120</tp1:hr>
</tp1:TrackPointExtension>
</extensions>
</trkpt>
<trkpt lat="43.9439950" lon="12.7168790">
<ele>21.9360000</ele>
<time>2010-05-14T11:37:21Z</time>
<extensions>
<tp1:TrackPointExtension>
<tp1:hr>119</tp1:hr>
</tp1:TrackPointExtension>
</extensions>
</trkpt>
<trkpt lat="43.9438560" lon="12.7172280">
<ele>21.8180000</ele>
<time>2010-05-14T11:37:27Z</time>
<extensions>
<tp1:TrackPointExtension>
<tp1:hr>114</tp1:hr>
</tp1:TrackPointExtension>
</extensions>
</trkpt>
<trkpt lat="43.9438540" lon="12.7172330">
<ele>21.1090000</ele>
<time>2010-05-14T11:37:30Z</time>
<extensions>
<tp1:TrackPointExtension>
<tp1:hr>113</tp1:hr>
</tp1:TrackPointExtension>
</extensions>
</trkpt>
<trkpt lat="43.9436820" lon="12.7176600">
<ele>21.2960000</ele>
<time>2010-05-14T11:37:35Z</time>
<extensions>
<tp1:TrackPointExtension>
<tp1:hr>114</tp1:hr>
</tp1:TrackPointExtension>
</extensions>
</trkpt>
<trkpt lat="43.9437450" lon="12.7178950">
<ele>21.2570000</ele>
<time>2010-05-14T11:37:39Z</time>
<extensions>
<tp1:TrackPointExtension>
<tp1:hr>114</tp1:hr>
</tp1:TrackPointExtension>
</extensions>
</trkpt>
<trkpt lat="43.9438790" lon="12.7181160">
<ele>20.9600000</ele>
<time>2010-05-14T11:37:43Z</time>
<extensions>
<tp1:TrackPointExtension>
<tp1:hr>114</tp1:hr>
</tp1:TrackPointExtension>
</extensions>
</trkpt>
<trkpt lat="43.9439780" lon="12.7181500">
<ele>21.0970000</ele>
<time>2010-05-14T11:37:45Z</time>
<extensions>
<tp1:TrackPointExtension>
<tp1:hr>114</tp1:hr>
</tp1:TrackPointExtension>
</extensions>
</trkpt>
<trkpt lat="43.9443660" lon="12.7183590">
<ele>20.4300000</ele>
<time>2010-05-14T11:37:51Z</time>
<extensions>
<tp1:TrackPointExtension>
<tp1:hr>115</tp1:hr>
</tp1:TrackPointExtension>
</extensions>
</trkpt>
<trkpt lat="43.9447060" lon="12.7185660">
<ele>20.1310000</ele>
<time>2010-05-14T11:37:56Z</time>
<extensions>
<tp1:TrackPointExtension>
<tp1:hr>115</tp1:hr>
</tp1:TrackPointExtension>
</extensions>
</trkpt>
<trkpt lat="43.9452370" lon="12.7188610">
<ele>19.6950000</ele>
<time>2010-05-14T11:38:03Z</time>
<extensions>
<tp1:TrackPointExtension>
<tp1:hr>116</tp1:hr>
</tp1:TrackPointExtension>
</extensions>
</trkpt>
<trkpt lat="43.9458620" lon="12.7194990">
<ele>18.8850000</ele>
<time>2010-05-14T11:38:12Z</time>
<extensions>
<tp1:TrackPointExtension>
<tp1:hr>118</tp1:hr>
</tp1:TrackPointExtension>
</extensions>
</trkpt>
<trkpt lat="43.9465250" lon="12.7200800">
<ele>18.3390000</ele>
<time>2010-05-14T11:38:21Z</time>
<extensions>
<tp1:TrackPointExtension>
<tp1:hr>119</tp1:hr>
</tp1:TrackPointExtension>
</extensions>
</trkpt>
<trkpt lat="43.9470670" lon="12.7206630">
<ele>17.8180000</ele>
<time>2010-05-14T11:38:29Z</time>
<extensions>
<tp1:TrackPointExtension>
<tp1:hr>119</tp1:hr>
</tp1:TrackPointExtension>
</extensions>
</trkpt>
<trkpt lat="43.9474450" lon="12.7210680">
<ele>17.5510000</ele>
<time>2010-05-14T11:38:35Z</time>
<extensions>
<tp1:TrackPointExtension>
<tp1:hr>116</tp1:hr>
</tp1:TrackPointExtension>
</extensions>
</trkpt>
<trkpt lat="43.9476000" lon="12.7213910">
<ele>17.4580000</ele>
<time>2010-05-14T11:38:39Z</time>
<extensions>
<tp1:TrackPointExtension>
<tp1:hr>113</tp1:hr>
</tp1:TrackPointExtension>
</extensions>
</trkpt>
<trkpt lat="43.9477050" lon="12.7215570">
<ele>17.6250000</ele>
<time>2010-05-14T11:38:43Z</time>
<extensions>
<tp1:TrackPointExtension>
<tp1:hr>112</tp1:hr>
</tp1:TrackPointExtension>
</extensions>
</trkpt>
<trkpt lat="43.9479700" lon="12.7217180">
<ele>17.2020000</ele>
<time>2010-05-14T11:38:47Z</time>
<extensions>
<tp1:TrackPointExtension>
<tp1:hr>112</tp1:hr>
</tp1:TrackPointExtension>
</extensions>
</trkpt>
<trkpt lat="43.9480760" lon="12.7218400">
<ele>17.0540000</ele>
<time>2010-05-14T11:38:49Z</time>
<extensions>
<tp1:TrackPointExtension>
<tp1:hr>112</tp1:hr>
</tp1:TrackPointExtension>
</extensions>
</trkpt>
<trkpt lat="43.9485790" lon="12.7224270">
<ele>16.3450000</ele>
<time>2010-05-14T11:38:59Z</time>
<extensions>
<tp1:TrackPointExtension>
<tp1:hr>107</tp1:hr>
</tp1:TrackPointExtension>
</extensions>
</trkpt>
<trkpt lat="43.9489800" lon="12.7229000">
<ele>16.2500000</ele>
<time>2010-05-14T11:39:08Z</time>
<extensions>
<tp1:TrackPointExtension>
<tp1:hr>103</tp1:hr>
</tp1:TrackPointExtension>
</extensions>
</trkpt>
<trkpt lat="43.9493720" lon="12.7233520">
<ele>15.7950000</ele>
<time>2010-05-14T11:39:17Z</time>
<extensions>
<tp1:TrackPointExtension>
<tp1:hr>103</tp1:hr>
</tp1:TrackPointExtension>
</extensions>
</trkpt>
<trkpt lat="43.9497360" lon="12.7237780">
<ele>15.9330000</ele>
<time>2010-05-14T11:39:25Z</time>
<extensions>
<tp1:TrackPointExtension>
<tp1:hr>101</tp1:hr>
</tp1:TrackPointExtension>
</extensions>
</trkpt>
<trkpt lat="43.9499480" lon="12.7240130">
<ele>15.9360000</ele>
<time>2010-05-14T11:39:33Z</time>
<extensions>
<tp1:TrackPointExtension>
<tp1:hr>98</tp1:hr>
</tp1:TrackPointExtension>
</extensions>
</trkpt>
<trkpt lat="43.9501200" lon="12.7243570">
<ele>15.2030000</ele>
<time>2010-05-14T11:39:38Z</time>
<extensions>
<tp1:TrackPointExtension>
<tp1:hr>98</tp1:hr>
</tp1:TrackPointExtension>
</extensions>
</trkpt>
<trkpt lat="43.9502690" lon="12.7246350">
<ele>15.4670000</ele>
<time>2010-05-14T11:39:42Z</time>
<extensions>
<tp1:TrackPointExtension>
<tp1:hr>100</tp1:hr>
</tp1:TrackPointExtension>
</extensions>
</trkpt>
<trkpt lat="43.9502910" lon="12.7246570">
<ele>15.3220000</ele>
<time>2010-05-14T11:39:44Z</time>
<extensions>
<tp1:TrackPointExtension>
<tp1:hr>101</tp1:hr>
</tp1:TrackPointExtension>
</extensions>
</trkpt>
<trkpt lat="43.9504200" lon="12.7246140">
<ele>15.6110000</ele>
<time>2010-05-14T11:39:46Z</time>
<extensions>
<tp1:TrackPointExtension>
<tp1:hr>103</tp1:hr>
</tp1:TrackPointExtension>
</extensions>
</trkpt>
<trkpt lat="43.9507780" lon="12.7246550">
<ele>16.6250000</ele>
<time>2010-05-14T11:39:51Z</time>
<extensions>
<tp1:TrackPointExtension>
<tp1:hr>108</tp1:hr>
</tp1:TrackPointExtension>
</extensions>
</trkpt>
<trkpt lat="43.9512630" lon="12.7248400">
<ele>17.6790000</ele>
<time>2010-05-14T11:39:59Z</time>
<extensions>
<tp1:TrackPointExtension>
<tp1:hr>110</tp1:hr>
</tp1:TrackPointExtension>
</extensions>
</trkpt>
<trkpt lat="43.9518700" lon="12.7250760">
<ele>19.4510000</ele>
<time>2010-05-14T11:40:09Z</time>
<extensions>
<tp1:TrackPointExtension>
<tp1:hr>115</tp1:hr>
</tp1:TrackPointExtension>
</extensions>
</trkpt>
<trkpt lat="43.9525040" lon="12.7252920">
<ele>20.3570000</ele>
<time>2010-05-14T11:40:19Z</time>
<extensions>
<tp1:TrackPointExtension>
<tp1:hr>118</tp1:hr>
</tp1:TrackPointExtension>
</extensions>
</trkpt>
<trkpt lat="43.9529780" lon="12.7254930">
<ele>19.4170000</ele>
<time>2010-05-14T11:40:26Z</time>
<extensions>
<tp1:TrackPointExtension>
<tp1:hr>121</tp1:hr>
</tp1:TrackPointExtension>
</extensions>
</trkpt>
<trkpt lat="43.9534330" lon="12.7257100">
<ele>18.4080000</ele>
<time>2010-05-14T11:40:32Z</time>
<extensions>
<tp1:TrackPointExtension>
<tp1:hr>121</tp1:hr>
</tp1:TrackPointExtension>
</extensions>
</trkpt>
<trkpt lat="43.9540360" lon="12.7261330">
<ele>17.7120000</ele>
<time>2010-05-14T11:40:40Z</time>
<extensions>
<tp1:TrackPointExtension>
<tp1:hr>122</tp1:hr>
</tp1:TrackPointExtension>
</extensions>
</trkpt>
<trkpt lat="43.9547620" lon="12.7266880">
<ele>17.6020000</ele>
<time>2010-05-14T11:40:50Z</time>
<extensions>
<tp1:TrackPointExtension>
<tp1:hr>122</tp1:hr>
</tp1:TrackPointExtension>
</extensions>
</trkpt>
<trkpt lat="43.9552240" lon="12.7271430">
<ele>16.9970000</ele>
<time>2010-05-14T11:40:57Z</time>
<extensions>
<tp1:TrackPointExtension>
<tp1:hr>122</tp1:hr>
</tp1:TrackPointExtension>
</extensions>
</trkpt>
<trkpt lat="43.9558330" lon="12.7278740">
<ele>16.9110000</ele>
<time>2010-05-14T11:41:07Z</time>
<extensions>
<tp1:TrackPointExtension>
<tp1:hr>121</tp1:hr>
</tp1:TrackPointExtension>
</extensions>
</trkpt>
<trkpt lat="43.9562830" lon="12.7285090">
<ele>14.9500000</ele>
<time>2010-05-14T11:41:15Z</time>
<extensions>
<tp1:TrackPointExtension>
<tp1:hr>119</tp1:hr>
</tp1:TrackPointExtension>
</extensions>
</trkpt>
<trkpt lat="43.9566800" lon="12.7291480">
<ele>11.9250000</ele>
<time>2010-05-14T11:41:22Z</time>
<extensions>
<tp1:TrackPointExtension>
<tp1:hr>114</tp1:hr>
</tp1:TrackPointExtension>
</extensions>
</trkpt>
<trkpt lat="43.9569040" lon="12.7295440">
<ele>10.7860000</ele>
<time>2010-05-14T11:41:27Z</time>
<extensions>
<tp1:TrackPointExtension>
<tp1:hr>110</tp1:hr>
</tp1:TrackPointExtension>
</extensions>
</trkpt>
<trkpt lat="43.9570120" lon="12.7297340">
<ele>9.9020000</ele>
<time>2010-05-14T11:41:30Z</time>
<extensions>
<tp1:TrackPointExtension>
<tp1:hr>108</tp1:hr>
</tp1:TrackPointExtension>
</extensions>
</trkpt>
<trkpt lat="43.9571060" lon="12.7299190">
<ele>9.7010000</ele>
<time>2010-05-14T11:41:33Z</time>
<extensions>
<tp1:TrackPointExtension>
<tp1:hr>104</tp1:hr>
</tp1:TrackPointExtension>
</extensions>
</trkpt>
<trkpt lat="43.9571150" lon="12.7299360">
<ele>9.8930000</ele>
<time>2010-05-14T11:41:37Z</time>
<extensions>
<tp1:TrackPointExtension>
<tp1:hr>102</tp1:hr>
</tp1:TrackPointExtension>
</extensions>
</trkpt>
<trkpt lat="43.9572930" lon="12.7303360">
<ele>9.6800000</ele>
<time>2010-05-14T11:41:44Z</time>
<extensions>
<tp1:TrackPointExtension>
<tp1:hr>102</tp1:hr>
</tp1:TrackPointExtension>
</extensions>
</trkpt>
<trkpt lat="43.9573750" lon="12.7305000">
<ele>9.5480000</ele>
<time>2010-05-14T11:41:50Z</time>
<extensions>
<tp1:TrackPointExtension>
<tp1:hr>101</tp1:hr>
</tp1:TrackPointExtension>
</extensions>
</trkpt>
<trkpt lat="43.9574460" lon="12.7306420">
<ele>9.3920000</ele>
<time>2010-05-14T11:41:54Z</time>
<extensions>
<tp1:TrackPointExtension>
<tp1:hr>102</tp1:hr>
</tp1:TrackPointExtension>
</extensions>
</trkpt>
<trkpt lat="43.9574580" lon="12.7306650">
<ele>9.1250000</ele>
<time>2010-05-14T11:41:58Z</time>
<extensions>
<tp1:TrackPointExtension>
<tp1:hr>102</tp1:hr>
</tp1:TrackPointExtension>
</extensions>
</trkpt>
<trkpt lat="43.9574980" lon="12.7309200">
<ele>9.2900000</ele>
<time>2010-05-14T11:42:01Z</time>
<extensions>
<tp1:TrackPointExtension>
<tp1:hr>103</tp1:hr>
</tp1:TrackPointExtension>
</extensions>
</trkpt>
<trkpt lat="43.9576230" lon="12.7310240">
<ele>9.0410000</ele>
<time>2010-05-14T11:42:03Z</time>
<extensions>
<tp1:TrackPointExtension>
<tp1:hr>103</tp1:hr>
</tp1:TrackPointExtension>
</extensions>
</trkpt>
<trkpt lat="43.9577460" lon="12.7312500">
<ele>8.4070000</ele>
<time>2010-05-14T11:42:07Z</time>
<extensions>
<tp1:TrackPointExtension>
<tp1:hr>103</tp1:hr>
</tp1:TrackPointExtension>
</extensions>
</trkpt>
<trkpt lat="43.9579150" lon="12.7315700">
<ele>8.3700000</ele>
<time>2010-05-14T11:42:12Z</time>
<extensions>
<tp1:TrackPointExtension>
<tp1:hr>104</tp1:hr>
</tp1:TrackPointExtension>
</extensions>
</trkpt>
<trkpt lat="43.9579540" lon="12.7316370">
<ele>8.3700000</ele>
<time>2010-05-14T11:42:13Z</time>
<extensions>
<tp1:TrackPointExtension>
<tp1:hr>104</tp1:hr>
</tp1:TrackPointExtension>
</extensions>
</trkpt>
<trkpt lat="43.9582660" lon="12.7321790">
<ele>7.8910000</ele>
<time>2010-05-14T11:42:21Z</time>
<extensions>
<tp1:TrackPointExtension>
<tp1:hr>103</tp1:hr>
</tp1:TrackPointExtension>
</extensions>
</trkpt>
<trkpt lat="43.9584620" lon="12.7324840">
<ele>7.6050000</ele>
<time>2010-05-14T11:42:26Z</time>
<extensions>
<tp1:TrackPointExtension>
<tp1:hr>103</tp1:hr>
</tp1:TrackPointExtension>
</extensions>
</trkpt>
<trkpt lat="43.9587730" lon="12.7328760">
<ele>7.2600000</ele>
<time>2010-05-14T11:42:33Z</time>
<extensions>
<tp1:TrackPointExtension>
<tp1:hr>103</tp1:hr>
</tp1:TrackPointExtension>
</extensions>
</trkpt>
<trkpt lat="43.9589470" lon="12.7330150">
<ele>7.1070000</ele>
<time>2010-05-14T11:42:36Z</time>
<extensions>
<tp1:TrackPointExtension>
<tp1:hr>103</tp1:hr>
</tp1:TrackPointExtension>
</extensions>
</trkpt>
<trkpt lat="43.9592920" lon="12.7332910">
<ele>6.5170000</ele>
<time>2010-05-14T11:42:42Z</time>
<extensions>
<tp1:TrackPointExtension>
<tp1:hr>103</tp1:hr>
</tp1:TrackPointExtension>
</extensions>
</trkpt>
<trkpt lat="43.9594180" lon="12.7333850">
<ele>6.7750000</ele>
<time>2010-05-14T11:42:44Z</time>
<extensions>
<tp1:TrackPointExtension>
<tp1:hr>104</tp1:hr>
</tp1:TrackPointExtension>
</extensions>
</trkpt>
<trkpt lat="43.9595910" lon="12.7334810">
<ele>6.2510000</ele>
<time>2010-05-14T11:42:47Z</time>
<extensions>
<tp1:TrackPointExtension>
<tp1:hr>104</tp1:hr>
</tp1:TrackPointExtension>
</extensions>
</trkpt>
<trkpt lat="43.9600300" lon="12.7336680">
<ele>5.8980000</ele>
<time>2010-05-14T11:42:54Z</time>
<extensions>
<tp1:TrackPointExtension>
<tp1:hr>104</tp1:hr>
</tp1:TrackPointExtension>
</extensions>
</trkpt>
<trkpt lat="43.9604390" lon="12.7338000">
<ele>5.6200000</ele>
<time>2010-05-14T11:43:00Z</time>
<extensions>
<tp1:TrackPointExtension>
<tp1:hr>103</tp1:hr>
</tp1:TrackPointExtension>
</extensions>
</trkpt>
<trkpt lat="43.9608360" lon="12.7338940">
<ele>5.3630000</ele>
<time>2010-05-14T11:43:07Z</time>
<extensions>
<tp1:TrackPointExtension>
<tp1:hr>102</tp1:hr>
</tp1:TrackPointExtension>
</extensions>
</trkpt>
<trkpt lat="43.9611400" lon="12.7339220">
<ele>5.4150000</ele>
<time>2010-05-14T11:43:12Z</time>
<extensions>
<tp1:TrackPointExtension>
<tp1:hr>102</tp1:hr>
</tp1:TrackPointExtension>
</extensions>
</trkpt>
<trkpt lat="43.9616230" lon="12.7339660">
<ele>4.1120000</ele>
<time>2010-05-14T11:43:19Z</time>
<extensions>
<tp1:TrackPointExtension>
<tp1:hr>104</tp1:hr>
</tp1:TrackPointExtension>
</extensions>
</trkpt>
<trkpt lat="43.9618260" lon="12.7339890">
<ele>3.8750000</ele>
<time>2010-05-14T11:43:22Z</time>
<extensions>
<tp1:TrackPointExtension>
<tp1:hr>103</tp1:hr>
</tp1:TrackPointExtension>
</extensions>
</trkpt>
<trkpt lat="43.9622590" lon="12.7340400">
<ele>2.6120000</ele>
<time>2010-05-14T11:43:28Z</time>
<extensions>
<tp1:TrackPointExtension>
<tp1:hr>102</tp1:hr>
</tp1:TrackPointExtension>
</extensions>
</trkpt>
<trkpt lat="43.9625280" lon="12.7340660">
<ele>1.9440000</ele>
<time>2010-05-14T11:43:32Z</time>
<extensions>
<tp1:TrackPointExtension>
<tp1:hr>100</tp1:hr>
</tp1:TrackPointExtension>
</extensions>
</trkpt>
<trkpt lat="43.9628400" lon="12.7340900">
<ele>1.2200000</ele>
<time>2010-05-14T11:43:38Z</time>
<extensions>
<tp1:TrackPointExtension>
<tp1:hr>98</tp1:hr>
</tp1:TrackPointExtension>
</extensions>
</trkpt>
<trkpt lat="43.9629390" lon="12.7340980">
<ele>0.7860000</ele>
<time>2010-05-14T11:43:40Z</time>
<extensions>
<tp1:TrackPointExtension>
<tp1:hr>98</tp1:hr>
</tp1:TrackPointExtension>
</extensions>
</trkpt>
<trkpt lat="43.9630800" lon="12.7341410">
<ele>0.1870000</ele>
<time>2010-05-14T11:43:44Z</time>
<extensions>
<tp1:TrackPointExtension>
<tp1:hr>96</tp1:hr>
</tp1:TrackPointExtension>
</extensions>
</trkpt>
<trkpt lat="43.9632520" lon="12.7345280">
<ele>-0.7590000</ele>
<time>2010-05-14T11:43:49Z</time>
<extensions>
<tp1:TrackPointExtension>
<tp1:hr>96</tp1:hr>
</tp1:TrackPointExtension>
</extensions>
</trkpt>
<trkpt lat="43.9632690" lon="12.7352990">
<ele>-2.2050000</ele>
<time>2010-05-14T11:43:57Z</time>
<extensions>
<tp1:TrackPointExtension>
<tp1:hr>98</tp1:hr>
</tp1:TrackPointExtension>
</extensions>
</trkpt>
<trkpt lat="43.9632410" lon="12.7357690">
<ele>-2.3110000</ele>
<time>2010-05-14T11:44:02Z</time>
<extensions>
<tp1:TrackPointExtension>
<tp1:hr>99</tp1:hr>
</tp1:TrackPointExtension>
</extensions>
</trkpt>
<trkpt lat="43.9630760" lon="12.7363620">
<ele>-2.8560000</ele>
<time>2010-05-14T11:44:09Z</time>
<extensions>
<tp1:TrackPointExtension>
<tp1:hr>101</tp1:hr>
</tp1:TrackPointExtension>
</extensions>
</trkpt>
<trkpt lat="43.9630720" lon="12.7368160">
<ele>-2.3180000</ele>
<time>2010-05-14T11:44:14Z</time>
<extensions>
<tp1:TrackPointExtension>
<tp1:hr>102</tp1:hr>
</tp1:TrackPointExtension>
</extensions>
</trkpt>
<trkpt lat="43.9632520" lon="12.7372740">
<ele>-2.8240000</ele>
<time>2010-05-14T11:44:20Z</time>
<extensions>
<tp1:TrackPointExtension>
<tp1:hr>102</tp1:hr>
</tp1:TrackPointExtension>
</extensions>
</trkpt>
<trkpt lat="43.9633960" lon="12.7376000">
<ele>-3.0360000</ele>
<time>2010-05-14T11:44:24Z</time>
<extensions>
<tp1:TrackPointExtension>
<tp1:hr>102</tp1:hr>
</tp1:TrackPointExtension>
</extensions>
</trkpt>
<trkpt lat="43.9634070" lon="12.7377780">
<ele>-2.5560000</ele>
<time>2010-05-14T11:44:26Z</time>
<extensions>
<tp1:TrackPointExtension>
<tp1:hr>102</tp1:hr>
</tp1:TrackPointExtension>
</extensions>
</trkpt>
<trkpt lat="43.9633800" lon="12.7379610">
<ele>-2.4270000</ele>
<time>2010-05-14T11:44:32Z</time>
<extensions>
<tp1:TrackPointExtension>
<tp1:hr>102</tp1:hr>
</tp1:TrackPointExtension>
</extensions>
</trkpt>
<trkpt lat="43.9633800" lon="12.7379610">
<ele>-2.3730000</ele>
<time>2010-05-14T11:44:33Z</time>
<extensions>
<tp1:TrackPointExtension>
<tp1:hr>102</tp1:hr>
</tp1:TrackPointExtension>
</extensions>
</trkpt>
<trkpt lat="43.9633800" lon="12.7382610">
<ele>-2.3980000</ele>
<time>2010-05-14T11:44:35Z</time>
<extensions>
<tp1:TrackPointExtension>
<tp1:hr>102</tp1:hr>
</tp1:TrackPointExtension>
</extensions>
</trkpt>
<trkpt lat="43.9633800" lon="12.7382610">
<ele>-2.2460000</ele>
<time>2010-05-14T11:44:40Z</time>
<extensions>
<tp1:TrackPointExtension>
<tp1:hr>102</tp1:hr>
</tp1:TrackPointExtension>
</extensions>
</trkpt>
<trkpt lat="43.9634900" lon="12.7385280">
<ele>-2.4200000</ele>
<time>2010-05-14T11:44:44Z</time>
<extensions>
<tp1:TrackPointExtension>
<tp1:hr>101</tp1:hr>
</tp1:TrackPointExtension>
</extensions>
</trkpt>
<trkpt lat="43.9634900" lon="12.7385280">
<ele>-2.4200000</ele>
<time>2010-05-14T11:44:45Z</time>
<extensions>
<tp1:TrackPointExtension>
<tp1:hr>101</tp1:hr>
</tp1:TrackPointExtension>
</extensions>
</trkpt>
<trkpt lat="43.9638000" lon="12.7384700">
<ele>-2.6350000</ele>
<time>2010-05-14T11:44:50Z</time>
<extensions>
<tp1:TrackPointExtension>
<tp1:hr>102</tp1:hr>
</tp1:TrackPointExtension>
</extensions>
</trkpt>
<trkpt lat="43.9640770" lon="12.7384280">
<ele>-2.5000000</ele>
<time>2010-05-14T11:44:55Z</time>
<extensions>
<tp1:TrackPointExtension>
<tp1:hr>103</tp1:hr>
</tp1:TrackPointExtension>
</extensions>
</trkpt>
<trkpt lat="43.9643970" lon="12.7383960">
<ele>-2.4240000</ele>
<time>2010-05-14T11:45:01Z</time>
<extensions>
<tp1:TrackPointExtension>
<tp1:hr>101</tp1:hr>
</tp1:TrackPointExtension>
</extensions>
</trkpt>
<trkpt lat="43.9644480" lon="12.7383910">
<ele>-2.5350000</ele>
<time>2010-05-14T11:45:02Z</time>
<extensions>
<tp1:TrackPointExtension>
<tp1:hr>101</tp1:hr>
</tp1:TrackPointExtension>
</extensions>
</trkpt>
<trkpt lat="43.9647500" lon="12.7383570">
<ele>-2.3790000</ele>
<time>2010-05-14T11:45:08Z</time>
<extensions>
<tp1:TrackPointExtension>
<tp1:hr>99</tp1:hr>
</tp1:TrackPointExtension>
</extensions>
</trkpt>
<trkpt lat="43.9648990" lon="12.7383470">
<ele>-2.4960000</ele>
<time>2010-05-14T11:45:12Z</time>
<extensions>
<tp1:TrackPointExtension>
<tp1:hr>99</tp1:hr>
</tp1:TrackPointExtension>
</extensions>
</trkpt>
<trkpt lat="43.9648990" lon="12.7385930">
<ele>-2.8340000</ele>
<time>2010-05-14T11:45:14Z</time>
<extensions>
<tp1:TrackPointExtension>
<tp1:hr>99</tp1:hr>
</tp1:TrackPointExtension>
</extensions>
</trkpt>
<trkpt lat="43.9649330" lon="12.7387340">
<ele>-3.1960000</ele>
<time>2010-05-14T11:45:16Z</time>
<extensions>
<tp1:TrackPointExtension>
<tp1:hr>99</tp1:hr>
</tp1:TrackPointExtension>
</extensions>
</trkpt>
<trkpt lat="43.9650290" lon="12.7391340">
<ele>-3.2540000</ele>
<time>2010-05-14T11:45:21Z</time>
<extensions>
<tp1:TrackPointExtension>
<tp1:hr>100</tp1:hr>
</tp1:TrackPointExtension>
</extensions>
</trkpt>
<trkpt lat="43.9651400" lon="12.7395920">
<ele>-3.1520000</ele>
<time>2010-05-14T11:45:28Z</time>
<extensions>
<tp1:TrackPointExtension>
<tp1:hr>101</tp1:hr>
</tp1:TrackPointExtension>
</extensions>
</trkpt>
<trkpt lat="43.9652630" lon="12.7400850">
<ele>-3.1740000</ele>
<time>2010-05-14T11:45:34Z</time>
<extensions>
<tp1:TrackPointExtension>
<tp1:hr>102</tp1:hr>
</tp1:TrackPointExtension>
</extensions>
</trkpt>
<trkpt lat="43.9653190" lon="12.7403090">
<ele>-3.1250000</ele>
<time>2010-05-14T11:45:37Z</time>
<extensions>
<tp1:TrackPointExtension>
<tp1:hr>103</tp1:hr>
</tp1:TrackPointExtension>
</extensions>
</trkpt>
<trkpt lat="43.9654150" lon="12.7407150">
<ele>-3.2470000</ele>
<time>2010-05-14T11:45:43Z</time>
<extensions>
<tp1:TrackPointExtension>
<tp1:hr>102</tp1:hr>
</tp1:TrackPointExtension>
</extensions>
</trkpt>
<trkpt lat="43.9654660" lon="12.7409410">
<ele>-3.3410000</ele>
<time>2010-05-14T11:45:46Z</time>
<extensions>
<tp1:TrackPointExtension>
<tp1:hr>102</tp1:hr>
</tp1:TrackPointExtension>
</extensions>
</trkpt>
<trkpt lat="43.9654940" lon="12.7410650">
<ele>-3.2460000</ele>
<time>2010-05-14T11:45:48Z</time>
<extensions>
<tp1:TrackPointExtension>
<tp1:hr>101</tp1:hr>
</tp1:TrackPointExtension>
</extensions>
</trkpt>
<trkpt lat="43.9655410" lon="12.7412700">
<ele>-3.0060000</ele>
<time>2010-05-14T11:45:52Z</time>
<extensions>
<tp1:TrackPointExtension>
<tp1:hr>99</tp1:hr>
</tp1:TrackPointExtension>
</extensions>
</trkpt>
<trkpt lat="43.9657070" lon="12.7412890">
<ele>-3.1110000</ele>
<time>2010-05-14T11:45:55Z</time>
<extensions>
<tp1:TrackPointExtension>
<tp1:hr>99</tp1:hr>
</tp1:TrackPointExtension>
</extensions>
</trkpt>
<trkpt lat="43.9659280" lon="12.7411200">
<ele>-3.0550000</ele>
<time>2010-05-14T11:46:01Z</time>
<extensions>
<tp1:TrackPointExtension>
<tp1:hr>100</tp1:hr>
</tp1:TrackPointExtension>
</extensions>
</trkpt>
<trkpt lat="43.9661630" lon="12.7409400">
<ele>-2.6660000</ele>
<time>2010-05-14T11:46:07Z</time>
<extensions>
<tp1:TrackPointExtension>
<tp1:hr>101</tp1:hr>
</tp1:TrackPointExtension>
</extensions>
</trkpt>
<trkpt lat="43.9662970" lon="12.7408380">
<ele>-2.7310000</ele>
<time>2010-05-14T11:46:11Z</time>
<extensions>
<tp1:TrackPointExtension>
<tp1:hr>99</tp1:hr>
</tp1:TrackPointExtension>
</extensions>
</trkpt>
<trkpt lat="43.9663070" lon="12.7408320">
<ele>-2.7420000</ele>
<time>2010-05-14T11:46:12Z</time>
<extensions>
<tp1:TrackPointExtension>
<tp1:hr>99</tp1:hr>
</tp1:TrackPointExtension>
</extensions>
</trkpt>
<trkpt lat="43.9662990" lon="12.7408360">
<ele>-2.6030000</ele>
<time>2010-05-14T11:46:19Z</time>
<extensions>
<tp1:TrackPointExtension>
<tp1:hr>97</tp1:hr>
</tp1:TrackPointExtension>
</extensions>
</trkpt>
<trkpt lat="43.9665130" lon="12.7407080">
<ele>-2.5240000</ele>
<time>2010-05-14T11:46:24Z</time>
<extensions>
<tp1:TrackPointExtension>
<tp1:hr>96</tp1:hr>
</tp1:TrackPointExtension>
</extensions>
</trkpt>
<trkpt lat="43.9664310" lon="12.7403450">
<ele>-2.3970000</ele>
<time>2010-05-14T11:46:27Z</time>
<extensions>
<tp1:TrackPointExtension>
<tp1:hr>96</tp1:hr>
</tp1:TrackPointExtension>
</extensions>
</trkpt>
</trkseg>
<trkseg>
<trkpt lat="43.9664270" lon="12.7403210">
<ele>-2.1860000</ele>
<time>2010-05-14T11:47:17Z</time>
<extensions>
<tp1:TrackPointExtension>
<tp1:hr>87</tp1:hr>
</tp1:TrackPointExtension>
</extensions>
</trkpt>
<trkpt lat="43.9664270" lon="12.7403210">
<ele>-2.1440000</ele>
<time>2010-05-14T11:47:19Z</time>
<extensions>
<tp1:TrackPointExtension>
<tp1:hr>87</tp1:hr>
</tp1:TrackPointExtension>
</extensions>
</trkpt>
<trkpt lat="43.9662990" lon="12.7408360">
<ele>-2.1930000</ele>
<time>2010-05-14T11:47:24Z</time>
<extensions>
<tp1:TrackPointExtension>
<tp1:hr>87</tp1:hr>
</tp1:TrackPointExtension>
</extensions>
</trkpt>
<trkpt lat="43.9663920" lon="12.7401230">
<ele>-1.9860000</ele>
<time>2010-05-14T11:47:28Z</time>
<extensions>
<tp1:TrackPointExtension>
<tp1:hr>87</tp1:hr>
</tp1:TrackPointExtension>
</extensions>
</trkpt>
</trkseg>
<trkseg>
<trkpt lat="43.9661380" lon="12.7402230">
<ele>-1.6590000</ele>
<time>2010-05-14T11:49:02Z</time>
<extensions>
<tp1:TrackPointExtension>
<tp1:hr>80</tp1:hr>
</tp1:TrackPointExtension>
</extensions>
</trkpt>
</trkseg>
<trkseg>
<trkpt lat="43.9661300" lon="12.7401910">
<ele>-0.2720000</ele>
<time>2010-05-14T11:49:08Z</time>
<extensions>
<tp1:TrackPointExtension>
<tp1:hr>81</tp1:hr>
</tp1:TrackPointExtension>
</extensions>
</trkpt>
</trkseg>
<trkseg>
<trkpt lat="43.9661170" lon="12.7401840">
<ele>-0.4500000</ele>
<time>2010-05-14T11:49:15Z</time>
<extensions>
<tp1:TrackPointExtension>
<tp1:hr>81</tp1:hr>
</tp1:TrackPointExtension>
</extensions>
</trkpt>
</trkseg>
<trkseg>
<trkpt lat="43.9654020" lon="12.7406610">
<ele>4.5120000</ele>
<time>2010-05-14T11:50:05Z</time>
<extensions>
<tp1:TrackPointExtension>
<tp1:hr>97</tp1:hr>
</tp1:TrackPointExtension>
</extensions>
</trkpt>
<trkpt lat="43.9653540" lon="12.7404500">
<ele>4.4380000</ele>
<time>2010-05-14T11:50:13Z</time>
<extensions>
<tp1:TrackPointExtension>
<tp1:hr>94</tp1:hr>
</tp1:TrackPointExtension>
</extensions>
</trkpt>
<trkpt lat="43.9653540" lon="12.7404500">
<ele>4.3750000</ele>
<time>2010-05-14T11:50:18Z</time>
<extensions>
<tp1:TrackPointExtension>
<tp1:hr>93</tp1:hr>
</tp1:TrackPointExtension>
</extensions>
</trkpt>
<trkpt lat="43.9653540" lon="12.7404500">
<ele>4.3350000</ele>
<time>2010-05-14T11:50:21Z</time>
<extensions>
<tp1:TrackPointExtension>
<tp1:hr>92</tp1:hr>
</tp1:TrackPointExtension>
</extensions>
</trkpt>
<trkpt lat="43.9654000" lon="12.7406530">
<ele>4.4950000</ele>
<time>2010-05-14T11:50:24Z</time>
<extensions>
<tp1:TrackPointExtension>
<tp1:hr>91</tp1:hr>
</tp1:TrackPointExtension>
</extensions>
</trkpt>
</trkseg>
<trkseg>
<trkpt lat="43.9654000" lon="12.7406530">
<ele>4.2510000</ele>
<time>2010-05-14T11:50:32Z</time>
<extensions>
<tp1:TrackPointExtension>
<tp1:hr>91</tp1:hr>
</tp1:TrackPointExtension>
</extensions>
</trkpt>
<trkpt lat="43.9654000" lon="12.7406530">
<ele>4.2480000</ele>
<time>2010-05-14T11:50:34Z</time>
<extensions>
<tp1:TrackPointExtension>
<tp1:hr>90</tp1:hr>
</tp1:TrackPointExtension>
</extensions>
</trkpt>
</trkseg>
<trkseg>
<trkpt lat="43.9654000" lon="12.7406530">
<ele>4.3030000</ele>
<time>2010-05-14T11:50:38Z</time>
<extensions>
<tp1:TrackPointExtension>
<tp1:hr>89</tp1:hr>
</tp1:TrackPointExtension>
</extensions>
</trkpt>
<trkpt lat="43.9661830" lon="12.7409250">
<ele>4.5010000</ele>
<time>2010-05-14T11:50:45Z</time>
<extensions>
<tp1:TrackPointExtension>
<tp1:hr>89</tp1:hr>
</tp1:TrackPointExtension>
</extensions>
</trkpt>
<trkpt lat="43.9662140" lon="12.7409010">
<ele>4.4720000</ele>
<time>2010-05-14T11:50:46Z</time>
<extensions>
<tp1:TrackPointExtension>
<tp1:hr>88</tp1:hr>
</tp1:TrackPointExtension>
</extensions>
</trkpt>
<trkpt lat="43.9662990" lon="12.7408360">
<ele>4.3460000</ele>
<time>2010-05-14T11:50:52Z</time>
<extensions>
<tp1:TrackPointExtension>
<tp1:hr>87</tp1:hr>
</tp1:TrackPointExtension>
</extensions>
</trkpt>
<trkpt lat="43.9662990" lon="12.7408360">
<ele>4.3430000</ele>
<time>2010-05-14T11:50:54Z</time>
<extensions>
<tp1:TrackPointExtension>
<tp1:hr>86</tp1:hr>
</tp1:TrackPointExtension>
</extensions>
</trkpt>
</trkseg>
<trkseg>
<trkpt lat="43.9662990" lon="12.7408360">
<ele>4.4350000</ele>
<time>2010-05-14T11:51:03Z</time>
<extensions>
<tp1:TrackPointExtension>
<tp1:hr>84</tp1:hr>
</tp1:TrackPointExtension>
</extensions>
</trkpt>
<trkpt lat="43.9662990" lon="12.7408360">
<ele>4.5240000</ele>
<time>2010-05-14T11:51:10Z</time>
<extensions>
<tp1:TrackPointExtension>
<tp1:hr>83</tp1:hr>
</tp1:TrackPointExtension>
</extensions>
</trkpt>
<trkpt lat="43.9662990" lon="12.7408360">
<ele>4.4490000</ele>
<time>2010-05-14T11:51:14Z</time>
<extensions>
<tp1:TrackPointExtension>
<tp1:hr>83</tp1:hr>
</tp1:TrackPointExtension>
</extensions>
</trkpt>
<trkpt lat="43.9662990" lon="12.7408360">
<ele>4.4610000</ele>
<time>2010-05-14T11:51:17Z</time>
<extensions>
<tp1:TrackPointExtension>
<tp1:hr>83</tp1:hr>
</tp1:TrackPointExtension>
</extensions>
</trkpt>
</trkseg>
<trkseg>
<trkpt lat="43.9662990" lon="12.7408360">
<ele>4.5490000</ele>
<time>2010-05-14T11:51:22Z</time>
<extensions>
<tp1:TrackPointExtension>
<tp1:hr>82</tp1:hr>
</tp1:TrackPointExtension>
</extensions>
</trkpt>
<trkpt lat="43.9662990" lon="12.7408360">
<ele>4.4990000</ele>
<time>2010-05-14T11:51:23Z</time>
<extensions>
<tp1:TrackPointExtension>
<tp1:hr>81</tp1:hr>
</tp1:TrackPointExtension>
</extensions>
</trkpt>
</trkseg>
<trkseg>
<trkpt lat="43.9662990" lon="12.7408360">
<ele>4.5920000</ele>
<time>2010-05-14T11:51:29Z</time>
<extensions>
<tp1:TrackPointExtension>
<tp1:hr>81</tp1:hr>
</tp1:TrackPointExtension>
</extensions>
</trkpt>
<trkpt lat="43.9662590" lon="12.7408670">
<ele>4.5820000</ele>
<time>2010-05-14T11:51:38Z</time>
<extensions>
<tp1:TrackPointExtension>
<tp1:hr>81</tp1:hr>
</tp1:TrackPointExtension>
</extensions>
</trkpt>
<trkpt lat="43.9662480" lon="12.7408750">
<ele>4.7050000</ele>
<time>2010-05-14T11:51:42Z</time>
<extensions>
<tp1:TrackPointExtension>
<tp1:hr>79</tp1:hr>
</tp1:TrackPointExtension>
</extensions>
</trkpt>
<trkpt lat="43.9662480" lon="12.7408750">
<ele>4.5040000</ele>
<time>2010-05-14T11:51:43Z</time>
<extensions>
<tp1:TrackPointExtension>
<tp1:hr>79</tp1:hr>
</tp1:TrackPointExtension>
</extensions>
</trkpt>
</trkseg>
<trkseg>
<trkpt lat="43.9662580" lon="12.7408670">
<ele>4.8440000</ele>
<time>2010-05-14T11:51:51Z</time>
<extensions>
<tp1:TrackPointExtension>
<tp1:hr>78</tp1:hr>
</tp1:TrackPointExtension>
</extensions>
</trkpt>
<trkpt lat="43.9662580" lon="12.7408670">
<ele>4.7110000</ele>
<time>2010-05-14T11:51:54Z</time>
<extensions>
<tp1:TrackPointExtension>
<tp1:hr>78</tp1:hr>
</tp1:TrackPointExtension>
</extensions>
</trkpt>
<trkpt lat="43.9662350" lon="12.7408850">
<ele>4.7080000</ele>
<time>2010-05-14T11:51:57Z</time>
<extensions>
<tp1:TrackPointExtension>
<tp1:hr>77</tp1:hr>
</tp1:TrackPointExtension>
</extensions>
</trkpt>
</trkseg>
<trkseg>
<trkpt lat="43.9662350" lon="12.7408850">
<ele>4.3340000</ele>
<time>2010-05-14T11:52:05Z</time>
<extensions>
<tp1:TrackPointExtension>
<tp1:hr>77</tp1:hr>
</tp1:TrackPointExtension>
</extensions>
</trkpt>
</trkseg>
<trkseg>
<trkpt lat="43.9662350" lon="12.7408850">
<ele>4.4250000</ele>
<time>2010-05-14T11:52:27Z</time>
<extensions>
<tp1:TrackPointExtension>
<tp1:hr>75</tp1:hr>
</tp1:TrackPointExtension>
</extensions>
</trkpt>
</trkseg>
<trkseg>
<trkpt lat="43.9661650" lon="12.7409380">
<ele>4.4320000</ele>
<time>2010-05-14T11:52:39Z</time>
<extensions>
<tp1:TrackPointExtension>
<tp1:hr>76</tp1:hr>
</tp1:TrackPointExtension>
</extensions>
</trkpt>
<trkpt lat="43.9661650" lon="12.7409380">
<ele>4.3180000</ele>
<time>2010-05-14T11:52:40Z</time>
<extensions>
<tp1:TrackPointExtension>
<tp1:hr>76</tp1:hr>
</tp1:TrackPointExtension>
</extensions>
</trkpt>
</trkseg>
<trkseg>
<trkpt lat="43.9661650" lon="12.7409380">
<ele>4.1950000</ele>
<time>2010-05-14T11:53:03Z</time>
<extensions>
<tp1:TrackPointExtension>
<tp1:hr>75</tp1:hr>
</tp1:TrackPointExtension>
</extensions>
</trkpt>
</trkseg>
<trkseg>
<trkpt lat="43.9661650" lon="12.7409380">
<ele>4.0460000</ele>
<time>2010-05-14T11:53:11Z</time>
<extensions>
<tp1:TrackPointExtension>
<tp1:hr>75</tp1:hr>
</tp1:TrackPointExtension>
</extensions>
</trkpt>
</trkseg>
<trkseg>
<trkpt lat="43.9661650" lon="12.7409380">
<ele>4.1590000</ele>
<time>2010-05-14T11:53:16Z</time>
<extensions>
<tp1:TrackPointExtension>
<tp1:hr>75</tp1:hr>
</tp1:TrackPointExtension>
</extensions>
</trkpt>
</trkseg>
<trkseg>
<trkpt lat="43.9661650" lon="12.7409380">
<ele>4.0500000</ele>
<time>2010-05-14T11:53:29Z</time>
<extensions>
<tp1:TrackPointExtension>
<tp1:hr>77</tp1:hr>
</tp1:TrackPointExtension>
</extensions>
</trkpt>
</trkseg>
<trkseg>
<trkpt lat="43.9661650" lon="12.7409380">
<ele>3.9880000</ele>
<time>2010-05-14T11:53:55Z</time>
<extensions>
<tp1:TrackPointExtension>
<tp1:hr>76</tp1:hr>
</tp1:TrackPointExtension>
</extensions>
</trkpt>
</trkseg>
<trkseg>
<trkpt lat="43.9662990" lon="12.7408360">
<ele>4.0820000</ele>
<time>2010-05-14T11:54:06Z</time>
<extensions>
<tp1:TrackPointExtension>
<tp1:hr>76</tp1:hr>
</tp1:TrackPointExtension>
</extensions>
</trkpt>
</trkseg>
<trkseg>
<trkpt lat="43.9662990" lon="12.7408360">
<ele>4.2040000</ele>
<time>2010-05-14T11:54:09Z</time>
<extensions>
<tp1:TrackPointExtension>
<tp1:hr>77</tp1:hr>
</tp1:TrackPointExtension>
</extensions>
</trkpt>
<trkpt lat="43.9665130" lon="12.7407080">
<ele>3.9230000</ele>
<time>2010-05-14T11:54:15Z</time>
<extensions>
<tp1:TrackPointExtension>
<tp1:hr>78</tp1:hr>
</tp1:TrackPointExtension>
</extensions>
</trkpt>
<trkpt lat="43.9665130" lon="12.7407080">
<ele>4.1290000</ele>
<time>2010-05-14T11:54:19Z</time>
<extensions>
<tp1:TrackPointExtension>
<tp1:hr>79</tp1:hr>
</tp1:TrackPointExtension>
</extensions>
</trkpt>
</trkseg>
<trkseg>
<trkpt lat="43.9665130" lon="12.7407080">
<ele>3.9740000</ele>
<time>2010-05-14T11:54:26Z</time>
<extensions>
<tp1:TrackPointExtension>
<tp1:hr>79</tp1:hr>
</tp1:TrackPointExtension>
</extensions>
</trkpt>
<trkpt lat="43.9664850" lon="12.7407240">
<ele>3.8490000</ele>
<time>2010-05-14T11:54:29Z</time>
<extensions>
<tp1:TrackPointExtension>
<tp1:hr>79</tp1:hr>
</tp1:TrackPointExtension>
</extensions>
</trkpt>
<trkpt lat="43.9664020" lon="12.7407740">
<ele>3.7120000</ele>
<time>2010-05-14T11:54:35Z</time>
<extensions>
<tp1:TrackPointExtension>
<tp1:hr>79</tp1:hr>
</tp1:TrackPointExtension>
</extensions>
</trkpt>
</trkseg>
<trkseg>
<trkpt lat="43.9662990" lon="12.7408360">
<ele>3.9660000</ele>
<time>2010-05-14T11:54:44Z</time>
<extensions>
<tp1:TrackPointExtension>
<tp1:hr>78</tp1:hr>
</tp1:TrackPointExtension>
</extensions>
</trkpt>
<trkpt lat="43.9662990" lon="12.7408360">
<ele>4.0050000</ele>
<time>2010-05-14T11:54:46Z</time>
<extensions>
<tp1:TrackPointExtension>
<tp1:hr>78</tp1:hr>
</tp1:TrackPointExtension>
</extensions>
</trkpt>
<trkpt lat="43.9662590" lon="12.7408670">
<ele>4.0020000</ele>
<time>2010-05-14T11:54:48Z</time>
<extensions>
<tp1:TrackPointExtension>
<tp1:hr>78</tp1:hr>
</tp1:TrackPointExtension>
</extensions>
</trkpt>
<trkpt lat="43.9662260" lon="12.7408920">
<ele>4.0020000</ele>
<time>2010-05-14T11:54:50Z</time>
<extensions>
<tp1:TrackPointExtension>
<tp1:hr>78</tp1:hr>
</tp1:TrackPointExtension>
</extensions>
</trkpt>
<trkpt lat="43.9662710" lon="12.7408580">
<ele>4.0070000</ele>
<time>2010-05-14T11:54:54Z</time>
<extensions>
<tp1:TrackPointExtension>
<tp1:hr>78</tp1:hr>
</tp1:TrackPointExtension>
</extensions>
</trkpt>
</trkseg>
<trkseg>
<trkpt lat="43.9662710" lon="12.7408580">
<ele>4.2780000</ele>
<time>2010-05-14T11:54:58Z</time>
<extensions>
<tp1:TrackPointExtension>
<tp1:hr>78</tp1:hr>
</tp1:TrackPointExtension>
</extensions>
</trkpt>
</trkseg>
<trkseg>
<trkpt lat="43.9662190" lon="12.7408970">
<ele>3.8780000</ele>
<time>2010-05-14T11:55:02Z</time>
<extensions>
<tp1:TrackPointExtension>
<tp1:hr>79</tp1:hr>
</tp1:TrackPointExtension>
</extensions>
</trkpt>
<trkpt lat="43.9662190" lon="12.7408970">
<ele>3.9760000</ele>
<time>2010-05-14T11:55:05Z</time>
<extensions>
<tp1:TrackPointExtension>
<tp1:hr>79</tp1:hr>
</tp1:TrackPointExtension>
</extensions>
</trkpt>
<trkpt lat="43.9661660" lon="12.7409370">
<ele>4.0900000</ele>
<time>2010-05-14T11:55:09Z</time>
<extensions>
<tp1:TrackPointExtension>
<tp1:hr>81</tp1:hr>
</tp1:TrackPointExtension>
</extensions>
</trkpt>
</trkseg>
<trkseg>
<trkpt lat="43.9661660" lon="12.7409370">
<ele>4.3490000</ele>
<time>2010-05-14T11:55:18Z</time>
<extensions>
<tp1:TrackPointExtension>
<tp1:hr>81</tp1:hr>
</tp1:TrackPointExtension>
</extensions>
</trkpt>
<trkpt lat="43.9661660" lon="12.7409370">
<ele>4.4490000</ele>
<time>2010-05-14T11:55:20Z</time>
<extensions>
<tp1:TrackPointExtension>
<tp1:hr>81</tp1:hr>
</tp1:TrackPointExtension>
</extensions>
</trkpt>
</trkseg>
<trkseg>
<trkpt lat="43.9660990" lon="12.7409890">
<ele>4.2280000</ele>
<time>2010-05-14T11:55:33Z</time>
</trkpt>
</trkseg>
<trkseg>
<trkpt lat="43.9660990" lon="12.7409890">
<ele>4.4320000</ele>
<time>2010-05-14T11:55:38Z</time>
</trkpt>
</trkseg>
<trkseg>
<trkpt lat="43.9660990" lon="12.7409890">
<ele>4.4550000</ele>
<time>2010-05-14T11:55:44Z</time>
</trkpt>
<trkpt lat="43.9662520" lon="12.7408720">
<ele>4.2990000</ele>
<time>2010-05-14T11:55:51Z</time>
</trkpt>
<trkpt lat="43.9662720" lon="12.7408570">
<ele>4.4050000</ele>
<time>2010-05-14T11:55:56Z</time>
</trkpt>
</trkseg>
<trkseg>
<trkpt lat="43.9662720" lon="12.7408570">
<ele>4.1020000</ele>
<time>2010-05-14T11:56:03Z</time>
</trkpt>
</trkseg>
<trkseg>
<trkpt lat="43.9662770" lon="12.7408530">
<ele>4.4450000</ele>
<time>2010-05-14T11:56:11Z</time>
</trkpt>
</trkseg>
<trkseg>
<trkpt lat="43.9662770" lon="12.7408530">
<ele>4.1340000</ele>
<time>2010-05-14T11:56:18Z</time>
</trkpt>
<trkpt lat="43.9662770" lon="12.7408530">
<ele>4.0510000</ele>
<time>2010-05-14T11:56:19Z</time>
</trkpt>
</trkseg>
<trkseg>
<trkpt lat="43.9662330" lon="12.7408870">
<ele>4.0280000</ele>
<time>2010-05-14T11:56:30Z</time>
</trkpt>
<trkpt lat="43.9662460" lon="12.7408760">
<ele>3.9480000</ele>
<time>2010-05-14T11:56:34Z</time>
</trkpt>
</trkseg>
<trkseg>
<trkpt lat="43.9662600" lon="12.7408660">
<ele>3.4820000</ele>
<time>2010-05-14T11:56:48Z</time>
</trkpt>
<trkpt lat="43.9662600" lon="12.7408660">
<ele>3.7170000</ele>
<time>2010-05-14T11:56:51Z</time>
</trkpt>
</trkseg>
<trkseg>
<trkpt lat="43.9662600" lon="12.7408660">
<ele>3.8220000</ele>
<time>2010-05-14T11:56:56Z</time>
</trkpt>
</trkseg>
<trkseg>
<trkpt lat="43.9662110" lon="12.7409030">
<ele>3.8270000</ele>
<time>2010-05-14T11:57:11Z</time>
</trkpt>
<trkpt lat="43.9662110" lon="12.7409030">
<ele>3.8510000</ele>
<time>2010-05-14T11:57:16Z</time>
</trkpt>
<trkpt lat="43.9662110" lon="12.7409030">
<ele>3.8210000</ele>
<time>2010-05-14T11:57:17Z</time>
</trkpt>
</trkseg>
<trkseg>
<trkpt lat="43.9662110" lon="12.7409030">
<ele>3.7360000</ele>
<time>2010-05-14T11:57:25Z</time>
</trkpt>
</trkseg>
<trkseg>
<trkpt lat="43.9662110" lon="12.7409030">
<ele>3.6540000</ele>
<time>2010-05-14T11:57:33Z</time>
</trkpt>
<trkpt lat="43.9662110" lon="12.7409030">
<ele>3.7870000</ele>
<time>2010-05-14T11:57:34Z</time>
</trkpt>
</trkseg>
<trkseg>
<trkpt lat="43.9662190" lon="12.7408980">
<ele>3.7530000</ele>
<time>2010-05-14T11:57:41Z</time>
</trkpt>
<trkpt lat="43.9661910" lon="12.7409190">
<ele>3.8850000</ele>
<time>2010-05-14T11:57:47Z</time>
</trkpt>
<trkpt lat="43.9661910" lon="12.7409190">
<ele>3.8500000</ele>
<time>2010-05-14T11:57:48Z</time>
</trkpt>
</trkseg>
<trkseg>
<trkpt lat="43.9662230" lon="12.7408940">
<ele>3.6510000</ele>
<time>2010-05-14T11:57:55Z</time>
</trkpt>
<trkpt lat="43.9662230" lon="12.7408940">
<ele>3.6120000</ele>
<time>2010-05-14T11:57:56Z</time>
</trkpt>
</trkseg>
<trkseg>
<trkpt lat="43.9662230" lon="12.7408940">
<ele>3.7490000</ele>
<time>2010-05-14T11:58:03Z</time>
</trkpt>
</trkseg>
<trkseg>
<trkpt lat="43.9662170" lon="12.7408990">
<ele>3.6000000</ele>
<time>2010-05-14T11:58:12Z</time>
</trkpt>
</trkseg>
<trkseg>
<trkpt lat="43.9662170" lon="12.7408990">
<ele>3.6410000</ele>
<time>2010-05-14T11:58:16Z</time>
</trkpt>
</trkseg>
<trkseg>
<trkpt lat="43.9662170" lon="12.7408990">
<ele>3.4830000</ele>
<time>2010-05-14T11:58:27Z</time>
</trkpt>
</trkseg>
<trkseg>
<trkpt lat="43.9662170" lon="12.7408990">
<ele>3.8700000</ele>
<time>2010-05-14T11:58:34Z</time>
</trkpt>
</trkseg>
<trkseg>
<trkpt lat="43.9662500" lon="12.7408740">
<ele>3.9340000</ele>
<time>2010-05-14T11:58:45Z</time>
</trkpt>
<trkpt lat="43.9662990" lon="12.7408360">
<ele>3.9440000</ele>
<time>2010-05-14T11:58:51Z</time>
</trkpt>
<trkpt lat="43.9663090" lon="12.7408300">
<ele>3.9220000</ele>
<time>2010-05-14T11:58:55Z</time>
</trkpt>
</trkseg>
<trkseg>
<trkpt lat="43.9663090" lon="12.7408300">
<ele>3.8380000</ele>
<time>2010-05-14T11:58:58Z</time>
</trkpt>
<trkpt lat="43.9663090" lon="12.7408300">
<ele>3.6350000</ele>
<time>2010-05-14T11:59:02Z</time>
</trkpt>
</trkseg>
<trkseg>
<trkpt lat="43.9662410" lon="12.7408800">
<ele>3.8360000</ele>
<time>2010-05-14T11:59:09Z</time>
</trkpt>
<trkpt lat="43.9662410" lon="12.7408800">
<ele>3.8430000</ele>
<time>2010-05-14T11:59:10Z</time>
</trkpt>
<trkpt lat="43.9661700" lon="12.7409340">
<ele>3.6760000</ele>
<time>2010-05-14T11:59:15Z</time>
</trkpt>
<trkpt lat="43.9661370" lon="12.7409600">
<ele>3.9510000</ele>
<time>2010-05-14T11:59:20Z</time>
</trkpt>
<trkpt lat="43.9661780" lon="12.7409290">
<ele>3.8770000</ele>
<time>2010-05-14T11:59:25Z</time>
</trkpt>
</trkseg>
<trkseg>
<trkpt lat="43.9661510" lon="12.7409500">
<ele>3.8300000</ele>
<time>2010-05-14T11:59:29Z</time>
</trkpt>
</trkseg>
<trkseg>
<trkpt lat="43.9661510" lon="12.7409500">
<ele>4.1140000</ele>
<time>2010-05-14T11:59:37Z</time>
</trkpt>
</trkseg>
<trkseg>
<trkpt lat="43.9663370" lon="12.7408130">
<ele>3.9170000</ele>
<time>2010-05-14T11:59:43Z</time>
</trkpt>
<trkpt lat="43.9663370" lon="12.7408130">
<ele>3.9030000</ele>
<time>2010-05-14T11:59:48Z</time>
</trkpt>
</trkseg>
<trkseg>
<trkpt lat="43.9662990" lon="12.7408360">
<ele>4.0810000</ele>
<time>2010-05-14T11:59:55Z</time>
</trkpt>
</trkseg>
<trkseg>
<trkpt lat="43.9662990" lon="12.7408360">
<ele>4.0020000</ele>
<time>2010-05-14T12:00:00Z</time>
</trkpt>
</trkseg>
<trkseg>
<trkpt lat="43.9662310" lon="12.7408880">
<ele>4.0270000</ele>
<time>2010-05-14T12:00:05Z</time>
</trkpt>
</trkseg>
<trkseg>
<trkpt lat="43.9662310" lon="12.7408880">
<ele>4.0120000</ele>
<time>2010-05-14T12:00:11Z</time>
</trkpt>
</trkseg>
<trkseg>
<trkpt lat="43.9662310" lon="12.7408880">
<ele>3.9650000</ele>
<time>2010-05-14T12:00:16Z</time>
</trkpt>
<trkpt lat="43.9661090" lon="12.7409810">
<ele>4.1390000</ele>
<time>2010-05-14T12:00:20Z</time>
</trkpt>
<trkpt lat="43.9660790" lon="12.7410040">
<ele>4.2680000</ele>
<time>2010-05-14T12:00:26Z</time>
</trkpt>
<trkpt lat="43.9660790" lon="12.7410040">
<ele>4.2550000</ele>
<time>2010-05-14T12:00:33Z</time>
</trkpt>
</trkseg>
<trkseg>
<trkpt lat="43.9661880" lon="12.7409210">
<ele>4.3850000</ele>
<time>2010-05-14T12:00:40Z</time>
</trkpt>
</trkseg>
<trkseg>
<trkpt lat="43.9662070" lon="12.7409060">
<ele>4.3050000</ele>
<time>2010-05-14T12:00:46Z</time>
</trkpt>
<trkpt lat="43.9662070" lon="12.7409060">
<ele>4.2430000</ele>
<time>2010-05-14T12:00:52Z</time>
</trkpt>
<trkpt lat="43.9662900" lon="12.7408430">
<ele>4.2150000</ele>
<time>2010-05-14T12:00:59Z</time>
</trkpt>
<trkpt lat="43.9662900" lon="12.7408430">
<ele>4.2810000</ele>
<time>2010-05-14T12:01:03Z</time>
</trkpt>
<trkpt lat="43.9662990" lon="12.7408360">
<ele>4.2320000</ele>
<time>2010-05-14T12:01:08Z</time>
</trkpt>
</trkseg>
<trkseg>
<trkpt lat="43.9662990" lon="12.7408360">
<ele>3.8830000</ele>
<time>2010-05-14T12:01:15Z</time>
</trkpt>
</trkseg>
<trkseg>
<trkpt lat="43.9662990" lon="12.7408360">
<ele>3.8470000</ele>
<time>2010-05-14T12:01:25Z</time>
</trkpt>
<trkpt lat="43.9662990" lon="12.7408360">
<ele>3.7680000</ele>
<time>2010-05-14T12:01:28Z</time>
</trkpt>
</trkseg>
<trkseg>
<trkpt lat="43.9665130" lon="12.7407080">
<ele>3.6220000</ele>
<time>2010-05-14T12:01:43Z</time>
</trkpt>
<trkpt lat="43.9665130" lon="12.7407080">
<ele>3.6380000</ele>
<time>2010-05-14T12:01:46Z</time>
</trkpt>
</trkseg>
<trkseg>
<trkpt lat="43.9658900" lon="12.7411490">
<ele>3.7180000</ele>
<time>2010-05-14T12:01:56Z</time>
</trkpt>
<trkpt lat="43.9658960" lon="12.7411440">
<ele>3.7050000</ele>
<time>2010-05-14T12:02:00Z</time>
</trkpt>
</trkseg>
<trkseg>
<trkpt lat="43.9660580" lon="12.7410200">
<ele>3.6480000</ele>
<time>2010-05-14T12:02:04Z</time>
</trkpt>
<trkpt lat="43.9661990" lon="12.7409120">
<ele>3.5080000</ele>
<time>2010-05-14T12:02:10Z</time>
</trkpt>
<trkpt lat="43.9662060" lon="12.7409070">
<ele>3.2820000</ele>
<time>2010-05-14T12:02:13Z</time>
</trkpt>
</trkseg>
<trkseg>
<trkpt lat="43.9662080" lon="12.7409060">
<ele>3.5530000</ele>
<time>2010-05-14T12:02:21Z</time>
</trkpt>
</trkseg>
<trkseg>
<trkpt lat="43.9662080" lon="12.7409060">
<ele>3.2620000</ele>
<time>2010-05-14T12:02:28Z</time>
</trkpt>
<trkpt lat="43.9662080" lon="12.7409060">
<ele>3.4160000</ele>
<time>2010-05-14T12:02:29Z</time>
</trkpt>
</trkseg>
<trkseg>
<trkpt lat="43.9662080" lon="12.7409060">
<ele>3.1660000</ele>
<time>2010-05-14T12:02:39Z</time>
</trkpt>
</trkseg>
<trkseg>
<trkpt lat="43.9662080" lon="12.7409060">
<ele>3.0510000</ele>
<time>2010-05-14T12:02:45Z</time>
</trkpt>
</trkseg>
<trkseg>
<trkpt lat="43.9662080" lon="12.7409060">
<ele>3.0850000</ele>
<time>2010-05-14T12:02:56Z</time>
</trkpt>
</trkseg>
<trkseg>
<trkpt lat="43.9662080" lon="12.7409060">
<ele>3.0160000</ele>
<time>2010-05-14T12:03:06Z</time>
</trkpt>
<trkpt lat="43.9662990" lon="12.7408360">
<ele>2.9940000</ele>
<time>2010-05-14T12:03:09Z</time>
</trkpt>
</trkseg>
<trkseg>
<trkpt lat="43.9662990" lon="12.7408360">
<ele>2.6420000</ele>
<time>2010-05-14T12:03:20Z</time>
</trkpt>
</trkseg>
<trkseg>
<trkpt lat="43.9662990" lon="12.7408360">
<ele>2.7270000</ele>
<time>2010-05-14T12:03:27Z</time>
</trkpt>
</trkseg>
<trkseg>
<trkpt lat="43.9662990" lon="12.7408360">
<ele>2.7730000</ele>
<time>2010-05-14T12:03:30Z</time>
</trkpt>
<trkpt lat="43.9662150" lon="12.7409010">
<ele>2.8990000</ele>
<time>2010-05-14T12:03:35Z</time>
</trkpt>
</trkseg>
<trkseg>
<trkpt lat="43.9662920" lon="12.7408410">
<ele>2.6230000</ele>
<time>2010-05-14T12:03:46Z</time>
</trkpt>
<trkpt lat="43.9662990" lon="12.7408360">
<ele>2.8890000</ele>
<time>2010-05-14T12:03:52Z</time>
</trkpt>
</trkseg>
<trkseg>
<trkpt lat="43.9662990" lon="12.7408360">
<ele>3.0500000</ele>
<time>2010-05-14T12:04:11Z</time>
</trkpt>
<trkpt lat="43.9662990" lon="12.7408360">
<ele>3.0350000</ele>
<time>2010-05-14T12:04:12Z</time>
</trkpt>
</trkseg>
<trkseg>
<trkpt lat="43.9662990" lon="12.7408360">
<ele>2.7630000</ele>
<time>2010-05-14T12:04:20Z</time>
</trkpt>
</trkseg>
<trkseg>
<trkpt lat="43.9662990" lon="12.7408360">
<ele>3.0420000</ele>
<time>2010-05-14T12:04:31Z</time>
</trkpt>
<trkpt lat="43.9662990" lon="12.7408360">
<ele>2.9070000</ele>
<time>2010-05-14T12:04:33Z</time>
</trkpt>
</trkseg>
<trkseg>
<trkpt lat="43.9662990" lon="12.7408360">
<ele>2.7640000</ele>
<time>2010-05-14T12:04:43Z</time>
</trkpt>
</trkseg>
<trkseg>
<trkpt lat="43.9662990" lon="12.7408360">
<ele>2.5950000</ele>
<time>2010-05-14T12:04:50Z</time>
</trkpt>
<trkpt lat="43.9662990" lon="12.7408360">
<ele>2.6940000</ele>
<time>2010-05-14T12:04:56Z</time>
</trkpt>
<trkpt lat="43.9662990" lon="12.7408360">
<ele>2.7250000</ele>
<time>2010-05-14T12:04:58Z</time>
</trkpt>
</trkseg>
<trkseg>
<trkpt lat="43.9662990" lon="12.7408360">
<ele>2.7120000</ele>
<time>2010-05-14T12:05:14Z</time>
</trkpt>
</trkseg>
<trkseg>
<trkpt lat="43.9662990" lon="12.7408360">
<ele>2.1020000</ele>
<time>2010-05-14T12:05:30Z</time>
</trkpt>
</trkseg>
<trkseg>
<trkpt lat="43.9662990" lon="12.7408360">
<ele>2.3570000</ele>
<time>2010-05-14T12:05:40Z</time>
</trkpt>
</trkseg>
<trkseg>
<trkpt lat="43.9663190" lon="12.7408240">
<ele>2.3100000</ele>
<time>2010-05-14T12:05:57Z</time>
</trkpt>
<trkpt lat="43.9663190" lon="12.7408240">
<ele>2.2850000</ele>
<time>2010-05-14T12:06:01Z</time>
</trkpt>
</trkseg>
<trkseg>
<trkpt lat="43.9663190" lon="12.7408240">
<ele>2.3070000</ele>
<time>2010-05-14T12:06:06Z</time>
</trkpt>
</trkseg>
<trkseg>
<trkpt lat="43.9662240" lon="12.7408930">
<ele>2.2540000</ele>
<time>2010-05-14T12:06:15Z</time>
</trkpt>
<trkpt lat="43.9662240" lon="12.7408930">
<ele>2.3700000</ele>
<time>2010-05-14T12:06:17Z</time>
</trkpt>
</trkseg>
<trkseg>
<trkpt lat="43.9662670" lon="12.7408610">
<ele>2.3700000</ele>
<time>2010-05-14T12:06:24Z</time>
</trkpt>
<trkpt lat="43.9662760" lon="12.7408540">
<ele>2.2450000</ele>
<time>2010-05-14T12:06:28Z</time>
</trkpt>
<trkpt lat="43.9661850" lon="12.7409230">
<ele>2.2010000</ele>
<time>2010-05-14T12:06:35Z</time>
</trkpt>
<trkpt lat="43.9660520" lon="12.7410250">
<ele>2.4360000</ele>
<time>2010-05-14T12:06:42Z</time>
</trkpt>
<trkpt lat="43.9660520" lon="12.7410250">
<ele>2.1500000</ele>
<time>2010-05-14T12:06:51Z</time>
</trkpt>
<trkpt lat="43.9662990" lon="12.7408360">
<ele>2.1700000</ele>
<time>2010-05-14T12:06:55Z</time>
</trkpt>
</trkseg>
<trkseg>
<trkpt lat="43.9662990" lon="12.7408360">
<ele>2.0280000</ele>
<time>2010-05-14T12:07:23Z</time>
</trkpt>
</trkseg>
<trkseg>
<trkpt lat="43.9664370" lon="12.7403810">
<ele>2.1460000</ele>
<time>2010-05-14T12:07:57Z</time>
</trkpt>
</trkseg>
<trkseg>
<trkpt lat="43.9664370" lon="12.7403810">
<ele>2.4020000</ele>
<time>2010-05-14T12:08:04Z</time>
</trkpt>
</trkseg>
</trk>
</gpx>
